<?xml version="1.0" encoding="UTF-8" standalone="no" ?>
<gpx xmlns="http://www.topografix.com/GPX/1/1" xmlns:xsi="http://www.w3.org/2001/XMLSchema-instance" xsi:schemaLocation="http://www.topografix.com/GPX/1/1 http://www.topografix.com/GPX/1/1/gpx.xsd" version="1.1" creator="VisuGPX - https://www.visugpx.com">
  <metadata>
    <name>Rando 42kms Plv 2016</name>
    <desc><![CDATA[Sortie vln du 09 octobre 2016
randonnée vtt de pierrefontaine les varans]]></desc>
  </metadata>
  <trk>
    <name><![CDATA[Cycling 10/9/16 8:44 am]]></name>
    <trkseg>
      <trkpt lat="47.21461" lon="6.5337">
        <ele>696</ele>
        <time>2016-10-09T08:44:34Z</time>
      </trkpt>
      <trkpt lat="47.21452" lon="6.53368">
        <ele>697</ele>
        <time>2016-10-09T08:44:52Z</time>
      </trkpt>
      <trkpt lat="47.21442" lon="6.53371">
        <ele>697</ele>
        <time>2016-10-09T08:44:56Z</time>
      </trkpt>
      <trkpt lat="47.2143" lon="6.53374">
        <ele>697</ele>
        <time>2016-10-09T08:45:00Z</time>
      </trkpt>
      <trkpt lat="47.2142" lon="6.53377">
        <ele>697</ele>
        <time>2016-10-09T08:45:04Z</time>
      </trkpt>
      <trkpt lat="47.21408" lon="6.53378">
        <ele>698</ele>
        <time>2016-10-09T08:45:08Z</time>
      </trkpt>
      <trkpt lat="47.21398" lon="6.53376">
        <ele>698</ele>
        <time>2016-10-09T08:45:12Z</time>
      </trkpt>
      <trkpt lat="47.21388" lon="6.53372">
        <ele>698</ele>
        <time>2016-10-09T08:45:16Z</time>
      </trkpt>
      <trkpt lat="47.21377" lon="6.53367">
        <ele>699</ele>
        <time>2016-10-09T08:45:20Z</time>
      </trkpt>
      <trkpt lat="47.21367" lon="6.53363">
        <ele>699</ele>
        <time>2016-10-09T08:45:24Z</time>
      </trkpt>
      <trkpt lat="47.21355" lon="6.53363">
        <ele>699</ele>
        <time>2016-10-09T08:45:28Z</time>
      </trkpt>
      <trkpt lat="47.21343" lon="6.5337">
        <ele>699</ele>
        <time>2016-10-09T08:45:32Z</time>
      </trkpt>
      <trkpt lat="47.21331" lon="6.53375">
        <ele>701</ele>
        <time>2016-10-09T08:45:36Z</time>
      </trkpt>
      <trkpt lat="47.2132" lon="6.53372">
        <ele>702</ele>
        <time>2016-10-09T08:45:40Z</time>
      </trkpt>
      <trkpt lat="47.21309" lon="6.53365">
        <ele>702</ele>
        <time>2016-10-09T08:45:44Z</time>
      </trkpt>
      <trkpt lat="47.21298" lon="6.53356">
        <ele>702</ele>
        <time>2016-10-09T08:45:48Z</time>
      </trkpt>
      <trkpt lat="47.21287" lon="6.53349">
        <ele>703</ele>
        <time>2016-10-09T08:45:52Z</time>
      </trkpt>
      <trkpt lat="47.21276" lon="6.53342">
        <ele>703</ele>
        <time>2016-10-09T08:45:56Z</time>
      </trkpt>
      <trkpt lat="47.21264" lon="6.53339">
        <ele>704</ele>
        <time>2016-10-09T08:46:00Z</time>
      </trkpt>
      <trkpt lat="47.21253" lon="6.53333">
        <ele>706</ele>
        <time>2016-10-09T08:46:04Z</time>
      </trkpt>
      <trkpt lat="47.21249" lon="6.53314">
        <ele>706</ele>
        <time>2016-10-09T08:46:08Z</time>
      </trkpt>
      <trkpt lat="47.21245" lon="6.53294">
        <ele>706</ele>
        <time>2016-10-09T08:46:12Z</time>
      </trkpt>
      <trkpt lat="47.21241" lon="6.53274">
        <ele>706</ele>
        <time>2016-10-09T08:46:16Z</time>
      </trkpt>
      <trkpt lat="47.21236" lon="6.53255">
        <ele>705</ele>
        <time>2016-10-09T08:46:20Z</time>
      </trkpt>
      <trkpt lat="47.21233" lon="6.53235">
        <ele>705</ele>
        <time>2016-10-09T08:46:24Z</time>
      </trkpt>
      <trkpt lat="47.2123" lon="6.53214">
        <ele>706</ele>
        <time>2016-10-09T08:46:28Z</time>
      </trkpt>
      <trkpt lat="47.21227" lon="6.53191">
        <ele>706</ele>
        <time>2016-10-09T08:46:32Z</time>
      </trkpt>
      <trkpt lat="47.21225" lon="6.53178">
        <ele>706</ele>
        <time>2016-10-09T08:46:34Z</time>
      </trkpt>
      <trkpt lat="47.21222" lon="6.53163">
        <ele>705</ele>
        <time>2016-10-09T08:46:36Z</time>
      </trkpt>
      <trkpt lat="47.21218" lon="6.53137">
        <ele>705</ele>
        <time>2016-10-09T08:46:40Z</time>
      </trkpt>
      <trkpt lat="47.21216" lon="6.5312">
        <ele>705</ele>
        <time>2016-10-09T08:46:42Z</time>
      </trkpt>
      <trkpt lat="47.21213" lon="6.53104">
        <ele>705</ele>
        <time>2016-10-09T08:46:44Z</time>
      </trkpt>
      <trkpt lat="47.2121" lon="6.53085">
        <ele>705</ele>
        <time>2016-10-09T08:46:46Z</time>
      </trkpt>
      <trkpt lat="47.21207" lon="6.53067">
        <ele>704</ele>
        <time>2016-10-09T08:46:48Z</time>
      </trkpt>
      <trkpt lat="47.21204" lon="6.53049">
        <ele>704</ele>
        <time>2016-10-09T08:46:50Z</time>
      </trkpt>
      <trkpt lat="47.21202" lon="6.53028">
        <ele>703</ele>
        <time>2016-10-09T08:46:52Z</time>
      </trkpt>
      <trkpt lat="47.21199" lon="6.53007">
        <ele>703</ele>
        <time>2016-10-09T08:46:54Z</time>
      </trkpt>
      <trkpt lat="47.21196" lon="6.52983">
        <ele>701</ele>
        <time>2016-10-09T08:46:56Z</time>
      </trkpt>
      <trkpt lat="47.21193" lon="6.52956">
        <ele>700</ele>
        <time>2016-10-09T08:46:58Z</time>
      </trkpt>
      <trkpt lat="47.2119" lon="6.52937">
        <ele>699</ele>
        <time>2016-10-09T08:47:00Z</time>
      </trkpt>
      <trkpt lat="47.21186" lon="6.52914">
        <ele>697</ele>
        <time>2016-10-09T08:47:02Z</time>
      </trkpt>
      <trkpt lat="47.21184" lon="6.52892">
        <ele>697</ele>
        <time>2016-10-09T08:47:04Z</time>
      </trkpt>
      <trkpt lat="47.21181" lon="6.5287">
        <ele>696</ele>
        <time>2016-10-09T08:47:06Z</time>
      </trkpt>
      <trkpt lat="47.21179" lon="6.52844">
        <ele>696</ele>
        <time>2016-10-09T08:47:08Z</time>
      </trkpt>
      <trkpt lat="47.21177" lon="6.52822">
        <ele>695</ele>
        <time>2016-10-09T08:47:10Z</time>
      </trkpt>
      <trkpt lat="47.21175" lon="6.52801">
        <ele>695</ele>
        <time>2016-10-09T08:47:12Z</time>
      </trkpt>
      <trkpt lat="47.21173" lon="6.52779">
        <ele>695</ele>
        <time>2016-10-09T08:47:14Z</time>
      </trkpt>
      <trkpt lat="47.21171" lon="6.52756">
        <ele>696</ele>
        <time>2016-10-09T08:47:16Z</time>
      </trkpt>
      <trkpt lat="47.21168" lon="6.52735">
        <ele>696</ele>
        <time>2016-10-09T08:47:18Z</time>
      </trkpt>
      <trkpt lat="47.21165" lon="6.52712">
        <ele>697</ele>
        <time>2016-10-09T08:47:20Z</time>
      </trkpt>
      <trkpt lat="47.21158" lon="6.52693">
        <ele>697</ele>
        <time>2016-10-09T08:47:22Z</time>
      </trkpt>
      <trkpt lat="47.2115" lon="6.52674">
        <ele>697</ele>
        <time>2016-10-09T08:47:24Z</time>
      </trkpt>
      <trkpt lat="47.21142" lon="6.52654">
        <ele>697</ele>
        <time>2016-10-09T08:47:26Z</time>
      </trkpt>
      <trkpt lat="47.21135" lon="6.52635">
        <ele>697</ele>
        <time>2016-10-09T08:47:28Z</time>
      </trkpt>
      <trkpt lat="47.21129" lon="6.52616">
        <ele>697</ele>
        <time>2016-10-09T08:47:30Z</time>
      </trkpt>
      <trkpt lat="47.21122" lon="6.52596">
        <ele>698</ele>
        <time>2016-10-09T08:47:32Z</time>
      </trkpt>
      <trkpt lat="47.21113" lon="6.52576">
        <ele>697</ele>
        <time>2016-10-09T08:47:34Z</time>
      </trkpt>
      <trkpt lat="47.21107" lon="6.52557">
        <ele>696</ele>
        <time>2016-10-09T08:47:36Z</time>
      </trkpt>
      <trkpt lat="47.21099" lon="6.52535">
        <ele>696</ele>
        <time>2016-10-09T08:47:38Z</time>
      </trkpt>
      <trkpt lat="47.21092" lon="6.52518">
        <ele>696</ele>
        <time>2016-10-09T08:47:40Z</time>
      </trkpt>
      <trkpt lat="47.21085" lon="6.525">
        <ele>696</ele>
        <time>2016-10-09T08:47:42Z</time>
      </trkpt>
      <trkpt lat="47.21078" lon="6.52481">
        <ele>696</ele>
        <time>2016-10-09T08:47:44Z</time>
      </trkpt>
      <trkpt lat="47.21072" lon="6.52462">
        <ele>695</ele>
        <time>2016-10-09T08:47:46Z</time>
      </trkpt>
      <trkpt lat="47.21067" lon="6.52445">
        <ele>695</ele>
        <time>2016-10-09T08:47:48Z</time>
      </trkpt>
      <trkpt lat="47.21062" lon="6.52427">
        <ele>694</ele>
        <time>2016-10-09T08:47:50Z</time>
      </trkpt>
      <trkpt lat="47.21057" lon="6.5241">
        <ele>694</ele>
        <time>2016-10-09T08:47:52Z</time>
      </trkpt>
      <trkpt lat="47.21052" lon="6.52392">
        <ele>695</ele>
        <time>2016-10-09T08:47:54Z</time>
      </trkpt>
      <trkpt lat="47.21046" lon="6.52373">
        <ele>695</ele>
        <time>2016-10-09T08:47:56Z</time>
      </trkpt>
      <trkpt lat="47.2104" lon="6.52354">
        <ele>695</ele>
        <time>2016-10-09T08:47:58Z</time>
      </trkpt>
      <trkpt lat="47.21034" lon="6.52334">
        <ele>696</ele>
        <time>2016-10-09T08:48:00Z</time>
      </trkpt>
      <trkpt lat="47.21028" lon="6.52314">
        <ele>695</ele>
        <time>2016-10-09T08:48:02Z</time>
      </trkpt>
      <trkpt lat="47.21022" lon="6.52294">
        <ele>695</ele>
        <time>2016-10-09T08:48:04Z</time>
      </trkpt>
      <trkpt lat="47.21016" lon="6.52273">
        <ele>695</ele>
        <time>2016-10-09T08:48:06Z</time>
      </trkpt>
      <trkpt lat="47.2101" lon="6.52253">
        <ele>695</ele>
        <time>2016-10-09T08:48:08Z</time>
      </trkpt>
      <trkpt lat="47.21007" lon="6.52234">
        <ele>694</ele>
        <time>2016-10-09T08:48:10Z</time>
      </trkpt>
      <trkpt lat="47.21003" lon="6.52213">
        <ele>694</ele>
        <time>2016-10-09T08:48:12Z</time>
      </trkpt>
      <trkpt lat="47.20998" lon="6.52193">
        <ele>694</ele>
        <time>2016-10-09T08:48:14Z</time>
      </trkpt>
      <trkpt lat="47.20994" lon="6.52172">
        <ele>694</ele>
        <time>2016-10-09T08:48:16Z</time>
      </trkpt>
      <trkpt lat="47.2099" lon="6.52149">
        <ele>693</ele>
        <time>2016-10-09T08:48:18Z</time>
      </trkpt>
      <trkpt lat="47.20988" lon="6.52129">
        <ele>693</ele>
        <time>2016-10-09T08:48:20Z</time>
      </trkpt>
      <trkpt lat="47.20983" lon="6.52106">
        <ele>693</ele>
        <time>2016-10-09T08:48:22Z</time>
      </trkpt>
      <trkpt lat="47.20981" lon="6.52083">
        <ele>693</ele>
        <time>2016-10-09T08:48:24Z</time>
      </trkpt>
      <trkpt lat="47.2098" lon="6.5206">
        <ele>693</ele>
        <time>2016-10-09T08:48:26Z</time>
      </trkpt>
      <trkpt lat="47.20976" lon="6.52041">
        <ele>693</ele>
        <time>2016-10-09T08:48:28Z</time>
      </trkpt>
      <trkpt lat="47.20971" lon="6.52022">
        <ele>693</ele>
        <time>2016-10-09T08:48:30Z</time>
      </trkpt>
      <trkpt lat="47.20969" lon="6.52003">
        <ele>693</ele>
        <time>2016-10-09T08:48:32Z</time>
      </trkpt>
      <trkpt lat="47.20966" lon="6.51982">
        <ele>694</ele>
        <time>2016-10-09T08:48:34Z</time>
      </trkpt>
      <trkpt lat="47.20962" lon="6.51962">
        <ele>694</ele>
        <time>2016-10-09T08:48:36Z</time>
      </trkpt>
      <trkpt lat="47.2096" lon="6.51939">
        <ele>694</ele>
        <time>2016-10-09T08:48:38Z</time>
      </trkpt>
      <trkpt lat="47.20956" lon="6.51917">
        <ele>693</ele>
        <time>2016-10-09T08:48:40Z</time>
      </trkpt>
      <trkpt lat="47.20952" lon="6.51896">
        <ele>692</ele>
        <time>2016-10-09T08:48:42Z</time>
      </trkpt>
      <trkpt lat="47.20951" lon="6.51876">
        <ele>692</ele>
        <time>2016-10-09T08:48:44Z</time>
      </trkpt>
      <trkpt lat="47.20954" lon="6.51858">
        <ele>692</ele>
        <time>2016-10-09T08:48:46Z</time>
      </trkpt>
      <trkpt lat="47.20954" lon="6.51844">
        <ele>692</ele>
        <time>2016-10-09T08:48:48Z</time>
      </trkpt>
      <trkpt lat="47.20952" lon="6.51827">
        <ele>691</ele>
        <time>2016-10-09T08:48:50Z</time>
      </trkpt>
      <trkpt lat="47.20954" lon="6.51806">
        <ele>691</ele>
        <time>2016-10-09T08:48:52Z</time>
      </trkpt>
      <trkpt lat="47.20956" lon="6.51783">
        <ele>691</ele>
        <time>2016-10-09T08:48:54Z</time>
      </trkpt>
      <trkpt lat="47.2096" lon="6.51759">
        <ele>691</ele>
        <time>2016-10-09T08:48:56Z</time>
      </trkpt>
      <trkpt lat="47.20966" lon="6.51736">
        <ele>692</ele>
        <time>2016-10-09T08:48:58Z</time>
      </trkpt>
      <trkpt lat="47.20982" lon="6.51716">
        <ele>693</ele>
        <time>2016-10-09T08:49:00Z</time>
      </trkpt>
      <trkpt lat="47.20994" lon="6.51699">
        <ele>694</ele>
        <time>2016-10-09T08:49:02Z</time>
      </trkpt>
      <trkpt lat="47.21005" lon="6.51683">
        <ele>694</ele>
        <time>2016-10-09T08:49:04Z</time>
      </trkpt>
      <trkpt lat="47.21017" lon="6.51668">
        <ele>694</ele>
        <time>2016-10-09T08:49:06Z</time>
      </trkpt>
      <trkpt lat="47.21027" lon="6.51653">
        <ele>695</ele>
        <time>2016-10-09T08:49:08Z</time>
      </trkpt>
      <trkpt lat="47.21041" lon="6.51645">
        <ele>694</ele>
        <time>2016-10-09T08:49:10Z</time>
      </trkpt>
      <trkpt lat="47.21056" lon="6.51637">
        <ele>694</ele>
        <time>2016-10-09T08:49:12Z</time>
      </trkpt>
      <trkpt lat="47.21068" lon="6.5164">
        <ele>694</ele>
        <time>2016-10-09T08:49:14Z</time>
      </trkpt>
      <trkpt lat="47.2108" lon="6.51641">
        <ele>693</ele>
        <time>2016-10-09T08:49:16Z</time>
      </trkpt>
      <trkpt lat="47.2109" lon="6.51637">
        <ele>691</ele>
        <time>2016-10-09T08:49:18Z</time>
      </trkpt>
      <trkpt lat="47.21098" lon="6.51633">
        <ele>691</ele>
        <time>2016-10-09T08:49:20Z</time>
      </trkpt>
      <trkpt lat="47.21111" lon="6.51624">
        <ele>691</ele>
        <time>2016-10-09T08:49:24Z</time>
      </trkpt>
      <trkpt lat="47.21124" lon="6.51624">
        <ele>691</ele>
        <time>2016-10-09T08:49:26Z</time>
      </trkpt>
      <trkpt lat="47.21134" lon="6.51621">
        <ele>690</ele>
        <time>2016-10-09T08:49:28Z</time>
      </trkpt>
      <trkpt lat="47.21144" lon="6.51616">
        <ele>690</ele>
        <time>2016-10-09T08:49:30Z</time>
      </trkpt>
      <trkpt lat="47.21156" lon="6.51605">
        <ele>690</ele>
        <time>2016-10-09T08:49:33Z</time>
      </trkpt>
      <trkpt lat="47.21164" lon="6.51597">
        <ele>690</ele>
        <time>2016-10-09T08:49:34Z</time>
      </trkpt>
      <trkpt lat="47.21171" lon="6.51587">
        <ele>690</ele>
        <time>2016-10-09T08:49:36Z</time>
      </trkpt>
      <trkpt lat="47.21176" lon="6.51574">
        <ele>691</ele>
        <time>2016-10-09T08:49:38Z</time>
      </trkpt>
      <trkpt lat="47.21182" lon="6.51556">
        <ele>691</ele>
        <time>2016-10-09T08:49:40Z</time>
      </trkpt>
      <trkpt lat="47.21187" lon="6.51542">
        <ele>691</ele>
        <time>2016-10-09T08:49:42Z</time>
      </trkpt>
      <trkpt lat="47.21195" lon="6.51528">
        <ele>691</ele>
        <time>2016-10-09T08:49:44Z</time>
      </trkpt>
      <trkpt lat="47.21198" lon="6.51512">
        <ele>691</ele>
        <time>2016-10-09T08:49:46Z</time>
      </trkpt>
      <trkpt lat="47.21205" lon="6.51497">
        <ele>691</ele>
        <time>2016-10-09T08:49:48Z</time>
      </trkpt>
      <trkpt lat="47.21211" lon="6.51483">
        <ele>691</ele>
        <time>2016-10-09T08:49:50Z</time>
      </trkpt>
      <trkpt lat="47.21216" lon="6.51468">
        <ele>691</ele>
        <time>2016-10-09T08:49:52Z</time>
      </trkpt>
      <trkpt lat="47.21222" lon="6.51454">
        <ele>691</ele>
        <time>2016-10-09T08:49:54Z</time>
      </trkpt>
      <trkpt lat="47.21229" lon="6.5144">
        <ele>692</ele>
        <time>2016-10-09T08:49:56Z</time>
      </trkpt>
      <trkpt lat="47.21237" lon="6.51431">
        <ele>692</ele>
        <time>2016-10-09T08:49:58Z</time>
      </trkpt>
      <trkpt lat="47.21245" lon="6.51412">
        <ele>693</ele>
        <time>2016-10-09T08:50:02Z</time>
      </trkpt>
      <trkpt lat="47.21244" lon="6.5139">
        <ele>692</ele>
        <time>2016-10-09T08:50:06Z</time>
      </trkpt>
      <trkpt lat="47.21249" lon="6.51375">
        <ele>692</ele>
        <time>2016-10-09T08:50:08Z</time>
      </trkpt>
      <trkpt lat="47.21255" lon="6.5136">
        <ele>695</ele>
        <time>2016-10-09T08:50:10Z</time>
      </trkpt>
      <trkpt lat="47.21259" lon="6.51345">
        <ele>695</ele>
        <time>2016-10-09T08:50:12Z</time>
      </trkpt>
      <trkpt lat="47.2126" lon="6.51332">
        <ele>695</ele>
        <time>2016-10-09T08:50:14Z</time>
      </trkpt>
      <trkpt lat="47.21262" lon="6.51318">
        <ele>696</ele>
        <time>2016-10-09T08:50:16Z</time>
      </trkpt>
      <trkpt lat="47.21265" lon="6.51304">
        <ele>697</ele>
        <time>2016-10-09T08:50:20Z</time>
      </trkpt>
      <trkpt lat="47.21264" lon="6.51277">
        <ele>698</ele>
        <time>2016-10-09T08:50:24Z</time>
      </trkpt>
      <trkpt lat="47.21259" lon="6.51263">
        <ele>698</ele>
        <time>2016-10-09T08:50:26Z</time>
      </trkpt>
      <trkpt lat="47.21261" lon="6.51247">
        <ele>699</ele>
        <time>2016-10-09T08:50:30Z</time>
      </trkpt>
      <trkpt lat="47.21262" lon="6.51233">
        <ele>700</ele>
        <time>2016-10-09T08:50:32Z</time>
      </trkpt>
      <trkpt lat="47.21262" lon="6.51211">
        <ele>701</ele>
        <time>2016-10-09T08:50:38Z</time>
      </trkpt>
      <trkpt lat="47.21267" lon="6.51187">
        <ele>701</ele>
        <time>2016-10-09T08:50:42Z</time>
      </trkpt>
      <trkpt lat="47.21269" lon="6.51165">
        <ele>703</ele>
        <time>2016-10-09T08:50:46Z</time>
      </trkpt>
      <trkpt lat="47.21271" lon="6.5115">
        <ele>704</ele>
        <time>2016-10-09T08:50:50Z</time>
      </trkpt>
      <trkpt lat="47.21277" lon="6.51133">
        <ele>705</ele>
        <time>2016-10-09T08:50:54Z</time>
      </trkpt>
      <trkpt lat="47.21277" lon="6.51116">
        <ele>705</ele>
        <time>2016-10-09T08:50:58Z</time>
      </trkpt>
      <trkpt lat="47.21276" lon="6.51101">
        <ele>706</ele>
        <time>2016-10-09T08:51:02Z</time>
      </trkpt>
      <trkpt lat="47.21274" lon="6.51084">
        <ele>706</ele>
        <time>2016-10-09T08:51:08Z</time>
      </trkpt>
      <trkpt lat="47.21254" lon="6.51062">
        <ele>707</ele>
        <time>2016-10-09T08:51:10Z</time>
      </trkpt>
      <trkpt lat="47.2125" lon="6.51034">
        <ele>707</ele>
        <time>2016-10-09T08:51:14Z</time>
      </trkpt>
      <trkpt lat="47.21246" lon="6.5102">
        <ele>707</ele>
        <time>2016-10-09T08:51:16Z</time>
      </trkpt>
      <trkpt lat="47.21243" lon="6.51003">
        <ele>707</ele>
        <time>2016-10-09T08:51:18Z</time>
      </trkpt>
      <trkpt lat="47.21253" lon="6.50973">
        <ele>705</ele>
        <time>2016-10-09T08:51:22Z</time>
      </trkpt>
      <trkpt lat="47.21257" lon="6.50958">
        <ele>704</ele>
        <time>2016-10-09T08:51:24Z</time>
      </trkpt>
      <trkpt lat="47.21264" lon="6.50944">
        <ele>704</ele>
        <time>2016-10-09T08:51:28Z</time>
      </trkpt>
      <trkpt lat="47.2127" lon="6.50932">
        <ele>704</ele>
        <time>2016-10-09T08:51:30Z</time>
      </trkpt>
      <trkpt lat="47.21279" lon="6.5091">
        <ele>702</ele>
        <time>2016-10-09T08:51:34Z</time>
      </trkpt>
      <trkpt lat="47.21292" lon="6.50889">
        <ele>701</ele>
        <time>2016-10-09T08:51:38Z</time>
      </trkpt>
      <trkpt lat="47.21302" lon="6.50871">
        <ele>701</ele>
        <time>2016-10-09T08:51:42Z</time>
      </trkpt>
      <trkpt lat="47.21316" lon="6.50848">
        <ele>700</ele>
        <time>2016-10-09T08:51:46Z</time>
      </trkpt>
      <trkpt lat="47.21323" lon="6.5084">
        <ele>700</ele>
        <time>2016-10-09T08:51:48Z</time>
      </trkpt>
      <trkpt lat="47.21331" lon="6.50827">
        <ele>698</ele>
        <time>2016-10-09T08:51:50Z</time>
      </trkpt>
      <trkpt lat="47.21341" lon="6.50813">
        <ele>697</ele>
        <time>2016-10-09T08:51:52Z</time>
      </trkpt>
      <trkpt lat="47.21353" lon="6.50813">
        <ele>697</ele>
        <time>2016-10-09T08:51:58Z</time>
      </trkpt>
      <trkpt lat="47.21362" lon="6.50825">
        <ele>697</ele>
        <time>2016-10-09T08:52:02Z</time>
      </trkpt>
      <trkpt lat="47.21372" lon="6.50833">
        <ele>697</ele>
        <time>2016-10-09T08:52:10Z</time>
      </trkpt>
      <trkpt lat="47.21381" lon="6.50848">
        <ele>700</ele>
        <time>2016-10-09T08:52:18Z</time>
      </trkpt>
      <trkpt lat="47.21388" lon="6.50859">
        <ele>700</ele>
        <time>2016-10-09T08:52:22Z</time>
      </trkpt>
      <trkpt lat="47.21398" lon="6.5087">
        <ele>700</ele>
        <time>2016-10-09T08:52:26Z</time>
      </trkpt>
      <trkpt lat="47.21406" lon="6.50879">
        <ele>700</ele>
        <time>2016-10-09T08:52:28Z</time>
      </trkpt>
      <trkpt lat="47.21414" lon="6.50886">
        <ele>701</ele>
        <time>2016-10-09T08:52:32Z</time>
      </trkpt>
      <trkpt lat="47.2142" lon="6.50896">
        <ele>699</ele>
        <time>2016-10-09T08:52:36Z</time>
      </trkpt>
      <trkpt lat="47.21428" lon="6.50911">
        <ele>699</ele>
        <time>2016-10-09T08:52:39Z</time>
      </trkpt>
      <trkpt lat="47.21435" lon="6.50931">
        <ele>700</ele>
        <time>2016-10-09T08:52:43Z</time>
      </trkpt>
      <trkpt lat="47.21437" lon="6.50953">
        <ele>700</ele>
        <time>2016-10-09T08:52:47Z</time>
      </trkpt>
      <trkpt lat="47.2144" lon="6.50976">
        <ele>700</ele>
        <time>2016-10-09T08:52:51Z</time>
      </trkpt>
      <trkpt lat="47.21448" lon="6.50997">
        <ele>701</ele>
        <time>2016-10-09T08:52:55Z</time>
      </trkpt>
      <trkpt lat="47.21452" lon="6.5101">
        <ele>703</ele>
        <time>2016-10-09T08:52:57Z</time>
      </trkpt>
      <trkpt lat="47.21457" lon="6.51023">
        <ele>703</ele>
        <time>2016-10-09T08:52:59Z</time>
      </trkpt>
      <trkpt lat="47.21465" lon="6.51039">
        <ele>703</ele>
        <time>2016-10-09T08:53:03Z</time>
      </trkpt>
      <trkpt lat="47.21474" lon="6.51051">
        <ele>703</ele>
        <time>2016-10-09T08:53:05Z</time>
      </trkpt>
      <trkpt lat="47.21482" lon="6.51064">
        <ele>703</ele>
        <time>2016-10-09T08:53:07Z</time>
      </trkpt>
      <trkpt lat="47.2149" lon="6.51073">
        <ele>704</ele>
        <time>2016-10-09T08:53:09Z</time>
      </trkpt>
      <trkpt lat="47.21498" lon="6.51084">
        <ele>704</ele>
        <time>2016-10-09T08:53:11Z</time>
      </trkpt>
      <trkpt lat="47.21512" lon="6.51104">
        <ele>703</ele>
        <time>2016-10-09T08:53:15Z</time>
      </trkpt>
      <trkpt lat="47.21522" lon="6.51108">
        <ele>703</ele>
        <time>2016-10-09T08:53:17Z</time>
      </trkpt>
      <trkpt lat="47.21536" lon="6.51117">
        <ele>702</ele>
        <time>2016-10-09T08:53:21Z</time>
      </trkpt>
      <trkpt lat="47.21547" lon="6.51132">
        <ele>702</ele>
        <time>2016-10-09T08:53:27Z</time>
      </trkpt>
      <trkpt lat="47.21554" lon="6.51143">
        <ele>703</ele>
        <time>2016-10-09T08:53:29Z</time>
      </trkpt>
      <trkpt lat="47.21562" lon="6.51156">
        <ele>703</ele>
        <time>2016-10-09T08:53:31Z</time>
      </trkpt>
      <trkpt lat="47.21571" lon="6.51165">
        <ele>703</ele>
        <time>2016-10-09T08:53:33Z</time>
      </trkpt>
      <trkpt lat="47.21583" lon="6.5117">
        <ele>705</ele>
        <time>2016-10-09T08:53:37Z</time>
      </trkpt>
      <trkpt lat="47.21598" lon="6.51183">
        <ele>703</ele>
        <time>2016-10-09T08:53:41Z</time>
      </trkpt>
      <trkpt lat="47.21605" lon="6.51192">
        <ele>703</ele>
        <time>2016-10-09T08:53:43Z</time>
      </trkpt>
      <trkpt lat="47.21613" lon="6.51202">
        <ele>703</ele>
        <time>2016-10-09T08:53:45Z</time>
      </trkpt>
      <trkpt lat="47.21624" lon="6.51217">
        <ele>703</ele>
        <time>2016-10-09T08:53:49Z</time>
      </trkpt>
      <trkpt lat="47.21629" lon="6.51231">
        <ele>703</ele>
        <time>2016-10-09T08:53:51Z</time>
      </trkpt>
      <trkpt lat="47.21635" lon="6.51242">
        <ele>703</ele>
        <time>2016-10-09T08:53:55Z</time>
      </trkpt>
      <trkpt lat="47.21643" lon="6.51251">
        <ele>705</ele>
        <time>2016-10-09T08:53:59Z</time>
      </trkpt>
      <trkpt lat="47.2165" lon="6.51264">
        <ele>705</ele>
        <time>2016-10-09T08:54:03Z</time>
      </trkpt>
      <trkpt lat="47.21656" lon="6.51279">
        <ele>706</ele>
        <time>2016-10-09T08:54:09Z</time>
      </trkpt>
      <trkpt lat="47.21665" lon="6.51293">
        <ele>707</ele>
        <time>2016-10-09T08:54:13Z</time>
      </trkpt>
      <trkpt lat="47.21674" lon="6.51304">
        <ele>703</ele>
        <time>2016-10-09T08:54:19Z</time>
      </trkpt>
      <trkpt lat="47.21683" lon="6.5131">
        <ele>703</ele>
        <time>2016-10-09T08:54:23Z</time>
      </trkpt>
      <trkpt lat="47.21694" lon="6.51326">
        <ele>703</ele>
        <time>2016-10-09T08:54:29Z</time>
      </trkpt>
      <trkpt lat="47.21705" lon="6.51338">
        <ele>705</ele>
        <time>2016-10-09T08:54:33Z</time>
      </trkpt>
      <trkpt lat="47.21711" lon="6.51351">
        <ele>705</ele>
        <time>2016-10-09T08:54:37Z</time>
      </trkpt>
      <trkpt lat="47.21697" lon="6.51363">
        <ele>706</ele>
        <time>2016-10-09T08:54:41Z</time>
      </trkpt>
      <trkpt lat="47.21694" lon="6.51375">
        <ele>706</ele>
        <time>2016-10-09T08:54:43Z</time>
      </trkpt>
      <trkpt lat="47.21683" lon="6.51391">
        <ele>707</ele>
        <time>2016-10-09T08:54:47Z</time>
      </trkpt>
      <trkpt lat="47.21675" lon="6.51406">
        <ele>710</ele>
        <time>2016-10-09T08:54:51Z</time>
      </trkpt>
      <trkpt lat="47.21669" lon="6.51423">
        <ele>711</ele>
        <time>2016-10-09T08:54:55Z</time>
      </trkpt>
      <trkpt lat="47.21664" lon="6.51435">
        <ele>713</ele>
        <time>2016-10-09T08:54:57Z</time>
      </trkpt>
      <trkpt lat="47.21658" lon="6.51452">
        <ele>713</ele>
        <time>2016-10-09T08:55:01Z</time>
      </trkpt>
      <trkpt lat="47.21646" lon="6.51462">
        <ele>713</ele>
        <time>2016-10-09T08:55:05Z</time>
      </trkpt>
      <trkpt lat="47.21633" lon="6.51469">
        <ele>713</ele>
        <time>2016-10-09T08:55:11Z</time>
      </trkpt>
      <trkpt lat="47.21619" lon="6.51462">
        <ele>713</ele>
        <time>2016-10-09T08:55:15Z</time>
      </trkpt>
      <trkpt lat="47.21609" lon="6.51461">
        <ele>713</ele>
        <time>2016-10-09T08:55:17Z</time>
      </trkpt>
      <trkpt lat="47.21599" lon="6.51462">
        <ele>713</ele>
        <time>2016-10-09T08:55:19Z</time>
      </trkpt>
      <trkpt lat="47.21589" lon="6.5146">
        <ele>713</ele>
        <time>2016-10-09T08:55:21Z</time>
      </trkpt>
      <trkpt lat="47.21573" lon="6.51447">
        <ele>710</ele>
        <time>2016-10-09T08:55:25Z</time>
      </trkpt>
      <trkpt lat="47.21564" lon="6.51438">
        <ele>710</ele>
        <time>2016-10-09T08:55:27Z</time>
      </trkpt>
      <trkpt lat="47.21553" lon="6.51429">
        <ele>710</ele>
        <time>2016-10-09T08:55:29Z</time>
      </trkpt>
      <trkpt lat="47.21544" lon="6.5142">
        <ele>710</ele>
        <time>2016-10-09T08:55:31Z</time>
      </trkpt>
      <trkpt lat="47.21534" lon="6.51409">
        <ele>711</ele>
        <time>2016-10-09T08:55:33Z</time>
      </trkpt>
      <trkpt lat="47.21523" lon="6.51401">
        <ele>711</ele>
        <time>2016-10-09T08:55:35Z</time>
      </trkpt>
      <trkpt lat="47.21509" lon="6.51394">
        <ele>711</ele>
        <time>2016-10-09T08:55:37Z</time>
      </trkpt>
      <trkpt lat="47.21492" lon="6.51393">
        <ele>708</ele>
        <time>2016-10-09T08:55:39Z</time>
      </trkpt>
      <trkpt lat="47.21481" lon="6.51397">
        <ele>707</ele>
        <time>2016-10-09T08:55:43Z</time>
      </trkpt>
      <trkpt lat="47.21469" lon="6.51406">
        <ele>707</ele>
        <time>2016-10-09T08:55:47Z</time>
      </trkpt>
      <trkpt lat="47.21462" lon="6.51413">
        <ele>706</ele>
        <time>2016-10-09T08:55:49Z</time>
      </trkpt>
      <trkpt lat="47.21451" lon="6.51427">
        <ele>703</ele>
        <time>2016-10-09T08:55:51Z</time>
      </trkpt>
      <trkpt lat="47.21438" lon="6.51435">
        <ele>703</ele>
        <time>2016-10-09T08:55:53Z</time>
      </trkpt>
      <trkpt lat="47.21428" lon="6.51446">
        <ele>703</ele>
        <time>2016-10-09T08:55:55Z</time>
      </trkpt>
      <trkpt lat="47.21425" lon="6.5146">
        <ele>702</ele>
        <time>2016-10-09T08:55:57Z</time>
      </trkpt>
      <trkpt lat="47.21427" lon="6.51487">
        <ele>701</ele>
        <time>2016-10-09T08:55:59Z</time>
      </trkpt>
      <trkpt lat="47.21429" lon="6.51513">
        <ele>700</ele>
        <time>2016-10-09T08:56:01Z</time>
      </trkpt>
      <trkpt lat="47.21427" lon="6.51532">
        <ele>700</ele>
        <time>2016-10-09T08:56:03Z</time>
      </trkpt>
      <trkpt lat="47.21427" lon="6.5155">
        <ele>700</ele>
        <time>2016-10-09T08:56:05Z</time>
      </trkpt>
      <trkpt lat="47.21428" lon="6.51566">
        <ele>700</ele>
        <time>2016-10-09T08:56:07Z</time>
      </trkpt>
      <trkpt lat="47.2143" lon="6.5158">
        <ele>700</ele>
        <time>2016-10-09T08:56:09Z</time>
      </trkpt>
      <trkpt lat="47.21434" lon="6.51594">
        <ele>700</ele>
        <time>2016-10-09T08:56:11Z</time>
      </trkpt>
      <trkpt lat="47.2144" lon="6.51619">
        <ele>700</ele>
        <time>2016-10-09T08:56:15Z</time>
      </trkpt>
      <trkpt lat="47.21447" lon="6.51643">
        <ele>700</ele>
        <time>2016-10-09T08:56:19Z</time>
      </trkpt>
      <trkpt lat="47.21451" lon="6.51658">
        <ele>700</ele>
        <time>2016-10-09T08:56:21Z</time>
      </trkpt>
      <trkpt lat="47.21458" lon="6.51681">
        <ele>700</ele>
        <time>2016-10-09T08:56:25Z</time>
      </trkpt>
      <trkpt lat="47.21463" lon="6.51695">
        <ele>700</ele>
        <time>2016-10-09T08:56:27Z</time>
      </trkpt>
      <trkpt lat="47.21469" lon="6.51718">
        <ele>700</ele>
        <time>2016-10-09T08:56:31Z</time>
      </trkpt>
      <trkpt lat="47.21475" lon="6.5174">
        <ele>700</ele>
        <time>2016-10-09T08:56:35Z</time>
      </trkpt>
      <trkpt lat="47.21481" lon="6.51761">
        <ele>700</ele>
        <time>2016-10-09T08:56:39Z</time>
      </trkpt>
      <trkpt lat="47.21487" lon="6.51782">
        <ele>701</ele>
        <time>2016-10-09T08:56:43Z</time>
      </trkpt>
      <trkpt lat="47.21493" lon="6.51803">
        <ele>701</ele>
        <time>2016-10-09T08:56:47Z</time>
      </trkpt>
      <trkpt lat="47.21503" lon="6.51819">
        <ele>701</ele>
        <time>2016-10-09T08:56:51Z</time>
      </trkpt>
      <trkpt lat="47.21512" lon="6.51836">
        <ele>701</ele>
        <time>2016-10-09T08:56:55Z</time>
      </trkpt>
      <trkpt lat="47.21519" lon="6.51859">
        <ele>701</ele>
        <time>2016-10-09T08:56:59Z</time>
      </trkpt>
      <trkpt lat="47.21521" lon="6.51882">
        <ele>702</ele>
        <time>2016-10-09T08:57:03Z</time>
      </trkpt>
      <trkpt lat="47.21524" lon="6.51908">
        <ele>702</ele>
        <time>2016-10-09T08:57:07Z</time>
      </trkpt>
      <trkpt lat="47.21529" lon="6.5192">
        <ele>702</ele>
        <time>2016-10-09T08:57:09Z</time>
      </trkpt>
      <trkpt lat="47.21533" lon="6.51932">
        <ele>702</ele>
        <time>2016-10-09T08:57:11Z</time>
      </trkpt>
      <trkpt lat="47.21538" lon="6.51944">
        <ele>702</ele>
        <time>2016-10-09T08:57:13Z</time>
      </trkpt>
      <trkpt lat="47.21543" lon="6.51956">
        <ele>702</ele>
        <time>2016-10-09T08:57:15Z</time>
      </trkpt>
      <trkpt lat="47.21547" lon="6.51969">
        <ele>702</ele>
        <time>2016-10-09T08:57:17Z</time>
      </trkpt>
      <trkpt lat="47.2155" lon="6.51982">
        <ele>702</ele>
        <time>2016-10-09T08:57:19Z</time>
      </trkpt>
      <trkpt lat="47.21554" lon="6.51995">
        <ele>702</ele>
        <time>2016-10-09T08:57:21Z</time>
      </trkpt>
      <trkpt lat="47.21558" lon="6.52009">
        <ele>703</ele>
        <time>2016-10-09T08:57:23Z</time>
      </trkpt>
      <trkpt lat="47.21562" lon="6.52022">
        <ele>703</ele>
        <time>2016-10-09T08:57:25Z</time>
      </trkpt>
      <trkpt lat="47.21566" lon="6.52035">
        <ele>703</ele>
        <time>2016-10-09T08:57:27Z</time>
      </trkpt>
      <trkpt lat="47.21572" lon="6.52047">
        <ele>703</ele>
        <time>2016-10-09T08:57:29Z</time>
      </trkpt>
      <trkpt lat="47.21578" lon="6.5206">
        <ele>703</ele>
        <time>2016-10-09T08:57:31Z</time>
      </trkpt>
      <trkpt lat="47.21582" lon="6.52073">
        <ele>703</ele>
        <time>2016-10-09T08:57:33Z</time>
      </trkpt>
      <trkpt lat="47.21587" lon="6.52086">
        <ele>704</ele>
        <time>2016-10-09T08:57:35Z</time>
      </trkpt>
      <trkpt lat="47.21592" lon="6.52098">
        <ele>704</ele>
        <time>2016-10-09T08:57:37Z</time>
      </trkpt>
      <trkpt lat="47.21597" lon="6.5211">
        <ele>705</ele>
        <time>2016-10-09T08:57:39Z</time>
      </trkpt>
      <trkpt lat="47.21605" lon="6.52133">
        <ele>705</ele>
        <time>2016-10-09T08:57:43Z</time>
      </trkpt>
      <trkpt lat="47.2161" lon="6.52145">
        <ele>705</ele>
        <time>2016-10-09T08:57:45Z</time>
      </trkpt>
      <trkpt lat="47.21615" lon="6.52157">
        <ele>706</ele>
        <time>2016-10-09T08:57:47Z</time>
      </trkpt>
      <trkpt lat="47.21621" lon="6.52168">
        <ele>706</ele>
        <time>2016-10-09T08:57:49Z</time>
      </trkpt>
      <trkpt lat="47.21633" lon="6.52173">
        <ele>706</ele>
        <time>2016-10-09T08:57:53Z</time>
      </trkpt>
      <trkpt lat="47.21641" lon="6.5215">
        <ele>707</ele>
        <time>2016-10-09T08:57:57Z</time>
      </trkpt>
      <trkpt lat="47.21643" lon="6.52136">
        <ele>707</ele>
        <time>2016-10-09T08:57:59Z</time>
      </trkpt>
      <trkpt lat="47.21646" lon="6.52123">
        <ele>707</ele>
        <time>2016-10-09T08:58:01Z</time>
      </trkpt>
      <trkpt lat="47.21649" lon="6.52109">
        <ele>707</ele>
        <time>2016-10-09T08:58:03Z</time>
      </trkpt>
      <trkpt lat="47.21651" lon="6.52095">
        <ele>707</ele>
        <time>2016-10-09T08:58:05Z</time>
      </trkpt>
      <trkpt lat="47.21653" lon="6.5208">
        <ele>707</ele>
        <time>2016-10-09T08:58:07Z</time>
      </trkpt>
      <trkpt lat="47.21655" lon="6.52064">
        <ele>707</ele>
        <time>2016-10-09T08:58:09Z</time>
      </trkpt>
      <trkpt lat="47.21657" lon="6.52048">
        <ele>706</ele>
        <time>2016-10-09T08:58:11Z</time>
      </trkpt>
      <trkpt lat="47.21659" lon="6.52032">
        <ele>705</ele>
        <time>2016-10-09T08:58:13Z</time>
      </trkpt>
      <trkpt lat="47.21661" lon="6.52016">
        <ele>705</ele>
        <time>2016-10-09T08:58:15Z</time>
      </trkpt>
      <trkpt lat="47.21665" lon="6.52002">
        <ele>705</ele>
        <time>2016-10-09T08:58:17Z</time>
      </trkpt>
      <trkpt lat="47.21671" lon="6.51979">
        <ele>705</ele>
        <time>2016-10-09T08:58:19Z</time>
      </trkpt>
      <trkpt lat="47.21678" lon="6.5196">
        <ele>705</ele>
        <time>2016-10-09T08:58:21Z</time>
      </trkpt>
      <trkpt lat="47.21682" lon="6.51945">
        <ele>705</ele>
        <time>2016-10-09T08:58:23Z</time>
      </trkpt>
      <trkpt lat="47.21687" lon="6.51932">
        <ele>704</ele>
        <time>2016-10-09T08:58:25Z</time>
      </trkpt>
      <trkpt lat="47.21702" lon="6.51923">
        <ele>705</ele>
        <time>2016-10-09T08:58:29Z</time>
      </trkpt>
      <trkpt lat="47.2172" lon="6.51929">
        <ele>705</ele>
        <time>2016-10-09T08:58:33Z</time>
      </trkpt>
      <trkpt lat="47.21736" lon="6.5194">
        <ele>706</ele>
        <time>2016-10-09T08:58:37Z</time>
      </trkpt>
      <trkpt lat="47.2175" lon="6.51952">
        <ele>706</ele>
        <time>2016-10-09T08:58:41Z</time>
      </trkpt>
      <trkpt lat="47.21755" lon="6.51965">
        <ele>709</ele>
        <time>2016-10-09T08:58:45Z</time>
      </trkpt>
      <trkpt lat="47.21761" lon="6.51986">
        <ele>710</ele>
        <time>2016-10-09T08:58:49Z</time>
      </trkpt>
      <trkpt lat="47.21765" lon="6.52">
        <ele>710</ele>
        <time>2016-10-09T08:58:51Z</time>
      </trkpt>
      <trkpt lat="47.21775" lon="6.52007">
        <ele>713</ele>
        <time>2016-10-09T08:58:55Z</time>
      </trkpt>
      <trkpt lat="47.21782" lon="6.5202">
        <ele>713</ele>
        <time>2016-10-09T08:58:59Z</time>
      </trkpt>
      <trkpt lat="47.21794" lon="6.52039">
        <ele>714</ele>
        <time>2016-10-09T08:59:03Z</time>
      </trkpt>
      <trkpt lat="47.21803" lon="6.52059">
        <ele>714</ele>
        <time>2016-10-09T08:59:07Z</time>
      </trkpt>
      <trkpt lat="47.21802" lon="6.52081">
        <ele>714</ele>
        <time>2016-10-09T08:59:11Z</time>
      </trkpt>
      <trkpt lat="47.218" lon="6.52107">
        <ele>716</ele>
        <time>2016-10-09T08:59:15Z</time>
      </trkpt>
      <trkpt lat="47.21801" lon="6.5213">
        <ele>717</ele>
        <time>2016-10-09T08:59:19Z</time>
      </trkpt>
      <trkpt lat="47.21805" lon="6.52147">
        <ele>717</ele>
        <time>2016-10-09T08:59:23Z</time>
      </trkpt>
      <trkpt lat="47.21811" lon="6.52161">
        <ele>717</ele>
        <time>2016-10-09T08:59:27Z</time>
      </trkpt>
      <trkpt lat="47.21819" lon="6.52177">
        <ele>716</ele>
        <time>2016-10-09T08:59:31Z</time>
      </trkpt>
      <trkpt lat="47.21829" lon="6.52186">
        <ele>716</ele>
        <time>2016-10-09T08:59:35Z</time>
      </trkpt>
      <trkpt lat="47.21841" lon="6.52198">
        <ele>714</ele>
        <time>2016-10-09T08:59:41Z</time>
      </trkpt>
      <trkpt lat="47.21851" lon="6.52206">
        <ele>713</ele>
        <time>2016-10-09T08:59:43Z</time>
      </trkpt>
      <trkpt lat="47.21865" lon="6.52215">
        <ele>713</ele>
        <time>2016-10-09T08:59:47Z</time>
      </trkpt>
      <trkpt lat="47.21875" lon="6.52223">
        <ele>713</ele>
        <time>2016-10-09T08:59:53Z</time>
      </trkpt>
      <trkpt lat="47.21888" lon="6.52232">
        <ele>713</ele>
        <time>2016-10-09T08:59:59Z</time>
      </trkpt>
      <trkpt lat="47.21897" lon="6.5224">
        <ele>712</ele>
        <time>2016-10-09T09:00:03Z</time>
      </trkpt>
      <trkpt lat="47.21902" lon="6.52252">
        <ele>711</ele>
        <time>2016-10-09T09:00:07Z</time>
      </trkpt>
      <trkpt lat="47.21916" lon="6.52265">
        <ele>711</ele>
        <time>2016-10-09T09:00:11Z</time>
      </trkpt>
      <trkpt lat="47.21924" lon="6.52272">
        <ele>711</ele>
        <time>2016-10-09T09:00:13Z</time>
      </trkpt>
      <trkpt lat="47.21931" lon="6.52291">
        <ele>711</ele>
        <time>2016-10-09T09:00:17Z</time>
      </trkpt>
      <trkpt lat="47.21931" lon="6.52305">
        <ele>711</ele>
        <time>2016-10-09T09:00:19Z</time>
      </trkpt>
      <trkpt lat="47.2193" lon="6.52321">
        <ele>710</ele>
        <time>2016-10-09T09:00:21Z</time>
      </trkpt>
      <trkpt lat="47.21931" lon="6.52336">
        <ele>710</ele>
        <time>2016-10-09T09:00:23Z</time>
      </trkpt>
      <trkpt lat="47.2193" lon="6.52353">
        <ele>710</ele>
        <time>2016-10-09T09:00:25Z</time>
      </trkpt>
      <trkpt lat="47.2193" lon="6.52369">
        <ele>710</ele>
        <time>2016-10-09T09:00:27Z</time>
      </trkpt>
      <trkpt lat="47.21928" lon="6.52385">
        <ele>710</ele>
        <time>2016-10-09T09:00:29Z</time>
      </trkpt>
      <trkpt lat="47.21926" lon="6.52402">
        <ele>709</ele>
        <time>2016-10-09T09:00:31Z</time>
      </trkpt>
      <trkpt lat="47.21922" lon="6.52422">
        <ele>708</ele>
        <time>2016-10-09T09:00:33Z</time>
      </trkpt>
      <trkpt lat="47.21919" lon="6.52443">
        <ele>708</ele>
        <time>2016-10-09T09:00:35Z</time>
      </trkpt>
      <trkpt lat="47.21914" lon="6.52464">
        <ele>707</ele>
        <time>2016-10-09T09:00:37Z</time>
      </trkpt>
      <trkpt lat="47.2191" lon="6.52487">
        <ele>706</ele>
        <time>2016-10-09T09:00:39Z</time>
      </trkpt>
      <trkpt lat="47.21904" lon="6.52509">
        <ele>704</ele>
        <time>2016-10-09T09:00:41Z</time>
      </trkpt>
      <trkpt lat="47.219" lon="6.52529">
        <ele>704</ele>
        <time>2016-10-09T09:00:43Z</time>
      </trkpt>
      <trkpt lat="47.21895" lon="6.52549">
        <ele>703</ele>
        <time>2016-10-09T09:00:45Z</time>
      </trkpt>
      <trkpt lat="47.21892" lon="6.52568">
        <ele>703</ele>
        <time>2016-10-09T09:00:47Z</time>
      </trkpt>
      <trkpt lat="47.21889" lon="6.52587">
        <ele>702</ele>
        <time>2016-10-09T09:00:49Z</time>
      </trkpt>
      <trkpt lat="47.21886" lon="6.52606">
        <ele>701</ele>
        <time>2016-10-09T09:00:51Z</time>
      </trkpt>
      <trkpt lat="47.21883" lon="6.52625">
        <ele>701</ele>
        <time>2016-10-09T09:00:53Z</time>
      </trkpt>
      <trkpt lat="47.21881" lon="6.52644">
        <ele>701</ele>
        <time>2016-10-09T09:00:55Z</time>
      </trkpt>
      <trkpt lat="47.21879" lon="6.52661">
        <ele>701</ele>
        <time>2016-10-09T09:00:57Z</time>
      </trkpt>
      <trkpt lat="47.21879" lon="6.5268">
        <ele>701</ele>
        <time>2016-10-09T09:00:59Z</time>
      </trkpt>
      <trkpt lat="47.21875" lon="6.52695">
        <ele>701</ele>
        <time>2016-10-09T09:01:01Z</time>
      </trkpt>
      <trkpt lat="47.21879" lon="6.5271">
        <ele>701</ele>
        <time>2016-10-09T09:01:03Z</time>
      </trkpt>
      <trkpt lat="47.21884" lon="6.52722">
        <ele>702</ele>
        <time>2016-10-09T09:01:05Z</time>
      </trkpt>
      <trkpt lat="47.219" lon="6.5271">
        <ele>702</ele>
        <time>2016-10-09T09:01:09Z</time>
      </trkpt>
      <trkpt lat="47.21908" lon="6.52705">
        <ele>702</ele>
        <time>2016-10-09T09:01:11Z</time>
      </trkpt>
      <trkpt lat="47.21918" lon="6.52705">
        <ele>704</ele>
        <time>2016-10-09T09:01:13Z</time>
      </trkpt>
      <trkpt lat="47.21934" lon="6.52704">
        <ele>704</ele>
        <time>2016-10-09T09:01:17Z</time>
      </trkpt>
      <trkpt lat="47.21945" lon="6.52699">
        <ele>705</ele>
        <time>2016-10-09T09:01:19Z</time>
      </trkpt>
      <trkpt lat="47.21956" lon="6.52699">
        <ele>705</ele>
        <time>2016-10-09T09:01:21Z</time>
      </trkpt>
      <trkpt lat="47.21967" lon="6.52696">
        <ele>705</ele>
        <time>2016-10-09T09:01:23Z</time>
      </trkpt>
      <trkpt lat="47.21976" lon="6.52692">
        <ele>705</ele>
        <time>2016-10-09T09:01:25Z</time>
      </trkpt>
      <trkpt lat="47.21993" lon="6.52683">
        <ele>705</ele>
        <time>2016-10-09T09:01:29Z</time>
      </trkpt>
      <trkpt lat="47.22003" lon="6.52677">
        <ele>707</ele>
        <time>2016-10-09T09:01:31Z</time>
      </trkpt>
      <trkpt lat="47.22018" lon="6.52675">
        <ele>708</ele>
        <time>2016-10-09T09:01:35Z</time>
      </trkpt>
      <trkpt lat="47.22028" lon="6.52676">
        <ele>708</ele>
        <time>2016-10-09T09:01:37Z</time>
      </trkpt>
      <trkpt lat="47.22048" lon="6.52684">
        <ele>709</ele>
        <time>2016-10-09T09:01:41Z</time>
      </trkpt>
      <trkpt lat="47.22058" lon="6.52686">
        <ele>709</ele>
        <time>2016-10-09T09:01:43Z</time>
      </trkpt>
      <trkpt lat="47.22068" lon="6.52686">
        <ele>710</ele>
        <time>2016-10-09T09:01:45Z</time>
      </trkpt>
      <trkpt lat="47.22086" lon="6.5268">
        <ele>712</ele>
        <time>2016-10-09T09:01:49Z</time>
      </trkpt>
      <trkpt lat="47.22094" lon="6.52675">
        <ele>712</ele>
        <time>2016-10-09T09:01:51Z</time>
      </trkpt>
      <trkpt lat="47.22104" lon="6.52669">
        <ele>712</ele>
        <time>2016-10-09T09:01:53Z</time>
      </trkpt>
      <trkpt lat="47.22118" lon="6.52654">
        <ele>712</ele>
        <time>2016-10-09T09:01:57Z</time>
      </trkpt>
      <trkpt lat="47.22126" lon="6.52632">
        <ele>712</ele>
        <time>2016-10-09T09:02:01Z</time>
      </trkpt>
      <trkpt lat="47.22133" lon="6.5262">
        <ele>712</ele>
        <time>2016-10-09T09:02:03Z</time>
      </trkpt>
      <trkpt lat="47.22138" lon="6.52606">
        <ele>712</ele>
        <time>2016-10-09T09:02:05Z</time>
      </trkpt>
      <trkpt lat="47.22146" lon="6.52597">
        <ele>712</ele>
        <time>2016-10-09T09:02:07Z</time>
      </trkpt>
      <trkpt lat="47.22154" lon="6.52586">
        <ele>712</ele>
        <time>2016-10-09T09:02:09Z</time>
      </trkpt>
      <trkpt lat="47.2216" lon="6.52574">
        <ele>712</ele>
        <time>2016-10-09T09:02:11Z</time>
      </trkpt>
      <trkpt lat="47.22167" lon="6.52558">
        <ele>712</ele>
        <time>2016-10-09T09:02:13Z</time>
      </trkpt>
      <trkpt lat="47.22173" lon="6.52547">
        <ele>712</ele>
        <time>2016-10-09T09:02:15Z</time>
      </trkpt>
      <trkpt lat="47.22178" lon="6.52525">
        <ele>712</ele>
        <time>2016-10-09T09:02:19Z</time>
      </trkpt>
      <trkpt lat="47.22189" lon="6.52503">
        <ele>712</ele>
        <time>2016-10-09T09:02:21Z</time>
      </trkpt>
      <trkpt lat="47.22198" lon="6.52484">
        <ele>712</ele>
        <time>2016-10-09T09:02:23Z</time>
      </trkpt>
      <trkpt lat="47.22203" lon="6.52465">
        <ele>712</ele>
        <time>2016-10-09T09:02:25Z</time>
      </trkpt>
      <trkpt lat="47.22193" lon="6.52446">
        <ele>712</ele>
        <time>2016-10-09T09:02:27Z</time>
      </trkpt>
      <trkpt lat="47.22193" lon="6.52423">
        <ele>713</ele>
        <time>2016-10-09T09:02:29Z</time>
      </trkpt>
      <trkpt lat="47.22203" lon="6.52403">
        <ele>712</ele>
        <time>2016-10-09T09:02:31Z</time>
      </trkpt>
      <trkpt lat="47.22215" lon="6.52386">
        <ele>712</ele>
        <time>2016-10-09T09:02:33Z</time>
      </trkpt>
      <trkpt lat="47.22226" lon="6.52376">
        <ele>711</ele>
        <time>2016-10-09T09:02:35Z</time>
      </trkpt>
      <trkpt lat="47.22236" lon="6.5236">
        <ele>711</ele>
        <time>2016-10-09T09:02:37Z</time>
      </trkpt>
      <trkpt lat="47.22247" lon="6.52346">
        <ele>710</ele>
        <time>2016-10-09T09:02:39Z</time>
      </trkpt>
      <trkpt lat="47.22257" lon="6.52332">
        <ele>709</ele>
        <time>2016-10-09T09:02:41Z</time>
      </trkpt>
      <trkpt lat="47.22268" lon="6.52315">
        <ele>708</ele>
        <time>2016-10-09T09:02:43Z</time>
      </trkpt>
      <trkpt lat="47.22278" lon="6.52297">
        <ele>707</ele>
        <time>2016-10-09T09:02:45Z</time>
      </trkpt>
      <trkpt lat="47.22291" lon="6.5229">
        <ele>707</ele>
        <time>2016-10-09T09:02:47Z</time>
      </trkpt>
      <trkpt lat="47.22301" lon="6.52283">
        <ele>707</ele>
        <time>2016-10-09T09:02:49Z</time>
      </trkpt>
      <trkpt lat="47.22312" lon="6.5228">
        <ele>707</ele>
        <time>2016-10-09T09:02:51Z</time>
      </trkpt>
      <trkpt lat="47.22323" lon="6.52283">
        <ele>707</ele>
        <time>2016-10-09T09:02:53Z</time>
      </trkpt>
      <trkpt lat="47.22333" lon="6.52292">
        <ele>707</ele>
        <time>2016-10-09T09:02:55Z</time>
      </trkpt>
      <trkpt lat="47.22341" lon="6.523">
        <ele>707</ele>
        <time>2016-10-09T09:02:57Z</time>
      </trkpt>
      <trkpt lat="47.22344" lon="6.52315">
        <ele>707</ele>
        <time>2016-10-09T09:03:03Z</time>
      </trkpt>
      <trkpt lat="47.22347" lon="6.52335">
        <ele>709</ele>
        <time>2016-10-09T09:03:11Z</time>
      </trkpt>
      <trkpt lat="47.22356" lon="6.52358">
        <ele>709</ele>
        <time>2016-10-09T09:03:17Z</time>
      </trkpt>
      <trkpt lat="47.22366" lon="6.52363">
        <ele>709</ele>
        <time>2016-10-09T09:03:21Z</time>
      </trkpt>
      <trkpt lat="47.22373" lon="6.52373">
        <ele>709</ele>
        <time>2016-10-09T09:03:25Z</time>
      </trkpt>
      <trkpt lat="47.22377" lon="6.52386">
        <ele>710</ele>
        <time>2016-10-09T09:03:29Z</time>
      </trkpt>
      <trkpt lat="47.22377" lon="6.524">
        <ele>710</ele>
        <time>2016-10-09T09:03:35Z</time>
      </trkpt>
      <trkpt lat="47.22377" lon="6.5242">
        <ele>712</ele>
        <time>2016-10-09T09:03:39Z</time>
      </trkpt>
      <trkpt lat="47.22383" lon="6.52441">
        <ele>713</ele>
        <time>2016-10-09T09:03:41Z</time>
      </trkpt>
      <trkpt lat="47.22372" lon="6.52461">
        <ele>713</ele>
        <time>2016-10-09T09:03:45Z</time>
      </trkpt>
      <trkpt lat="47.22371" lon="6.52476">
        <ele>714</ele>
        <time>2016-10-09T09:03:49Z</time>
      </trkpt>
      <trkpt lat="47.22364" lon="6.52487">
        <ele>714</ele>
        <time>2016-10-09T09:03:53Z</time>
      </trkpt>
      <trkpt lat="47.22356" lon="6.52503">
        <ele>717</ele>
        <time>2016-10-09T09:03:57Z</time>
      </trkpt>
      <trkpt lat="47.22344" lon="6.52509">
        <ele>716</ele>
        <time>2016-10-09T09:04:01Z</time>
      </trkpt>
      <trkpt lat="47.22336" lon="6.52519">
        <ele>717</ele>
        <time>2016-10-09T09:04:03Z</time>
      </trkpt>
      <trkpt lat="47.22329" lon="6.5253">
        <ele>716</ele>
        <time>2016-10-09T09:04:05Z</time>
      </trkpt>
      <trkpt lat="47.22318" lon="6.52554">
        <ele>717</ele>
        <time>2016-10-09T09:04:07Z</time>
      </trkpt>
      <trkpt lat="47.22313" lon="6.52572">
        <ele>718</ele>
        <time>2016-10-09T09:04:09Z</time>
      </trkpt>
      <trkpt lat="47.22304" lon="6.52586">
        <ele>719</ele>
        <time>2016-10-09T09:04:11Z</time>
      </trkpt>
      <trkpt lat="47.22296" lon="6.52594">
        <ele>719</ele>
        <time>2016-10-09T09:04:13Z</time>
      </trkpt>
      <trkpt lat="47.2229" lon="6.52606">
        <ele>718</ele>
        <time>2016-10-09T09:04:15Z</time>
      </trkpt>
      <trkpt lat="47.22283" lon="6.52622">
        <ele>718</ele>
        <time>2016-10-09T09:04:17Z</time>
      </trkpt>
      <trkpt lat="47.22276" lon="6.52633">
        <ele>718</ele>
        <time>2016-10-09T09:04:19Z</time>
      </trkpt>
      <trkpt lat="47.2227" lon="6.52647">
        <ele>718</ele>
        <time>2016-10-09T09:04:21Z</time>
      </trkpt>
      <trkpt lat="47.22269" lon="6.52664">
        <ele>718</ele>
        <time>2016-10-09T09:04:23Z</time>
      </trkpt>
      <trkpt lat="47.22273" lon="6.52685">
        <ele>719</ele>
        <time>2016-10-09T09:04:27Z</time>
      </trkpt>
      <trkpt lat="47.22285" lon="6.52697">
        <ele>719</ele>
        <time>2016-10-09T09:04:31Z</time>
      </trkpt>
      <trkpt lat="47.22296" lon="6.52707">
        <ele>720</ele>
        <time>2016-10-09T09:04:35Z</time>
      </trkpt>
      <trkpt lat="47.22306" lon="6.52713">
        <ele>720</ele>
        <time>2016-10-09T09:04:39Z</time>
      </trkpt>
      <trkpt lat="47.22315" lon="6.52719">
        <ele>720</ele>
        <time>2016-10-09T09:04:43Z</time>
      </trkpt>
      <trkpt lat="47.22325" lon="6.52725">
        <ele>721</ele>
        <time>2016-10-09T09:04:45Z</time>
      </trkpt>
      <trkpt lat="47.22334" lon="6.52732">
        <ele>723</ele>
        <time>2016-10-09T09:04:47Z</time>
      </trkpt>
      <trkpt lat="47.22342" lon="6.52748">
        <ele>723</ele>
        <time>2016-10-09T09:04:51Z</time>
      </trkpt>
      <trkpt lat="47.22347" lon="6.5276">
        <ele>723</ele>
        <time>2016-10-09T09:04:55Z</time>
      </trkpt>
      <trkpt lat="47.22356" lon="6.52772">
        <ele>722</ele>
        <time>2016-10-09T09:04:59Z</time>
      </trkpt>
      <trkpt lat="47.2237" lon="6.52778">
        <ele>722</ele>
        <time>2016-10-09T09:05:03Z</time>
      </trkpt>
      <trkpt lat="47.22368" lon="6.52796">
        <ele>722</ele>
        <time>2016-10-09T09:05:07Z</time>
      </trkpt>
      <trkpt lat="47.22364" lon="6.52813">
        <ele>722</ele>
        <time>2016-10-09T09:05:11Z</time>
      </trkpt>
      <trkpt lat="47.2237" lon="6.52839">
        <ele>719</ele>
        <time>2016-10-09T09:05:15Z</time>
      </trkpt>
      <trkpt lat="47.22371" lon="6.52858">
        <ele>719</ele>
        <time>2016-10-09T09:05:19Z</time>
      </trkpt>
      <trkpt lat="47.22366" lon="6.52887">
        <ele>718</ele>
        <time>2016-10-09T09:05:23Z</time>
      </trkpt>
      <trkpt lat="47.22356" lon="6.52902">
        <ele>718</ele>
        <time>2016-10-09T09:05:25Z</time>
      </trkpt>
      <trkpt lat="47.22342" lon="6.52916">
        <ele>717</ele>
        <time>2016-10-09T09:05:27Z</time>
      </trkpt>
      <trkpt lat="47.2233" lon="6.52929">
        <ele>715</ele>
        <time>2016-10-09T09:05:29Z</time>
      </trkpt>
      <trkpt lat="47.22323" lon="6.52946">
        <ele>714</ele>
        <time>2016-10-09T09:05:31Z</time>
      </trkpt>
      <trkpt lat="47.2232" lon="6.52965">
        <ele>714</ele>
        <time>2016-10-09T09:05:35Z</time>
      </trkpt>
      <trkpt lat="47.22317" lon="6.52988">
        <ele>714</ele>
        <time>2016-10-09T09:05:39Z</time>
      </trkpt>
      <trkpt lat="47.22314" lon="6.53005">
        <ele>712</ele>
        <time>2016-10-09T09:05:43Z</time>
      </trkpt>
      <trkpt lat="47.22311" lon="6.5302">
        <ele>712</ele>
        <time>2016-10-09T09:05:47Z</time>
      </trkpt>
      <trkpt lat="47.22311" lon="6.53035">
        <ele>711</ele>
        <time>2016-10-09T09:05:51Z</time>
      </trkpt>
      <trkpt lat="47.22311" lon="6.53052">
        <ele>711</ele>
        <time>2016-10-09T09:05:53Z</time>
      </trkpt>
      <trkpt lat="47.22311" lon="6.5307">
        <ele>711</ele>
        <time>2016-10-09T09:05:57Z</time>
      </trkpt>
      <trkpt lat="47.22306" lon="6.5309">
        <ele>709</ele>
        <time>2016-10-09T09:06:01Z</time>
      </trkpt>
      <trkpt lat="47.2229" lon="6.53102">
        <ele>708</ele>
        <time>2016-10-09T09:06:05Z</time>
      </trkpt>
      <trkpt lat="47.22283" lon="6.53115">
        <ele>708</ele>
        <time>2016-10-09T09:06:07Z</time>
      </trkpt>
      <trkpt lat="47.22275" lon="6.53127">
        <ele>708</ele>
        <time>2016-10-09T09:06:09Z</time>
      </trkpt>
      <trkpt lat="47.22267" lon="6.53139">
        <ele>708</ele>
        <time>2016-10-09T09:06:11Z</time>
      </trkpt>
      <trkpt lat="47.22257" lon="6.53148">
        <ele>707</ele>
        <time>2016-10-09T09:06:13Z</time>
      </trkpt>
      <trkpt lat="47.22246" lon="6.53156">
        <ele>706</ele>
        <time>2016-10-09T09:06:15Z</time>
      </trkpt>
      <trkpt lat="47.22235" lon="6.53165">
        <ele>706</ele>
        <time>2016-10-09T09:06:17Z</time>
      </trkpt>
      <trkpt lat="47.22224" lon="6.53173">
        <ele>705</ele>
        <time>2016-10-09T09:06:19Z</time>
      </trkpt>
      <trkpt lat="47.22213" lon="6.53183">
        <ele>705</ele>
        <time>2016-10-09T09:06:21Z</time>
      </trkpt>
      <trkpt lat="47.22201" lon="6.53193">
        <ele>705</ele>
        <time>2016-10-09T09:06:23Z</time>
      </trkpt>
      <trkpt lat="47.2219" lon="6.53205">
        <ele>705</ele>
        <time>2016-10-09T09:06:25Z</time>
      </trkpt>
      <trkpt lat="47.22179" lon="6.53217">
        <ele>705</ele>
        <time>2016-10-09T09:06:27Z</time>
      </trkpt>
      <trkpt lat="47.22169" lon="6.5323">
        <ele>705</ele>
        <time>2016-10-09T09:06:29Z</time>
      </trkpt>
      <trkpt lat="47.22159" lon="6.53244">
        <ele>704</ele>
        <time>2016-10-09T09:06:31Z</time>
      </trkpt>
      <trkpt lat="47.22151" lon="6.53259">
        <ele>704</ele>
        <time>2016-10-09T09:06:33Z</time>
      </trkpt>
      <trkpt lat="47.22146" lon="6.53275">
        <ele>704</ele>
        <time>2016-10-09T09:06:35Z</time>
      </trkpt>
      <trkpt lat="47.2214" lon="6.53289">
        <ele>704</ele>
        <time>2016-10-09T09:06:37Z</time>
      </trkpt>
      <trkpt lat="47.22137" lon="6.53306">
        <ele>704</ele>
        <time>2016-10-09T09:06:39Z</time>
      </trkpt>
      <trkpt lat="47.22134" lon="6.53326">
        <ele>704</ele>
        <time>2016-10-09T09:06:41Z</time>
      </trkpt>
      <trkpt lat="47.22132" lon="6.53345">
        <ele>704</ele>
        <time>2016-10-09T09:06:43Z</time>
      </trkpt>
      <trkpt lat="47.22123" lon="6.53369">
        <ele>704</ele>
        <time>2016-10-09T09:06:46Z</time>
      </trkpt>
      <trkpt lat="47.22107" lon="6.534">
        <ele>704</ele>
        <time>2016-10-09T09:06:51Z</time>
      </trkpt>
      <trkpt lat="47.22098" lon="6.53415">
        <ele>704</ele>
        <time>2016-10-09T09:06:52Z</time>
      </trkpt>
      <trkpt lat="47.22088" lon="6.53428">
        <ele>704</ele>
        <time>2016-10-09T09:06:54Z</time>
      </trkpt>
      <trkpt lat="47.22077" lon="6.53438">
        <ele>704</ele>
        <time>2016-10-09T09:06:56Z</time>
      </trkpt>
      <trkpt lat="47.22066" lon="6.53448">
        <ele>703</ele>
        <time>2016-10-09T09:06:58Z</time>
      </trkpt>
      <trkpt lat="47.22051" lon="6.53457">
        <ele>703</ele>
        <time>2016-10-09T09:07:00Z</time>
      </trkpt>
      <trkpt lat="47.2204" lon="6.53462">
        <ele>703</ele>
        <time>2016-10-09T09:07:02Z</time>
      </trkpt>
      <trkpt lat="47.22031" lon="6.53472">
        <ele>703</ele>
        <time>2016-10-09T09:07:04Z</time>
      </trkpt>
      <trkpt lat="47.22021" lon="6.53478">
        <ele>703</ele>
        <time>2016-10-09T09:07:06Z</time>
      </trkpt>
      <trkpt lat="47.22011" lon="6.53486">
        <ele>703</ele>
        <time>2016-10-09T09:07:08Z</time>
      </trkpt>
      <trkpt lat="47.21999" lon="6.53492">
        <ele>703</ele>
        <time>2016-10-09T09:07:10Z</time>
      </trkpt>
      <trkpt lat="47.21988" lon="6.53499">
        <ele>703</ele>
        <time>2016-10-09T09:07:12Z</time>
      </trkpt>
      <trkpt lat="47.21978" lon="6.53506">
        <ele>704</ele>
        <time>2016-10-09T09:07:14Z</time>
      </trkpt>
      <trkpt lat="47.21967" lon="6.53514">
        <ele>704</ele>
        <time>2016-10-09T09:07:16Z</time>
      </trkpt>
      <trkpt lat="47.21958" lon="6.53522">
        <ele>704</ele>
        <time>2016-10-09T09:07:18Z</time>
      </trkpt>
      <trkpt lat="47.21947" lon="6.53531">
        <ele>704</ele>
        <time>2016-10-09T09:07:20Z</time>
      </trkpt>
      <trkpt lat="47.21937" lon="6.5354">
        <ele>704</ele>
        <time>2016-10-09T09:07:22Z</time>
      </trkpt>
      <trkpt lat="47.21924" lon="6.5355">
        <ele>705</ele>
        <time>2016-10-09T09:07:24Z</time>
      </trkpt>
      <trkpt lat="47.21913" lon="6.53556">
        <ele>703</ele>
        <time>2016-10-09T09:07:26Z</time>
      </trkpt>
      <trkpt lat="47.21902" lon="6.53564">
        <ele>703</ele>
        <time>2016-10-09T09:07:28Z</time>
      </trkpt>
      <trkpt lat="47.2189" lon="6.53573">
        <ele>703</ele>
        <time>2016-10-09T09:07:30Z</time>
      </trkpt>
      <trkpt lat="47.21881" lon="6.53582">
        <ele>703</ele>
        <time>2016-10-09T09:07:32Z</time>
      </trkpt>
      <trkpt lat="47.21871" lon="6.5359">
        <ele>705</ele>
        <time>2016-10-09T09:07:34Z</time>
      </trkpt>
      <trkpt lat="47.2186" lon="6.536">
        <ele>704</ele>
        <time>2016-10-09T09:07:36Z</time>
      </trkpt>
      <trkpt lat="47.2185" lon="6.53612">
        <ele>704</ele>
        <time>2016-10-09T09:07:38Z</time>
      </trkpt>
      <trkpt lat="47.21838" lon="6.5362">
        <ele>704</ele>
        <time>2016-10-09T09:07:40Z</time>
      </trkpt>
      <trkpt lat="47.21827" lon="6.53632">
        <ele>702</ele>
        <time>2016-10-09T09:07:42Z</time>
      </trkpt>
      <trkpt lat="47.21817" lon="6.53644">
        <ele>702</ele>
        <time>2016-10-09T09:07:44Z</time>
      </trkpt>
      <trkpt lat="47.21805" lon="6.53658">
        <ele>702</ele>
        <time>2016-10-09T09:07:46Z</time>
      </trkpt>
      <trkpt lat="47.21793" lon="6.53671">
        <ele>702</ele>
        <time>2016-10-09T09:07:48Z</time>
      </trkpt>
      <trkpt lat="47.21781" lon="6.53685">
        <ele>701</ele>
        <time>2016-10-09T09:07:50Z</time>
      </trkpt>
      <trkpt lat="47.2177" lon="6.53696">
        <ele>701</ele>
        <time>2016-10-09T09:07:52Z</time>
      </trkpt>
      <trkpt lat="47.21758" lon="6.53707">
        <ele>701</ele>
        <time>2016-10-09T09:07:54Z</time>
      </trkpt>
      <trkpt lat="47.21747" lon="6.53722">
        <ele>699</ele>
        <time>2016-10-09T09:07:56Z</time>
      </trkpt>
      <trkpt lat="47.21737" lon="6.53736">
        <ele>699</ele>
        <time>2016-10-09T09:07:58Z</time>
      </trkpt>
      <trkpt lat="47.21728" lon="6.53748">
        <ele>699</ele>
        <time>2016-10-09T09:08:00Z</time>
      </trkpt>
      <trkpt lat="47.21721" lon="6.5376">
        <ele>698</ele>
        <time>2016-10-09T09:08:02Z</time>
      </trkpt>
      <trkpt lat="47.21717" lon="6.53776">
        <ele>698</ele>
        <time>2016-10-09T09:08:04Z</time>
      </trkpt>
      <trkpt lat="47.2172" lon="6.5379">
        <ele>698</ele>
        <time>2016-10-09T09:08:06Z</time>
      </trkpt>
      <trkpt lat="47.21725" lon="6.53811">
        <ele>698</ele>
        <time>2016-10-09T09:08:10Z</time>
      </trkpt>
      <trkpt lat="47.21733" lon="6.53827">
        <ele>698</ele>
        <time>2016-10-09T09:08:12Z</time>
      </trkpt>
      <trkpt lat="47.21741" lon="6.53842">
        <ele>698</ele>
        <time>2016-10-09T09:08:14Z</time>
      </trkpt>
      <trkpt lat="47.21749" lon="6.53858">
        <ele>697</ele>
        <time>2016-10-09T09:08:16Z</time>
      </trkpt>
      <trkpt lat="47.21757" lon="6.53873">
        <ele>699</ele>
        <time>2016-10-09T09:08:18Z</time>
      </trkpt>
      <trkpt lat="47.21761" lon="6.53888">
        <ele>698</ele>
        <time>2016-10-09T09:08:20Z</time>
      </trkpt>
      <trkpt lat="47.21769" lon="6.53903">
        <ele>698</ele>
        <time>2016-10-09T09:08:22Z</time>
      </trkpt>
      <trkpt lat="47.21777" lon="6.53917">
        <ele>697</ele>
        <time>2016-10-09T09:08:24Z</time>
      </trkpt>
      <trkpt lat="47.21784" lon="6.53933">
        <ele>698</ele>
        <time>2016-10-09T09:08:26Z</time>
      </trkpt>
      <trkpt lat="47.2179" lon="6.5395">
        <ele>698</ele>
        <time>2016-10-09T09:08:28Z</time>
      </trkpt>
      <trkpt lat="47.21796" lon="6.53962">
        <ele>698</ele>
        <time>2016-10-09T09:08:30Z</time>
      </trkpt>
      <trkpt lat="47.21803" lon="6.53977">
        <ele>698</ele>
        <time>2016-10-09T09:08:32Z</time>
      </trkpt>
      <trkpt lat="47.2181" lon="6.53992">
        <ele>698</ele>
        <time>2016-10-09T09:08:34Z</time>
      </trkpt>
      <trkpt lat="47.21815" lon="6.54006">
        <ele>697</ele>
        <time>2016-10-09T09:08:36Z</time>
      </trkpt>
      <trkpt lat="47.21822" lon="6.54023">
        <ele>697</ele>
        <time>2016-10-09T09:08:38Z</time>
      </trkpt>
      <trkpt lat="47.21829" lon="6.54038">
        <ele>697</ele>
        <time>2016-10-09T09:08:40Z</time>
      </trkpt>
      <trkpt lat="47.21835" lon="6.54051">
        <ele>698</ele>
        <time>2016-10-09T09:08:42Z</time>
      </trkpt>
      <trkpt lat="47.2184" lon="6.54066">
        <ele>698</ele>
        <time>2016-10-09T09:08:44Z</time>
      </trkpt>
      <trkpt lat="47.21846" lon="6.54081">
        <ele>698</ele>
        <time>2016-10-09T09:08:46Z</time>
      </trkpt>
      <trkpt lat="47.21853" lon="6.54094">
        <ele>697</ele>
        <time>2016-10-09T09:08:48Z</time>
      </trkpt>
      <trkpt lat="47.21856" lon="6.54112">
        <ele>697</ele>
        <time>2016-10-09T09:08:50Z</time>
      </trkpt>
      <trkpt lat="47.21861" lon="6.54129">
        <ele>697</ele>
        <time>2016-10-09T09:08:52Z</time>
      </trkpt>
      <trkpt lat="47.21867" lon="6.54145">
        <ele>697</ele>
        <time>2016-10-09T09:08:54Z</time>
      </trkpt>
      <trkpt lat="47.21873" lon="6.5416">
        <ele>697</ele>
        <time>2016-10-09T09:08:56Z</time>
      </trkpt>
      <trkpt lat="47.21881" lon="6.5418">
        <ele>696</ele>
        <time>2016-10-09T09:08:58Z</time>
      </trkpt>
      <trkpt lat="47.21889" lon="6.54197">
        <ele>696</ele>
        <time>2016-10-09T09:09:00Z</time>
      </trkpt>
      <trkpt lat="47.21892" lon="6.5421">
        <ele>696</ele>
        <time>2016-10-09T09:09:02Z</time>
      </trkpt>
      <trkpt lat="47.21888" lon="6.54225">
        <ele>695</ele>
        <time>2016-10-09T09:09:04Z</time>
      </trkpt>
      <trkpt lat="47.21878" lon="6.54234">
        <ele>695</ele>
        <time>2016-10-09T09:09:06Z</time>
      </trkpt>
      <trkpt lat="47.2187" lon="6.54248">
        <ele>695</ele>
        <time>2016-10-09T09:09:08Z</time>
      </trkpt>
      <trkpt lat="47.21863" lon="6.54262">
        <ele>694</ele>
        <time>2016-10-09T09:09:10Z</time>
      </trkpt>
      <trkpt lat="47.21857" lon="6.54273">
        <ele>694</ele>
        <time>2016-10-09T09:09:12Z</time>
      </trkpt>
      <trkpt lat="47.2185" lon="6.54283">
        <ele>694</ele>
        <time>2016-10-09T09:09:14Z</time>
      </trkpt>
      <trkpt lat="47.21839" lon="6.54295">
        <ele>694</ele>
        <time>2016-10-09T09:09:18Z</time>
      </trkpt>
      <trkpt lat="47.21823" lon="6.5431">
        <ele>695</ele>
        <time>2016-10-09T09:09:22Z</time>
      </trkpt>
      <trkpt lat="47.21818" lon="6.54322">
        <ele>695</ele>
        <time>2016-10-09T09:09:24Z</time>
      </trkpt>
      <trkpt lat="47.21807" lon="6.54343">
        <ele>694</ele>
        <time>2016-10-09T09:09:28Z</time>
      </trkpt>
      <trkpt lat="47.21798" lon="6.54351">
        <ele>694</ele>
        <time>2016-10-09T09:09:30Z</time>
      </trkpt>
      <trkpt lat="47.21789" lon="6.54359">
        <ele>694</ele>
        <time>2016-10-09T09:09:32Z</time>
      </trkpt>
      <trkpt lat="47.21778" lon="6.54368">
        <ele>694</ele>
        <time>2016-10-09T09:09:34Z</time>
      </trkpt>
      <trkpt lat="47.21767" lon="6.54382">
        <ele>694</ele>
        <time>2016-10-09T09:09:36Z</time>
      </trkpt>
      <trkpt lat="47.21756" lon="6.54396">
        <ele>694</ele>
        <time>2016-10-09T09:09:38Z</time>
      </trkpt>
      <trkpt lat="47.21749" lon="6.5441">
        <ele>694</ele>
        <time>2016-10-09T09:09:40Z</time>
      </trkpt>
      <trkpt lat="47.21738" lon="6.54422">
        <ele>694</ele>
        <time>2016-10-09T09:09:42Z</time>
      </trkpt>
      <trkpt lat="47.21729" lon="6.54431">
        <ele>694</ele>
        <time>2016-10-09T09:09:44Z</time>
      </trkpt>
      <trkpt lat="47.21721" lon="6.54444">
        <ele>695</ele>
        <time>2016-10-09T09:09:46Z</time>
      </trkpt>
      <trkpt lat="47.21714" lon="6.54458">
        <ele>695</ele>
        <time>2016-10-09T09:09:48Z</time>
      </trkpt>
      <trkpt lat="47.2171" lon="6.5447">
        <ele>695</ele>
        <time>2016-10-09T09:09:50Z</time>
      </trkpt>
      <trkpt lat="47.21699" lon="6.54484">
        <ele>695</ele>
        <time>2016-10-09T09:09:52Z</time>
      </trkpt>
      <trkpt lat="47.21691" lon="6.54497">
        <ele>695</ele>
        <time>2016-10-09T09:09:54Z</time>
      </trkpt>
      <trkpt lat="47.21685" lon="6.5451">
        <ele>696</ele>
        <time>2016-10-09T09:09:56Z</time>
      </trkpt>
      <trkpt lat="47.21676" lon="6.54521">
        <ele>696</ele>
        <time>2016-10-09T09:09:58Z</time>
      </trkpt>
      <trkpt lat="47.21667" lon="6.5453">
        <ele>696</ele>
        <time>2016-10-09T09:10:00Z</time>
      </trkpt>
      <trkpt lat="47.21658" lon="6.54537">
        <ele>696</ele>
        <time>2016-10-09T09:10:02Z</time>
      </trkpt>
      <trkpt lat="47.21648" lon="6.54541">
        <ele>696</ele>
        <time>2016-10-09T09:10:04Z</time>
      </trkpt>
      <trkpt lat="47.21638" lon="6.54542">
        <ele>696</ele>
        <time>2016-10-09T09:10:06Z</time>
      </trkpt>
      <trkpt lat="47.21628" lon="6.54538">
        <ele>696</ele>
        <time>2016-10-09T09:10:08Z</time>
      </trkpt>
      <trkpt lat="47.21621" lon="6.54529">
        <ele>696</ele>
        <time>2016-10-09T09:10:10Z</time>
      </trkpt>
      <trkpt lat="47.21614" lon="6.54519">
        <ele>696</ele>
        <time>2016-10-09T09:10:12Z</time>
      </trkpt>
      <trkpt lat="47.21608" lon="6.54509">
        <ele>696</ele>
        <time>2016-10-09T09:10:14Z</time>
      </trkpt>
      <trkpt lat="47.21603" lon="6.54496">
        <ele>696</ele>
        <time>2016-10-09T09:10:16Z</time>
      </trkpt>
      <trkpt lat="47.21592" lon="6.54486">
        <ele>696</ele>
        <time>2016-10-09T09:10:18Z</time>
      </trkpt>
      <trkpt lat="47.21581" lon="6.54496">
        <ele>696</ele>
        <time>2016-10-09T09:10:20Z</time>
      </trkpt>
      <trkpt lat="47.21574" lon="6.54512">
        <ele>695</ele>
        <time>2016-10-09T09:10:22Z</time>
      </trkpt>
      <trkpt lat="47.21569" lon="6.54532">
        <ele>695</ele>
        <time>2016-10-09T09:10:24Z</time>
      </trkpt>
      <trkpt lat="47.21561" lon="6.5455">
        <ele>695</ele>
        <time>2016-10-09T09:10:26Z</time>
      </trkpt>
      <trkpt lat="47.21552" lon="6.54564">
        <ele>694</ele>
        <time>2016-10-09T09:10:28Z</time>
      </trkpt>
      <trkpt lat="47.21542" lon="6.54577">
        <ele>694</ele>
        <time>2016-10-09T09:10:30Z</time>
      </trkpt>
      <trkpt lat="47.21536" lon="6.54589">
        <ele>695</ele>
        <time>2016-10-09T09:10:32Z</time>
      </trkpt>
      <trkpt lat="47.2153" lon="6.54605">
        <ele>695</ele>
        <time>2016-10-09T09:10:34Z</time>
      </trkpt>
      <trkpt lat="47.21524" lon="6.54617">
        <ele>695</ele>
        <time>2016-10-09T09:10:36Z</time>
      </trkpt>
      <trkpt lat="47.2152" lon="6.54631">
        <ele>695</ele>
        <time>2016-10-09T09:10:38Z</time>
      </trkpt>
      <trkpt lat="47.21518" lon="6.54645">
        <ele>696</ele>
        <time>2016-10-09T09:10:40Z</time>
      </trkpt>
      <trkpt lat="47.21516" lon="6.5466">
        <ele>696</ele>
        <time>2016-10-09T09:10:42Z</time>
      </trkpt>
      <trkpt lat="47.21515" lon="6.54687">
        <ele>697</ele>
        <time>2016-10-09T09:10:46Z</time>
      </trkpt>
      <trkpt lat="47.21517" lon="6.547">
        <ele>697</ele>
        <time>2016-10-09T09:10:48Z</time>
      </trkpt>
      <trkpt lat="47.21527" lon="6.54727">
        <ele>697</ele>
        <time>2016-10-09T09:10:52Z</time>
      </trkpt>
      <trkpt lat="47.21531" lon="6.5474">
        <ele>698</ele>
        <time>2016-10-09T09:10:54Z</time>
      </trkpt>
      <trkpt lat="47.21536" lon="6.54754">
        <ele>698</ele>
        <time>2016-10-09T09:10:56Z</time>
      </trkpt>
      <trkpt lat="47.21541" lon="6.54766">
        <ele>698</ele>
        <time>2016-10-09T09:10:58Z</time>
      </trkpt>
      <trkpt lat="47.21544" lon="6.54779">
        <ele>698</ele>
        <time>2016-10-09T09:11:00Z</time>
      </trkpt>
      <trkpt lat="47.2155" lon="6.54793">
        <ele>698</ele>
        <time>2016-10-09T09:11:02Z</time>
      </trkpt>
      <trkpt lat="47.21551" lon="6.54818">
        <ele>698</ele>
        <time>2016-10-09T09:11:06Z</time>
      </trkpt>
      <trkpt lat="47.21554" lon="6.54832">
        <ele>698</ele>
        <time>2016-10-09T09:11:08Z</time>
      </trkpt>
      <trkpt lat="47.21557" lon="6.54849">
        <ele>699</ele>
        <time>2016-10-09T09:11:10Z</time>
      </trkpt>
      <trkpt lat="47.21563" lon="6.54865">
        <ele>699</ele>
        <time>2016-10-09T09:11:12Z</time>
      </trkpt>
      <trkpt lat="47.21567" lon="6.54879">
        <ele>699</ele>
        <time>2016-10-09T09:11:14Z</time>
      </trkpt>
      <trkpt lat="47.21568" lon="6.54896">
        <ele>700</ele>
        <time>2016-10-09T09:11:16Z</time>
      </trkpt>
      <trkpt lat="47.21566" lon="6.5491">
        <ele>700</ele>
        <time>2016-10-09T09:11:18Z</time>
      </trkpt>
      <trkpt lat="47.21559" lon="6.54921">
        <ele>700</ele>
        <time>2016-10-09T09:11:20Z</time>
      </trkpt>
      <trkpt lat="47.21553" lon="6.54931">
        <ele>700</ele>
        <time>2016-10-09T09:11:22Z</time>
      </trkpt>
      <trkpt lat="47.21547" lon="6.54943">
        <ele>700</ele>
        <time>2016-10-09T09:11:24Z</time>
      </trkpt>
      <trkpt lat="47.2154" lon="6.54957">
        <ele>700</ele>
        <time>2016-10-09T09:11:26Z</time>
      </trkpt>
      <trkpt lat="47.21536" lon="6.54971">
        <ele>700</ele>
        <time>2016-10-09T09:11:28Z</time>
      </trkpt>
      <trkpt lat="47.21531" lon="6.54987">
        <ele>700</ele>
        <time>2016-10-09T09:11:30Z</time>
      </trkpt>
      <trkpt lat="47.21524" lon="6.55009">
        <ele>699</ele>
        <time>2016-10-09T09:11:32Z</time>
      </trkpt>
      <trkpt lat="47.21515" lon="6.55029">
        <ele>698</ele>
        <time>2016-10-09T09:11:34Z</time>
      </trkpt>
      <trkpt lat="47.21509" lon="6.55049">
        <ele>698</ele>
        <time>2016-10-09T09:11:36Z</time>
      </trkpt>
      <trkpt lat="47.21505" lon="6.55068">
        <ele>697</ele>
        <time>2016-10-09T09:11:38Z</time>
      </trkpt>
      <trkpt lat="47.21501" lon="6.55085">
        <ele>696</ele>
        <time>2016-10-09T09:11:40Z</time>
      </trkpt>
      <trkpt lat="47.21498" lon="6.55108">
        <ele>694</ele>
        <time>2016-10-09T09:11:42Z</time>
      </trkpt>
      <trkpt lat="47.21498" lon="6.5513">
        <ele>693</ele>
        <time>2016-10-09T09:11:44Z</time>
      </trkpt>
      <trkpt lat="47.21491" lon="6.55153">
        <ele>692</ele>
        <time>2016-10-09T09:11:46Z</time>
      </trkpt>
      <trkpt lat="47.21484" lon="6.55172">
        <ele>691</ele>
        <time>2016-10-09T09:11:48Z</time>
      </trkpt>
      <trkpt lat="47.21473" lon="6.55186">
        <ele>691</ele>
        <time>2016-10-09T09:11:50Z</time>
      </trkpt>
      <trkpt lat="47.21462" lon="6.55195">
        <ele>691</ele>
        <time>2016-10-09T09:11:52Z</time>
      </trkpt>
      <trkpt lat="47.21449" lon="6.55191">
        <ele>690</ele>
        <time>2016-10-09T09:11:54Z</time>
      </trkpt>
      <trkpt lat="47.21436" lon="6.55189">
        <ele>690</ele>
        <time>2016-10-09T09:11:56Z</time>
      </trkpt>
      <trkpt lat="47.2142" lon="6.55188">
        <ele>690</ele>
        <time>2016-10-09T09:11:58Z</time>
      </trkpt>
      <trkpt lat="47.21408" lon="6.552">
        <ele>687</ele>
        <time>2016-10-09T09:12:00Z</time>
      </trkpt>
      <trkpt lat="47.21398" lon="6.55218">
        <ele>687</ele>
        <time>2016-10-09T09:12:02Z</time>
      </trkpt>
      <trkpt lat="47.21394" lon="6.55233">
        <ele>687</ele>
        <time>2016-10-09T09:12:04Z</time>
      </trkpt>
      <trkpt lat="47.21392" lon="6.55252">
        <ele>688</ele>
        <time>2016-10-09T09:12:06Z</time>
      </trkpt>
      <trkpt lat="47.2139" lon="6.55268">
        <ele>689</ele>
        <time>2016-10-09T09:12:08Z</time>
      </trkpt>
      <trkpt lat="47.21385" lon="6.55282">
        <ele>689</ele>
        <time>2016-10-09T09:12:10Z</time>
      </trkpt>
      <trkpt lat="47.21371" lon="6.55304">
        <ele>689</ele>
        <time>2016-10-09T09:12:14Z</time>
      </trkpt>
      <trkpt lat="47.21368" lon="6.55317">
        <ele>689</ele>
        <time>2016-10-09T09:12:16Z</time>
      </trkpt>
      <trkpt lat="47.2136" lon="6.55329">
        <ele>690</ele>
        <time>2016-10-09T09:12:18Z</time>
      </trkpt>
      <trkpt lat="47.21355" lon="6.55343">
        <ele>692</ele>
        <time>2016-10-09T09:12:20Z</time>
      </trkpt>
      <trkpt lat="47.21351" lon="6.55357">
        <ele>692</ele>
        <time>2016-10-09T09:12:22Z</time>
      </trkpt>
      <trkpt lat="47.21348" lon="6.5537">
        <ele>693</ele>
        <time>2016-10-09T09:12:24Z</time>
      </trkpt>
      <trkpt lat="47.21344" lon="6.55385">
        <ele>694</ele>
        <time>2016-10-09T09:12:26Z</time>
      </trkpt>
      <trkpt lat="47.21338" lon="6.55411">
        <ele>695</ele>
        <time>2016-10-09T09:12:30Z</time>
      </trkpt>
      <trkpt lat="47.21335" lon="6.55423">
        <ele>696</ele>
        <time>2016-10-09T09:12:32Z</time>
      </trkpt>
      <trkpt lat="47.21327" lon="6.55449">
        <ele>697</ele>
        <time>2016-10-09T09:12:36Z</time>
      </trkpt>
      <trkpt lat="47.21317" lon="6.55469">
        <ele>698</ele>
        <time>2016-10-09T09:12:40Z</time>
      </trkpt>
      <trkpt lat="47.2131" lon="6.55495">
        <ele>698</ele>
        <time>2016-10-09T09:12:44Z</time>
      </trkpt>
      <trkpt lat="47.21306" lon="6.55508">
        <ele>700</ele>
        <time>2016-10-09T09:12:46Z</time>
      </trkpt>
      <trkpt lat="47.21302" lon="6.55522">
        <ele>701</ele>
        <time>2016-10-09T09:12:48Z</time>
      </trkpt>
      <trkpt lat="47.21302" lon="6.55546">
        <ele>701</ele>
        <time>2016-10-09T09:12:52Z</time>
      </trkpt>
      <trkpt lat="47.213" lon="6.55574">
        <ele>702</ele>
        <time>2016-10-09T09:12:56Z</time>
      </trkpt>
      <trkpt lat="47.21293" lon="6.55583">
        <ele>702</ele>
        <time>2016-10-09T09:12:58Z</time>
      </trkpt>
      <trkpt lat="47.21291" lon="6.55608">
        <ele>705</ele>
        <time>2016-10-09T09:13:02Z</time>
      </trkpt>
      <trkpt lat="47.21289" lon="6.55622">
        <ele>705</ele>
        <time>2016-10-09T09:13:04Z</time>
      </trkpt>
      <trkpt lat="47.21288" lon="6.55643">
        <ele>706</ele>
        <time>2016-10-09T09:13:08Z</time>
      </trkpt>
      <trkpt lat="47.21285" lon="6.55666">
        <ele>706</ele>
        <time>2016-10-09T09:13:12Z</time>
      </trkpt>
      <trkpt lat="47.21279" lon="6.55686">
        <ele>708</ele>
        <time>2016-10-09T09:13:16Z</time>
      </trkpt>
      <trkpt lat="47.2127" lon="6.55704">
        <ele>709</ele>
        <time>2016-10-09T09:13:20Z</time>
      </trkpt>
      <trkpt lat="47.21268" lon="6.55726">
        <ele>709</ele>
        <time>2016-10-09T09:13:24Z</time>
      </trkpt>
      <trkpt lat="47.21263" lon="6.55745">
        <ele>710</ele>
        <time>2016-10-09T09:13:28Z</time>
      </trkpt>
      <trkpt lat="47.21258" lon="6.55761">
        <ele>712</ele>
        <time>2016-10-09T09:13:32Z</time>
      </trkpt>
      <trkpt lat="47.21253" lon="6.55777">
        <ele>712</ele>
        <time>2016-10-09T09:13:36Z</time>
      </trkpt>
      <trkpt lat="47.21249" lon="6.55793">
        <ele>713</ele>
        <time>2016-10-09T09:13:40Z</time>
      </trkpt>
      <trkpt lat="47.21245" lon="6.55812">
        <ele>714</ele>
        <time>2016-10-09T09:13:44Z</time>
      </trkpt>
      <trkpt lat="47.21239" lon="6.5583">
        <ele>715</ele>
        <time>2016-10-09T09:13:48Z</time>
      </trkpt>
      <trkpt lat="47.21235" lon="6.55848">
        <ele>719</ele>
        <time>2016-10-09T09:13:52Z</time>
      </trkpt>
      <trkpt lat="47.2123" lon="6.55864">
        <ele>720</ele>
        <time>2016-10-09T09:13:56Z</time>
      </trkpt>
      <trkpt lat="47.21236" lon="6.5588">
        <ele>721</ele>
        <time>2016-10-09T09:14:00Z</time>
      </trkpt>
      <trkpt lat="47.21248" lon="6.5589">
        <ele>721</ele>
        <time>2016-10-09T09:14:04Z</time>
      </trkpt>
      <trkpt lat="47.21257" lon="6.55904">
        <ele>722</ele>
        <time>2016-10-09T09:14:08Z</time>
      </trkpt>
      <trkpt lat="47.21263" lon="6.55922">
        <ele>725</ele>
        <time>2016-10-09T09:14:12Z</time>
      </trkpt>
      <trkpt lat="47.21268" lon="6.5594">
        <ele>727</ele>
        <time>2016-10-09T09:14:18Z</time>
      </trkpt>
      <trkpt lat="47.21271" lon="6.55955">
        <ele>728</ele>
        <time>2016-10-09T09:14:24Z</time>
      </trkpt>
      <trkpt lat="47.21275" lon="6.55968">
        <ele>729</ele>
        <time>2016-10-09T09:14:28Z</time>
      </trkpt>
      <trkpt lat="47.21277" lon="6.55982">
        <ele>730</ele>
        <time>2016-10-09T09:14:32Z</time>
      </trkpt>
      <trkpt lat="47.21282" lon="6.55994">
        <ele>730</ele>
        <time>2016-10-09T09:14:36Z</time>
      </trkpt>
      <trkpt lat="47.21286" lon="6.56006">
        <ele>736</ele>
        <time>2016-10-09T09:14:44Z</time>
      </trkpt>
      <trkpt lat="47.21281" lon="6.56018">
        <ele>736</ele>
        <time>2016-10-09T09:14:48Z</time>
      </trkpt>
      <trkpt lat="47.21275" lon="6.56032">
        <ele>737</ele>
        <time>2016-10-09T09:14:56Z</time>
      </trkpt>
      <trkpt lat="47.2127" lon="6.56046">
        <ele>738</ele>
        <time>2016-10-09T09:15:00Z</time>
      </trkpt>
      <trkpt lat="47.21259" lon="6.56057">
        <ele>739</ele>
        <time>2016-10-09T09:15:06Z</time>
      </trkpt>
      <trkpt lat="47.21251" lon="6.56073">
        <ele>742</ele>
        <time>2016-10-09T09:15:14Z</time>
      </trkpt>
      <trkpt lat="47.21248" lon="6.56086">
        <ele>745</ele>
        <time>2016-10-09T09:15:20Z</time>
      </trkpt>
      <trkpt lat="47.2124" lon="6.56102">
        <ele>749</ele>
        <time>2016-10-09T09:15:28Z</time>
      </trkpt>
      <trkpt lat="47.21234" lon="6.56115">
        <ele>751</ele>
        <time>2016-10-09T09:15:34Z</time>
      </trkpt>
      <trkpt lat="47.21228" lon="6.56128">
        <ele>752</ele>
        <time>2016-10-09T09:15:42Z</time>
      </trkpt>
      <trkpt lat="47.21219" lon="6.56142">
        <ele>753</ele>
        <time>2016-10-09T09:15:50Z</time>
      </trkpt>
      <trkpt lat="47.21214" lon="6.56157">
        <ele>754</ele>
        <time>2016-10-09T09:15:58Z</time>
      </trkpt>
      <trkpt lat="47.21214" lon="6.56171">
        <ele>762</ele>
        <time>2016-10-09T09:16:23Z</time>
      </trkpt>
      <trkpt lat="47.21215" lon="6.5619">
        <ele>763</ele>
        <time>2016-10-09T09:16:27Z</time>
      </trkpt>
      <trkpt lat="47.21215" lon="6.56205">
        <ele>764</ele>
        <time>2016-10-09T09:16:31Z</time>
      </trkpt>
      <trkpt lat="47.2122" lon="6.56219">
        <ele>765</ele>
        <time>2016-10-09T09:16:37Z</time>
      </trkpt>
      <trkpt lat="47.21224" lon="6.56232">
        <ele>765</ele>
        <time>2016-10-09T09:16:47Z</time>
      </trkpt>
      <trkpt lat="47.21232" lon="6.56248">
        <ele>766</ele>
        <time>2016-10-09T09:16:53Z</time>
      </trkpt>
      <trkpt lat="47.2124" lon="6.56262">
        <ele>772</ele>
        <time>2016-10-09T09:16:59Z</time>
      </trkpt>
      <trkpt lat="47.21248" lon="6.56272">
        <ele>773</ele>
        <time>2016-10-09T09:17:03Z</time>
      </trkpt>
      <trkpt lat="47.21256" lon="6.56282">
        <ele>769</ele>
        <time>2016-10-09T09:17:07Z</time>
      </trkpt>
      <trkpt lat="47.21264" lon="6.56294">
        <ele>770</ele>
        <time>2016-10-09T09:17:13Z</time>
      </trkpt>
      <trkpt lat="47.21271" lon="6.56308">
        <ele>771</ele>
        <time>2016-10-09T09:17:19Z</time>
      </trkpt>
      <trkpt lat="47.21275" lon="6.5632">
        <ele>771</ele>
        <time>2016-10-09T09:17:27Z</time>
      </trkpt>
      <trkpt lat="47.21282" lon="6.56329">
        <ele>771</ele>
        <time>2016-10-09T09:17:35Z</time>
      </trkpt>
      <trkpt lat="47.21292" lon="6.56342">
        <ele>779</ele>
        <time>2016-10-09T09:17:41Z</time>
      </trkpt>
      <trkpt lat="47.21298" lon="6.56354">
        <ele>779</ele>
        <time>2016-10-09T09:17:47Z</time>
      </trkpt>
      <trkpt lat="47.21302" lon="6.56367">
        <ele>780</ele>
        <time>2016-10-09T09:17:55Z</time>
      </trkpt>
      <trkpt lat="47.21306" lon="6.5638">
        <ele>781</ele>
        <time>2016-10-09T09:17:59Z</time>
      </trkpt>
      <trkpt lat="47.21311" lon="6.56394">
        <ele>782</ele>
        <time>2016-10-09T09:18:05Z</time>
      </trkpt>
      <trkpt lat="47.21314" lon="6.56416">
        <ele>782</ele>
        <time>2016-10-09T09:18:11Z</time>
      </trkpt>
      <trkpt lat="47.2132" lon="6.56436">
        <ele>791</ele>
        <time>2016-10-09T09:18:17Z</time>
      </trkpt>
      <trkpt lat="47.21328" lon="6.56446">
        <ele>792</ele>
        <time>2016-10-09T09:18:21Z</time>
      </trkpt>
      <trkpt lat="47.2134" lon="6.5646">
        <ele>783</ele>
        <time>2016-10-09T09:18:25Z</time>
      </trkpt>
      <trkpt lat="47.21346" lon="6.56468">
        <ele>784</ele>
        <time>2016-10-09T09:18:27Z</time>
      </trkpt>
      <trkpt lat="47.21354" lon="6.5648">
        <ele>784</ele>
        <time>2016-10-09T09:18:31Z</time>
      </trkpt>
      <trkpt lat="47.21365" lon="6.56488">
        <ele>784</ele>
        <time>2016-10-09T09:18:37Z</time>
      </trkpt>
      <trkpt lat="47.21372" lon="6.56501">
        <ele>793</ele>
        <time>2016-10-09T09:18:43Z</time>
      </trkpt>
      <trkpt lat="47.21376" lon="6.56513">
        <ele>793</ele>
        <time>2016-10-09T09:18:45Z</time>
      </trkpt>
      <trkpt lat="47.21386" lon="6.56526">
        <ele>793</ele>
        <time>2016-10-09T09:18:53Z</time>
      </trkpt>
      <trkpt lat="47.21396" lon="6.56538">
        <ele>794</ele>
        <time>2016-10-09T09:18:57Z</time>
      </trkpt>
      <trkpt lat="47.21406" lon="6.56552">
        <ele>795</ele>
        <time>2016-10-09T09:19:01Z</time>
      </trkpt>
      <trkpt lat="47.21413" lon="6.56561">
        <ele>796</ele>
        <time>2016-10-09T09:19:03Z</time>
      </trkpt>
      <trkpt lat="47.21426" lon="6.56573">
        <ele>791</ele>
        <time>2016-10-09T09:19:07Z</time>
      </trkpt>
      <trkpt lat="47.2144" lon="6.56587">
        <ele>798</ele>
        <time>2016-10-09T09:19:11Z</time>
      </trkpt>
      <trkpt lat="47.21448" lon="6.56597">
        <ele>798</ele>
        <time>2016-10-09T09:19:15Z</time>
      </trkpt>
      <trkpt lat="47.21454" lon="6.5661">
        <ele>798</ele>
        <time>2016-10-09T09:19:19Z</time>
      </trkpt>
      <trkpt lat="47.21461" lon="6.56626">
        <ele>799</ele>
        <time>2016-10-09T09:19:25Z</time>
      </trkpt>
      <trkpt lat="47.21467" lon="6.56641">
        <ele>800</ele>
        <time>2016-10-09T09:19:31Z</time>
      </trkpt>
      <trkpt lat="47.21472" lon="6.56657">
        <ele>801</ele>
        <time>2016-10-09T09:19:35Z</time>
      </trkpt>
      <trkpt lat="47.21477" lon="6.5667">
        <ele>808</ele>
        <time>2016-10-09T09:19:39Z</time>
      </trkpt>
      <trkpt lat="47.21481" lon="6.56685">
        <ele>809</ele>
        <time>2016-10-09T09:19:45Z</time>
      </trkpt>
      <trkpt lat="47.21484" lon="6.56698">
        <ele>811</ele>
        <time>2016-10-09T09:19:53Z</time>
      </trkpt>
      <trkpt lat="47.21488" lon="6.56711">
        <ele>812</ele>
        <time>2016-10-09T09:19:59Z</time>
      </trkpt>
      <trkpt lat="47.21493" lon="6.56729">
        <ele>813</ele>
        <time>2016-10-09T09:20:05Z</time>
      </trkpt>
      <trkpt lat="47.21498" lon="6.56745">
        <ele>814</ele>
        <time>2016-10-09T09:20:11Z</time>
      </trkpt>
      <trkpt lat="47.215" lon="6.56758">
        <ele>817</ele>
        <time>2016-10-09T09:20:17Z</time>
      </trkpt>
      <trkpt lat="47.21505" lon="6.56777">
        <ele>812</ele>
        <time>2016-10-09T09:20:23Z</time>
      </trkpt>
      <trkpt lat="47.21509" lon="6.5679">
        <ele>813</ele>
        <time>2016-10-09T09:20:29Z</time>
      </trkpt>
      <trkpt lat="47.21514" lon="6.56804">
        <ele>814</ele>
        <time>2016-10-09T09:20:35Z</time>
      </trkpt>
      <trkpt lat="47.21518" lon="6.5682">
        <ele>816</ele>
        <time>2016-10-09T09:20:41Z</time>
      </trkpt>
      <trkpt lat="47.21523" lon="6.56833">
        <ele>816</ele>
        <time>2016-10-09T09:20:47Z</time>
      </trkpt>
      <trkpt lat="47.21528" lon="6.56851">
        <ele>821</ele>
        <time>2016-10-09T09:20:51Z</time>
      </trkpt>
      <trkpt lat="47.21535" lon="6.56867">
        <ele>821</ele>
        <time>2016-10-09T09:20:55Z</time>
      </trkpt>
      <trkpt lat="47.21541" lon="6.56879">
        <ele>821</ele>
        <time>2016-10-09T09:20:59Z</time>
      </trkpt>
      <trkpt lat="47.21545" lon="6.56894">
        <ele>821</ele>
        <time>2016-10-09T09:21:03Z</time>
      </trkpt>
      <trkpt lat="47.21547" lon="6.5691">
        <ele>821</ele>
        <time>2016-10-09T09:21:07Z</time>
      </trkpt>
      <trkpt lat="47.21552" lon="6.56925">
        <ele>827</ele>
        <time>2016-10-09T09:21:11Z</time>
      </trkpt>
      <trkpt lat="47.21557" lon="6.56941">
        <ele>827</ele>
        <time>2016-10-09T09:21:15Z</time>
      </trkpt>
      <trkpt lat="47.21561" lon="6.56959">
        <ele>828</ele>
        <time>2016-10-09T09:21:21Z</time>
      </trkpt>
      <trkpt lat="47.21568" lon="6.56972">
        <ele>828</ele>
        <time>2016-10-09T09:21:27Z</time>
      </trkpt>
      <trkpt lat="47.21571" lon="6.56987">
        <ele>827</ele>
        <time>2016-10-09T09:21:31Z</time>
      </trkpt>
      <trkpt lat="47.21573" lon="6.57007">
        <ele>831</ele>
        <time>2016-10-09T09:21:37Z</time>
      </trkpt>
      <trkpt lat="47.21576" lon="6.57022">
        <ele>834</ele>
        <time>2016-10-09T09:21:41Z</time>
      </trkpt>
      <trkpt lat="47.21578" lon="6.57037">
        <ele>837</ele>
        <time>2016-10-09T09:21:45Z</time>
      </trkpt>
      <trkpt lat="47.2158" lon="6.57062">
        <ele>838</ele>
        <time>2016-10-09T09:21:53Z</time>
      </trkpt>
      <trkpt lat="47.21583" lon="6.57082">
        <ele>834</ele>
        <time>2016-10-09T09:21:59Z</time>
      </trkpt>
      <trkpt lat="47.21587" lon="6.57097">
        <ele>828</ele>
        <time>2016-10-09T09:22:03Z</time>
      </trkpt>
      <trkpt lat="47.21591" lon="6.57115">
        <ele>826</ele>
        <time>2016-10-09T09:22:09Z</time>
      </trkpt>
      <trkpt lat="47.21596" lon="6.57136">
        <ele>828</ele>
        <time>2016-10-09T09:22:13Z</time>
      </trkpt>
      <trkpt lat="47.21602" lon="6.57158">
        <ele>831</ele>
        <time>2016-10-09T09:22:17Z</time>
      </trkpt>
      <trkpt lat="47.21607" lon="6.57174">
        <ele>836</ele>
        <time>2016-10-09T09:22:21Z</time>
      </trkpt>
      <trkpt lat="47.21608" lon="6.57192">
        <ele>835</ele>
        <time>2016-10-09T09:22:27Z</time>
      </trkpt>
      <trkpt lat="47.21609" lon="6.57206">
        <ele>835</ele>
        <time>2016-10-09T09:22:31Z</time>
      </trkpt>
      <trkpt lat="47.21609" lon="6.57225">
        <ele>837</ele>
        <time>2016-10-09T09:22:37Z</time>
      </trkpt>
      <trkpt lat="47.21612" lon="6.57241">
        <ele>838</ele>
        <time>2016-10-09T09:22:41Z</time>
      </trkpt>
      <trkpt lat="47.21612" lon="6.57255">
        <ele>845</ele>
        <time>2016-10-09T09:22:49Z</time>
      </trkpt>
      <trkpt lat="47.21613" lon="6.5727">
        <ele>844</ele>
        <time>2016-10-09T09:22:53Z</time>
      </trkpt>
      <trkpt lat="47.21617" lon="6.57289">
        <ele>844</ele>
        <time>2016-10-09T09:22:57Z</time>
      </trkpt>
      <trkpt lat="47.21619" lon="6.57305">
        <ele>845</ele>
        <time>2016-10-09T09:23:03Z</time>
      </trkpt>
      <trkpt lat="47.21619" lon="6.57322">
        <ele>846</ele>
        <time>2016-10-09T09:23:11Z</time>
      </trkpt>
      <trkpt lat="47.21619" lon="6.57337">
        <ele>853</ele>
        <time>2016-10-09T09:23:17Z</time>
      </trkpt>
      <trkpt lat="47.21626" lon="6.57356">
        <ele>852</ele>
        <time>2016-10-09T09:23:23Z</time>
      </trkpt>
      <trkpt lat="47.21634" lon="6.57376">
        <ele>851</ele>
        <time>2016-10-09T09:23:27Z</time>
      </trkpt>
      <trkpt lat="47.21639" lon="6.5739">
        <ele>851</ele>
        <time>2016-10-09T09:23:29Z</time>
      </trkpt>
      <trkpt lat="47.21645" lon="6.57407">
        <ele>850</ele>
        <time>2016-10-09T09:23:33Z</time>
      </trkpt>
      <trkpt lat="47.21652" lon="6.57418">
        <ele>851</ele>
        <time>2016-10-09T09:23:35Z</time>
      </trkpt>
      <trkpt lat="47.21659" lon="6.57434">
        <ele>852</ele>
        <time>2016-10-09T09:23:37Z</time>
      </trkpt>
      <trkpt lat="47.2167" lon="6.57458">
        <ele>838</ele>
        <time>2016-10-09T09:23:39Z</time>
      </trkpt>
      <trkpt lat="47.21681" lon="6.57478">
        <ele>839</ele>
        <time>2016-10-09T09:23:41Z</time>
      </trkpt>
      <trkpt lat="47.21689" lon="6.57493">
        <ele>839</ele>
        <time>2016-10-09T09:23:43Z</time>
      </trkpt>
      <trkpt lat="47.21698" lon="6.5751">
        <ele>841</ele>
        <time>2016-10-09T09:23:45Z</time>
      </trkpt>
      <trkpt lat="47.21712" lon="6.57532">
        <ele>838</ele>
        <time>2016-10-09T09:23:47Z</time>
      </trkpt>
      <trkpt lat="47.21715" lon="6.5755">
        <ele>838</ele>
        <time>2016-10-09T09:23:49Z</time>
      </trkpt>
      <trkpt lat="47.21725" lon="6.57575">
        <ele>836</ele>
        <time>2016-10-09T09:23:51Z</time>
      </trkpt>
      <trkpt lat="47.21733" lon="6.57594">
        <ele>838</ele>
        <time>2016-10-09T09:23:53Z</time>
      </trkpt>
      <trkpt lat="47.21737" lon="6.57611">
        <ele>841</ele>
        <time>2016-10-09T09:23:55Z</time>
      </trkpt>
      <trkpt lat="47.21747" lon="6.57636">
        <ele>843</ele>
        <time>2016-10-09T09:23:57Z</time>
      </trkpt>
      <trkpt lat="47.21759" lon="6.57645">
        <ele>824</ele>
        <time>2016-10-09T09:23:59Z</time>
      </trkpt>
      <trkpt lat="47.21768" lon="6.57652">
        <ele>824</ele>
        <time>2016-10-09T09:24:01Z</time>
      </trkpt>
      <trkpt lat="47.21788" lon="6.5767">
        <ele>821</ele>
        <time>2016-10-09T09:24:05Z</time>
      </trkpt>
      <trkpt lat="47.21802" lon="6.57682">
        <ele>816</ele>
        <time>2016-10-09T09:24:07Z</time>
      </trkpt>
      <trkpt lat="47.21813" lon="6.57691">
        <ele>814</ele>
        <time>2016-10-09T09:24:09Z</time>
      </trkpt>
      <trkpt lat="47.21822" lon="6.57697">
        <ele>813</ele>
        <time>2016-10-09T09:24:13Z</time>
      </trkpt>
      <trkpt lat="47.21833" lon="6.57704">
        <ele>812</ele>
        <time>2016-10-09T09:24:17Z</time>
      </trkpt>
      <trkpt lat="47.21849" lon="6.57715">
        <ele>792</ele>
        <time>2016-10-09T09:24:21Z</time>
      </trkpt>
      <trkpt lat="47.21867" lon="6.57718">
        <ele>790</ele>
        <time>2016-10-09T09:24:25Z</time>
      </trkpt>
      <trkpt lat="47.21877" lon="6.5772">
        <ele>789</ele>
        <time>2016-10-09T09:24:27Z</time>
      </trkpt>
      <trkpt lat="47.21886" lon="6.57722">
        <ele>788</ele>
        <time>2016-10-09T09:24:29Z</time>
      </trkpt>
      <trkpt lat="47.21898" lon="6.57726">
        <ele>786</ele>
        <time>2016-10-09T09:24:31Z</time>
      </trkpt>
      <trkpt lat="47.21913" lon="6.5773">
        <ele>785</ele>
        <time>2016-10-09T09:24:33Z</time>
      </trkpt>
      <trkpt lat="47.21928" lon="6.57734">
        <ele>773</ele>
        <time>2016-10-09T09:24:35Z</time>
      </trkpt>
      <trkpt lat="47.21942" lon="6.57737">
        <ele>770</ele>
        <time>2016-10-09T09:24:37Z</time>
      </trkpt>
      <trkpt lat="47.21958" lon="6.57739">
        <ele>767</ele>
        <time>2016-10-09T09:24:39Z</time>
      </trkpt>
      <trkpt lat="47.21972" lon="6.5774">
        <ele>764</ele>
        <time>2016-10-09T09:24:41Z</time>
      </trkpt>
      <trkpt lat="47.21985" lon="6.57743">
        <ele>761</ele>
        <time>2016-10-09T09:24:43Z</time>
      </trkpt>
      <trkpt lat="47.21997" lon="6.57746">
        <ele>757</ele>
        <time>2016-10-09T09:24:45Z</time>
      </trkpt>
      <trkpt lat="47.22009" lon="6.57751">
        <ele>752</ele>
        <time>2016-10-09T09:24:47Z</time>
      </trkpt>
      <trkpt lat="47.2202" lon="6.57756">
        <ele>749</ele>
        <time>2016-10-09T09:24:49Z</time>
      </trkpt>
      <trkpt lat="47.22029" lon="6.5776">
        <ele>747</ele>
        <time>2016-10-09T09:24:51Z</time>
      </trkpt>
      <trkpt lat="47.2204" lon="6.5776">
        <ele>745</ele>
        <time>2016-10-09T09:24:53Z</time>
      </trkpt>
      <trkpt lat="47.22056" lon="6.57756">
        <ele>741</ele>
        <time>2016-10-09T09:24:55Z</time>
      </trkpt>
      <trkpt lat="47.22075" lon="6.5775">
        <ele>735</ele>
        <time>2016-10-09T09:24:57Z</time>
      </trkpt>
      <trkpt lat="47.22098" lon="6.57742">
        <ele>729</ele>
        <time>2016-10-09T09:24:59Z</time>
      </trkpt>
      <trkpt lat="47.22122" lon="6.57734">
        <ele>727</ele>
        <time>2016-10-09T09:25:01Z</time>
      </trkpt>
      <trkpt lat="47.22145" lon="6.57727">
        <ele>726</ele>
        <time>2016-10-09T09:25:03Z</time>
      </trkpt>
      <trkpt lat="47.22167" lon="6.57718">
        <ele>724</ele>
        <time>2016-10-09T09:25:05Z</time>
      </trkpt>
      <trkpt lat="47.22188" lon="6.57708">
        <ele>724</ele>
        <time>2016-10-09T09:25:07Z</time>
      </trkpt>
      <trkpt lat="47.22206" lon="6.57697">
        <ele>724</ele>
        <time>2016-10-09T09:25:09Z</time>
      </trkpt>
      <trkpt lat="47.2222" lon="6.57687">
        <ele>724</ele>
        <time>2016-10-09T09:25:11Z</time>
      </trkpt>
      <trkpt lat="47.22228" lon="6.57679">
        <ele>724</ele>
        <time>2016-10-09T09:25:13Z</time>
      </trkpt>
      <trkpt lat="47.22235" lon="6.5767">
        <ele>724</ele>
        <time>2016-10-09T09:26:33Z</time>
      </trkpt>
      <trkpt lat="47.22238" lon="6.57686">
        <ele>724</ele>
        <time>2016-10-09T09:33:25Z</time>
      </trkpt>
      <trkpt lat="47.22242" lon="6.57707">
        <ele>725</ele>
        <time>2016-10-09T09:33:29Z</time>
      </trkpt>
      <trkpt lat="47.22248" lon="6.57728">
        <ele>725</ele>
        <time>2016-10-09T09:33:33Z</time>
      </trkpt>
      <trkpt lat="47.22252" lon="6.5774">
        <ele>726</ele>
        <time>2016-10-09T09:33:35Z</time>
      </trkpt>
      <trkpt lat="47.22257" lon="6.57762">
        <ele>728</ele>
        <time>2016-10-09T09:33:39Z</time>
      </trkpt>
      <trkpt lat="47.22262" lon="6.57779">
        <ele>729</ele>
        <time>2016-10-09T09:33:43Z</time>
      </trkpt>
      <trkpt lat="47.22266" lon="6.57792">
        <ele>729</ele>
        <time>2016-10-09T09:33:47Z</time>
      </trkpt>
      <trkpt lat="47.22271" lon="6.57811">
        <ele>730</ele>
        <time>2016-10-09T09:33:53Z</time>
      </trkpt>
      <trkpt lat="47.22274" lon="6.57828">
        <ele>731</ele>
        <time>2016-10-09T09:33:57Z</time>
      </trkpt>
      <trkpt lat="47.22274" lon="6.57846">
        <ele>732</ele>
        <time>2016-10-09T09:34:01Z</time>
      </trkpt>
      <trkpt lat="47.22277" lon="6.57861">
        <ele>732</ele>
        <time>2016-10-09T09:34:05Z</time>
      </trkpt>
      <trkpt lat="47.22277" lon="6.57879">
        <ele>732</ele>
        <time>2016-10-09T09:34:09Z</time>
      </trkpt>
      <trkpt lat="47.22277" lon="6.57898">
        <ele>732</ele>
        <time>2016-10-09T09:34:13Z</time>
      </trkpt>
      <trkpt lat="47.22277" lon="6.57915">
        <ele>732</ele>
        <time>2016-10-09T09:34:17Z</time>
      </trkpt>
      <trkpt lat="47.22281" lon="6.57934">
        <ele>734</ele>
        <time>2016-10-09T09:34:21Z</time>
      </trkpt>
      <trkpt lat="47.22282" lon="6.57954">
        <ele>734</ele>
        <time>2016-10-09T09:34:25Z</time>
      </trkpt>
      <trkpt lat="47.22282" lon="6.57974">
        <ele>735</ele>
        <time>2016-10-09T09:34:29Z</time>
      </trkpt>
      <trkpt lat="47.22284" lon="6.57992">
        <ele>735</ele>
        <time>2016-10-09T09:34:33Z</time>
      </trkpt>
      <trkpt lat="47.22286" lon="6.58013">
        <ele>737</ele>
        <time>2016-10-09T09:34:37Z</time>
      </trkpt>
      <trkpt lat="47.22288" lon="6.58032">
        <ele>737</ele>
        <time>2016-10-09T09:34:41Z</time>
      </trkpt>
      <trkpt lat="47.22286" lon="6.58049">
        <ele>738</ele>
        <time>2016-10-09T09:34:45Z</time>
      </trkpt>
      <trkpt lat="47.22278" lon="6.58066">
        <ele>738</ele>
        <time>2016-10-09T09:34:49Z</time>
      </trkpt>
      <trkpt lat="47.22271" lon="6.58083">
        <ele>739</ele>
        <time>2016-10-09T09:34:53Z</time>
      </trkpt>
      <trkpt lat="47.22267" lon="6.581">
        <ele>741</ele>
        <time>2016-10-09T09:34:57Z</time>
      </trkpt>
      <trkpt lat="47.22258" lon="6.58114">
        <ele>741</ele>
        <time>2016-10-09T09:35:03Z</time>
      </trkpt>
      <trkpt lat="47.22255" lon="6.58135">
        <ele>742</ele>
        <time>2016-10-09T09:35:07Z</time>
      </trkpt>
      <trkpt lat="47.22252" lon="6.58153">
        <ele>743</ele>
        <time>2016-10-09T09:35:11Z</time>
      </trkpt>
      <trkpt lat="47.2225" lon="6.58171">
        <ele>745</ele>
        <time>2016-10-09T09:35:15Z</time>
      </trkpt>
      <trkpt lat="47.22242" lon="6.58185">
        <ele>747</ele>
        <time>2016-10-09T09:35:19Z</time>
      </trkpt>
      <trkpt lat="47.22238" lon="6.58201">
        <ele>748</ele>
        <time>2016-10-09T09:35:23Z</time>
      </trkpt>
      <trkpt lat="47.22232" lon="6.58214">
        <ele>748</ele>
        <time>2016-10-09T09:35:29Z</time>
      </trkpt>
      <trkpt lat="47.22225" lon="6.58228">
        <ele>748</ele>
        <time>2016-10-09T09:35:37Z</time>
      </trkpt>
      <trkpt lat="47.2222" lon="6.58247">
        <ele>749</ele>
        <time>2016-10-09T09:35:43Z</time>
      </trkpt>
      <trkpt lat="47.22219" lon="6.58262">
        <ele>753</ele>
        <time>2016-10-09T09:35:47Z</time>
      </trkpt>
      <trkpt lat="47.22216" lon="6.58277">
        <ele>754</ele>
        <time>2016-10-09T09:35:51Z</time>
      </trkpt>
      <trkpt lat="47.22212" lon="6.58294">
        <ele>756</ele>
        <time>2016-10-09T09:35:55Z</time>
      </trkpt>
      <trkpt lat="47.22215" lon="6.5831">
        <ele>756</ele>
        <time>2016-10-09T09:35:59Z</time>
      </trkpt>
      <trkpt lat="47.22221" lon="6.58323">
        <ele>757</ele>
        <time>2016-10-09T09:36:03Z</time>
      </trkpt>
      <trkpt lat="47.22225" lon="6.5834">
        <ele>764</ele>
        <time>2016-10-09T09:36:09Z</time>
      </trkpt>
      <trkpt lat="47.22238" lon="6.58351">
        <ele>764</ele>
        <time>2016-10-09T09:36:13Z</time>
      </trkpt>
      <trkpt lat="47.22245" lon="6.58364">
        <ele>766</ele>
        <time>2016-10-09T09:36:17Z</time>
      </trkpt>
      <trkpt lat="47.22255" lon="6.58374">
        <ele>763</ele>
        <time>2016-10-09T09:36:21Z</time>
      </trkpt>
      <trkpt lat="47.22262" lon="6.58383">
        <ele>764</ele>
        <time>2016-10-09T09:36:25Z</time>
      </trkpt>
      <trkpt lat="47.22276" lon="6.58396">
        <ele>764</ele>
        <time>2016-10-09T09:36:29Z</time>
      </trkpt>
      <trkpt lat="47.22281" lon="6.58408">
        <ele>765</ele>
        <time>2016-10-09T09:36:33Z</time>
      </trkpt>
      <trkpt lat="47.22287" lon="6.58421">
        <ele>773</ele>
        <time>2016-10-09T09:36:39Z</time>
      </trkpt>
      <trkpt lat="47.22291" lon="6.58435">
        <ele>773</ele>
        <time>2016-10-09T09:36:43Z</time>
      </trkpt>
      <trkpt lat="47.22301" lon="6.58448">
        <ele>774</ele>
        <time>2016-10-09T09:36:47Z</time>
      </trkpt>
      <trkpt lat="47.22309" lon="6.58464">
        <ele>775</ele>
        <time>2016-10-09T09:36:53Z</time>
      </trkpt>
      <trkpt lat="47.22317" lon="6.58477">
        <ele>775</ele>
        <time>2016-10-09T09:36:57Z</time>
      </trkpt>
      <trkpt lat="47.22333" lon="6.58503">
        <ele>778</ele>
        <time>2016-10-09T09:37:05Z</time>
      </trkpt>
      <trkpt lat="47.2234" lon="6.58519">
        <ele>777</ele>
        <time>2016-10-09T09:37:09Z</time>
      </trkpt>
      <trkpt lat="47.22346" lon="6.58531">
        <ele>777</ele>
        <time>2016-10-09T09:37:12Z</time>
      </trkpt>
      <trkpt lat="47.22351" lon="6.58543">
        <ele>778</ele>
        <time>2016-10-09T09:37:15Z</time>
      </trkpt>
      <trkpt lat="47.22356" lon="6.58553">
        <ele>779</ele>
        <time>2016-10-09T09:37:19Z</time>
      </trkpt>
      <trkpt lat="47.22363" lon="6.58567">
        <ele>780</ele>
        <time>2016-10-09T09:37:23Z</time>
      </trkpt>
      <trkpt lat="47.22372" lon="6.58581">
        <ele>779</ele>
        <time>2016-10-09T09:37:27Z</time>
      </trkpt>
      <trkpt lat="47.2238" lon="6.58594">
        <ele>787</ele>
        <time>2016-10-09T09:37:31Z</time>
      </trkpt>
      <trkpt lat="47.2239" lon="6.58611">
        <ele>788</ele>
        <time>2016-10-09T09:37:35Z</time>
      </trkpt>
      <trkpt lat="47.22395" lon="6.58625">
        <ele>789</ele>
        <time>2016-10-09T09:37:39Z</time>
      </trkpt>
      <trkpt lat="47.22401" lon="6.58635">
        <ele>789</ele>
        <time>2016-10-09T09:37:43Z</time>
      </trkpt>
      <trkpt lat="47.22406" lon="6.58647">
        <ele>790</ele>
        <time>2016-10-09T09:37:47Z</time>
      </trkpt>
      <trkpt lat="47.22413" lon="6.5866">
        <ele>791</ele>
        <time>2016-10-09T09:37:51Z</time>
      </trkpt>
      <trkpt lat="47.22425" lon="6.58671">
        <ele>791</ele>
        <time>2016-10-09T09:37:55Z</time>
      </trkpt>
      <trkpt lat="47.22432" lon="6.5868">
        <ele>791</ele>
        <time>2016-10-09T09:37:59Z</time>
      </trkpt>
      <trkpt lat="47.2244" lon="6.58689">
        <ele>791</ele>
        <time>2016-10-09T09:38:03Z</time>
      </trkpt>
      <trkpt lat="47.22448" lon="6.587">
        <ele>791</ele>
        <time>2016-10-09T09:38:07Z</time>
      </trkpt>
      <trkpt lat="47.22458" lon="6.5871">
        <ele>792</ele>
        <time>2016-10-09T09:38:13Z</time>
      </trkpt>
      <trkpt lat="47.22466" lon="6.58722">
        <ele>792</ele>
        <time>2016-10-09T09:38:15Z</time>
      </trkpt>
      <trkpt lat="47.22476" lon="6.58731">
        <ele>792</ele>
        <time>2016-10-09T09:38:19Z</time>
      </trkpt>
      <trkpt lat="47.22488" lon="6.58743">
        <ele>792</ele>
        <time>2016-10-09T09:38:23Z</time>
      </trkpt>
      <trkpt lat="47.22497" lon="6.58755">
        <ele>795</ele>
        <time>2016-10-09T09:38:27Z</time>
      </trkpt>
      <trkpt lat="47.22507" lon="6.58765">
        <ele>793</ele>
        <time>2016-10-09T09:38:31Z</time>
      </trkpt>
      <trkpt lat="47.22518" lon="6.58774">
        <ele>794</ele>
        <time>2016-10-09T09:38:35Z</time>
      </trkpt>
      <trkpt lat="47.22529" lon="6.58787">
        <ele>794</ele>
        <time>2016-10-09T09:38:39Z</time>
      </trkpt>
      <trkpt lat="47.22539" lon="6.58797">
        <ele>794</ele>
        <time>2016-10-09T09:38:43Z</time>
      </trkpt>
      <trkpt lat="47.22548" lon="6.58809">
        <ele>794</ele>
        <time>2016-10-09T09:38:49Z</time>
      </trkpt>
      <trkpt lat="47.22559" lon="6.58822">
        <ele>794</ele>
        <time>2016-10-09T09:38:55Z</time>
      </trkpt>
      <trkpt lat="47.2257" lon="6.58837">
        <ele>799</ele>
        <time>2016-10-09T09:38:59Z</time>
      </trkpt>
      <trkpt lat="47.22588" lon="6.58853">
        <ele>795</ele>
        <time>2016-10-09T09:39:03Z</time>
      </trkpt>
      <trkpt lat="47.22599" lon="6.58856">
        <ele>795</ele>
        <time>2016-10-09T09:39:05Z</time>
      </trkpt>
      <trkpt lat="47.22607" lon="6.58862">
        <ele>795</ele>
        <time>2016-10-09T09:39:07Z</time>
      </trkpt>
      <trkpt lat="47.22622" lon="6.58874">
        <ele>795</ele>
        <time>2016-10-09T09:39:11Z</time>
      </trkpt>
      <trkpt lat="47.2263" lon="6.58881">
        <ele>795</ele>
        <time>2016-10-09T09:39:13Z</time>
      </trkpt>
      <trkpt lat="47.22639" lon="6.5889">
        <ele>795</ele>
        <time>2016-10-09T09:39:17Z</time>
      </trkpt>
      <trkpt lat="47.22649" lon="6.589">
        <ele>795</ele>
        <time>2016-10-09T09:39:21Z</time>
      </trkpt>
      <trkpt lat="47.22659" lon="6.58908">
        <ele>795</ele>
        <time>2016-10-09T09:39:27Z</time>
      </trkpt>
      <trkpt lat="47.22665" lon="6.58921">
        <ele>797</ele>
        <time>2016-10-09T09:39:33Z</time>
      </trkpt>
      <trkpt lat="47.22672" lon="6.58932">
        <ele>796</ele>
        <time>2016-10-09T09:39:37Z</time>
      </trkpt>
      <trkpt lat="47.22679" lon="6.58944">
        <ele>797</ele>
        <time>2016-10-09T09:39:43Z</time>
      </trkpt>
      <trkpt lat="47.22687" lon="6.58954">
        <ele>797</ele>
        <time>2016-10-09T09:39:47Z</time>
      </trkpt>
      <trkpt lat="47.22705" lon="6.58979">
        <ele>798</ele>
        <time>2016-10-09T09:39:57Z</time>
      </trkpt>
      <trkpt lat="47.22717" lon="6.59008">
        <ele>804</ele>
        <time>2016-10-09T09:40:09Z</time>
      </trkpt>
      <trkpt lat="47.22723" lon="6.5902">
        <ele>804</ele>
        <time>2016-10-09T09:40:15Z</time>
      </trkpt>
      <trkpt lat="47.22729" lon="6.59031">
        <ele>805</ele>
        <time>2016-10-09T09:40:19Z</time>
      </trkpt>
      <trkpt lat="47.2274" lon="6.59041">
        <ele>805</ele>
        <time>2016-10-09T09:40:31Z</time>
      </trkpt>
      <trkpt lat="47.22747" lon="6.59054">
        <ele>806</ele>
        <time>2016-10-09T09:40:35Z</time>
      </trkpt>
      <trkpt lat="47.22756" lon="6.59069">
        <ele>802</ele>
        <time>2016-10-09T09:40:39Z</time>
      </trkpt>
      <trkpt lat="47.22762" lon="6.5908">
        <ele>803</ele>
        <time>2016-10-09T09:40:43Z</time>
      </trkpt>
      <trkpt lat="47.22768" lon="6.5909">
        <ele>806</ele>
        <time>2016-10-09T09:40:47Z</time>
      </trkpt>
      <trkpt lat="47.22776" lon="6.59105">
        <ele>806</ele>
        <time>2016-10-09T09:40:53Z</time>
      </trkpt>
      <trkpt lat="47.22783" lon="6.59117">
        <ele>806</ele>
        <time>2016-10-09T09:40:57Z</time>
      </trkpt>
      <trkpt lat="47.2279" lon="6.59133">
        <ele>806</ele>
        <time>2016-10-09T09:41:03Z</time>
      </trkpt>
      <trkpt lat="47.22796" lon="6.59146">
        <ele>806</ele>
        <time>2016-10-09T09:41:07Z</time>
      </trkpt>
      <trkpt lat="47.22802" lon="6.59161">
        <ele>806</ele>
        <time>2016-10-09T09:41:11Z</time>
      </trkpt>
      <trkpt lat="47.2281" lon="6.59175">
        <ele>810</ele>
        <time>2016-10-09T09:41:17Z</time>
      </trkpt>
      <trkpt lat="47.2282" lon="6.59189">
        <ele>810</ele>
        <time>2016-10-09T09:41:21Z</time>
      </trkpt>
      <trkpt lat="47.22822" lon="6.59202">
        <ele>811</ele>
        <time>2016-10-09T09:41:25Z</time>
      </trkpt>
      <trkpt lat="47.22817" lon="6.59216">
        <ele>812</ele>
        <time>2016-10-09T09:41:31Z</time>
      </trkpt>
      <trkpt lat="47.22814" lon="6.59229">
        <ele>813</ele>
        <time>2016-10-09T09:41:35Z</time>
      </trkpt>
      <trkpt lat="47.22821" lon="6.59244">
        <ele>814</ele>
        <time>2016-10-09T09:41:39Z</time>
      </trkpt>
      <trkpt lat="47.22828" lon="6.59254">
        <ele>815</ele>
        <time>2016-10-09T09:41:43Z</time>
      </trkpt>
      <trkpt lat="47.22835" lon="6.5927">
        <ele>814</ele>
        <time>2016-10-09T09:41:49Z</time>
      </trkpt>
      <trkpt lat="47.2284" lon="6.59282">
        <ele>814</ele>
        <time>2016-10-09T09:41:53Z</time>
      </trkpt>
      <trkpt lat="47.2285" lon="6.59299">
        <ele>813</ele>
        <time>2016-10-09T09:41:57Z</time>
      </trkpt>
      <trkpt lat="47.2286" lon="6.59314">
        <ele>813</ele>
        <time>2016-10-09T09:42:01Z</time>
      </trkpt>
      <trkpt lat="47.22863" lon="6.59346">
        <ele>811</ele>
        <time>2016-10-09T09:42:09Z</time>
      </trkpt>
      <trkpt lat="47.2286" lon="6.59359">
        <ele>810</ele>
        <time>2016-10-09T09:42:15Z</time>
      </trkpt>
      <trkpt lat="47.22866" lon="6.59375">
        <ele>809</ele>
        <time>2016-10-09T09:42:29Z</time>
      </trkpt>
      <trkpt lat="47.2287" lon="6.59388">
        <ele>808</ele>
        <time>2016-10-09T09:42:37Z</time>
      </trkpt>
      <trkpt lat="47.22877" lon="6.59398">
        <ele>809</ele>
        <time>2016-10-09T09:42:43Z</time>
      </trkpt>
      <trkpt lat="47.22886" lon="6.5941">
        <ele>809</ele>
        <time>2016-10-09T09:42:49Z</time>
      </trkpt>
      <trkpt lat="47.22893" lon="6.59422">
        <ele>803</ele>
        <time>2016-10-09T09:42:53Z</time>
      </trkpt>
      <trkpt lat="47.22902" lon="6.59438">
        <ele>803</ele>
        <time>2016-10-09T09:42:57Z</time>
      </trkpt>
      <trkpt lat="47.22908" lon="6.59451">
        <ele>801</ele>
        <time>2016-10-09T09:43:01Z</time>
      </trkpt>
      <trkpt lat="47.22918" lon="6.59461">
        <ele>807</ele>
        <time>2016-10-09T09:43:05Z</time>
      </trkpt>
      <trkpt lat="47.22927" lon="6.59476">
        <ele>806</ele>
        <time>2016-10-09T09:43:11Z</time>
      </trkpt>
      <trkpt lat="47.22934" lon="6.59485">
        <ele>806</ele>
        <time>2016-10-09T09:43:15Z</time>
      </trkpt>
      <trkpt lat="47.2294" lon="6.59501">
        <ele>800</ele>
        <time>2016-10-09T09:43:21Z</time>
      </trkpt>
      <trkpt lat="47.22947" lon="6.59512">
        <ele>800</ele>
        <time>2016-10-09T09:43:23Z</time>
      </trkpt>
      <trkpt lat="47.22958" lon="6.5953">
        <ele>799</ele>
        <time>2016-10-09T09:43:27Z</time>
      </trkpt>
      <trkpt lat="47.22967" lon="6.59545">
        <ele>799</ele>
        <time>2016-10-09T09:43:31Z</time>
      </trkpt>
      <trkpt lat="47.22976" lon="6.59564">
        <ele>798</ele>
        <time>2016-10-09T09:43:35Z</time>
      </trkpt>
      <trkpt lat="47.22986" lon="6.59579">
        <ele>799</ele>
        <time>2016-10-09T09:43:39Z</time>
      </trkpt>
      <trkpt lat="47.22995" lon="6.59591">
        <ele>796</ele>
        <time>2016-10-09T09:43:43Z</time>
      </trkpt>
      <trkpt lat="47.23009" lon="6.5961">
        <ele>798</ele>
        <time>2016-10-09T09:43:47Z</time>
      </trkpt>
      <trkpt lat="47.23016" lon="6.5962">
        <ele>797</ele>
        <time>2016-10-09T09:43:49Z</time>
      </trkpt>
      <trkpt lat="47.23023" lon="6.59636">
        <ele>796</ele>
        <time>2016-10-09T09:43:53Z</time>
      </trkpt>
      <trkpt lat="47.23039" lon="6.59653">
        <ele>796</ele>
        <time>2016-10-09T09:43:57Z</time>
      </trkpt>
      <trkpt lat="47.23046" lon="6.59667">
        <ele>790</ele>
        <time>2016-10-09T09:44:01Z</time>
      </trkpt>
      <trkpt lat="47.23055" lon="6.59681">
        <ele>790</ele>
        <time>2016-10-09T09:44:05Z</time>
      </trkpt>
      <trkpt lat="47.23066" lon="6.59693">
        <ele>790</ele>
        <time>2016-10-09T09:44:09Z</time>
      </trkpt>
      <trkpt lat="47.23076" lon="6.59704">
        <ele>790</ele>
        <time>2016-10-09T09:44:11Z</time>
      </trkpt>
      <trkpt lat="47.23088" lon="6.59714">
        <ele>792</ele>
        <time>2016-10-09T09:44:13Z</time>
      </trkpt>
      <trkpt lat="47.231" lon="6.59723">
        <ele>791</ele>
        <time>2016-10-09T09:44:17Z</time>
      </trkpt>
      <trkpt lat="47.23112" lon="6.59735">
        <ele>791</ele>
        <time>2016-10-09T09:44:21Z</time>
      </trkpt>
      <trkpt lat="47.23124" lon="6.59747">
        <ele>790</ele>
        <time>2016-10-09T09:44:25Z</time>
      </trkpt>
      <trkpt lat="47.2313" lon="6.59763">
        <ele>787</ele>
        <time>2016-10-09T09:44:29Z</time>
      </trkpt>
      <trkpt lat="47.23136" lon="6.59773">
        <ele>786</ele>
        <time>2016-10-09T09:44:33Z</time>
      </trkpt>
      <trkpt lat="47.23145" lon="6.59779">
        <ele>786</ele>
        <time>2016-10-09T09:44:35Z</time>
      </trkpt>
      <trkpt lat="47.23153" lon="6.59787">
        <ele>786</ele>
        <time>2016-10-09T09:44:37Z</time>
      </trkpt>
      <trkpt lat="47.23163" lon="6.59803">
        <ele>787</ele>
        <time>2016-10-09T09:44:43Z</time>
      </trkpt>
      <trkpt lat="47.23169" lon="6.59815">
        <ele>785</ele>
        <time>2016-10-09T09:44:49Z</time>
      </trkpt>
      <trkpt lat="47.23183" lon="6.59824">
        <ele>784</ele>
        <time>2016-10-09T09:44:53Z</time>
      </trkpt>
      <trkpt lat="47.23191" lon="6.59831">
        <ele>783</ele>
        <time>2016-10-09T09:44:55Z</time>
      </trkpt>
      <trkpt lat="47.23201" lon="6.59844">
        <ele>780</ele>
        <time>2016-10-09T09:45:01Z</time>
      </trkpt>
      <trkpt lat="47.23212" lon="6.59854">
        <ele>779</ele>
        <time>2016-10-09T09:45:05Z</time>
      </trkpt>
      <trkpt lat="47.2322" lon="6.59864">
        <ele>779</ele>
        <time>2016-10-09T09:45:09Z</time>
      </trkpt>
      <trkpt lat="47.23231" lon="6.59868">
        <ele>778</ele>
        <time>2016-10-09T09:45:21Z</time>
      </trkpt>
      <trkpt lat="47.23245" lon="6.5989">
        <ele>778</ele>
        <time>2016-10-09T09:45:31Z</time>
      </trkpt>
      <trkpt lat="47.23259" lon="6.59902">
        <ele>775</ele>
        <time>2016-10-09T09:45:35Z</time>
      </trkpt>
      <trkpt lat="47.23273" lon="6.59909">
        <ele>774</ele>
        <time>2016-10-09T09:45:41Z</time>
      </trkpt>
      <trkpt lat="47.23286" lon="6.599">
        <ele>773</ele>
        <time>2016-10-09T09:45:47Z</time>
      </trkpt>
      <trkpt lat="47.23298" lon="6.59899">
        <ele>771</ele>
        <time>2016-10-09T09:45:51Z</time>
      </trkpt>
      <trkpt lat="47.23312" lon="6.5991">
        <ele>770</ele>
        <time>2016-10-09T09:45:59Z</time>
      </trkpt>
      <trkpt lat="47.2332" lon="6.5992">
        <ele>766</ele>
        <time>2016-10-09T09:46:01Z</time>
      </trkpt>
      <trkpt lat="47.23329" lon="6.59927">
        <ele>765</ele>
        <time>2016-10-09T09:46:03Z</time>
      </trkpt>
      <trkpt lat="47.23344" lon="6.59939">
        <ele>761</ele>
        <time>2016-10-09T09:46:07Z</time>
      </trkpt>
      <trkpt lat="47.23355" lon="6.59954">
        <ele>760</ele>
        <time>2016-10-09T09:46:09Z</time>
      </trkpt>
      <trkpt lat="47.23362" lon="6.59967">
        <ele>759</ele>
        <time>2016-10-09T09:46:11Z</time>
      </trkpt>
      <trkpt lat="47.2336" lon="6.59981">
        <ele>759</ele>
        <time>2016-10-09T09:46:19Z</time>
      </trkpt>
      <trkpt lat="47.23354" lon="6.59995">
        <ele>758</ele>
        <time>2016-10-09T09:46:23Z</time>
      </trkpt>
      <trkpt lat="47.23343" lon="6.60012">
        <ele>757</ele>
        <time>2016-10-09T09:46:27Z</time>
      </trkpt>
      <trkpt lat="47.23336" lon="6.60024">
        <ele>757</ele>
        <time>2016-10-09T09:46:31Z</time>
      </trkpt>
      <trkpt lat="47.23327" lon="6.60045">
        <ele>752</ele>
        <time>2016-10-09T09:46:35Z</time>
      </trkpt>
      <trkpt lat="47.23318" lon="6.6006">
        <ele>751</ele>
        <time>2016-10-09T09:46:39Z</time>
      </trkpt>
      <trkpt lat="47.23309" lon="6.60077">
        <ele>750</ele>
        <time>2016-10-09T09:46:43Z</time>
      </trkpt>
      <trkpt lat="47.23298" lon="6.60096">
        <ele>745</ele>
        <time>2016-10-09T09:46:47Z</time>
      </trkpt>
      <trkpt lat="47.23293" lon="6.60107">
        <ele>745</ele>
        <time>2016-10-09T09:46:49Z</time>
      </trkpt>
      <trkpt lat="47.23287" lon="6.60139">
        <ele>745</ele>
        <time>2016-10-09T09:46:54Z</time>
      </trkpt>
      <trkpt lat="47.23287" lon="6.60153">
        <ele>745</ele>
        <time>2016-10-09T09:46:56Z</time>
      </trkpt>
      <trkpt lat="47.23289" lon="6.60175">
        <ele>746</ele>
        <time>2016-10-09T09:47:00Z</time>
      </trkpt>
      <trkpt lat="47.23288" lon="6.60191">
        <ele>747</ele>
        <time>2016-10-09T09:47:02Z</time>
      </trkpt>
      <trkpt lat="47.23283" lon="6.60215">
        <ele>747</ele>
        <time>2016-10-09T09:47:06Z</time>
      </trkpt>
      <trkpt lat="47.2328" lon="6.60229">
        <ele>748</ele>
        <time>2016-10-09T09:47:08Z</time>
      </trkpt>
      <trkpt lat="47.23276" lon="6.60252">
        <ele>751</ele>
        <time>2016-10-09T09:47:12Z</time>
      </trkpt>
      <trkpt lat="47.23278" lon="6.6028">
        <ele>751</ele>
        <time>2016-10-09T09:47:16Z</time>
      </trkpt>
      <trkpt lat="47.23286" lon="6.60292">
        <ele>751</ele>
        <time>2016-10-09T09:47:18Z</time>
      </trkpt>
      <trkpt lat="47.23289" lon="6.60305">
        <ele>751</ele>
        <time>2016-10-09T09:47:20Z</time>
      </trkpt>
      <trkpt lat="47.23289" lon="6.60328">
        <ele>752</ele>
        <time>2016-10-09T09:47:24Z</time>
      </trkpt>
      <trkpt lat="47.23293" lon="6.6034">
        <ele>753</ele>
        <time>2016-10-09T09:47:26Z</time>
      </trkpt>
      <trkpt lat="47.23296" lon="6.60354">
        <ele>753</ele>
        <time>2016-10-09T09:47:28Z</time>
      </trkpt>
      <trkpt lat="47.233" lon="6.60381">
        <ele>754</ele>
        <time>2016-10-09T09:47:32Z</time>
      </trkpt>
      <trkpt lat="47.23302" lon="6.60406">
        <ele>754</ele>
        <time>2016-10-09T09:47:36Z</time>
      </trkpt>
      <trkpt lat="47.23301" lon="6.60419">
        <ele>754</ele>
        <time>2016-10-09T09:47:38Z</time>
      </trkpt>
      <trkpt lat="47.233" lon="6.60445">
        <ele>754</ele>
        <time>2016-10-09T09:47:42Z</time>
      </trkpt>
      <trkpt lat="47.23302" lon="6.60459">
        <ele>754</ele>
        <time>2016-10-09T09:47:44Z</time>
      </trkpt>
      <trkpt lat="47.23298" lon="6.60473">
        <ele>754</ele>
        <time>2016-10-09T09:47:46Z</time>
      </trkpt>
      <trkpt lat="47.23299" lon="6.60499">
        <ele>754</ele>
        <time>2016-10-09T09:47:50Z</time>
      </trkpt>
      <trkpt lat="47.23302" lon="6.60514">
        <ele>754</ele>
        <time>2016-10-09T09:47:52Z</time>
      </trkpt>
      <trkpt lat="47.23312" lon="6.60542">
        <ele>754</ele>
        <time>2016-10-09T09:47:56Z</time>
      </trkpt>
      <trkpt lat="47.23319" lon="6.60552">
        <ele>754</ele>
        <time>2016-10-09T09:47:58Z</time>
      </trkpt>
      <trkpt lat="47.23325" lon="6.60572">
        <ele>754</ele>
        <time>2016-10-09T09:48:02Z</time>
      </trkpt>
      <trkpt lat="47.23333" lon="6.60578">
        <ele>755</ele>
        <time>2016-10-09T09:48:04Z</time>
      </trkpt>
      <trkpt lat="47.23344" lon="6.60593">
        <ele>755</ele>
        <time>2016-10-09T09:48:08Z</time>
      </trkpt>
      <trkpt lat="47.23355" lon="6.60601">
        <ele>756</ele>
        <time>2016-10-09T09:48:12Z</time>
      </trkpt>
      <trkpt lat="47.23364" lon="6.60607">
        <ele>756</ele>
        <time>2016-10-09T09:48:14Z</time>
      </trkpt>
      <trkpt lat="47.2338" lon="6.60611">
        <ele>757</ele>
        <time>2016-10-09T09:48:18Z</time>
      </trkpt>
      <trkpt lat="47.23391" lon="6.60612">
        <ele>757</ele>
        <time>2016-10-09T09:48:22Z</time>
      </trkpt>
      <trkpt lat="47.23407" lon="6.60604">
        <ele>757</ele>
        <time>2016-10-09T09:48:26Z</time>
      </trkpt>
      <trkpt lat="47.23417" lon="6.60603">
        <ele>758</ele>
        <time>2016-10-09T09:48:28Z</time>
      </trkpt>
      <trkpt lat="47.23427" lon="6.606">
        <ele>758</ele>
        <time>2016-10-09T09:48:30Z</time>
      </trkpt>
      <trkpt lat="47.23436" lon="6.60596">
        <ele>758</ele>
        <time>2016-10-09T09:48:32Z</time>
      </trkpt>
      <trkpt lat="47.23451" lon="6.60592">
        <ele>758</ele>
        <time>2016-10-09T09:48:36Z</time>
      </trkpt>
      <trkpt lat="47.2346" lon="6.60585">
        <ele>758</ele>
        <time>2016-10-09T09:48:38Z</time>
      </trkpt>
      <trkpt lat="47.23472" lon="6.60568">
        <ele>760</ele>
        <time>2016-10-09T09:48:42Z</time>
      </trkpt>
      <trkpt lat="47.23486" lon="6.60553">
        <ele>760</ele>
        <time>2016-10-09T09:48:46Z</time>
      </trkpt>
      <trkpt lat="47.23498" lon="6.6055">
        <ele>760</ele>
        <time>2016-10-09T09:48:50Z</time>
      </trkpt>
      <trkpt lat="47.23512" lon="6.60557">
        <ele>762</ele>
        <time>2016-10-09T09:48:54Z</time>
      </trkpt>
      <trkpt lat="47.23522" lon="6.60567">
        <ele>762</ele>
        <time>2016-10-09T09:48:58Z</time>
      </trkpt>
      <trkpt lat="47.23531" lon="6.60567">
        <ele>763</ele>
        <time>2016-10-09T09:49:00Z</time>
      </trkpt>
      <trkpt lat="47.23542" lon="6.60558">
        <ele>764</ele>
        <time>2016-10-09T09:49:06Z</time>
      </trkpt>
      <trkpt lat="47.2355" lon="6.60549">
        <ele>765</ele>
        <time>2016-10-09T09:49:12Z</time>
      </trkpt>
      <trkpt lat="47.23561" lon="6.60538">
        <ele>765</ele>
        <time>2016-10-09T09:49:18Z</time>
      </trkpt>
      <trkpt lat="47.23574" lon="6.60528">
        <ele>766</ele>
        <time>2016-10-09T09:49:22Z</time>
      </trkpt>
      <trkpt lat="47.23585" lon="6.60522">
        <ele>771</ele>
        <time>2016-10-09T09:49:26Z</time>
      </trkpt>
      <trkpt lat="47.23594" lon="6.60519">
        <ele>771</ele>
        <time>2016-10-09T09:49:30Z</time>
      </trkpt>
      <trkpt lat="47.23607" lon="6.60516">
        <ele>771</ele>
        <time>2016-10-09T09:49:36Z</time>
      </trkpt>
      <trkpt lat="47.23616" lon="6.60517">
        <ele>772</ele>
        <time>2016-10-09T09:49:40Z</time>
      </trkpt>
      <trkpt lat="47.23626" lon="6.60522">
        <ele>772</ele>
        <time>2016-10-09T09:49:44Z</time>
      </trkpt>
      <trkpt lat="47.2364" lon="6.60523">
        <ele>772</ele>
        <time>2016-10-09T09:49:50Z</time>
      </trkpt>
      <trkpt lat="47.23649" lon="6.60525">
        <ele>773</ele>
        <time>2016-10-09T09:49:54Z</time>
      </trkpt>
      <trkpt lat="47.23659" lon="6.60528">
        <ele>773</ele>
        <time>2016-10-09T09:49:58Z</time>
      </trkpt>
      <trkpt lat="47.23672" lon="6.6053">
        <ele>776</ele>
        <time>2016-10-09T09:50:02Z</time>
      </trkpt>
      <trkpt lat="47.23684" lon="6.60534">
        <ele>776</ele>
        <time>2016-10-09T09:50:06Z</time>
      </trkpt>
      <trkpt lat="47.23694" lon="6.60539">
        <ele>776</ele>
        <time>2016-10-09T09:50:10Z</time>
      </trkpt>
      <trkpt lat="47.23704" lon="6.60546">
        <ele>776</ele>
        <time>2016-10-09T09:50:16Z</time>
      </trkpt>
      <trkpt lat="47.23713" lon="6.60549">
        <ele>776</ele>
        <time>2016-10-09T09:50:20Z</time>
      </trkpt>
      <trkpt lat="47.23723" lon="6.60553">
        <ele>776</ele>
        <time>2016-10-09T09:50:26Z</time>
      </trkpt>
      <trkpt lat="47.23732" lon="6.60556">
        <ele>776</ele>
        <time>2016-10-09T09:50:30Z</time>
      </trkpt>
      <trkpt lat="47.23743" lon="6.60551">
        <ele>776</ele>
        <time>2016-10-09T09:50:34Z</time>
      </trkpt>
      <trkpt lat="47.23755" lon="6.60545">
        <ele>779</ele>
        <time>2016-10-09T09:50:38Z</time>
      </trkpt>
      <trkpt lat="47.23766" lon="6.60545">
        <ele>779</ele>
        <time>2016-10-09T09:50:42Z</time>
      </trkpt>
      <trkpt lat="47.23782" lon="6.60545">
        <ele>780</ele>
        <time>2016-10-09T09:50:46Z</time>
      </trkpt>
      <trkpt lat="47.23796" lon="6.60546">
        <ele>780</ele>
        <time>2016-10-09T09:50:50Z</time>
      </trkpt>
      <trkpt lat="47.23808" lon="6.60548">
        <ele>780</ele>
        <time>2016-10-09T09:50:56Z</time>
      </trkpt>
      <trkpt lat="47.23817" lon="6.6055">
        <ele>780</ele>
        <time>2016-10-09T09:50:58Z</time>
      </trkpt>
      <trkpt lat="47.23826" lon="6.60555">
        <ele>780</ele>
        <time>2016-10-09T09:51:02Z</time>
      </trkpt>
      <trkpt lat="47.23838" lon="6.6056">
        <ele>783</ele>
        <time>2016-10-09T09:51:06Z</time>
      </trkpt>
      <trkpt lat="47.2385" lon="6.60569">
        <ele>782</ele>
        <time>2016-10-09T09:51:10Z</time>
      </trkpt>
      <trkpt lat="47.23863" lon="6.60579">
        <ele>783</ele>
        <time>2016-10-09T09:51:14Z</time>
      </trkpt>
      <trkpt lat="47.23876" lon="6.60588">
        <ele>780</ele>
        <time>2016-10-09T09:51:18Z</time>
      </trkpt>
      <trkpt lat="47.23883" lon="6.60597">
        <ele>780</ele>
        <time>2016-10-09T09:51:22Z</time>
      </trkpt>
      <trkpt lat="47.23892" lon="6.60607">
        <ele>780</ele>
        <time>2016-10-09T09:51:26Z</time>
      </trkpt>
      <trkpt lat="47.23907" lon="6.60616">
        <ele>780</ele>
        <time>2016-10-09T09:51:30Z</time>
      </trkpt>
      <trkpt lat="47.23915" lon="6.6062">
        <ele>780</ele>
        <time>2016-10-09T09:51:34Z</time>
      </trkpt>
      <trkpt lat="47.23927" lon="6.60627">
        <ele>782</ele>
        <time>2016-10-09T09:51:38Z</time>
      </trkpt>
      <trkpt lat="47.23935" lon="6.60633">
        <ele>781</ele>
        <time>2016-10-09T09:51:40Z</time>
      </trkpt>
      <trkpt lat="47.23944" lon="6.60643">
        <ele>781</ele>
        <time>2016-10-09T09:51:44Z</time>
      </trkpt>
      <trkpt lat="47.23956" lon="6.60656">
        <ele>780</ele>
        <time>2016-10-09T09:51:48Z</time>
      </trkpt>
      <trkpt lat="47.23963" lon="6.60668">
        <ele>776</ele>
        <time>2016-10-09T09:51:50Z</time>
      </trkpt>
      <trkpt lat="47.24" lon="6.60694">
        <ele>775</ele>
        <time>2016-10-09T09:52:04Z</time>
      </trkpt>
      <trkpt lat="47.24008" lon="6.60708">
        <ele>775</ele>
        <time>2016-10-09T09:52:06Z</time>
      </trkpt>
      <trkpt lat="47.24015" lon="6.60719">
        <ele>774</ele>
        <time>2016-10-09T09:52:08Z</time>
      </trkpt>
      <trkpt lat="47.24023" lon="6.60726">
        <ele>774</ele>
        <time>2016-10-09T09:52:10Z</time>
      </trkpt>
      <trkpt lat="47.24031" lon="6.60737">
        <ele>774</ele>
        <time>2016-10-09T09:52:12Z</time>
      </trkpt>
      <trkpt lat="47.24042" lon="6.60743">
        <ele>773</ele>
        <time>2016-10-09T09:52:14Z</time>
      </trkpt>
      <trkpt lat="47.24049" lon="6.60752">
        <ele>774</ele>
        <time>2016-10-09T09:52:16Z</time>
      </trkpt>
      <trkpt lat="47.24062" lon="6.60763">
        <ele>773</ele>
        <time>2016-10-09T09:52:20Z</time>
      </trkpt>
      <trkpt lat="47.24077" lon="6.60776">
        <ele>773</ele>
        <time>2016-10-09T09:52:24Z</time>
      </trkpt>
      <trkpt lat="47.24085" lon="6.60786">
        <ele>771</ele>
        <time>2016-10-09T09:52:26Z</time>
      </trkpt>
      <trkpt lat="47.24093" lon="6.60795">
        <ele>772</ele>
        <time>2016-10-09T09:52:28Z</time>
      </trkpt>
      <trkpt lat="47.24102" lon="6.60805">
        <ele>772</ele>
        <time>2016-10-09T09:52:30Z</time>
      </trkpt>
      <trkpt lat="47.2411" lon="6.60814">
        <ele>772</ele>
        <time>2016-10-09T09:52:32Z</time>
      </trkpt>
      <trkpt lat="47.24121" lon="6.60823">
        <ele>771</ele>
        <time>2016-10-09T09:52:34Z</time>
      </trkpt>
      <trkpt lat="47.24133" lon="6.60829">
        <ele>771</ele>
        <time>2016-10-09T09:52:36Z</time>
      </trkpt>
      <trkpt lat="47.24145" lon="6.60835">
        <ele>772</ele>
        <time>2016-10-09T09:52:38Z</time>
      </trkpt>
      <trkpt lat="47.24157" lon="6.60839">
        <ele>770</ele>
        <time>2016-10-09T09:52:40Z</time>
      </trkpt>
      <trkpt lat="47.24169" lon="6.60843">
        <ele>767</ele>
        <time>2016-10-09T09:52:42Z</time>
      </trkpt>
      <trkpt lat="47.2418" lon="6.60845">
        <ele>767</ele>
        <time>2016-10-09T09:52:44Z</time>
      </trkpt>
      <trkpt lat="47.24193" lon="6.60848">
        <ele>767</ele>
        <time>2016-10-09T09:52:46Z</time>
      </trkpt>
      <trkpt lat="47.24205" lon="6.60852">
        <ele>767</ele>
        <time>2016-10-09T09:52:48Z</time>
      </trkpt>
      <trkpt lat="47.24217" lon="6.60856">
        <ele>767</ele>
        <time>2016-10-09T09:52:50Z</time>
      </trkpt>
      <trkpt lat="47.24229" lon="6.60858">
        <ele>766</ele>
        <time>2016-10-09T09:52:52Z</time>
      </trkpt>
      <trkpt lat="47.2424" lon="6.60859">
        <ele>766</ele>
        <time>2016-10-09T09:52:54Z</time>
      </trkpt>
      <trkpt lat="47.24252" lon="6.6086">
        <ele>764</ele>
        <time>2016-10-09T09:52:56Z</time>
      </trkpt>
      <trkpt lat="47.24263" lon="6.60861">
        <ele>764</ele>
        <time>2016-10-09T09:52:58Z</time>
      </trkpt>
      <trkpt lat="47.24273" lon="6.60865">
        <ele>764</ele>
        <time>2016-10-09T09:53:00Z</time>
      </trkpt>
      <trkpt lat="47.24284" lon="6.60871">
        <ele>764</ele>
        <time>2016-10-09T09:53:02Z</time>
      </trkpt>
      <trkpt lat="47.24293" lon="6.60877">
        <ele>764</ele>
        <time>2016-10-09T09:53:04Z</time>
      </trkpt>
      <trkpt lat="47.24301" lon="6.60884">
        <ele>764</ele>
        <time>2016-10-09T09:53:06Z</time>
      </trkpt>
      <trkpt lat="47.2431" lon="6.60895">
        <ele>764</ele>
        <time>2016-10-09T09:53:08Z</time>
      </trkpt>
      <trkpt lat="47.2432" lon="6.60905">
        <ele>764</ele>
        <time>2016-10-09T09:53:10Z</time>
      </trkpt>
      <trkpt lat="47.24329" lon="6.60914">
        <ele>764</ele>
        <time>2016-10-09T09:53:12Z</time>
      </trkpt>
      <trkpt lat="47.2434" lon="6.6092">
        <ele>764</ele>
        <time>2016-10-09T09:53:14Z</time>
      </trkpt>
      <trkpt lat="47.2435" lon="6.60926">
        <ele>764</ele>
        <time>2016-10-09T09:53:16Z</time>
      </trkpt>
      <trkpt lat="47.24362" lon="6.60945">
        <ele>764</ele>
        <time>2016-10-09T09:53:20Z</time>
      </trkpt>
      <trkpt lat="47.24363" lon="6.60958">
        <ele>764</ele>
        <time>2016-10-09T09:53:22Z</time>
      </trkpt>
      <trkpt lat="47.24359" lon="6.60974">
        <ele>765</ele>
        <time>2016-10-09T09:53:24Z</time>
      </trkpt>
      <trkpt lat="47.24358" lon="6.60991">
        <ele>765</ele>
        <time>2016-10-09T09:53:26Z</time>
      </trkpt>
      <trkpt lat="47.24359" lon="6.61006">
        <ele>765</ele>
        <time>2016-10-09T09:53:28Z</time>
      </trkpt>
      <trkpt lat="47.24363" lon="6.6102">
        <ele>765</ele>
        <time>2016-10-09T09:53:30Z</time>
      </trkpt>
      <trkpt lat="47.24369" lon="6.61035">
        <ele>765</ele>
        <time>2016-10-09T09:53:32Z</time>
      </trkpt>
      <trkpt lat="47.24376" lon="6.6105">
        <ele>765</ele>
        <time>2016-10-09T09:53:34Z</time>
      </trkpt>
      <trkpt lat="47.24383" lon="6.61064">
        <ele>765</ele>
        <time>2016-10-09T09:53:36Z</time>
      </trkpt>
      <trkpt lat="47.2439" lon="6.61078">
        <ele>764</ele>
        <time>2016-10-09T09:53:38Z</time>
      </trkpt>
      <trkpt lat="47.24397" lon="6.61093">
        <ele>765</ele>
        <time>2016-10-09T09:53:40Z</time>
      </trkpt>
      <trkpt lat="47.24404" lon="6.61108">
        <ele>765</ele>
        <time>2016-10-09T09:53:42Z</time>
      </trkpt>
      <trkpt lat="47.24411" lon="6.61122">
        <ele>765</ele>
        <time>2016-10-09T09:53:44Z</time>
      </trkpt>
      <trkpt lat="47.24418" lon="6.61138">
        <ele>764</ele>
        <time>2016-10-09T09:53:46Z</time>
      </trkpt>
      <trkpt lat="47.24426" lon="6.61155">
        <ele>764</ele>
        <time>2016-10-09T09:53:48Z</time>
      </trkpt>
      <trkpt lat="47.24432" lon="6.61172">
        <ele>765</ele>
        <time>2016-10-09T09:53:50Z</time>
      </trkpt>
      <trkpt lat="47.24438" lon="6.61189">
        <ele>766</ele>
        <time>2016-10-09T09:53:52Z</time>
      </trkpt>
      <trkpt lat="47.24444" lon="6.61205">
        <ele>766</ele>
        <time>2016-10-09T09:53:54Z</time>
      </trkpt>
      <trkpt lat="47.2445" lon="6.61222">
        <ele>766</ele>
        <time>2016-10-09T09:53:56Z</time>
      </trkpt>
      <trkpt lat="47.24456" lon="6.61238">
        <ele>767</ele>
        <time>2016-10-09T09:53:58Z</time>
      </trkpt>
      <trkpt lat="47.24463" lon="6.61253">
        <ele>767</ele>
        <time>2016-10-09T09:54:00Z</time>
      </trkpt>
      <trkpt lat="47.24469" lon="6.61269">
        <ele>767</ele>
        <time>2016-10-09T09:54:02Z</time>
      </trkpt>
      <trkpt lat="47.24475" lon="6.61282">
        <ele>767</ele>
        <time>2016-10-09T09:54:04Z</time>
      </trkpt>
      <trkpt lat="47.24482" lon="6.613">
        <ele>767</ele>
        <time>2016-10-09T09:54:06Z</time>
      </trkpt>
      <trkpt lat="47.24489" lon="6.61317">
        <ele>767</ele>
        <time>2016-10-09T09:54:08Z</time>
      </trkpt>
      <trkpt lat="47.24495" lon="6.61332">
        <ele>766</ele>
        <time>2016-10-09T09:54:10Z</time>
      </trkpt>
      <trkpt lat="47.24503" lon="6.61346">
        <ele>766</ele>
        <time>2016-10-09T09:54:12Z</time>
      </trkpt>
      <trkpt lat="47.24509" lon="6.61361">
        <ele>766</ele>
        <time>2016-10-09T09:54:14Z</time>
      </trkpt>
      <trkpt lat="47.24517" lon="6.61373">
        <ele>766</ele>
        <time>2016-10-09T09:54:16Z</time>
      </trkpt>
      <trkpt lat="47.24527" lon="6.61387">
        <ele>766</ele>
        <time>2016-10-09T09:54:18Z</time>
      </trkpt>
      <trkpt lat="47.24538" lon="6.61404">
        <ele>765</ele>
        <time>2016-10-09T09:54:20Z</time>
      </trkpt>
      <trkpt lat="47.24551" lon="6.61421">
        <ele>765</ele>
        <time>2016-10-09T09:54:22Z</time>
      </trkpt>
      <trkpt lat="47.24566" lon="6.61442">
        <ele>765</ele>
        <time>2016-10-09T09:54:24Z</time>
      </trkpt>
      <trkpt lat="47.24579" lon="6.61461">
        <ele>765</ele>
        <time>2016-10-09T09:54:26Z</time>
      </trkpt>
      <trkpt lat="47.24594" lon="6.61479">
        <ele>758</ele>
        <time>2016-10-09T09:54:28Z</time>
      </trkpt>
      <trkpt lat="47.2461" lon="6.6149">
        <ele>758</ele>
        <time>2016-10-09T09:54:30Z</time>
      </trkpt>
      <trkpt lat="47.24627" lon="6.61494">
        <ele>756</ele>
        <time>2016-10-09T09:54:32Z</time>
      </trkpt>
      <trkpt lat="47.24639" lon="6.615">
        <ele>755</ele>
        <time>2016-10-09T09:54:34Z</time>
      </trkpt>
      <trkpt lat="47.24658" lon="6.61503">
        <ele>755</ele>
        <time>2016-10-09T09:54:36Z</time>
      </trkpt>
      <trkpt lat="47.24675" lon="6.61507">
        <ele>753</ele>
        <time>2016-10-09T09:54:38Z</time>
      </trkpt>
      <trkpt lat="47.24688" lon="6.61515">
        <ele>753</ele>
        <time>2016-10-09T09:54:40Z</time>
      </trkpt>
      <trkpt lat="47.24698" lon="6.61524">
        <ele>754</ele>
        <time>2016-10-09T09:54:42Z</time>
      </trkpt>
      <trkpt lat="47.24695" lon="6.6154">
        <ele>755</ele>
        <time>2016-10-09T09:54:50Z</time>
      </trkpt>
      <trkpt lat="47.24694" lon="6.61562">
        <ele>756</ele>
        <time>2016-10-09T09:54:54Z</time>
      </trkpt>
      <trkpt lat="47.24695" lon="6.61582">
        <ele>757</ele>
        <time>2016-10-09T09:54:58Z</time>
      </trkpt>
      <trkpt lat="47.24692" lon="6.61602">
        <ele>761</ele>
        <time>2016-10-09T09:55:04Z</time>
      </trkpt>
      <trkpt lat="47.24687" lon="6.61618">
        <ele>762</ele>
        <time>2016-10-09T09:55:08Z</time>
      </trkpt>
      <trkpt lat="47.24686" lon="6.61632">
        <ele>762</ele>
        <time>2016-10-09T09:55:10Z</time>
      </trkpt>
      <trkpt lat="47.24684" lon="6.61654">
        <ele>763</ele>
        <time>2016-10-09T09:55:16Z</time>
      </trkpt>
      <trkpt lat="47.24684" lon="6.61671">
        <ele>766</ele>
        <time>2016-10-09T09:55:20Z</time>
      </trkpt>
      <trkpt lat="47.24681" lon="6.61687">
        <ele>766</ele>
        <time>2016-10-09T09:55:24Z</time>
      </trkpt>
      <trkpt lat="47.24679" lon="6.61705">
        <ele>767</ele>
        <time>2016-10-09T09:55:28Z</time>
      </trkpt>
      <trkpt lat="47.24674" lon="6.61722">
        <ele>767</ele>
        <time>2016-10-09T09:55:32Z</time>
      </trkpt>
      <trkpt lat="47.24671" lon="6.61738">
        <ele>767</ele>
        <time>2016-10-09T09:55:36Z</time>
      </trkpt>
      <trkpt lat="47.24668" lon="6.61754">
        <ele>768</ele>
        <time>2016-10-09T09:55:40Z</time>
      </trkpt>
      <trkpt lat="47.24662" lon="6.61769">
        <ele>774</ele>
        <time>2016-10-09T09:55:44Z</time>
      </trkpt>
      <trkpt lat="47.24657" lon="6.61782">
        <ele>777</ele>
        <time>2016-10-09T09:55:48Z</time>
      </trkpt>
      <trkpt lat="47.24651" lon="6.61795">
        <ele>778</ele>
        <time>2016-10-09T09:55:52Z</time>
      </trkpt>
      <trkpt lat="47.24646" lon="6.61807">
        <ele>779</ele>
        <time>2016-10-09T09:55:56Z</time>
      </trkpt>
      <trkpt lat="47.24642" lon="6.61821">
        <ele>779</ele>
        <time>2016-10-09T09:56:00Z</time>
      </trkpt>
      <trkpt lat="47.24636" lon="6.61835">
        <ele>784</ele>
        <time>2016-10-09T09:56:04Z</time>
      </trkpt>
      <trkpt lat="47.2463" lon="6.61846">
        <ele>785</ele>
        <time>2016-10-09T09:56:08Z</time>
      </trkpt>
      <trkpt lat="47.2462" lon="6.6186">
        <ele>787</ele>
        <time>2016-10-09T09:56:14Z</time>
      </trkpt>
      <trkpt lat="47.2461" lon="6.61873">
        <ele>788</ele>
        <time>2016-10-09T09:56:20Z</time>
      </trkpt>
      <trkpt lat="47.24607" lon="6.61888">
        <ele>789</ele>
        <time>2016-10-09T09:56:24Z</time>
      </trkpt>
      <trkpt lat="47.24603" lon="6.6191">
        <ele>791</ele>
        <time>2016-10-09T09:56:30Z</time>
      </trkpt>
      <trkpt lat="47.24605" lon="6.61924">
        <ele>793</ele>
        <time>2016-10-09T09:56:34Z</time>
      </trkpt>
      <trkpt lat="47.24608" lon="6.61937">
        <ele>793</ele>
        <time>2016-10-09T09:56:38Z</time>
      </trkpt>
      <trkpt lat="47.24612" lon="6.61953">
        <ele>793</ele>
        <time>2016-10-09T09:56:42Z</time>
      </trkpt>
      <trkpt lat="47.24612" lon="6.61967">
        <ele>793</ele>
        <time>2016-10-09T09:56:46Z</time>
      </trkpt>
      <trkpt lat="47.24613" lon="6.61983">
        <ele>794</ele>
        <time>2016-10-09T09:56:52Z</time>
      </trkpt>
      <trkpt lat="47.24608" lon="6.61993">
        <ele>795</ele>
        <time>2016-10-09T09:57:00Z</time>
      </trkpt>
      <trkpt lat="47.24597" lon="6.61998">
        <ele>797</ele>
        <time>2016-10-09T09:57:10Z</time>
      </trkpt>
      <trkpt lat="47.24588" lon="6.62006">
        <ele>799</ele>
        <time>2016-10-09T09:57:32Z</time>
      </trkpt>
      <trkpt lat="47.24577" lon="6.62009">
        <ele>801</ele>
        <time>2016-10-09T09:57:46Z</time>
      </trkpt>
      <trkpt lat="47.24565" lon="6.62005">
        <ele>802</ele>
        <time>2016-10-09T09:57:52Z</time>
      </trkpt>
      <trkpt lat="47.24553" lon="6.62003">
        <ele>803</ele>
        <time>2016-10-09T09:57:58Z</time>
      </trkpt>
      <trkpt lat="47.24542" lon="6.62002">
        <ele>804</ele>
        <time>2016-10-09T09:58:04Z</time>
      </trkpt>
      <trkpt lat="47.2453" lon="6.62004">
        <ele>804</ele>
        <time>2016-10-09T09:58:08Z</time>
      </trkpt>
      <trkpt lat="47.24519" lon="6.62009">
        <ele>805</ele>
        <time>2016-10-09T09:58:14Z</time>
      </trkpt>
      <trkpt lat="47.24508" lon="6.62012">
        <ele>806</ele>
        <time>2016-10-09T09:58:18Z</time>
      </trkpt>
      <trkpt lat="47.24497" lon="6.62015">
        <ele>806</ele>
        <time>2016-10-09T09:58:22Z</time>
      </trkpt>
      <trkpt lat="47.24487" lon="6.62015">
        <ele>805</ele>
        <time>2016-10-09T09:58:26Z</time>
      </trkpt>
      <trkpt lat="47.24476" lon="6.62017">
        <ele>805</ele>
        <time>2016-10-09T09:58:32Z</time>
      </trkpt>
      <trkpt lat="47.24466" lon="6.62016">
        <ele>804</ele>
        <time>2016-10-09T09:58:36Z</time>
      </trkpt>
      <trkpt lat="47.24456" lon="6.62014">
        <ele>804</ele>
        <time>2016-10-09T09:58:40Z</time>
      </trkpt>
      <trkpt lat="47.24448" lon="6.62009">
        <ele>804</ele>
        <time>2016-10-09T09:58:44Z</time>
      </trkpt>
      <trkpt lat="47.24438" lon="6.62004">
        <ele>803</ele>
        <time>2016-10-09T09:58:48Z</time>
      </trkpt>
      <trkpt lat="47.24428" lon="6.61998">
        <ele>804</ele>
        <time>2016-10-09T09:58:52Z</time>
      </trkpt>
      <trkpt lat="47.24417" lon="6.61994">
        <ele>803</ele>
        <time>2016-10-09T09:58:56Z</time>
      </trkpt>
      <trkpt lat="47.24405" lon="6.61992">
        <ele>802</ele>
        <time>2016-10-09T09:59:00Z</time>
      </trkpt>
      <trkpt lat="47.24392" lon="6.6199">
        <ele>802</ele>
        <time>2016-10-09T09:59:04Z</time>
      </trkpt>
      <trkpt lat="47.24379" lon="6.61986">
        <ele>801</ele>
        <time>2016-10-09T09:59:08Z</time>
      </trkpt>
      <trkpt lat="47.24369" lon="6.61981">
        <ele>801</ele>
        <time>2016-10-09T09:59:12Z</time>
      </trkpt>
      <trkpt lat="47.24355" lon="6.61979">
        <ele>801</ele>
        <time>2016-10-09T09:59:16Z</time>
      </trkpt>
      <trkpt lat="47.24344" lon="6.61972">
        <ele>801</ele>
        <time>2016-10-09T09:59:22Z</time>
      </trkpt>
      <trkpt lat="47.24332" lon="6.61963">
        <ele>800</ele>
        <time>2016-10-09T09:59:26Z</time>
      </trkpt>
      <trkpt lat="47.24324" lon="6.61952">
        <ele>800</ele>
        <time>2016-10-09T09:59:30Z</time>
      </trkpt>
      <trkpt lat="47.24326" lon="6.61939">
        <ele>800</ele>
        <time>2016-10-09T09:59:38Z</time>
      </trkpt>
      <trkpt lat="47.24338" lon="6.61941">
        <ele>801</ele>
        <time>2016-10-09T09:59:46Z</time>
      </trkpt>
      <trkpt lat="47.24351" lon="6.61945">
        <ele>801</ele>
        <time>2016-10-09T09:59:50Z</time>
      </trkpt>
      <trkpt lat="47.24364" lon="6.61953">
        <ele>801</ele>
        <time>2016-10-09T09:59:54Z</time>
      </trkpt>
      <trkpt lat="47.24373" lon="6.61953">
        <ele>801</ele>
        <time>2016-10-09T09:59:56Z</time>
      </trkpt>
      <trkpt lat="47.24384" lon="6.61953">
        <ele>801</ele>
        <time>2016-10-09T10:00:00Z</time>
      </trkpt>
      <trkpt lat="47.24393" lon="6.61952">
        <ele>801</ele>
        <time>2016-10-09T10:00:02Z</time>
      </trkpt>
      <trkpt lat="47.24408" lon="6.6195">
        <ele>802</ele>
        <time>2016-10-09T10:00:06Z</time>
      </trkpt>
      <trkpt lat="47.24422" lon="6.61947">
        <ele>804</ele>
        <time>2016-10-09T10:00:10Z</time>
      </trkpt>
      <trkpt lat="47.24433" lon="6.61941">
        <ele>804</ele>
        <time>2016-10-09T10:00:14Z</time>
      </trkpt>
      <trkpt lat="47.24439" lon="6.61922">
        <ele>804</ele>
        <time>2016-10-09T10:00:20Z</time>
      </trkpt>
      <trkpt lat="47.24442" lon="6.61905">
        <ele>806</ele>
        <time>2016-10-09T10:00:24Z</time>
      </trkpt>
      <trkpt lat="47.24444" lon="6.61885">
        <ele>807</ele>
        <time>2016-10-09T10:00:28Z</time>
      </trkpt>
      <trkpt lat="47.24448" lon="6.61867">
        <ele>808</ele>
        <time>2016-10-09T10:00:32Z</time>
      </trkpt>
      <trkpt lat="47.24451" lon="6.61854">
        <ele>809</ele>
        <time>2016-10-09T10:00:36Z</time>
      </trkpt>
      <trkpt lat="47.24449" lon="6.61837">
        <ele>809</ele>
        <time>2016-10-09T10:00:42Z</time>
      </trkpt>
      <trkpt lat="47.24447" lon="6.61823">
        <ele>813</ele>
        <time>2016-10-09T10:00:48Z</time>
      </trkpt>
      <trkpt lat="47.24441" lon="6.61812">
        <ele>814</ele>
        <time>2016-10-09T10:01:04Z</time>
      </trkpt>
      <trkpt lat="47.24435" lon="6.618">
        <ele>815</ele>
        <time>2016-10-09T10:01:14Z</time>
      </trkpt>
      <trkpt lat="47.24428" lon="6.61792">
        <ele>815</ele>
        <time>2016-10-09T10:01:24Z</time>
      </trkpt>
      <trkpt lat="47.24425" lon="6.61779">
        <ele>817</ele>
        <time>2016-10-09T10:01:36Z</time>
      </trkpt>
      <trkpt lat="47.24417" lon="6.61768">
        <ele>819</ele>
        <time>2016-10-09T10:02:14Z</time>
      </trkpt>
      <trkpt lat="47.24409" lon="6.6176">
        <ele>821</ele>
        <time>2016-10-09T10:03:00Z</time>
      </trkpt>
      <trkpt lat="47.24403" lon="6.6175">
        <ele>821</ele>
        <time>2016-10-09T10:03:28Z</time>
      </trkpt>
      <trkpt lat="47.24391" lon="6.61752">
        <ele>820</ele>
        <time>2016-10-09T10:04:05Z</time>
      </trkpt>
      <trkpt lat="47.24384" lon="6.61769">
        <ele>819</ele>
        <time>2016-10-09T10:04:09Z</time>
      </trkpt>
      <trkpt lat="47.24377" lon="6.61779">
        <ele>818</ele>
        <time>2016-10-09T10:04:11Z</time>
      </trkpt>
      <trkpt lat="47.24368" lon="6.61789">
        <ele>817</ele>
        <time>2016-10-09T10:04:13Z</time>
      </trkpt>
      <trkpt lat="47.24356" lon="6.618">
        <ele>816</ele>
        <time>2016-10-09T10:04:15Z</time>
      </trkpt>
      <trkpt lat="47.24345" lon="6.61808">
        <ele>815</ele>
        <time>2016-10-09T10:04:17Z</time>
      </trkpt>
      <trkpt lat="47.24334" lon="6.61815">
        <ele>813</ele>
        <time>2016-10-09T10:04:19Z</time>
      </trkpt>
      <trkpt lat="47.24313" lon="6.61812">
        <ele>814</ele>
        <time>2016-10-09T10:04:21Z</time>
      </trkpt>
      <trkpt lat="47.24309" lon="6.618">
        <ele>815</ele>
        <time>2016-10-09T10:04:23Z</time>
      </trkpt>
      <trkpt lat="47.24293" lon="6.61788">
        <ele>816</ele>
        <time>2016-10-09T10:04:27Z</time>
      </trkpt>
      <trkpt lat="47.2428" lon="6.61776">
        <ele>817</ele>
        <time>2016-10-09T10:04:29Z</time>
      </trkpt>
      <trkpt lat="47.24269" lon="6.61769">
        <ele>818</ele>
        <time>2016-10-09T10:04:31Z</time>
      </trkpt>
      <trkpt lat="47.2425" lon="6.61757">
        <ele>820</ele>
        <time>2016-10-09T10:04:33Z</time>
      </trkpt>
      <trkpt lat="47.24234" lon="6.61756">
        <ele>817</ele>
        <time>2016-10-09T10:04:35Z</time>
      </trkpt>
      <trkpt lat="47.24219" lon="6.61749">
        <ele>825</ele>
        <time>2016-10-09T10:04:37Z</time>
      </trkpt>
      <trkpt lat="47.24203" lon="6.61743">
        <ele>824</ele>
        <time>2016-10-09T10:04:39Z</time>
      </trkpt>
      <trkpt lat="47.24188" lon="6.61737">
        <ele>823</ele>
        <time>2016-10-09T10:04:41Z</time>
      </trkpt>
      <trkpt lat="47.24176" lon="6.61729">
        <ele>823</ele>
        <time>2016-10-09T10:04:43Z</time>
      </trkpt>
      <trkpt lat="47.24163" lon="6.61723">
        <ele>820</ele>
        <time>2016-10-09T10:04:45Z</time>
      </trkpt>
      <trkpt lat="47.24151" lon="6.61717">
        <ele>820</ele>
        <time>2016-10-09T10:04:47Z</time>
      </trkpt>
      <trkpt lat="47.24139" lon="6.61712">
        <ele>821</ele>
        <time>2016-10-09T10:04:49Z</time>
      </trkpt>
      <trkpt lat="47.24127" lon="6.61707">
        <ele>821</ele>
        <time>2016-10-09T10:04:51Z</time>
      </trkpt>
      <trkpt lat="47.24116" lon="6.61703">
        <ele>821</ele>
        <time>2016-10-09T10:04:53Z</time>
      </trkpt>
      <trkpt lat="47.24107" lon="6.61699">
        <ele>821</ele>
        <time>2016-10-09T10:04:55Z</time>
      </trkpt>
      <trkpt lat="47.2409" lon="6.61692">
        <ele>821</ele>
        <time>2016-10-09T10:04:59Z</time>
      </trkpt>
      <trkpt lat="47.2408" lon="6.6169">
        <ele>818</ele>
        <time>2016-10-09T10:05:01Z</time>
      </trkpt>
      <trkpt lat="47.2407" lon="6.61686">
        <ele>818</ele>
        <time>2016-10-09T10:05:03Z</time>
      </trkpt>
      <trkpt lat="47.24055" lon="6.61677">
        <ele>817</ele>
        <time>2016-10-09T10:05:07Z</time>
      </trkpt>
      <trkpt lat="47.24044" lon="6.61667">
        <ele>817</ele>
        <time>2016-10-09T10:05:11Z</time>
      </trkpt>
      <trkpt lat="47.24034" lon="6.61662">
        <ele>828</ele>
        <time>2016-10-09T10:05:15Z</time>
      </trkpt>
      <trkpt lat="47.24021" lon="6.61679">
        <ele>817</ele>
        <time>2016-10-09T10:05:21Z</time>
      </trkpt>
      <trkpt lat="47.24015" lon="6.6169">
        <ele>816</ele>
        <time>2016-10-09T10:05:23Z</time>
      </trkpt>
      <trkpt lat="47.24006" lon="6.61692">
        <ele>816</ele>
        <time>2016-10-09T10:05:25Z</time>
      </trkpt>
      <trkpt lat="47.23998" lon="6.61687">
        <ele>817</ele>
        <time>2016-10-09T10:05:27Z</time>
      </trkpt>
      <trkpt lat="47.23985" lon="6.61677">
        <ele>817</ele>
        <time>2016-10-09T10:05:31Z</time>
      </trkpt>
      <trkpt lat="47.23972" lon="6.61673">
        <ele>817</ele>
        <time>2016-10-09T10:05:35Z</time>
      </trkpt>
      <trkpt lat="47.23961" lon="6.61686">
        <ele>816</ele>
        <time>2016-10-09T10:05:39Z</time>
      </trkpt>
      <trkpt lat="47.2395" lon="6.61692">
        <ele>816</ele>
        <time>2016-10-09T10:05:43Z</time>
      </trkpt>
      <trkpt lat="47.23941" lon="6.61691">
        <ele>816</ele>
        <time>2016-10-09T10:05:47Z</time>
      </trkpt>
      <trkpt lat="47.23926" lon="6.61693">
        <ele>817</ele>
        <time>2016-10-09T10:05:51Z</time>
      </trkpt>
      <trkpt lat="47.23914" lon="6.61699">
        <ele>818</ele>
        <time>2016-10-09T10:05:55Z</time>
      </trkpt>
      <trkpt lat="47.23905" lon="6.61711">
        <ele>817</ele>
        <time>2016-10-09T10:05:59Z</time>
      </trkpt>
      <trkpt lat="47.23897" lon="6.61726">
        <ele>817</ele>
        <time>2016-10-09T10:06:03Z</time>
      </trkpt>
      <trkpt lat="47.23891" lon="6.61742">
        <ele>816</ele>
        <time>2016-10-09T10:06:07Z</time>
      </trkpt>
      <trkpt lat="47.23884" lon="6.61751">
        <ele>815</ele>
        <time>2016-10-09T10:06:11Z</time>
      </trkpt>
      <trkpt lat="47.23871" lon="6.61756">
        <ele>815</ele>
        <time>2016-10-09T10:06:15Z</time>
      </trkpt>
      <trkpt lat="47.2386" lon="6.61763">
        <ele>815</ele>
        <time>2016-10-09T10:06:19Z</time>
      </trkpt>
      <trkpt lat="47.23849" lon="6.61767">
        <ele>815</ele>
        <time>2016-10-09T10:06:23Z</time>
      </trkpt>
      <trkpt lat="47.23836" lon="6.61772">
        <ele>816</ele>
        <time>2016-10-09T10:06:27Z</time>
      </trkpt>
      <trkpt lat="47.23824" lon="6.61778">
        <ele>818</ele>
        <time>2016-10-09T10:06:31Z</time>
      </trkpt>
      <trkpt lat="47.23811" lon="6.61785">
        <ele>818</ele>
        <time>2016-10-09T10:06:35Z</time>
      </trkpt>
      <trkpt lat="47.23797" lon="6.6179">
        <ele>819</ele>
        <time>2016-10-09T10:06:39Z</time>
      </trkpt>
      <trkpt lat="47.23783" lon="6.61793">
        <ele>819</ele>
        <time>2016-10-09T10:06:43Z</time>
      </trkpt>
      <trkpt lat="47.2377" lon="6.61791">
        <ele>819</ele>
        <time>2016-10-09T10:06:47Z</time>
      </trkpt>
      <trkpt lat="47.23756" lon="6.61785">
        <ele>819</ele>
        <time>2016-10-09T10:06:51Z</time>
      </trkpt>
      <trkpt lat="47.23747" lon="6.61782">
        <ele>822</ele>
        <time>2016-10-09T10:06:53Z</time>
      </trkpt>
      <trkpt lat="47.23735" lon="6.61779">
        <ele>822</ele>
        <time>2016-10-09T10:06:55Z</time>
      </trkpt>
      <trkpt lat="47.23725" lon="6.61777">
        <ele>822</ele>
        <time>2016-10-09T10:06:57Z</time>
      </trkpt>
      <trkpt lat="47.23715" lon="6.61775">
        <ele>822</ele>
        <time>2016-10-09T10:06:59Z</time>
      </trkpt>
      <trkpt lat="47.23706" lon="6.61756">
        <ele>823</ele>
        <time>2016-10-09T10:07:03Z</time>
      </trkpt>
      <trkpt lat="47.237" lon="6.61731">
        <ele>824</ele>
        <time>2016-10-09T10:07:07Z</time>
      </trkpt>
      <trkpt lat="47.23695" lon="6.61717">
        <ele>824</ele>
        <time>2016-10-09T10:07:09Z</time>
      </trkpt>
      <trkpt lat="47.23689" lon="6.61703">
        <ele>825</ele>
        <time>2016-10-09T10:07:11Z</time>
      </trkpt>
      <trkpt lat="47.23684" lon="6.61689">
        <ele>825</ele>
        <time>2016-10-09T10:07:13Z</time>
      </trkpt>
      <trkpt lat="47.2368" lon="6.61674">
        <ele>827</ele>
        <time>2016-10-09T10:07:15Z</time>
      </trkpt>
      <trkpt lat="47.23678" lon="6.61658">
        <ele>826</ele>
        <time>2016-10-09T10:07:17Z</time>
      </trkpt>
      <trkpt lat="47.23676" lon="6.61644">
        <ele>825</ele>
        <time>2016-10-09T10:07:19Z</time>
      </trkpt>
      <trkpt lat="47.23676" lon="6.61629">
        <ele>824</ele>
        <time>2016-10-09T10:07:21Z</time>
      </trkpt>
      <trkpt lat="47.23675" lon="6.61615">
        <ele>824</ele>
        <time>2016-10-09T10:07:23Z</time>
      </trkpt>
      <trkpt lat="47.23676" lon="6.616">
        <ele>824</ele>
        <time>2016-10-09T10:07:25Z</time>
      </trkpt>
      <trkpt lat="47.23676" lon="6.61584">
        <ele>824</ele>
        <time>2016-10-09T10:07:27Z</time>
      </trkpt>
      <trkpt lat="47.23676" lon="6.6157">
        <ele>824</ele>
        <time>2016-10-09T10:07:29Z</time>
      </trkpt>
      <trkpt lat="47.23677" lon="6.61555">
        <ele>824</ele>
        <time>2016-10-09T10:07:31Z</time>
      </trkpt>
      <trkpt lat="47.23678" lon="6.6154">
        <ele>825</ele>
        <time>2016-10-09T10:07:33Z</time>
      </trkpt>
      <trkpt lat="47.23679" lon="6.61525">
        <ele>825</ele>
        <time>2016-10-09T10:07:35Z</time>
      </trkpt>
      <trkpt lat="47.23678" lon="6.6151">
        <ele>827</ele>
        <time>2016-10-09T10:07:37Z</time>
      </trkpt>
      <trkpt lat="47.23676" lon="6.61494">
        <ele>829</ele>
        <time>2016-10-09T10:07:39Z</time>
      </trkpt>
      <trkpt lat="47.23675" lon="6.61479">
        <ele>829</ele>
        <time>2016-10-09T10:07:41Z</time>
      </trkpt>
      <trkpt lat="47.23674" lon="6.61464">
        <ele>829</ele>
        <time>2016-10-09T10:07:43Z</time>
      </trkpt>
      <trkpt lat="47.2367" lon="6.61448">
        <ele>829</ele>
        <time>2016-10-09T10:07:45Z</time>
      </trkpt>
      <trkpt lat="47.23668" lon="6.61431">
        <ele>829</ele>
        <time>2016-10-09T10:07:47Z</time>
      </trkpt>
      <trkpt lat="47.23664" lon="6.61415">
        <ele>830</ele>
        <time>2016-10-09T10:07:49Z</time>
      </trkpt>
      <trkpt lat="47.23661" lon="6.61401">
        <ele>832</ele>
        <time>2016-10-09T10:07:51Z</time>
      </trkpt>
      <trkpt lat="47.23657" lon="6.61385">
        <ele>833</ele>
        <time>2016-10-09T10:07:53Z</time>
      </trkpt>
      <trkpt lat="47.23654" lon="6.6137">
        <ele>833</ele>
        <time>2016-10-09T10:07:55Z</time>
      </trkpt>
      <trkpt lat="47.2365" lon="6.61356">
        <ele>833</ele>
        <time>2016-10-09T10:07:57Z</time>
      </trkpt>
      <trkpt lat="47.23646" lon="6.61342">
        <ele>833</ele>
        <time>2016-10-09T10:07:59Z</time>
      </trkpt>
      <trkpt lat="47.23641" lon="6.61329">
        <ele>833</ele>
        <time>2016-10-09T10:08:01Z</time>
      </trkpt>
      <trkpt lat="47.23636" lon="6.61316">
        <ele>833</ele>
        <time>2016-10-09T10:08:03Z</time>
      </trkpt>
      <trkpt lat="47.2363" lon="6.61304">
        <ele>834</ele>
        <time>2016-10-09T10:08:05Z</time>
      </trkpt>
      <trkpt lat="47.23624" lon="6.61292">
        <ele>834</ele>
        <time>2016-10-09T10:08:07Z</time>
      </trkpt>
      <trkpt lat="47.23612" lon="6.61274">
        <ele>833</ele>
        <time>2016-10-09T10:08:11Z</time>
      </trkpt>
      <trkpt lat="47.23598" lon="6.61275">
        <ele>833</ele>
        <time>2016-10-09T10:08:15Z</time>
      </trkpt>
      <trkpt lat="47.2359" lon="6.61283">
        <ele>833</ele>
        <time>2016-10-09T10:08:19Z</time>
      </trkpt>
      <trkpt lat="47.23582" lon="6.6129">
        <ele>840</ele>
        <time>2016-10-09T10:08:23Z</time>
      </trkpt>
      <trkpt lat="47.23573" lon="6.61296">
        <ele>841</ele>
        <time>2016-10-09T10:08:29Z</time>
      </trkpt>
      <trkpt lat="47.23561" lon="6.61299">
        <ele>843</ele>
        <time>2016-10-09T10:08:37Z</time>
      </trkpt>
      <trkpt lat="47.23551" lon="6.61295">
        <ele>844</ele>
        <time>2016-10-09T10:08:43Z</time>
      </trkpt>
      <trkpt lat="47.23542" lon="6.6129">
        <ele>846</ele>
        <time>2016-10-09T10:08:51Z</time>
      </trkpt>
      <trkpt lat="47.23534" lon="6.61282">
        <ele>847</ele>
        <time>2016-10-09T10:08:59Z</time>
      </trkpt>
      <trkpt lat="47.23526" lon="6.61277">
        <ele>848</ele>
        <time>2016-10-09T10:09:05Z</time>
      </trkpt>
      <trkpt lat="47.23519" lon="6.61265">
        <ele>849</ele>
        <time>2016-10-09T10:09:15Z</time>
      </trkpt>
      <trkpt lat="47.23509" lon="6.61261">
        <ele>851</ele>
        <time>2016-10-09T10:09:21Z</time>
      </trkpt>
      <trkpt lat="47.23499" lon="6.61256">
        <ele>858</ele>
        <time>2016-10-09T10:09:27Z</time>
      </trkpt>
      <trkpt lat="47.2349" lon="6.61248">
        <ele>856</ele>
        <time>2016-10-09T10:09:33Z</time>
      </trkpt>
      <trkpt lat="47.23482" lon="6.61243">
        <ele>857</ele>
        <time>2016-10-09T10:09:39Z</time>
      </trkpt>
      <trkpt lat="47.23472" lon="6.61237">
        <ele>858</ele>
        <time>2016-10-09T10:09:45Z</time>
      </trkpt>
      <trkpt lat="47.23463" lon="6.61228">
        <ele>859</ele>
        <time>2016-10-09T10:09:53Z</time>
      </trkpt>
      <trkpt lat="47.23457" lon="6.61215">
        <ele>859</ele>
        <time>2016-10-09T10:09:59Z</time>
      </trkpt>
      <trkpt lat="47.23437" lon="6.61198">
        <ele>860</ele>
        <time>2016-10-09T10:10:03Z</time>
      </trkpt>
      <trkpt lat="47.23425" lon="6.6119">
        <ele>861</ele>
        <time>2016-10-09T10:10:05Z</time>
      </trkpt>
      <trkpt lat="47.23412" lon="6.61183">
        <ele>864</ele>
        <time>2016-10-09T10:10:07Z</time>
      </trkpt>
      <trkpt lat="47.23394" lon="6.61189">
        <ele>863</ele>
        <time>2016-10-09T10:10:09Z</time>
      </trkpt>
      <trkpt lat="47.23377" lon="6.61199">
        <ele>862</ele>
        <time>2016-10-09T10:10:11Z</time>
      </trkpt>
      <trkpt lat="47.2336" lon="6.61211">
        <ele>862</ele>
        <time>2016-10-09T10:10:13Z</time>
      </trkpt>
      <trkpt lat="47.23341" lon="6.61223">
        <ele>862</ele>
        <time>2016-10-09T10:10:17Z</time>
      </trkpt>
      <trkpt lat="47.23314" lon="6.61261">
        <ele>857</ele>
        <time>2016-10-09T10:10:19Z</time>
      </trkpt>
      <trkpt lat="47.23307" lon="6.61286">
        <ele>855</ele>
        <time>2016-10-09T10:10:21Z</time>
      </trkpt>
      <trkpt lat="47.23298" lon="6.6131">
        <ele>854</ele>
        <time>2016-10-09T10:10:23Z</time>
      </trkpt>
      <trkpt lat="47.23289" lon="6.61332">
        <ele>853</ele>
        <time>2016-10-09T10:10:25Z</time>
      </trkpt>
      <trkpt lat="47.23282" lon="6.61354">
        <ele>856</ele>
        <time>2016-10-09T10:10:27Z</time>
      </trkpt>
      <trkpt lat="47.23277" lon="6.61372">
        <ele>856</ele>
        <time>2016-10-09T10:10:29Z</time>
      </trkpt>
      <trkpt lat="47.23268" lon="6.61387">
        <ele>856</ele>
        <time>2016-10-09T10:10:31Z</time>
      </trkpt>
      <trkpt lat="47.2326" lon="6.61405">
        <ele>855</ele>
        <time>2016-10-09T10:10:33Z</time>
      </trkpt>
      <trkpt lat="47.2325" lon="6.61419">
        <ele>851</ele>
        <time>2016-10-09T10:10:35Z</time>
      </trkpt>
      <trkpt lat="47.23241" lon="6.61435">
        <ele>847</ele>
        <time>2016-10-09T10:10:37Z</time>
      </trkpt>
      <trkpt lat="47.23233" lon="6.61453">
        <ele>847</ele>
        <time>2016-10-09T10:10:39Z</time>
      </trkpt>
      <trkpt lat="47.23224" lon="6.61474">
        <ele>847</ele>
        <time>2016-10-09T10:10:41Z</time>
      </trkpt>
      <trkpt lat="47.23215" lon="6.6149">
        <ele>847</ele>
        <time>2016-10-09T10:10:43Z</time>
      </trkpt>
      <trkpt lat="47.23207" lon="6.61507">
        <ele>853</ele>
        <time>2016-10-09T10:10:45Z</time>
      </trkpt>
      <trkpt lat="47.23199" lon="6.61522">
        <ele>852</ele>
        <time>2016-10-09T10:10:47Z</time>
      </trkpt>
      <trkpt lat="47.2319" lon="6.61535">
        <ele>852</ele>
        <time>2016-10-09T10:10:49Z</time>
      </trkpt>
      <trkpt lat="47.23182" lon="6.61546">
        <ele>852</ele>
        <time>2016-10-09T10:10:51Z</time>
      </trkpt>
      <trkpt lat="47.23173" lon="6.61559">
        <ele>852</ele>
        <time>2016-10-09T10:10:53Z</time>
      </trkpt>
      <trkpt lat="47.23165" lon="6.61575">
        <ele>846</ele>
        <time>2016-10-09T10:10:55Z</time>
      </trkpt>
      <trkpt lat="47.23159" lon="6.6159">
        <ele>848</ele>
        <time>2016-10-09T10:10:57Z</time>
      </trkpt>
      <trkpt lat="47.2315" lon="6.61603">
        <ele>846</ele>
        <time>2016-10-09T10:10:59Z</time>
      </trkpt>
      <trkpt lat="47.23142" lon="6.61618">
        <ele>845</ele>
        <time>2016-10-09T10:11:01Z</time>
      </trkpt>
      <trkpt lat="47.23135" lon="6.61635">
        <ele>845</ele>
        <time>2016-10-09T10:11:03Z</time>
      </trkpt>
      <trkpt lat="47.23128" lon="6.61653">
        <ele>845</ele>
        <time>2016-10-09T10:11:05Z</time>
      </trkpt>
      <trkpt lat="47.23122" lon="6.61671">
        <ele>848</ele>
        <time>2016-10-09T10:11:07Z</time>
      </trkpt>
      <trkpt lat="47.23116" lon="6.61691">
        <ele>848</ele>
        <time>2016-10-09T10:11:09Z</time>
      </trkpt>
      <trkpt lat="47.2311" lon="6.61712">
        <ele>848</ele>
        <time>2016-10-09T10:11:11Z</time>
      </trkpt>
      <trkpt lat="47.23107" lon="6.61735">
        <ele>848</ele>
        <time>2016-10-09T10:11:13Z</time>
      </trkpt>
      <trkpt lat="47.23105" lon="6.61757">
        <ele>847</ele>
        <time>2016-10-09T10:11:15Z</time>
      </trkpt>
      <trkpt lat="47.23103" lon="6.6178">
        <ele>847</ele>
        <time>2016-10-09T10:11:17Z</time>
      </trkpt>
      <trkpt lat="47.23101" lon="6.61802">
        <ele>845</ele>
        <time>2016-10-09T10:11:19Z</time>
      </trkpt>
      <trkpt lat="47.231" lon="6.61824">
        <ele>842</ele>
        <time>2016-10-09T10:11:21Z</time>
      </trkpt>
      <trkpt lat="47.23097" lon="6.61844">
        <ele>838</ele>
        <time>2016-10-09T10:11:23Z</time>
      </trkpt>
      <trkpt lat="47.23094" lon="6.61867">
        <ele>838</ele>
        <time>2016-10-09T10:11:25Z</time>
      </trkpt>
      <trkpt lat="47.23091" lon="6.61889">
        <ele>837</ele>
        <time>2016-10-09T10:11:27Z</time>
      </trkpt>
      <trkpt lat="47.23088" lon="6.6191">
        <ele>832</ele>
        <time>2016-10-09T10:11:29Z</time>
      </trkpt>
      <trkpt lat="47.23084" lon="6.61935">
        <ele>831</ele>
        <time>2016-10-09T10:11:31Z</time>
      </trkpt>
      <trkpt lat="47.23079" lon="6.61958">
        <ele>826</ele>
        <time>2016-10-09T10:11:33Z</time>
      </trkpt>
      <trkpt lat="47.23071" lon="6.61979">
        <ele>825</ele>
        <time>2016-10-09T10:11:35Z</time>
      </trkpt>
      <trkpt lat="47.23066" lon="6.61999">
        <ele>825</ele>
        <time>2016-10-09T10:11:37Z</time>
      </trkpt>
      <trkpt lat="47.23059" lon="6.62017">
        <ele>825</ele>
        <time>2016-10-09T10:11:39Z</time>
      </trkpt>
      <trkpt lat="47.23051" lon="6.62027">
        <ele>824</ele>
        <time>2016-10-09T10:11:43Z</time>
      </trkpt>
      <trkpt lat="47.23053" lon="6.62041">
        <ele>824</ele>
        <time>2016-10-09T10:11:53Z</time>
      </trkpt>
      <trkpt lat="47.23062" lon="6.62044">
        <ele>825</ele>
        <time>2016-10-09T10:14:45Z</time>
      </trkpt>
      <trkpt lat="47.23048" lon="6.62045">
        <ele>824</ele>
        <time>2016-10-09T10:15:27Z</time>
      </trkpt>
      <trkpt lat="47.23029" lon="6.62055">
        <ele>823</ele>
        <time>2016-10-09T10:15:31Z</time>
      </trkpt>
      <trkpt lat="47.2302" lon="6.62061">
        <ele>823</ele>
        <time>2016-10-09T10:15:33Z</time>
      </trkpt>
      <trkpt lat="47.23005" lon="6.62053">
        <ele>823</ele>
        <time>2016-10-09T10:15:37Z</time>
      </trkpt>
      <trkpt lat="47.23002" lon="6.62036">
        <ele>823</ele>
        <time>2016-10-09T10:15:41Z</time>
      </trkpt>
      <trkpt lat="47.22996" lon="6.6202">
        <ele>821</ele>
        <time>2016-10-09T10:15:45Z</time>
      </trkpt>
      <trkpt lat="47.22986" lon="6.62002">
        <ele>821</ele>
        <time>2016-10-09T10:15:49Z</time>
      </trkpt>
      <trkpt lat="47.22979" lon="6.61986">
        <ele>823</ele>
        <time>2016-10-09T10:15:53Z</time>
      </trkpt>
      <trkpt lat="47.22972" lon="6.61969">
        <ele>823</ele>
        <time>2016-10-09T10:15:57Z</time>
      </trkpt>
      <trkpt lat="47.22962" lon="6.6195">
        <ele>824</ele>
        <time>2016-10-09T10:16:01Z</time>
      </trkpt>
      <trkpt lat="47.22955" lon="6.61934">
        <ele>824</ele>
        <time>2016-10-09T10:16:05Z</time>
      </trkpt>
      <trkpt lat="47.22947" lon="6.61917">
        <ele>825</ele>
        <time>2016-10-09T10:16:09Z</time>
      </trkpt>
      <trkpt lat="47.22939" lon="6.61898">
        <ele>826</ele>
        <time>2016-10-09T10:16:13Z</time>
      </trkpt>
      <trkpt lat="47.22932" lon="6.61879">
        <ele>826</ele>
        <time>2016-10-09T10:16:17Z</time>
      </trkpt>
      <trkpt lat="47.22926" lon="6.61861">
        <ele>826</ele>
        <time>2016-10-09T10:16:21Z</time>
      </trkpt>
      <trkpt lat="47.22921" lon="6.61842">
        <ele>827</ele>
        <time>2016-10-09T10:16:25Z</time>
      </trkpt>
      <trkpt lat="47.2291" lon="6.61824">
        <ele>825</ele>
        <time>2016-10-09T10:16:29Z</time>
      </trkpt>
      <trkpt lat="47.22899" lon="6.61819">
        <ele>825</ele>
        <time>2016-10-09T10:16:31Z</time>
      </trkpt>
      <trkpt lat="47.22887" lon="6.61814">
        <ele>824</ele>
        <time>2016-10-09T10:16:33Z</time>
      </trkpt>
      <trkpt lat="47.22875" lon="6.6181">
        <ele>825</ele>
        <time>2016-10-09T10:16:35Z</time>
      </trkpt>
      <trkpt lat="47.22863" lon="6.61805">
        <ele>825</ele>
        <time>2016-10-09T10:16:37Z</time>
      </trkpt>
      <trkpt lat="47.2285" lon="6.61801">
        <ele>825</ele>
        <time>2016-10-09T10:16:39Z</time>
      </trkpt>
      <trkpt lat="47.22838" lon="6.61795">
        <ele>825</ele>
        <time>2016-10-09T10:16:41Z</time>
      </trkpt>
      <trkpt lat="47.22828" lon="6.6179">
        <ele>830</ele>
        <time>2016-10-09T10:16:43Z</time>
      </trkpt>
      <trkpt lat="47.22817" lon="6.61782">
        <ele>829</ele>
        <time>2016-10-09T10:16:45Z</time>
      </trkpt>
      <trkpt lat="47.22802" lon="6.61776">
        <ele>830</ele>
        <time>2016-10-09T10:16:47Z</time>
      </trkpt>
      <trkpt lat="47.22788" lon="6.61771">
        <ele>831</ele>
        <time>2016-10-09T10:16:49Z</time>
      </trkpt>
      <trkpt lat="47.22774" lon="6.61765">
        <ele>831</ele>
        <time>2016-10-09T10:16:51Z</time>
      </trkpt>
      <trkpt lat="47.22761" lon="6.61758">
        <ele>831</ele>
        <time>2016-10-09T10:16:53Z</time>
      </trkpt>
      <trkpt lat="47.22748" lon="6.61752">
        <ele>832</ele>
        <time>2016-10-09T10:16:55Z</time>
      </trkpt>
      <trkpt lat="47.22735" lon="6.61744">
        <ele>828</ele>
        <time>2016-10-09T10:16:57Z</time>
      </trkpt>
      <trkpt lat="47.22721" lon="6.61737">
        <ele>826</ele>
        <time>2016-10-09T10:16:59Z</time>
      </trkpt>
      <trkpt lat="47.2271" lon="6.6173">
        <ele>826</ele>
        <time>2016-10-09T10:17:01Z</time>
      </trkpt>
      <trkpt lat="47.227" lon="6.61724">
        <ele>826</ele>
        <time>2016-10-09T10:17:03Z</time>
      </trkpt>
      <trkpt lat="47.22687" lon="6.61719">
        <ele>826</ele>
        <time>2016-10-09T10:17:05Z</time>
      </trkpt>
      <trkpt lat="47.22674" lon="6.61714">
        <ele>826</ele>
        <time>2016-10-09T10:17:07Z</time>
      </trkpt>
      <trkpt lat="47.2266" lon="6.61709">
        <ele>829</ele>
        <time>2016-10-09T10:17:09Z</time>
      </trkpt>
      <trkpt lat="47.2265" lon="6.61704">
        <ele>828</ele>
        <time>2016-10-09T10:17:11Z</time>
      </trkpt>
      <trkpt lat="47.22637" lon="6.617">
        <ele>828</ele>
        <time>2016-10-09T10:17:13Z</time>
      </trkpt>
      <trkpt lat="47.22621" lon="6.61695">
        <ele>829</ele>
        <time>2016-10-09T10:17:15Z</time>
      </trkpt>
      <trkpt lat="47.22608" lon="6.61691">
        <ele>829</ele>
        <time>2016-10-09T10:17:17Z</time>
      </trkpt>
      <trkpt lat="47.22597" lon="6.61686">
        <ele>828</ele>
        <time>2016-10-09T10:17:19Z</time>
      </trkpt>
      <trkpt lat="47.22584" lon="6.61682">
        <ele>827</ele>
        <time>2016-10-09T10:17:21Z</time>
      </trkpt>
      <trkpt lat="47.22572" lon="6.61678">
        <ele>830</ele>
        <time>2016-10-09T10:17:23Z</time>
      </trkpt>
      <trkpt lat="47.22557" lon="6.61674">
        <ele>832</ele>
        <time>2016-10-09T10:17:25Z</time>
      </trkpt>
      <trkpt lat="47.22546" lon="6.61673">
        <ele>833</ele>
        <time>2016-10-09T10:17:27Z</time>
      </trkpt>
      <trkpt lat="47.22532" lon="6.61671">
        <ele>833</ele>
        <time>2016-10-09T10:17:29Z</time>
      </trkpt>
      <trkpt lat="47.22518" lon="6.61667">
        <ele>832</ele>
        <time>2016-10-09T10:17:31Z</time>
      </trkpt>
      <trkpt lat="47.22506" lon="6.61662">
        <ele>825</ele>
        <time>2016-10-09T10:17:33Z</time>
      </trkpt>
      <trkpt lat="47.22494" lon="6.61658">
        <ele>826</ele>
        <time>2016-10-09T10:17:35Z</time>
      </trkpt>
      <trkpt lat="47.22482" lon="6.61652">
        <ele>824</ele>
        <time>2016-10-09T10:17:37Z</time>
      </trkpt>
      <trkpt lat="47.22469" lon="6.61649">
        <ele>823</ele>
        <time>2016-10-09T10:17:39Z</time>
      </trkpt>
      <trkpt lat="47.22456" lon="6.61643">
        <ele>823</ele>
        <time>2016-10-09T10:17:41Z</time>
      </trkpt>
      <trkpt lat="47.22442" lon="6.61639">
        <ele>823</ele>
        <time>2016-10-09T10:17:43Z</time>
      </trkpt>
      <trkpt lat="47.22431" lon="6.61635">
        <ele>823</ele>
        <time>2016-10-09T10:17:45Z</time>
      </trkpt>
      <trkpt lat="47.22417" lon="6.61632">
        <ele>823</ele>
        <time>2016-10-09T10:17:47Z</time>
      </trkpt>
      <trkpt lat="47.22405" lon="6.61629">
        <ele>821</ele>
        <time>2016-10-09T10:17:49Z</time>
      </trkpt>
      <trkpt lat="47.22392" lon="6.61627">
        <ele>821</ele>
        <time>2016-10-09T10:17:51Z</time>
      </trkpt>
      <trkpt lat="47.22378" lon="6.61628">
        <ele>820</ele>
        <time>2016-10-09T10:17:53Z</time>
      </trkpt>
      <trkpt lat="47.22364" lon="6.61627">
        <ele>820</ele>
        <time>2016-10-09T10:17:55Z</time>
      </trkpt>
      <trkpt lat="47.22351" lon="6.61628">
        <ele>820</ele>
        <time>2016-10-09T10:17:57Z</time>
      </trkpt>
      <trkpt lat="47.22339" lon="6.6163">
        <ele>820</ele>
        <time>2016-10-09T10:17:59Z</time>
      </trkpt>
      <trkpt lat="47.22326" lon="6.61631">
        <ele>819</ele>
        <time>2016-10-09T10:18:01Z</time>
      </trkpt>
      <trkpt lat="47.22316" lon="6.6163">
        <ele>819</ele>
        <time>2016-10-09T10:18:03Z</time>
      </trkpt>
      <trkpt lat="47.22305" lon="6.61628">
        <ele>818</ele>
        <time>2016-10-09T10:18:05Z</time>
      </trkpt>
      <trkpt lat="47.22293" lon="6.61629">
        <ele>819</ele>
        <time>2016-10-09T10:18:07Z</time>
      </trkpt>
      <trkpt lat="47.22282" lon="6.61631">
        <ele>819</ele>
        <time>2016-10-09T10:18:09Z</time>
      </trkpt>
      <trkpt lat="47.22272" lon="6.6163">
        <ele>819</ele>
        <time>2016-10-09T10:18:11Z</time>
      </trkpt>
      <trkpt lat="47.22261" lon="6.61631">
        <ele>820</ele>
        <time>2016-10-09T10:18:13Z</time>
      </trkpt>
      <trkpt lat="47.22252" lon="6.61632">
        <ele>820</ele>
        <time>2016-10-09T10:18:15Z</time>
      </trkpt>
      <trkpt lat="47.22242" lon="6.61629">
        <ele>822</ele>
        <time>2016-10-09T10:18:17Z</time>
      </trkpt>
      <trkpt lat="47.22232" lon="6.61626">
        <ele>822</ele>
        <time>2016-10-09T10:18:19Z</time>
      </trkpt>
      <trkpt lat="47.22218" lon="6.61618">
        <ele>822</ele>
        <time>2016-10-09T10:18:21Z</time>
      </trkpt>
      <trkpt lat="47.22207" lon="6.61612">
        <ele>821</ele>
        <time>2016-10-09T10:18:23Z</time>
      </trkpt>
      <trkpt lat="47.22194" lon="6.61607">
        <ele>821</ele>
        <time>2016-10-09T10:18:25Z</time>
      </trkpt>
      <trkpt lat="47.2218" lon="6.61599">
        <ele>820</ele>
        <time>2016-10-09T10:18:27Z</time>
      </trkpt>
      <trkpt lat="47.22168" lon="6.61592">
        <ele>819</ele>
        <time>2016-10-09T10:18:29Z</time>
      </trkpt>
      <trkpt lat="47.22156" lon="6.61585">
        <ele>821</ele>
        <time>2016-10-09T10:18:31Z</time>
      </trkpt>
      <trkpt lat="47.22146" lon="6.61575">
        <ele>815</ele>
        <time>2016-10-09T10:18:33Z</time>
      </trkpt>
      <trkpt lat="47.22135" lon="6.61565">
        <ele>815</ele>
        <time>2016-10-09T10:18:35Z</time>
      </trkpt>
      <trkpt lat="47.22123" lon="6.61558">
        <ele>815</ele>
        <time>2016-10-09T10:18:37Z</time>
      </trkpt>
      <trkpt lat="47.22111" lon="6.61551">
        <ele>815</ele>
        <time>2016-10-09T10:18:39Z</time>
      </trkpt>
      <trkpt lat="47.221" lon="6.61543">
        <ele>814</ele>
        <time>2016-10-09T10:18:41Z</time>
      </trkpt>
      <trkpt lat="47.22087" lon="6.61536">
        <ele>813</ele>
        <time>2016-10-09T10:18:43Z</time>
      </trkpt>
      <trkpt lat="47.22076" lon="6.61524">
        <ele>817</ele>
        <time>2016-10-09T10:18:45Z</time>
      </trkpt>
      <trkpt lat="47.22065" lon="6.61513">
        <ele>816</ele>
        <time>2016-10-09T10:18:47Z</time>
      </trkpt>
      <trkpt lat="47.22052" lon="6.61505">
        <ele>818</ele>
        <time>2016-10-09T10:18:49Z</time>
      </trkpt>
      <trkpt lat="47.22043" lon="6.61494">
        <ele>809</ele>
        <time>2016-10-09T10:18:51Z</time>
      </trkpt>
      <trkpt lat="47.22032" lon="6.61483">
        <ele>810</ele>
        <time>2016-10-09T10:18:53Z</time>
      </trkpt>
      <trkpt lat="47.22023" lon="6.61473">
        <ele>810</ele>
        <time>2016-10-09T10:18:55Z</time>
      </trkpt>
      <trkpt lat="47.22013" lon="6.61462">
        <ele>809</ele>
        <time>2016-10-09T10:18:57Z</time>
      </trkpt>
      <trkpt lat="47.22004" lon="6.61451">
        <ele>808</ele>
        <time>2016-10-09T10:18:59Z</time>
      </trkpt>
      <trkpt lat="47.21994" lon="6.61437">
        <ele>810</ele>
        <time>2016-10-09T10:19:01Z</time>
      </trkpt>
      <trkpt lat="47.21986" lon="6.61424">
        <ele>809</ele>
        <time>2016-10-09T10:19:03Z</time>
      </trkpt>
      <trkpt lat="47.21978" lon="6.61413">
        <ele>804</ele>
        <time>2016-10-09T10:19:05Z</time>
      </trkpt>
      <trkpt lat="47.2197" lon="6.61402">
        <ele>803</ele>
        <time>2016-10-09T10:19:07Z</time>
      </trkpt>
      <trkpt lat="47.21963" lon="6.6139">
        <ele>803</ele>
        <time>2016-10-09T10:19:09Z</time>
      </trkpt>
      <trkpt lat="47.21955" lon="6.61381">
        <ele>803</ele>
        <time>2016-10-09T10:19:11Z</time>
      </trkpt>
      <trkpt lat="47.21949" lon="6.6137">
        <ele>803</ele>
        <time>2016-10-09T10:19:13Z</time>
      </trkpt>
      <trkpt lat="47.21945" lon="6.61356">
        <ele>802</ele>
        <time>2016-10-09T10:19:15Z</time>
      </trkpt>
      <trkpt lat="47.21937" lon="6.61347">
        <ele>802</ele>
        <time>2016-10-09T10:19:19Z</time>
      </trkpt>
      <trkpt lat="47.21943" lon="6.61358">
        <ele>802</ele>
        <time>2016-10-09T10:25:26Z</time>
      </trkpt>
      <trkpt lat="47.21947" lon="6.6138">
        <ele>803</ele>
        <time>2016-10-09T10:25:30Z</time>
      </trkpt>
      <trkpt lat="47.21952" lon="6.61396">
        <ele>804</ele>
        <time>2016-10-09T10:25:33Z</time>
      </trkpt>
      <trkpt lat="47.21956" lon="6.61416">
        <ele>805</ele>
        <time>2016-10-09T10:25:37Z</time>
      </trkpt>
      <trkpt lat="47.21961" lon="6.61435">
        <ele>812</ele>
        <time>2016-10-09T10:25:41Z</time>
      </trkpt>
      <trkpt lat="47.21965" lon="6.61456">
        <ele>814</ele>
        <time>2016-10-09T10:25:45Z</time>
      </trkpt>
      <trkpt lat="47.21968" lon="6.61476">
        <ele>815</ele>
        <time>2016-10-09T10:25:49Z</time>
      </trkpt>
      <trkpt lat="47.21964" lon="6.61495">
        <ele>816</ele>
        <time>2016-10-09T10:25:53Z</time>
      </trkpt>
      <trkpt lat="47.21957" lon="6.61506">
        <ele>821</ele>
        <time>2016-10-09T10:25:57Z</time>
      </trkpt>
      <trkpt lat="47.21948" lon="6.61515">
        <ele>821</ele>
        <time>2016-10-09T10:26:01Z</time>
      </trkpt>
      <trkpt lat="47.21941" lon="6.61526">
        <ele>820</ele>
        <time>2016-10-09T10:26:05Z</time>
      </trkpt>
      <trkpt lat="47.21932" lon="6.61549">
        <ele>820</ele>
        <time>2016-10-09T10:26:09Z</time>
      </trkpt>
      <trkpt lat="47.21924" lon="6.61564">
        <ele>818</ele>
        <time>2016-10-09T10:26:11Z</time>
      </trkpt>
      <trkpt lat="47.21912" lon="6.61577">
        <ele>813</ele>
        <time>2016-10-09T10:26:13Z</time>
      </trkpt>
      <trkpt lat="47.21902" lon="6.61593">
        <ele>807</ele>
        <time>2016-10-09T10:26:15Z</time>
      </trkpt>
      <trkpt lat="47.21893" lon="6.61613">
        <ele>803</ele>
        <time>2016-10-09T10:26:17Z</time>
      </trkpt>
      <trkpt lat="47.21887" lon="6.61636">
        <ele>801</ele>
        <time>2016-10-09T10:26:19Z</time>
      </trkpt>
      <trkpt lat="47.21886" lon="6.61659">
        <ele>801</ele>
        <time>2016-10-09T10:26:21Z</time>
      </trkpt>
      <trkpt lat="47.21889" lon="6.61683">
        <ele>795</ele>
        <time>2016-10-09T10:26:23Z</time>
      </trkpt>
      <trkpt lat="47.21894" lon="6.61708">
        <ele>794</ele>
        <time>2016-10-09T10:26:25Z</time>
      </trkpt>
      <trkpt lat="47.219" lon="6.61737">
        <ele>794</ele>
        <time>2016-10-09T10:26:27Z</time>
      </trkpt>
      <trkpt lat="47.21908" lon="6.61769">
        <ele>789</ele>
        <time>2016-10-09T10:26:29Z</time>
      </trkpt>
      <trkpt lat="47.21913" lon="6.61802">
        <ele>786</ele>
        <time>2016-10-09T10:26:31Z</time>
      </trkpt>
      <trkpt lat="47.21919" lon="6.61832">
        <ele>789</ele>
        <time>2016-10-09T10:26:33Z</time>
      </trkpt>
      <trkpt lat="47.21923" lon="6.61851">
        <ele>789</ele>
        <time>2016-10-09T10:26:35Z</time>
      </trkpt>
      <trkpt lat="47.21927" lon="6.61867">
        <ele>788</ele>
        <time>2016-10-09T10:26:37Z</time>
      </trkpt>
      <trkpt lat="47.21931" lon="6.61881">
        <ele>788</ele>
        <time>2016-10-09T10:26:39Z</time>
      </trkpt>
      <trkpt lat="47.21931" lon="6.6191">
        <ele>785</ele>
        <time>2016-10-09T10:26:43Z</time>
      </trkpt>
      <trkpt lat="47.21936" lon="6.61931">
        <ele>783</ele>
        <time>2016-10-09T10:26:45Z</time>
      </trkpt>
      <trkpt lat="47.21944" lon="6.61953">
        <ele>783</ele>
        <time>2016-10-09T10:26:47Z</time>
      </trkpt>
      <trkpt lat="47.21953" lon="6.61977">
        <ele>783</ele>
        <time>2016-10-09T10:26:49Z</time>
      </trkpt>
      <trkpt lat="47.21959" lon="6.61996">
        <ele>782</ele>
        <time>2016-10-09T10:26:51Z</time>
      </trkpt>
      <trkpt lat="47.21964" lon="6.62014">
        <ele>780</ele>
        <time>2016-10-09T10:26:53Z</time>
      </trkpt>
      <trkpt lat="47.21969" lon="6.62035">
        <ele>780</ele>
        <time>2016-10-09T10:26:55Z</time>
      </trkpt>
      <trkpt lat="47.21979" lon="6.62056">
        <ele>780</ele>
        <time>2016-10-09T10:26:57Z</time>
      </trkpt>
      <trkpt lat="47.21992" lon="6.62073">
        <ele>779</ele>
        <time>2016-10-09T10:26:59Z</time>
      </trkpt>
      <trkpt lat="47.22004" lon="6.6209">
        <ele>779</ele>
        <time>2016-10-09T10:27:01Z</time>
      </trkpt>
      <trkpt lat="47.22017" lon="6.6211">
        <ele>778</ele>
        <time>2016-10-09T10:27:03Z</time>
      </trkpt>
      <trkpt lat="47.22021" lon="6.62134">
        <ele>778</ele>
        <time>2016-10-09T10:27:05Z</time>
      </trkpt>
      <trkpt lat="47.22022" lon="6.62157">
        <ele>777</ele>
        <time>2016-10-09T10:27:07Z</time>
      </trkpt>
      <trkpt lat="47.22018" lon="6.62179">
        <ele>774</ele>
        <time>2016-10-09T10:27:09Z</time>
      </trkpt>
      <trkpt lat="47.22014" lon="6.62202">
        <ele>773</ele>
        <time>2016-10-09T10:27:11Z</time>
      </trkpt>
      <trkpt lat="47.22011" lon="6.62227">
        <ele>771</ele>
        <time>2016-10-09T10:27:13Z</time>
      </trkpt>
      <trkpt lat="47.22011" lon="6.62254">
        <ele>768</ele>
        <time>2016-10-09T10:27:15Z</time>
      </trkpt>
      <trkpt lat="47.22011" lon="6.62283">
        <ele>768</ele>
        <time>2016-10-09T10:27:17Z</time>
      </trkpt>
      <trkpt lat="47.22012" lon="6.62314">
        <ele>765</ele>
        <time>2016-10-09T10:27:19Z</time>
      </trkpt>
      <trkpt lat="47.22013" lon="6.62341">
        <ele>760</ele>
        <time>2016-10-09T10:27:21Z</time>
      </trkpt>
      <trkpt lat="47.22011" lon="6.62367">
        <ele>759</ele>
        <time>2016-10-09T10:27:23Z</time>
      </trkpt>
      <trkpt lat="47.22004" lon="6.62393">
        <ele>756</ele>
        <time>2016-10-09T10:27:25Z</time>
      </trkpt>
      <trkpt lat="47.21996" lon="6.62413">
        <ele>748</ele>
        <time>2016-10-09T10:27:27Z</time>
      </trkpt>
      <trkpt lat="47.21985" lon="6.62434">
        <ele>739</ele>
        <time>2016-10-09T10:27:29Z</time>
      </trkpt>
      <trkpt lat="47.21975" lon="6.62452">
        <ele>735</ele>
        <time>2016-10-09T10:27:31Z</time>
      </trkpt>
      <trkpt lat="47.21962" lon="6.62462">
        <ele>733</ele>
        <time>2016-10-09T10:27:33Z</time>
      </trkpt>
      <trkpt lat="47.21951" lon="6.62464">
        <ele>731</ele>
        <time>2016-10-09T10:27:35Z</time>
      </trkpt>
      <trkpt lat="47.21941" lon="6.62459">
        <ele>730</ele>
        <time>2016-10-09T10:27:37Z</time>
      </trkpt>
      <trkpt lat="47.21934" lon="6.62436">
        <ele>730</ele>
        <time>2016-10-09T10:27:41Z</time>
      </trkpt>
      <trkpt lat="47.21927" lon="6.62411">
        <ele>732</ele>
        <time>2016-10-09T10:27:45Z</time>
      </trkpt>
      <trkpt lat="47.21924" lon="6.62396">
        <ele>735</ele>
        <time>2016-10-09T10:27:47Z</time>
      </trkpt>
      <trkpt lat="47.21921" lon="6.62381">
        <ele>737</ele>
        <time>2016-10-09T10:27:49Z</time>
      </trkpt>
      <trkpt lat="47.21918" lon="6.62366">
        <ele>738</ele>
        <time>2016-10-09T10:27:51Z</time>
      </trkpt>
      <trkpt lat="47.21915" lon="6.62353">
        <ele>728</ele>
        <time>2016-10-09T10:27:53Z</time>
      </trkpt>
      <trkpt lat="47.21911" lon="6.62333">
        <ele>734</ele>
        <time>2016-10-09T10:27:57Z</time>
      </trkpt>
      <trkpt lat="47.21908" lon="6.62311">
        <ele>733</ele>
        <time>2016-10-09T10:28:01Z</time>
      </trkpt>
      <trkpt lat="47.21905" lon="6.62289">
        <ele>734</ele>
        <time>2016-10-09T10:28:05Z</time>
      </trkpt>
      <trkpt lat="47.21898" lon="6.62268">
        <ele>736</ele>
        <time>2016-10-09T10:28:09Z</time>
      </trkpt>
      <trkpt lat="47.21891" lon="6.62258">
        <ele>736</ele>
        <time>2016-10-09T10:28:11Z</time>
      </trkpt>
      <trkpt lat="47.21883" lon="6.6225">
        <ele>734</ele>
        <time>2016-10-09T10:28:13Z</time>
      </trkpt>
      <trkpt lat="47.21875" lon="6.62242">
        <ele>741</ele>
        <time>2016-10-09T10:28:15Z</time>
      </trkpt>
      <trkpt lat="47.21861" lon="6.62226">
        <ele>740</ele>
        <time>2016-10-09T10:28:19Z</time>
      </trkpt>
      <trkpt lat="47.21853" lon="6.62219">
        <ele>740</ele>
        <time>2016-10-09T10:28:21Z</time>
      </trkpt>
      <trkpt lat="47.21845" lon="6.62208">
        <ele>740</ele>
        <time>2016-10-09T10:28:23Z</time>
      </trkpt>
      <trkpt lat="47.21836" lon="6.62198">
        <ele>741</ele>
        <time>2016-10-09T10:28:25Z</time>
      </trkpt>
      <trkpt lat="47.21828" lon="6.62187">
        <ele>730</ele>
        <time>2016-10-09T10:28:27Z</time>
      </trkpt>
      <trkpt lat="47.21821" lon="6.62175">
        <ele>732</ele>
        <time>2016-10-09T10:28:29Z</time>
      </trkpt>
      <trkpt lat="47.21812" lon="6.62164">
        <ele>737</ele>
        <time>2016-10-09T10:28:31Z</time>
      </trkpt>
      <trkpt lat="47.21804" lon="6.6215">
        <ele>736</ele>
        <time>2016-10-09T10:28:33Z</time>
      </trkpt>
      <trkpt lat="47.21796" lon="6.62139">
        <ele>736</ele>
        <time>2016-10-09T10:28:35Z</time>
      </trkpt>
      <trkpt lat="47.21789" lon="6.62126">
        <ele>736</ele>
        <time>2016-10-09T10:28:37Z</time>
      </trkpt>
      <trkpt lat="47.21783" lon="6.62114">
        <ele>736</ele>
        <time>2016-10-09T10:28:39Z</time>
      </trkpt>
      <trkpt lat="47.21776" lon="6.62103">
        <ele>736</ele>
        <time>2016-10-09T10:28:41Z</time>
      </trkpt>
      <trkpt lat="47.21769" lon="6.62093">
        <ele>735</ele>
        <time>2016-10-09T10:28:43Z</time>
      </trkpt>
      <trkpt lat="47.21762" lon="6.6208">
        <ele>739</ele>
        <time>2016-10-09T10:28:45Z</time>
      </trkpt>
      <trkpt lat="47.21752" lon="6.62069">
        <ele>740</ele>
        <time>2016-10-09T10:28:47Z</time>
      </trkpt>
      <trkpt lat="47.21744" lon="6.62051">
        <ele>729</ele>
        <time>2016-10-09T10:28:49Z</time>
      </trkpt>
      <trkpt lat="47.21733" lon="6.62054">
        <ele>727</ele>
        <time>2016-10-09T10:28:55Z</time>
      </trkpt>
      <trkpt lat="47.21729" lon="6.62066">
        <ele>727</ele>
        <time>2016-10-09T10:28:57Z</time>
      </trkpt>
      <trkpt lat="47.21724" lon="6.62078">
        <ele>726</ele>
        <time>2016-10-09T10:28:59Z</time>
      </trkpt>
      <trkpt lat="47.21719" lon="6.62091">
        <ele>719</ele>
        <time>2016-10-09T10:29:01Z</time>
      </trkpt>
      <trkpt lat="47.21714" lon="6.62107">
        <ele>717</ele>
        <time>2016-10-09T10:29:03Z</time>
      </trkpt>
      <trkpt lat="47.21707" lon="6.62125">
        <ele>715</ele>
        <time>2016-10-09T10:29:05Z</time>
      </trkpt>
      <trkpt lat="47.217" lon="6.62146">
        <ele>713</ele>
        <time>2016-10-09T10:29:07Z</time>
      </trkpt>
      <trkpt lat="47.21691" lon="6.62167">
        <ele>706</ele>
        <time>2016-10-09T10:29:09Z</time>
      </trkpt>
      <trkpt lat="47.21681" lon="6.62188">
        <ele>706</ele>
        <time>2016-10-09T10:29:11Z</time>
      </trkpt>
      <trkpt lat="47.21671" lon="6.62208">
        <ele>705</ele>
        <time>2016-10-09T10:29:13Z</time>
      </trkpt>
      <trkpt lat="47.21662" lon="6.62228">
        <ele>698</ele>
        <time>2016-10-09T10:29:15Z</time>
      </trkpt>
      <trkpt lat="47.21652" lon="6.62247">
        <ele>698</ele>
        <time>2016-10-09T10:29:17Z</time>
      </trkpt>
      <trkpt lat="47.21642" lon="6.62264">
        <ele>696</ele>
        <time>2016-10-09T10:29:19Z</time>
      </trkpt>
      <trkpt lat="47.21632" lon="6.62282">
        <ele>695</ele>
        <time>2016-10-09T10:29:21Z</time>
      </trkpt>
      <trkpt lat="47.21622" lon="6.623">
        <ele>694</ele>
        <time>2016-10-09T10:29:23Z</time>
      </trkpt>
      <trkpt lat="47.21612" lon="6.62317">
        <ele>693</ele>
        <time>2016-10-09T10:29:25Z</time>
      </trkpt>
      <trkpt lat="47.21601" lon="6.62332">
        <ele>693</ele>
        <time>2016-10-09T10:29:27Z</time>
      </trkpt>
      <trkpt lat="47.21589" lon="6.62348">
        <ele>691</ele>
        <time>2016-10-09T10:29:29Z</time>
      </trkpt>
      <trkpt lat="47.21577" lon="6.62362">
        <ele>689</ele>
        <time>2016-10-09T10:29:31Z</time>
      </trkpt>
      <trkpt lat="47.21569" lon="6.62374">
        <ele>688</ele>
        <time>2016-10-09T10:29:33Z</time>
      </trkpt>
      <trkpt lat="47.21561" lon="6.62394">
        <ele>688</ele>
        <time>2016-10-09T10:29:37Z</time>
      </trkpt>
      <trkpt lat="47.21564" lon="6.62419">
        <ele>686</ele>
        <time>2016-10-09T10:29:41Z</time>
      </trkpt>
      <trkpt lat="47.21567" lon="6.62445">
        <ele>686</ele>
        <time>2016-10-09T10:29:45Z</time>
      </trkpt>
      <trkpt lat="47.21569" lon="6.6246">
        <ele>686</ele>
        <time>2016-10-09T10:29:47Z</time>
      </trkpt>
      <trkpt lat="47.21571" lon="6.62475">
        <ele>686</ele>
        <time>2016-10-09T10:29:49Z</time>
      </trkpt>
      <trkpt lat="47.21574" lon="6.62491">
        <ele>686</ele>
        <time>2016-10-09T10:29:51Z</time>
      </trkpt>
      <trkpt lat="47.21576" lon="6.62507">
        <ele>687</ele>
        <time>2016-10-09T10:29:53Z</time>
      </trkpt>
      <trkpt lat="47.21579" lon="6.62524">
        <ele>686</ele>
        <time>2016-10-09T10:29:55Z</time>
      </trkpt>
      <trkpt lat="47.21581" lon="6.6254">
        <ele>686</ele>
        <time>2016-10-09T10:29:57Z</time>
      </trkpt>
      <trkpt lat="47.21582" lon="6.62556">
        <ele>686</ele>
        <time>2016-10-09T10:29:59Z</time>
      </trkpt>
      <trkpt lat="47.21585" lon="6.62572">
        <ele>688</ele>
        <time>2016-10-09T10:30:01Z</time>
      </trkpt>
      <trkpt lat="47.21586" lon="6.62588">
        <ele>688</ele>
        <time>2016-10-09T10:30:03Z</time>
      </trkpt>
      <trkpt lat="47.21585" lon="6.62603">
        <ele>689</ele>
        <time>2016-10-09T10:30:05Z</time>
      </trkpt>
      <trkpt lat="47.21584" lon="6.62617">
        <ele>690</ele>
        <time>2016-10-09T10:30:07Z</time>
      </trkpt>
      <trkpt lat="47.21582" lon="6.6263">
        <ele>689</ele>
        <time>2016-10-09T10:30:09Z</time>
      </trkpt>
      <trkpt lat="47.2158" lon="6.62644">
        <ele>690</ele>
        <time>2016-10-09T10:30:11Z</time>
      </trkpt>
      <trkpt lat="47.21578" lon="6.62658">
        <ele>690</ele>
        <time>2016-10-09T10:30:13Z</time>
      </trkpt>
      <trkpt lat="47.21577" lon="6.62673">
        <ele>691</ele>
        <time>2016-10-09T10:30:15Z</time>
      </trkpt>
      <trkpt lat="47.21572" lon="6.62696">
        <ele>692</ele>
        <time>2016-10-09T10:30:19Z</time>
      </trkpt>
      <trkpt lat="47.21569" lon="6.6272">
        <ele>692</ele>
        <time>2016-10-09T10:30:23Z</time>
      </trkpt>
      <trkpt lat="47.21566" lon="6.62746">
        <ele>693</ele>
        <time>2016-10-09T10:30:27Z</time>
      </trkpt>
      <trkpt lat="47.21564" lon="6.6276">
        <ele>694</ele>
        <time>2016-10-09T10:30:29Z</time>
      </trkpt>
      <trkpt lat="47.21549" lon="6.62774">
        <ele>694</ele>
        <time>2016-10-09T10:30:33Z</time>
      </trkpt>
      <trkpt lat="47.21541" lon="6.62781">
        <ele>693</ele>
        <time>2016-10-09T10:30:35Z</time>
      </trkpt>
      <trkpt lat="47.21532" lon="6.62787">
        <ele>693</ele>
        <time>2016-10-09T10:30:37Z</time>
      </trkpt>
      <trkpt lat="47.21523" lon="6.62793">
        <ele>693</ele>
        <time>2016-10-09T10:30:39Z</time>
      </trkpt>
      <trkpt lat="47.21514" lon="6.62799">
        <ele>693</ele>
        <time>2016-10-09T10:30:41Z</time>
      </trkpt>
      <trkpt lat="47.21505" lon="6.62799">
        <ele>693</ele>
        <time>2016-10-09T10:30:43Z</time>
      </trkpt>
      <trkpt lat="47.2149" lon="6.62786">
        <ele>693</ele>
        <time>2016-10-09T10:30:47Z</time>
      </trkpt>
      <trkpt lat="47.21476" lon="6.62772">
        <ele>693</ele>
        <time>2016-10-09T10:30:51Z</time>
      </trkpt>
      <trkpt lat="47.21463" lon="6.62757">
        <ele>693</ele>
        <time>2016-10-09T10:30:55Z</time>
      </trkpt>
      <trkpt lat="47.21452" lon="6.62741">
        <ele>694</ele>
        <time>2016-10-09T10:30:59Z</time>
      </trkpt>
      <trkpt lat="47.21438" lon="6.62728">
        <ele>694</ele>
        <time>2016-10-09T10:31:03Z</time>
      </trkpt>
      <trkpt lat="47.21424" lon="6.62716">
        <ele>694</ele>
        <time>2016-10-09T10:31:07Z</time>
      </trkpt>
      <trkpt lat="47.21411" lon="6.62705">
        <ele>695</ele>
        <time>2016-10-09T10:31:11Z</time>
      </trkpt>
      <trkpt lat="47.21398" lon="6.6269">
        <ele>695</ele>
        <time>2016-10-09T10:31:15Z</time>
      </trkpt>
      <trkpt lat="47.21384" lon="6.62678">
        <ele>696</ele>
        <time>2016-10-09T10:31:19Z</time>
      </trkpt>
      <trkpt lat="47.21372" lon="6.62666">
        <ele>695</ele>
        <time>2016-10-09T10:31:23Z</time>
      </trkpt>
      <trkpt lat="47.21365" lon="6.62658">
        <ele>696</ele>
        <time>2016-10-09T10:31:25Z</time>
      </trkpt>
      <trkpt lat="47.21348" lon="6.62646">
        <ele>696</ele>
        <time>2016-10-09T10:31:29Z</time>
      </trkpt>
      <trkpt lat="47.21338" lon="6.6264">
        <ele>696</ele>
        <time>2016-10-09T10:31:31Z</time>
      </trkpt>
      <trkpt lat="47.21327" lon="6.62633">
        <ele>698</ele>
        <time>2016-10-09T10:31:33Z</time>
      </trkpt>
      <trkpt lat="47.21318" lon="6.62628">
        <ele>698</ele>
        <time>2016-10-09T10:31:35Z</time>
      </trkpt>
      <trkpt lat="47.2131" lon="6.6262">
        <ele>698</ele>
        <time>2016-10-09T10:31:37Z</time>
      </trkpt>
      <trkpt lat="47.21292" lon="6.62609">
        <ele>698</ele>
        <time>2016-10-09T10:31:41Z</time>
      </trkpt>
      <trkpt lat="47.21277" lon="6.62602">
        <ele>699</ele>
        <time>2016-10-09T10:31:45Z</time>
      </trkpt>
      <trkpt lat="47.21263" lon="6.62593">
        <ele>699</ele>
        <time>2016-10-09T10:31:47Z</time>
      </trkpt>
      <trkpt lat="47.21248" lon="6.6258">
        <ele>698</ele>
        <time>2016-10-09T10:31:49Z</time>
      </trkpt>
      <trkpt lat="47.21239" lon="6.62583">
        <ele>697</ele>
        <time>2016-10-09T10:31:51Z</time>
      </trkpt>
      <trkpt lat="47.21226" lon="6.62578">
        <ele>696</ele>
        <time>2016-10-09T10:31:53Z</time>
      </trkpt>
      <trkpt lat="47.21216" lon="6.62577">
        <ele>696</ele>
        <time>2016-10-09T10:31:55Z</time>
      </trkpt>
      <trkpt lat="47.21202" lon="6.62573">
        <ele>695</ele>
        <time>2016-10-09T10:31:57Z</time>
      </trkpt>
      <trkpt lat="47.2119" lon="6.62573">
        <ele>695</ele>
        <time>2016-10-09T10:31:59Z</time>
      </trkpt>
      <trkpt lat="47.21178" lon="6.62579">
        <ele>695</ele>
        <time>2016-10-09T10:32:01Z</time>
      </trkpt>
      <trkpt lat="47.21155" lon="6.62577">
        <ele>692</ele>
        <time>2016-10-09T10:32:04Z</time>
      </trkpt>
      <trkpt lat="47.21139" lon="6.62561">
        <ele>689</ele>
        <time>2016-10-09T10:32:08Z</time>
      </trkpt>
      <trkpt lat="47.21128" lon="6.62555">
        <ele>687</ele>
        <time>2016-10-09T10:32:10Z</time>
      </trkpt>
      <trkpt lat="47.21111" lon="6.62548">
        <ele>686</ele>
        <time>2016-10-09T10:32:12Z</time>
      </trkpt>
      <trkpt lat="47.21094" lon="6.62539">
        <ele>686</ele>
        <time>2016-10-09T10:32:14Z</time>
      </trkpt>
      <trkpt lat="47.21077" lon="6.62528">
        <ele>677</ele>
        <time>2016-10-09T10:32:16Z</time>
      </trkpt>
      <trkpt lat="47.21063" lon="6.62518">
        <ele>676</ele>
        <time>2016-10-09T10:32:18Z</time>
      </trkpt>
      <trkpt lat="47.21046" lon="6.62509">
        <ele>675</ele>
        <time>2016-10-09T10:32:20Z</time>
      </trkpt>
      <trkpt lat="47.21027" lon="6.62495">
        <ele>678</ele>
        <time>2016-10-09T10:32:22Z</time>
      </trkpt>
      <trkpt lat="47.21007" lon="6.62483">
        <ele>676</ele>
        <time>2016-10-09T10:32:24Z</time>
      </trkpt>
      <trkpt lat="47.20988" lon="6.62465">
        <ele>669</ele>
        <time>2016-10-09T10:32:26Z</time>
      </trkpt>
      <trkpt lat="47.20972" lon="6.62449">
        <ele>669</ele>
        <time>2016-10-09T10:32:28Z</time>
      </trkpt>
      <trkpt lat="47.20952" lon="6.62431">
        <ele>668</ele>
        <time>2016-10-09T10:32:30Z</time>
      </trkpt>
      <trkpt lat="47.20931" lon="6.62423">
        <ele>666</ele>
        <time>2016-10-09T10:32:32Z</time>
      </trkpt>
      <trkpt lat="47.20912" lon="6.62417">
        <ele>663</ele>
        <time>2016-10-09T10:32:34Z</time>
      </trkpt>
      <trkpt lat="47.20893" lon="6.62409">
        <ele>660</ele>
        <time>2016-10-09T10:32:36Z</time>
      </trkpt>
      <trkpt lat="47.20873" lon="6.62407">
        <ele>658</ele>
        <time>2016-10-09T10:32:38Z</time>
      </trkpt>
      <trkpt lat="47.20853" lon="6.62401">
        <ele>657</ele>
        <time>2016-10-09T10:32:40Z</time>
      </trkpt>
      <trkpt lat="47.20835" lon="6.62394">
        <ele>656</ele>
        <time>2016-10-09T10:32:42Z</time>
      </trkpt>
      <trkpt lat="47.20816" lon="6.62387">
        <ele>649</ele>
        <time>2016-10-09T10:32:44Z</time>
      </trkpt>
      <trkpt lat="47.20797" lon="6.62381">
        <ele>647</ele>
        <time>2016-10-09T10:32:46Z</time>
      </trkpt>
      <trkpt lat="47.20778" lon="6.62369">
        <ele>645</ele>
        <time>2016-10-09T10:32:48Z</time>
      </trkpt>
      <trkpt lat="47.20767" lon="6.62353">
        <ele>643</ele>
        <time>2016-10-09T10:32:50Z</time>
      </trkpt>
      <trkpt lat="47.20754" lon="6.62349">
        <ele>641</ele>
        <time>2016-10-09T10:32:52Z</time>
      </trkpt>
      <trkpt lat="47.20739" lon="6.62354">
        <ele>631</ele>
        <time>2016-10-09T10:32:54Z</time>
      </trkpt>
      <trkpt lat="47.20726" lon="6.62358">
        <ele>629</ele>
        <time>2016-10-09T10:32:56Z</time>
      </trkpt>
      <trkpt lat="47.20719" lon="6.62377">
        <ele>628</ele>
        <time>2016-10-09T10:33:00Z</time>
      </trkpt>
      <trkpt lat="47.20713" lon="6.62394">
        <ele>628</ele>
        <time>2016-10-09T10:33:06Z</time>
      </trkpt>
      <trkpt lat="47.20708" lon="6.62415">
        <ele>627</ele>
        <time>2016-10-09T10:33:10Z</time>
      </trkpt>
      <trkpt lat="47.20716" lon="6.62429">
        <ele>629</ele>
        <time>2016-10-09T10:33:14Z</time>
      </trkpt>
      <trkpt lat="47.20726" lon="6.62436">
        <ele>631</ele>
        <time>2016-10-09T10:33:16Z</time>
      </trkpt>
      <trkpt lat="47.20739" lon="6.62444">
        <ele>632</ele>
        <time>2016-10-09T10:33:20Z</time>
      </trkpt>
      <trkpt lat="47.20754" lon="6.62451">
        <ele>641</ele>
        <time>2016-10-09T10:33:24Z</time>
      </trkpt>
      <trkpt lat="47.20766" lon="6.62463">
        <ele>640</ele>
        <time>2016-10-09T10:33:28Z</time>
      </trkpt>
      <trkpt lat="47.20772" lon="6.6248">
        <ele>638</ele>
        <time>2016-10-09T10:33:36Z</time>
      </trkpt>
      <trkpt lat="47.20763" lon="6.62485">
        <ele>637</ele>
        <time>2016-10-09T10:33:46Z</time>
      </trkpt>
      <trkpt lat="47.2075" lon="6.62484">
        <ele>636</ele>
        <time>2016-10-09T10:33:52Z</time>
      </trkpt>
      <trkpt lat="47.2074" lon="6.62478">
        <ele>630</ele>
        <time>2016-10-09T10:33:56Z</time>
      </trkpt>
      <trkpt lat="47.20732" lon="6.62467">
        <ele>629</ele>
        <time>2016-10-09T10:34:00Z</time>
      </trkpt>
      <trkpt lat="47.2072" lon="6.6246">
        <ele>629</ele>
        <time>2016-10-09T10:34:04Z</time>
      </trkpt>
      <trkpt lat="47.20705" lon="6.62454">
        <ele>627</ele>
        <time>2016-10-09T10:34:08Z</time>
      </trkpt>
      <trkpt lat="47.20694" lon="6.62446">
        <ele>626</ele>
        <time>2016-10-09T10:34:10Z</time>
      </trkpt>
      <trkpt lat="47.20691" lon="6.6243">
        <ele>625</ele>
        <time>2016-10-09T10:34:14Z</time>
      </trkpt>
      <trkpt lat="47.20691" lon="6.62416">
        <ele>624</ele>
        <time>2016-10-09T10:34:18Z</time>
      </trkpt>
      <trkpt lat="47.20692" lon="6.62401">
        <ele>624</ele>
        <time>2016-10-09T10:34:20Z</time>
      </trkpt>
      <trkpt lat="47.20692" lon="6.62373">
        <ele>624</ele>
        <time>2016-10-09T10:34:24Z</time>
      </trkpt>
      <trkpt lat="47.20689" lon="6.62357">
        <ele>622</ele>
        <time>2016-10-09T10:34:26Z</time>
      </trkpt>
      <trkpt lat="47.2069" lon="6.62341">
        <ele>621</ele>
        <time>2016-10-09T10:34:28Z</time>
      </trkpt>
      <trkpt lat="47.20698" lon="6.62327">
        <ele>627</ele>
        <time>2016-10-09T10:34:30Z</time>
      </trkpt>
      <trkpt lat="47.20706" lon="6.62314">
        <ele>630</ele>
        <time>2016-10-09T10:34:32Z</time>
      </trkpt>
      <trkpt lat="47.2071" lon="6.623">
        <ele>632</ele>
        <time>2016-10-09T10:34:34Z</time>
      </trkpt>
      <trkpt lat="47.20696" lon="6.62289">
        <ele>631</ele>
        <time>2016-10-09T10:34:38Z</time>
      </trkpt>
      <trkpt lat="47.20681" lon="6.62286">
        <ele>631</ele>
        <time>2016-10-09T10:34:40Z</time>
      </trkpt>
      <trkpt lat="47.20668" lon="6.62289">
        <ele>630</ele>
        <time>2016-10-09T10:34:42Z</time>
      </trkpt>
      <trkpt lat="47.20655" lon="6.62294">
        <ele>614</ele>
        <time>2016-10-09T10:34:44Z</time>
      </trkpt>
      <trkpt lat="47.20643" lon="6.62299">
        <ele>611</ele>
        <time>2016-10-09T10:34:46Z</time>
      </trkpt>
      <trkpt lat="47.20632" lon="6.62302">
        <ele>609</ele>
        <time>2016-10-09T10:34:48Z</time>
      </trkpt>
      <trkpt lat="47.2062" lon="6.62305">
        <ele>607</ele>
        <time>2016-10-09T10:34:50Z</time>
      </trkpt>
      <trkpt lat="47.20605" lon="6.62307">
        <ele>603</ele>
        <time>2016-10-09T10:34:52Z</time>
      </trkpt>
      <trkpt lat="47.2059" lon="6.62301">
        <ele>603</ele>
        <time>2016-10-09T10:34:54Z</time>
      </trkpt>
      <trkpt lat="47.20577" lon="6.62302">
        <ele>581</ele>
        <time>2016-10-09T10:34:56Z</time>
      </trkpt>
      <trkpt lat="47.20565" lon="6.62298">
        <ele>580</ele>
        <time>2016-10-09T10:34:58Z</time>
      </trkpt>
      <trkpt lat="47.20555" lon="6.62285">
        <ele>580</ele>
        <time>2016-10-09T10:35:00Z</time>
      </trkpt>
      <trkpt lat="47.20547" lon="6.62272">
        <ele>579</ele>
        <time>2016-10-09T10:35:02Z</time>
      </trkpt>
      <trkpt lat="47.20539" lon="6.62255">
        <ele>578</ele>
        <time>2016-10-09T10:35:04Z</time>
      </trkpt>
      <trkpt lat="47.20536" lon="6.62241">
        <ele>583</ele>
        <time>2016-10-09T10:35:06Z</time>
      </trkpt>
      <trkpt lat="47.20532" lon="6.62223">
        <ele>583</ele>
        <time>2016-10-09T10:35:08Z</time>
      </trkpt>
      <trkpt lat="47.20532" lon="6.62205">
        <ele>584</ele>
        <time>2016-10-09T10:35:10Z</time>
      </trkpt>
      <trkpt lat="47.20521" lon="6.62188">
        <ele>580</ele>
        <time>2016-10-09T10:35:12Z</time>
      </trkpt>
      <trkpt lat="47.20515" lon="6.62169">
        <ele>574</ele>
        <time>2016-10-09T10:35:14Z</time>
      </trkpt>
      <trkpt lat="47.20513" lon="6.62149">
        <ele>577</ele>
        <time>2016-10-09T10:35:16Z</time>
      </trkpt>
      <trkpt lat="47.20511" lon="6.62129">
        <ele>580</ele>
        <time>2016-10-09T10:35:18Z</time>
      </trkpt>
      <trkpt lat="47.2051" lon="6.62108">
        <ele>578</ele>
        <time>2016-10-09T10:35:20Z</time>
      </trkpt>
      <trkpt lat="47.20508" lon="6.62087">
        <ele>570</ele>
        <time>2016-10-09T10:35:22Z</time>
      </trkpt>
      <trkpt lat="47.20508" lon="6.62065">
        <ele>574</ele>
        <time>2016-10-09T10:35:24Z</time>
      </trkpt>
      <trkpt lat="47.20509" lon="6.62045">
        <ele>577</ele>
        <time>2016-10-09T10:35:26Z</time>
      </trkpt>
      <trkpt lat="47.20511" lon="6.62026">
        <ele>577</ele>
        <time>2016-10-09T10:35:28Z</time>
      </trkpt>
      <trkpt lat="47.20513" lon="6.62007">
        <ele>573</ele>
        <time>2016-10-09T10:35:30Z</time>
      </trkpt>
      <trkpt lat="47.20516" lon="6.61986">
        <ele>570</ele>
        <time>2016-10-09T10:35:32Z</time>
      </trkpt>
      <trkpt lat="47.20522" lon="6.61968">
        <ele>572</ele>
        <time>2016-10-09T10:35:34Z</time>
      </trkpt>
      <trkpt lat="47.20527" lon="6.61951">
        <ele>572</ele>
        <time>2016-10-09T10:35:36Z</time>
      </trkpt>
      <trkpt lat="47.20533" lon="6.61933">
        <ele>571</ele>
        <time>2016-10-09T10:35:38Z</time>
      </trkpt>
      <trkpt lat="47.20539" lon="6.61916">
        <ele>560</ele>
        <time>2016-10-09T10:35:40Z</time>
      </trkpt>
      <trkpt lat="47.20548" lon="6.61901">
        <ele>561</ele>
        <time>2016-10-09T10:35:42Z</time>
      </trkpt>
      <trkpt lat="47.20555" lon="6.61887">
        <ele>560</ele>
        <time>2016-10-09T10:35:44Z</time>
      </trkpt>
      <trkpt lat="47.20562" lon="6.61873">
        <ele>559</ele>
        <time>2016-10-09T10:35:46Z</time>
      </trkpt>
      <trkpt lat="47.20569" lon="6.6186">
        <ele>558</ele>
        <time>2016-10-09T10:35:48Z</time>
      </trkpt>
      <trkpt lat="47.2058" lon="6.61844">
        <ele>557</ele>
        <time>2016-10-09T10:35:50Z</time>
      </trkpt>
      <trkpt lat="47.20587" lon="6.61827">
        <ele>560</ele>
        <time>2016-10-09T10:35:52Z</time>
      </trkpt>
      <trkpt lat="47.20597" lon="6.61809">
        <ele>563</ele>
        <time>2016-10-09T10:35:54Z</time>
      </trkpt>
      <trkpt lat="47.20607" lon="6.61789">
        <ele>563</ele>
        <time>2016-10-09T10:35:56Z</time>
      </trkpt>
      <trkpt lat="47.20614" lon="6.61771">
        <ele>562</ele>
        <time>2016-10-09T10:35:58Z</time>
      </trkpt>
      <trkpt lat="47.20621" lon="6.61753">
        <ele>562</ele>
        <time>2016-10-09T10:36:00Z</time>
      </trkpt>
      <trkpt lat="47.20626" lon="6.61734">
        <ele>559</ele>
        <time>2016-10-09T10:36:02Z</time>
      </trkpt>
      <trkpt lat="47.20627" lon="6.61717">
        <ele>560</ele>
        <time>2016-10-09T10:36:04Z</time>
      </trkpt>
      <trkpt lat="47.20618" lon="6.6171">
        <ele>559</ele>
        <time>2016-10-09T10:36:08Z</time>
      </trkpt>
      <trkpt lat="47.20601" lon="6.61715">
        <ele>557</ele>
        <time>2016-10-09T10:36:12Z</time>
      </trkpt>
      <trkpt lat="47.20591" lon="6.61715">
        <ele>556</ele>
        <time>2016-10-09T10:36:14Z</time>
      </trkpt>
      <trkpt lat="47.20582" lon="6.61711">
        <ele>549</ele>
        <time>2016-10-09T10:36:16Z</time>
      </trkpt>
      <trkpt lat="47.20568" lon="6.61707">
        <ele>550</ele>
        <time>2016-10-09T10:36:20Z</time>
      </trkpt>
      <trkpt lat="47.20558" lon="6.61704">
        <ele>550</ele>
        <time>2016-10-09T10:36:24Z</time>
      </trkpt>
      <trkpt lat="47.20545" lon="6.61697">
        <ele>550</ele>
        <time>2016-10-09T10:36:30Z</time>
      </trkpt>
      <trkpt lat="47.20536" lon="6.61686">
        <ele>551</ele>
        <time>2016-10-09T10:36:34Z</time>
      </trkpt>
      <trkpt lat="47.20526" lon="6.61676">
        <ele>552</ele>
        <time>2016-10-09T10:36:38Z</time>
      </trkpt>
      <trkpt lat="47.20511" lon="6.61669">
        <ele>554</ele>
        <time>2016-10-09T10:36:42Z</time>
      </trkpt>
      <trkpt lat="47.20499" lon="6.61667">
        <ele>556</ele>
        <time>2016-10-09T10:36:46Z</time>
      </trkpt>
      <trkpt lat="47.20488" lon="6.61666">
        <ele>555</ele>
        <time>2016-10-09T10:36:50Z</time>
      </trkpt>
      <trkpt lat="47.20478" lon="6.61662">
        <ele>554</ele>
        <time>2016-10-09T10:36:54Z</time>
      </trkpt>
      <trkpt lat="47.20465" lon="6.61659">
        <ele>553</ele>
        <time>2016-10-09T10:36:58Z</time>
      </trkpt>
      <trkpt lat="47.20456" lon="6.61658">
        <ele>551</ele>
        <time>2016-10-09T10:37:02Z</time>
      </trkpt>
      <trkpt lat="47.20445" lon="6.61654">
        <ele>550</ele>
        <time>2016-10-09T10:37:06Z</time>
      </trkpt>
      <trkpt lat="47.2043" lon="6.6165">
        <ele>548</ele>
        <time>2016-10-09T10:37:12Z</time>
      </trkpt>
      <trkpt lat="47.20423" lon="6.61638">
        <ele>549</ele>
        <time>2016-10-09T10:37:16Z</time>
      </trkpt>
      <trkpt lat="47.20417" lon="6.61623">
        <ele>550</ele>
        <time>2016-10-09T10:37:20Z</time>
      </trkpt>
      <trkpt lat="47.20412" lon="6.61609">
        <ele>534</ele>
        <time>2016-10-09T10:37:24Z</time>
      </trkpt>
      <trkpt lat="47.20406" lon="6.61595">
        <ele>537</ele>
        <time>2016-10-09T10:37:28Z</time>
      </trkpt>
      <trkpt lat="47.20401" lon="6.61578">
        <ele>540</ele>
        <time>2016-10-09T10:37:32Z</time>
      </trkpt>
      <trkpt lat="47.20397" lon="6.61559">
        <ele>538</ele>
        <time>2016-10-09T10:37:36Z</time>
      </trkpt>
      <trkpt lat="47.20393" lon="6.61539">
        <ele>538</ele>
        <time>2016-10-09T10:37:40Z</time>
      </trkpt>
      <trkpt lat="47.20388" lon="6.61525">
        <ele>538</ele>
        <time>2016-10-09T10:37:44Z</time>
      </trkpt>
      <trkpt lat="47.2038" lon="6.61506">
        <ele>538</ele>
        <time>2016-10-09T10:37:48Z</time>
      </trkpt>
      <trkpt lat="47.20371" lon="6.61486">
        <ele>541</ele>
        <time>2016-10-09T10:37:52Z</time>
      </trkpt>
      <trkpt lat="47.20366" lon="6.61462">
        <ele>542</ele>
        <time>2016-10-09T10:37:56Z</time>
      </trkpt>
      <trkpt lat="47.20364" lon="6.61449">
        <ele>542</ele>
        <time>2016-10-09T10:37:58Z</time>
      </trkpt>
      <trkpt lat="47.2036" lon="6.61424">
        <ele>541</ele>
        <time>2016-10-09T10:38:02Z</time>
      </trkpt>
      <trkpt lat="47.20361" lon="6.61409">
        <ele>543</ele>
        <time>2016-10-09T10:38:04Z</time>
      </trkpt>
      <trkpt lat="47.20362" lon="6.61395">
        <ele>545</ele>
        <time>2016-10-09T10:38:06Z</time>
      </trkpt>
      <trkpt lat="47.20367" lon="6.61371">
        <ele>546</ele>
        <time>2016-10-09T10:38:10Z</time>
      </trkpt>
      <trkpt lat="47.20373" lon="6.61348">
        <ele>547</ele>
        <time>2016-10-09T10:38:14Z</time>
      </trkpt>
      <trkpt lat="47.20382" lon="6.61328">
        <ele>545</ele>
        <time>2016-10-09T10:38:18Z</time>
      </trkpt>
      <trkpt lat="47.20389" lon="6.61308">
        <ele>545</ele>
        <time>2016-10-09T10:38:22Z</time>
      </trkpt>
      <trkpt lat="47.20398" lon="6.6129">
        <ele>545</ele>
        <time>2016-10-09T10:38:26Z</time>
      </trkpt>
      <trkpt lat="47.20409" lon="6.61275">
        <ele>546</ele>
        <time>2016-10-09T10:38:30Z</time>
      </trkpt>
      <trkpt lat="47.20417" lon="6.61269">
        <ele>560</ele>
        <time>2016-10-09T10:38:32Z</time>
      </trkpt>
      <trkpt lat="47.20432" lon="6.61264">
        <ele>561</ele>
        <time>2016-10-09T10:38:36Z</time>
      </trkpt>
      <trkpt lat="47.20442" lon="6.61257">
        <ele>564</ele>
        <time>2016-10-09T10:38:40Z</time>
      </trkpt>
      <trkpt lat="47.20452" lon="6.61245">
        <ele>560</ele>
        <time>2016-10-09T10:38:44Z</time>
      </trkpt>
      <trkpt lat="47.20464" lon="6.61241">
        <ele>563</ele>
        <time>2016-10-09T10:38:47Z</time>
      </trkpt>
      <trkpt lat="47.20474" lon="6.61231">
        <ele>564</ele>
        <time>2016-10-09T10:38:50Z</time>
      </trkpt>
      <trkpt lat="47.20483" lon="6.61223">
        <ele>565</ele>
        <time>2016-10-09T10:38:53Z</time>
      </trkpt>
      <trkpt lat="47.20485" lon="6.61208">
        <ele>564</ele>
        <time>2016-10-09T10:38:55Z</time>
      </trkpt>
      <trkpt lat="47.20486" lon="6.61191">
        <ele>564</ele>
        <time>2016-10-09T10:38:58Z</time>
      </trkpt>
      <trkpt lat="47.20492" lon="6.61178">
        <ele>566</ele>
        <time>2016-10-09T10:39:02Z</time>
      </trkpt>
      <trkpt lat="47.20495" lon="6.61165">
        <ele>569</ele>
        <time>2016-10-09T10:39:06Z</time>
      </trkpt>
      <trkpt lat="47.20495" lon="6.61145">
        <ele>569</ele>
        <time>2016-10-09T10:39:10Z</time>
      </trkpt>
      <trkpt lat="47.20497" lon="6.61131">
        <ele>571</ele>
        <time>2016-10-09T10:39:14Z</time>
      </trkpt>
      <trkpt lat="47.20492" lon="6.61117">
        <ele>573</ele>
        <time>2016-10-09T10:39:18Z</time>
      </trkpt>
      <trkpt lat="47.20484" lon="6.61105">
        <ele>575</ele>
        <time>2016-10-09T10:39:24Z</time>
      </trkpt>
      <trkpt lat="47.20476" lon="6.61096">
        <ele>575</ele>
        <time>2016-10-09T10:39:28Z</time>
      </trkpt>
      <trkpt lat="47.20468" lon="6.6109">
        <ele>573</ele>
        <time>2016-10-09T10:39:32Z</time>
      </trkpt>
      <trkpt lat="47.20455" lon="6.61083">
        <ele>586</ele>
        <time>2016-10-09T10:39:36Z</time>
      </trkpt>
      <trkpt lat="47.20445" lon="6.61086">
        <ele>567</ele>
        <time>2016-10-09T10:39:40Z</time>
      </trkpt>
      <trkpt lat="47.20436" lon="6.61081">
        <ele>578</ele>
        <time>2016-10-09T10:39:46Z</time>
      </trkpt>
      <trkpt lat="47.20428" lon="6.6107">
        <ele>577</ele>
        <time>2016-10-09T10:39:52Z</time>
      </trkpt>
      <trkpt lat="47.20421" lon="6.61061">
        <ele>580</ele>
        <time>2016-10-09T10:39:56Z</time>
      </trkpt>
      <trkpt lat="47.20414" lon="6.61049">
        <ele>567</ele>
        <time>2016-10-09T10:40:00Z</time>
      </trkpt>
      <trkpt lat="47.20405" lon="6.61039">
        <ele>569</ele>
        <time>2016-10-09T10:40:04Z</time>
      </trkpt>
      <trkpt lat="47.20397" lon="6.61029">
        <ele>571</ele>
        <time>2016-10-09T10:40:08Z</time>
      </trkpt>
      <trkpt lat="47.20384" lon="6.61024">
        <ele>569</ele>
        <time>2016-10-09T10:40:12Z</time>
      </trkpt>
      <trkpt lat="47.20374" lon="6.61022">
        <ele>567</ele>
        <time>2016-10-09T10:40:16Z</time>
      </trkpt>
      <trkpt lat="47.20366" lon="6.61013">
        <ele>567</ele>
        <time>2016-10-09T10:40:20Z</time>
      </trkpt>
      <trkpt lat="47.20357" lon="6.61004">
        <ele>566</ele>
        <time>2016-10-09T10:40:24Z</time>
      </trkpt>
      <trkpt lat="47.20346" lon="6.61001">
        <ele>564</ele>
        <time>2016-10-09T10:40:28Z</time>
      </trkpt>
      <trkpt lat="47.20335" lon="6.60992">
        <ele>571</ele>
        <time>2016-10-09T10:40:32Z</time>
      </trkpt>
      <trkpt lat="47.20318" lon="6.60979">
        <ele>565</ele>
        <time>2016-10-09T10:40:36Z</time>
      </trkpt>
      <trkpt lat="47.20309" lon="6.60973">
        <ele>565</ele>
        <time>2016-10-09T10:40:38Z</time>
      </trkpt>
      <trkpt lat="47.20296" lon="6.60967">
        <ele>565</ele>
        <time>2016-10-09T10:40:40Z</time>
      </trkpt>
      <trkpt lat="47.20284" lon="6.60961">
        <ele>564</ele>
        <time>2016-10-09T10:40:42Z</time>
      </trkpt>
      <trkpt lat="47.20272" lon="6.60952">
        <ele>563</ele>
        <time>2016-10-09T10:40:44Z</time>
      </trkpt>
      <trkpt lat="47.20263" lon="6.60939">
        <ele>563</ele>
        <time>2016-10-09T10:40:46Z</time>
      </trkpt>
      <trkpt lat="47.20259" lon="6.6092">
        <ele>563</ele>
        <time>2016-10-09T10:40:48Z</time>
      </trkpt>
      <trkpt lat="47.20255" lon="6.60905">
        <ele>571</ele>
        <time>2016-10-09T10:40:50Z</time>
      </trkpt>
      <trkpt lat="47.20254" lon="6.60887">
        <ele>578</ele>
        <time>2016-10-09T10:40:52Z</time>
      </trkpt>
      <trkpt lat="47.20248" lon="6.60873">
        <ele>557</ele>
        <time>2016-10-09T10:40:54Z</time>
      </trkpt>
      <trkpt lat="47.20237" lon="6.60853">
        <ele>560</ele>
        <time>2016-10-09T10:40:58Z</time>
      </trkpt>
      <trkpt lat="47.20231" lon="6.60838">
        <ele>561</ele>
        <time>2016-10-09T10:41:00Z</time>
      </trkpt>
      <trkpt lat="47.20227" lon="6.60826">
        <ele>566</ele>
        <time>2016-10-09T10:41:02Z</time>
      </trkpt>
      <trkpt lat="47.20221" lon="6.60815">
        <ele>564</ele>
        <time>2016-10-09T10:41:04Z</time>
      </trkpt>
      <trkpt lat="47.20216" lon="6.60801">
        <ele>564</ele>
        <time>2016-10-09T10:41:06Z</time>
      </trkpt>
      <trkpt lat="47.20212" lon="6.60787">
        <ele>564</ele>
        <time>2016-10-09T10:41:08Z</time>
      </trkpt>
      <trkpt lat="47.20207" lon="6.60776">
        <ele>564</ele>
        <time>2016-10-09T10:41:10Z</time>
      </trkpt>
      <trkpt lat="47.20204" lon="6.60761">
        <ele>563</ele>
        <time>2016-10-09T10:41:12Z</time>
      </trkpt>
      <trkpt lat="47.20201" lon="6.60744">
        <ele>571</ele>
        <time>2016-10-09T10:41:14Z</time>
      </trkpt>
      <trkpt lat="47.20196" lon="6.6072">
        <ele>572</ele>
        <time>2016-10-09T10:41:18Z</time>
      </trkpt>
      <trkpt lat="47.20195" lon="6.60705">
        <ele>574</ele>
        <time>2016-10-09T10:41:20Z</time>
      </trkpt>
      <trkpt lat="47.20195" lon="6.60677">
        <ele>574</ele>
        <time>2016-10-09T10:41:24Z</time>
      </trkpt>
      <trkpt lat="47.20191" lon="6.60657">
        <ele>580</ele>
        <time>2016-10-09T10:41:28Z</time>
      </trkpt>
      <trkpt lat="47.20187" lon="6.60638">
        <ele>581</ele>
        <time>2016-10-09T10:41:32Z</time>
      </trkpt>
      <trkpt lat="47.20185" lon="6.60621">
        <ele>582</ele>
        <time>2016-10-09T10:41:36Z</time>
      </trkpt>
      <trkpt lat="47.20184" lon="6.60597">
        <ele>580</ele>
        <time>2016-10-09T10:41:42Z</time>
      </trkpt>
      <trkpt lat="47.20179" lon="6.60574">
        <ele>581</ele>
        <time>2016-10-09T10:41:46Z</time>
      </trkpt>
      <trkpt lat="47.20176" lon="6.6055">
        <ele>588</ele>
        <time>2016-10-09T10:41:50Z</time>
      </trkpt>
      <trkpt lat="47.20174" lon="6.6053">
        <ele>589</ele>
        <time>2016-10-09T10:41:54Z</time>
      </trkpt>
      <trkpt lat="47.2017" lon="6.60508">
        <ele>581</ele>
        <time>2016-10-09T10:41:58Z</time>
      </trkpt>
      <trkpt lat="47.20164" lon="6.60491">
        <ele>570</ele>
        <time>2016-10-09T10:42:02Z</time>
      </trkpt>
      <trkpt lat="47.20158" lon="6.60467">
        <ele>566</ele>
        <time>2016-10-09T10:42:06Z</time>
      </trkpt>
      <trkpt lat="47.20156" lon="6.60444">
        <ele>569</ele>
        <time>2016-10-09T10:42:10Z</time>
      </trkpt>
      <trkpt lat="47.20156" lon="6.60418">
        <ele>578</ele>
        <time>2016-10-09T10:42:14Z</time>
      </trkpt>
      <trkpt lat="47.20156" lon="6.60395">
        <ele>577</ele>
        <time>2016-10-09T10:42:18Z</time>
      </trkpt>
      <trkpt lat="47.20154" lon="6.60381">
        <ele>576</ele>
        <time>2016-10-09T10:42:22Z</time>
      </trkpt>
      <trkpt lat="47.20156" lon="6.60362">
        <ele>578</ele>
        <time>2016-10-09T10:42:26Z</time>
      </trkpt>
      <trkpt lat="47.20155" lon="6.60346">
        <ele>582</ele>
        <time>2016-10-09T10:42:30Z</time>
      </trkpt>
      <trkpt lat="47.20156" lon="6.60327">
        <ele>586</ele>
        <time>2016-10-09T10:42:34Z</time>
      </trkpt>
      <trkpt lat="47.20155" lon="6.60309">
        <ele>581</ele>
        <time>2016-10-09T10:42:38Z</time>
      </trkpt>
      <trkpt lat="47.20155" lon="6.60293">
        <ele>580</ele>
        <time>2016-10-09T10:42:42Z</time>
      </trkpt>
      <trkpt lat="47.20155" lon="6.60274">
        <ele>582</ele>
        <time>2016-10-09T10:42:46Z</time>
      </trkpt>
      <trkpt lat="47.20158" lon="6.60257">
        <ele>590</ele>
        <time>2016-10-09T10:42:50Z</time>
      </trkpt>
      <trkpt lat="47.2016" lon="6.60238">
        <ele>588</ele>
        <time>2016-10-09T10:42:54Z</time>
      </trkpt>
      <trkpt lat="47.20161" lon="6.60217">
        <ele>582</ele>
        <time>2016-10-09T10:42:58Z</time>
      </trkpt>
      <trkpt lat="47.20158" lon="6.60201">
        <ele>582</ele>
        <time>2016-10-09T10:43:02Z</time>
      </trkpt>
      <trkpt lat="47.20161" lon="6.60181">
        <ele>587</ele>
        <time>2016-10-09T10:43:06Z</time>
      </trkpt>
      <trkpt lat="47.20164" lon="6.60163">
        <ele>594</ele>
        <time>2016-10-09T10:43:10Z</time>
      </trkpt>
      <trkpt lat="47.20162" lon="6.60143">
        <ele>582</ele>
        <time>2016-10-09T10:43:14Z</time>
      </trkpt>
      <trkpt lat="47.20168" lon="6.60125">
        <ele>607</ele>
        <time>2016-10-09T10:43:18Z</time>
      </trkpt>
      <trkpt lat="47.20171" lon="6.60105">
        <ele>603</ele>
        <time>2016-10-09T10:43:22Z</time>
      </trkpt>
      <trkpt lat="47.20173" lon="6.60082">
        <ele>593</ele>
        <time>2016-10-09T10:43:26Z</time>
      </trkpt>
      <trkpt lat="47.20177" lon="6.60066">
        <ele>596</ele>
        <time>2016-10-09T10:43:28Z</time>
      </trkpt>
      <trkpt lat="47.20181" lon="6.6005">
        <ele>596</ele>
        <time>2016-10-09T10:43:30Z</time>
      </trkpt>
      <trkpt lat="47.20187" lon="6.60029">
        <ele>595</ele>
        <time>2016-10-09T10:43:32Z</time>
      </trkpt>
      <trkpt lat="47.20193" lon="6.60005">
        <ele>593</ele>
        <time>2016-10-09T10:43:34Z</time>
      </trkpt>
      <trkpt lat="47.20202" lon="6.59986">
        <ele>584</ele>
        <time>2016-10-09T10:43:36Z</time>
      </trkpt>
      <trkpt lat="47.20215" lon="6.59966">
        <ele>584</ele>
        <time>2016-10-09T10:43:38Z</time>
      </trkpt>
      <trkpt lat="47.20227" lon="6.59953">
        <ele>584</ele>
        <time>2016-10-09T10:43:40Z</time>
      </trkpt>
      <trkpt lat="47.20243" lon="6.59949">
        <ele>585</ele>
        <time>2016-10-09T10:43:42Z</time>
      </trkpt>
      <trkpt lat="47.20255" lon="6.59942">
        <ele>596</ele>
        <time>2016-10-09T10:43:44Z</time>
      </trkpt>
      <trkpt lat="47.20268" lon="6.59937">
        <ele>597</ele>
        <time>2016-10-09T10:43:46Z</time>
      </trkpt>
      <trkpt lat="47.2028" lon="6.59936">
        <ele>599</ele>
        <time>2016-10-09T10:43:48Z</time>
      </trkpt>
      <trkpt lat="47.2029" lon="6.59937">
        <ele>601</ele>
        <time>2016-10-09T10:43:50Z</time>
      </trkpt>
      <trkpt lat="47.20304" lon="6.59939">
        <ele>604</ele>
        <time>2016-10-09T10:43:54Z</time>
      </trkpt>
      <trkpt lat="47.2031" lon="6.59925">
        <ele>604</ele>
        <time>2016-10-09T10:43:58Z</time>
      </trkpt>
      <trkpt lat="47.20314" lon="6.59906">
        <ele>599</ele>
        <time>2016-10-09T10:44:04Z</time>
      </trkpt>
      <trkpt lat="47.20315" lon="6.59888">
        <ele>597</ele>
        <time>2016-10-09T10:44:10Z</time>
      </trkpt>
      <trkpt lat="47.20317" lon="6.59875">
        <ele>597</ele>
        <time>2016-10-09T10:44:14Z</time>
      </trkpt>
      <trkpt lat="47.20319" lon="6.5986">
        <ele>598</ele>
        <time>2016-10-09T10:44:18Z</time>
      </trkpt>
      <trkpt lat="47.20321" lon="6.59843">
        <ele>600</ele>
        <time>2016-10-09T10:44:22Z</time>
      </trkpt>
      <trkpt lat="47.20323" lon="6.59828">
        <ele>602</ele>
        <time>2016-10-09T10:44:26Z</time>
      </trkpt>
      <trkpt lat="47.20322" lon="6.59811">
        <ele>599</ele>
        <time>2016-10-09T10:44:30Z</time>
      </trkpt>
      <trkpt lat="47.20319" lon="6.59794">
        <ele>598</ele>
        <time>2016-10-09T10:44:34Z</time>
      </trkpt>
      <trkpt lat="47.20313" lon="6.59781">
        <ele>598</ele>
        <time>2016-10-09T10:44:38Z</time>
      </trkpt>
      <trkpt lat="47.20308" lon="6.59763">
        <ele>599</ele>
        <time>2016-10-09T10:44:42Z</time>
      </trkpt>
      <trkpt lat="47.20308" lon="6.59746">
        <ele>600</ele>
        <time>2016-10-09T10:44:46Z</time>
      </trkpt>
      <trkpt lat="47.20311" lon="6.59729">
        <ele>599</ele>
        <time>2016-10-09T10:44:52Z</time>
      </trkpt>
      <trkpt lat="47.2031" lon="6.59709">
        <ele>598</ele>
        <time>2016-10-09T10:44:58Z</time>
      </trkpt>
      <trkpt lat="47.20313" lon="6.59688">
        <ele>600</ele>
        <time>2016-10-09T10:45:02Z</time>
      </trkpt>
      <trkpt lat="47.20317" lon="6.5966">
        <ele>602</ele>
        <time>2016-10-09T10:45:06Z</time>
      </trkpt>
      <trkpt lat="47.2032" lon="6.59639">
        <ele>597</ele>
        <time>2016-10-09T10:45:08Z</time>
      </trkpt>
      <trkpt lat="47.2032" lon="6.59617">
        <ele>595</ele>
        <time>2016-10-09T10:45:10Z</time>
      </trkpt>
      <trkpt lat="47.20322" lon="6.59591">
        <ele>598</ele>
        <time>2016-10-09T10:45:12Z</time>
      </trkpt>
      <trkpt lat="47.20326" lon="6.59567">
        <ele>592</ele>
        <time>2016-10-09T10:45:14Z</time>
      </trkpt>
      <trkpt lat="47.20328" lon="6.59548">
        <ele>588</ele>
        <time>2016-10-09T10:45:16Z</time>
      </trkpt>
      <trkpt lat="47.20329" lon="6.59532">
        <ele>588</ele>
        <time>2016-10-09T10:45:18Z</time>
      </trkpt>
      <trkpt lat="47.20329" lon="6.59517">
        <ele>591</ele>
        <time>2016-10-09T10:45:20Z</time>
      </trkpt>
      <trkpt lat="47.20327" lon="6.59501">
        <ele>595</ele>
        <time>2016-10-09T10:45:22Z</time>
      </trkpt>
      <trkpt lat="47.20325" lon="6.59485">
        <ele>588</ele>
        <time>2016-10-09T10:45:24Z</time>
      </trkpt>
      <trkpt lat="47.20323" lon="6.59467">
        <ele>584</ele>
        <time>2016-10-09T10:45:26Z</time>
      </trkpt>
      <trkpt lat="47.20321" lon="6.5945">
        <ele>584</ele>
        <time>2016-10-09T10:45:28Z</time>
      </trkpt>
      <trkpt lat="47.20318" lon="6.59431">
        <ele>586</ele>
        <time>2016-10-09T10:45:30Z</time>
      </trkpt>
      <trkpt lat="47.20314" lon="6.59409">
        <ele>588</ele>
        <time>2016-10-09T10:45:32Z</time>
      </trkpt>
      <trkpt lat="47.20313" lon="6.5939">
        <ele>585</ele>
        <time>2016-10-09T10:45:34Z</time>
      </trkpt>
      <trkpt lat="47.20313" lon="6.59368">
        <ele>586</ele>
        <time>2016-10-09T10:45:36Z</time>
      </trkpt>
      <trkpt lat="47.20313" lon="6.59348">
        <ele>589</ele>
        <time>2016-10-09T10:45:38Z</time>
      </trkpt>
      <trkpt lat="47.20311" lon="6.59322">
        <ele>591</ele>
        <time>2016-10-09T10:45:42Z</time>
      </trkpt>
      <trkpt lat="47.20314" lon="6.59298">
        <ele>590</ele>
        <time>2016-10-09T10:45:46Z</time>
      </trkpt>
      <trkpt lat="47.20317" lon="6.59284">
        <ele>591</ele>
        <time>2016-10-09T10:45:48Z</time>
      </trkpt>
      <trkpt lat="47.20319" lon="6.59264">
        <ele>595</ele>
        <time>2016-10-09T10:45:52Z</time>
      </trkpt>
      <trkpt lat="47.20324" lon="6.59277">
        <ele>594</ele>
        <time>2016-10-09T10:46:24Z</time>
      </trkpt>
      <trkpt lat="47.20325" lon="6.59293">
        <ele>592</ele>
        <time>2016-10-09T10:46:28Z</time>
      </trkpt>
      <trkpt lat="47.20328" lon="6.59311">
        <ele>594</ele>
        <time>2016-10-09T10:46:32Z</time>
      </trkpt>
      <trkpt lat="47.20331" lon="6.59329">
        <ele>602</ele>
        <time>2016-10-09T10:46:36Z</time>
      </trkpt>
      <trkpt lat="47.20336" lon="6.59355">
        <ele>619</ele>
        <time>2016-10-09T10:46:42Z</time>
      </trkpt>
      <trkpt lat="47.2034" lon="6.59367">
        <ele>621</ele>
        <time>2016-10-09T10:46:44Z</time>
      </trkpt>
      <trkpt lat="47.20346" lon="6.59387">
        <ele>621</ele>
        <time>2016-10-09T10:46:48Z</time>
      </trkpt>
      <trkpt lat="47.20351" lon="6.59406">
        <ele>618</ele>
        <time>2016-10-09T10:46:52Z</time>
      </trkpt>
      <trkpt lat="47.20354" lon="6.59425">
        <ele>618</ele>
        <time>2016-10-09T10:46:56Z</time>
      </trkpt>
      <trkpt lat="47.20354" lon="6.59444">
        <ele>621</ele>
        <time>2016-10-09T10:47:00Z</time>
      </trkpt>
      <trkpt lat="47.20355" lon="6.59462">
        <ele>622</ele>
        <time>2016-10-09T10:47:04Z</time>
      </trkpt>
      <trkpt lat="47.20357" lon="6.5948">
        <ele>621</ele>
        <time>2016-10-09T10:47:08Z</time>
      </trkpt>
      <trkpt lat="47.20358" lon="6.59496">
        <ele>620</ele>
        <time>2016-10-09T10:47:12Z</time>
      </trkpt>
      <trkpt lat="47.2036" lon="6.59514">
        <ele>622</ele>
        <time>2016-10-09T10:47:16Z</time>
      </trkpt>
      <trkpt lat="47.2036" lon="6.5953">
        <ele>624</ele>
        <time>2016-10-09T10:47:20Z</time>
      </trkpt>
      <trkpt lat="47.20361" lon="6.59545">
        <ele>625</ele>
        <time>2016-10-09T10:47:24Z</time>
      </trkpt>
      <trkpt lat="47.20362" lon="6.59562">
        <ele>625</ele>
        <time>2016-10-09T10:47:28Z</time>
      </trkpt>
      <trkpt lat="47.20361" lon="6.59578">
        <ele>623</ele>
        <time>2016-10-09T10:47:32Z</time>
      </trkpt>
      <trkpt lat="47.2036" lon="6.59597">
        <ele>627</ele>
        <time>2016-10-09T10:47:36Z</time>
      </trkpt>
      <trkpt lat="47.20359" lon="6.59614">
        <ele>629</ele>
        <time>2016-10-09T10:47:40Z</time>
      </trkpt>
      <trkpt lat="47.20357" lon="6.59631">
        <ele>630</ele>
        <time>2016-10-09T10:47:44Z</time>
      </trkpt>
      <trkpt lat="47.20354" lon="6.59647">
        <ele>629</ele>
        <time>2016-10-09T10:47:48Z</time>
      </trkpt>
      <trkpt lat="47.20353" lon="6.59664">
        <ele>627</ele>
        <time>2016-10-09T10:47:52Z</time>
      </trkpt>
      <trkpt lat="47.20353" lon="6.59684">
        <ele>630</ele>
        <time>2016-10-09T10:47:58Z</time>
      </trkpt>
      <trkpt lat="47.20351" lon="6.59702">
        <ele>631</ele>
        <time>2016-10-09T10:48:04Z</time>
      </trkpt>
      <trkpt lat="47.20352" lon="6.59717">
        <ele>631</ele>
        <time>2016-10-09T10:48:08Z</time>
      </trkpt>
      <trkpt lat="47.20352" lon="6.59735">
        <ele>629</ele>
        <time>2016-10-09T10:48:12Z</time>
      </trkpt>
      <trkpt lat="47.20356" lon="6.59748">
        <ele>628</ele>
        <time>2016-10-09T10:48:16Z</time>
      </trkpt>
      <trkpt lat="47.20361" lon="6.59766">
        <ele>629</ele>
        <time>2016-10-09T10:48:22Z</time>
      </trkpt>
      <trkpt lat="47.20366" lon="6.59779">
        <ele>631</ele>
        <time>2016-10-09T10:48:26Z</time>
      </trkpt>
      <trkpt lat="47.20372" lon="6.59791">
        <ele>632</ele>
        <time>2016-10-09T10:48:30Z</time>
      </trkpt>
      <trkpt lat="47.20378" lon="6.59804">
        <ele>633</ele>
        <time>2016-10-09T10:48:34Z</time>
      </trkpt>
      <trkpt lat="47.20384" lon="6.5982">
        <ele>635</ele>
        <time>2016-10-09T10:48:40Z</time>
      </trkpt>
      <trkpt lat="47.20387" lon="6.59836">
        <ele>635</ele>
        <time>2016-10-09T10:48:46Z</time>
      </trkpt>
      <trkpt lat="47.2039" lon="6.59853">
        <ele>635</ele>
        <time>2016-10-09T10:48:50Z</time>
      </trkpt>
      <trkpt lat="47.20388" lon="6.59866">
        <ele>634</ele>
        <time>2016-10-09T10:48:54Z</time>
      </trkpt>
      <trkpt lat="47.20383" lon="6.5988">
        <ele>633</ele>
        <time>2016-10-09T10:48:58Z</time>
      </trkpt>
      <trkpt lat="47.2038" lon="6.59895">
        <ele>632</ele>
        <time>2016-10-09T10:49:02Z</time>
      </trkpt>
      <trkpt lat="47.20378" lon="6.59909">
        <ele>632</ele>
        <time>2016-10-09T10:49:06Z</time>
      </trkpt>
      <trkpt lat="47.20377" lon="6.59927">
        <ele>636</ele>
        <time>2016-10-09T10:49:12Z</time>
      </trkpt>
      <trkpt lat="47.20379" lon="6.59941">
        <ele>637</ele>
        <time>2016-10-09T10:49:16Z</time>
      </trkpt>
      <trkpt lat="47.20382" lon="6.5996">
        <ele>639</ele>
        <time>2016-10-09T10:49:22Z</time>
      </trkpt>
      <trkpt lat="47.20385" lon="6.59974">
        <ele>641</ele>
        <time>2016-10-09T10:49:26Z</time>
      </trkpt>
      <trkpt lat="47.20388" lon="6.59988">
        <ele>644</ele>
        <time>2016-10-09T10:49:30Z</time>
      </trkpt>
      <trkpt lat="47.20389" lon="6.60001">
        <ele>654</ele>
        <time>2016-10-09T10:49:34Z</time>
      </trkpt>
      <trkpt lat="47.20389" lon="6.60015">
        <ele>654</ele>
        <time>2016-10-09T10:49:40Z</time>
      </trkpt>
      <trkpt lat="47.20382" lon="6.60027">
        <ele>653</ele>
        <time>2016-10-09T10:49:44Z</time>
      </trkpt>
      <trkpt lat="47.20374" lon="6.60035">
        <ele>652</ele>
        <time>2016-10-09T10:49:48Z</time>
      </trkpt>
      <trkpt lat="47.20362" lon="6.60042">
        <ele>650</ele>
        <time>2016-10-09T10:49:54Z</time>
      </trkpt>
      <trkpt lat="47.2035" lon="6.60051">
        <ele>650</ele>
        <time>2016-10-09T10:50:00Z</time>
      </trkpt>
      <trkpt lat="47.20339" lon="6.60052">
        <ele>649</ele>
        <time>2016-10-09T10:50:04Z</time>
      </trkpt>
      <trkpt lat="47.20328" lon="6.60056">
        <ele>633</ele>
        <time>2016-10-09T10:50:08Z</time>
      </trkpt>
      <trkpt lat="47.20319" lon="6.60061">
        <ele>633</ele>
        <time>2016-10-09T10:50:12Z</time>
      </trkpt>
      <trkpt lat="47.2031" lon="6.6007">
        <ele>634</ele>
        <time>2016-10-09T10:50:16Z</time>
      </trkpt>
      <trkpt lat="47.20301" lon="6.60076">
        <ele>632</ele>
        <time>2016-10-09T10:50:20Z</time>
      </trkpt>
      <trkpt lat="47.20292" lon="6.60085">
        <ele>645</ele>
        <time>2016-10-09T10:50:24Z</time>
      </trkpt>
      <trkpt lat="47.20282" lon="6.6009">
        <ele>643</ele>
        <time>2016-10-09T10:50:28Z</time>
      </trkpt>
      <trkpt lat="47.20276" lon="6.60102">
        <ele>643</ele>
        <time>2016-10-09T10:50:32Z</time>
      </trkpt>
      <trkpt lat="47.2027" lon="6.60117">
        <ele>644</ele>
        <time>2016-10-09T10:50:36Z</time>
      </trkpt>
      <trkpt lat="47.20265" lon="6.6013">
        <ele>645</ele>
        <time>2016-10-09T10:50:40Z</time>
      </trkpt>
      <trkpt lat="47.20262" lon="6.60143">
        <ele>645</ele>
        <time>2016-10-09T10:50:44Z</time>
      </trkpt>
      <trkpt lat="47.20259" lon="6.60162">
        <ele>644</ele>
        <time>2016-10-09T10:50:50Z</time>
      </trkpt>
      <trkpt lat="47.20258" lon="6.60176">
        <ele>649</ele>
        <time>2016-10-09T10:50:54Z</time>
      </trkpt>
      <trkpt lat="47.20258" lon="6.6019">
        <ele>653</ele>
        <time>2016-10-09T10:50:58Z</time>
      </trkpt>
      <trkpt lat="47.20258" lon="6.60209">
        <ele>655</ele>
        <time>2016-10-09T10:51:04Z</time>
      </trkpt>
      <trkpt lat="47.2026" lon="6.6023">
        <ele>654</ele>
        <time>2016-10-09T10:51:10Z</time>
      </trkpt>
      <trkpt lat="47.20262" lon="6.60245">
        <ele>651</ele>
        <time>2016-10-09T10:51:14Z</time>
      </trkpt>
      <trkpt lat="47.20263" lon="6.60259">
        <ele>652</ele>
        <time>2016-10-09T10:51:18Z</time>
      </trkpt>
      <trkpt lat="47.20264" lon="6.60273">
        <ele>655</ele>
        <time>2016-10-09T10:51:22Z</time>
      </trkpt>
      <trkpt lat="47.20266" lon="6.60293">
        <ele>657</ele>
        <time>2016-10-09T10:51:28Z</time>
      </trkpt>
      <trkpt lat="47.20268" lon="6.60312">
        <ele>656</ele>
        <time>2016-10-09T10:51:34Z</time>
      </trkpt>
      <trkpt lat="47.2027" lon="6.60326">
        <ele>654</ele>
        <time>2016-10-09T10:51:38Z</time>
      </trkpt>
      <trkpt lat="47.20274" lon="6.60344">
        <ele>654</ele>
        <time>2016-10-09T10:51:44Z</time>
      </trkpt>
      <trkpt lat="47.20279" lon="6.60362">
        <ele>656</ele>
        <time>2016-10-09T10:51:50Z</time>
      </trkpt>
      <trkpt lat="47.20282" lon="6.60375">
        <ele>656</ele>
        <time>2016-10-09T10:51:54Z</time>
      </trkpt>
      <trkpt lat="47.20286" lon="6.60388">
        <ele>657</ele>
        <time>2016-10-09T10:51:58Z</time>
      </trkpt>
      <trkpt lat="47.20288" lon="6.60401">
        <ele>657</ele>
        <time>2016-10-09T10:52:04Z</time>
      </trkpt>
      <trkpt lat="47.20292" lon="6.60415">
        <ele>657</ele>
        <time>2016-10-09T10:52:08Z</time>
      </trkpt>
      <trkpt lat="47.20296" lon="6.60428">
        <ele>655</ele>
        <time>2016-10-09T10:52:12Z</time>
      </trkpt>
      <trkpt lat="47.203" lon="6.60442">
        <ele>656</ele>
        <time>2016-10-09T10:52:16Z</time>
      </trkpt>
      <trkpt lat="47.20304" lon="6.60456">
        <ele>656</ele>
        <time>2016-10-09T10:52:20Z</time>
      </trkpt>
      <trkpt lat="47.20308" lon="6.60473">
        <ele>656</ele>
        <time>2016-10-09T10:52:26Z</time>
      </trkpt>
      <trkpt lat="47.20313" lon="6.6049">
        <ele>658</ele>
        <time>2016-10-09T10:52:32Z</time>
      </trkpt>
      <trkpt lat="47.20318" lon="6.60504">
        <ele>657</ele>
        <time>2016-10-09T10:52:36Z</time>
      </trkpt>
      <trkpt lat="47.20321" lon="6.60516">
        <ele>656</ele>
        <time>2016-10-09T10:52:40Z</time>
      </trkpt>
      <trkpt lat="47.20327" lon="6.60533">
        <ele>653</ele>
        <time>2016-10-09T10:52:46Z</time>
      </trkpt>
      <trkpt lat="47.20331" lon="6.60547">
        <ele>652</ele>
        <time>2016-10-09T10:52:50Z</time>
      </trkpt>
      <trkpt lat="47.20335" lon="6.60559">
        <ele>670</ele>
        <time>2016-10-09T10:52:54Z</time>
      </trkpt>
      <trkpt lat="47.20339" lon="6.60573">
        <ele>667</ele>
        <time>2016-10-09T10:52:58Z</time>
      </trkpt>
      <trkpt lat="47.20342" lon="6.60586">
        <ele>665</ele>
        <time>2016-10-09T10:53:02Z</time>
      </trkpt>
      <trkpt lat="47.20346" lon="6.606">
        <ele>667</ele>
        <time>2016-10-09T10:53:06Z</time>
      </trkpt>
      <trkpt lat="47.2035" lon="6.60613">
        <ele>669</ele>
        <time>2016-10-09T10:53:10Z</time>
      </trkpt>
      <trkpt lat="47.20354" lon="6.60625">
        <ele>669</ele>
        <time>2016-10-09T10:53:14Z</time>
      </trkpt>
      <trkpt lat="47.2036" lon="6.60642">
        <ele>669</ele>
        <time>2016-10-09T10:53:20Z</time>
      </trkpt>
      <trkpt lat="47.20363" lon="6.60655">
        <ele>669</ele>
        <time>2016-10-09T10:53:24Z</time>
      </trkpt>
      <trkpt lat="47.20368" lon="6.60667">
        <ele>666</ele>
        <time>2016-10-09T10:53:28Z</time>
      </trkpt>
      <trkpt lat="47.20373" lon="6.60679">
        <ele>666</ele>
        <time>2016-10-09T10:53:32Z</time>
      </trkpt>
      <trkpt lat="47.20378" lon="6.6069">
        <ele>667</ele>
        <time>2016-10-09T10:53:36Z</time>
      </trkpt>
      <trkpt lat="47.20385" lon="6.60701">
        <ele>667</ele>
        <time>2016-10-09T10:53:40Z</time>
      </trkpt>
      <trkpt lat="47.20392" lon="6.60713">
        <ele>668</ele>
        <time>2016-10-09T10:53:44Z</time>
      </trkpt>
      <trkpt lat="47.204" lon="6.60722">
        <ele>669</ele>
        <time>2016-10-09T10:53:48Z</time>
      </trkpt>
      <trkpt lat="47.20409" lon="6.60731">
        <ele>670</ele>
        <time>2016-10-09T10:53:52Z</time>
      </trkpt>
      <trkpt lat="47.20418" lon="6.60738">
        <ele>679</ele>
        <time>2016-10-09T10:53:56Z</time>
      </trkpt>
      <trkpt lat="47.20426" lon="6.60747">
        <ele>678</ele>
        <time>2016-10-09T10:56:45Z</time>
      </trkpt>
      <trkpt lat="47.20437" lon="6.60757">
        <ele>675</ele>
        <time>2016-10-09T10:56:51Z</time>
      </trkpt>
      <trkpt lat="47.20445" lon="6.60763">
        <ele>675</ele>
        <time>2016-10-09T10:56:55Z</time>
      </trkpt>
      <trkpt lat="47.20455" lon="6.60771">
        <ele>675</ele>
        <time>2016-10-09T10:56:59Z</time>
      </trkpt>
      <trkpt lat="47.20465" lon="6.6078">
        <ele>676</ele>
        <time>2016-10-09T10:57:03Z</time>
      </trkpt>
      <trkpt lat="47.20476" lon="6.60789">
        <ele>676</ele>
        <time>2016-10-09T10:57:07Z</time>
      </trkpt>
      <trkpt lat="47.20488" lon="6.60799">
        <ele>675</ele>
        <time>2016-10-09T10:57:11Z</time>
      </trkpt>
      <trkpt lat="47.20498" lon="6.60809">
        <ele>675</ele>
        <time>2016-10-09T10:57:15Z</time>
      </trkpt>
      <trkpt lat="47.2051" lon="6.60819">
        <ele>679</ele>
        <time>2016-10-09T10:57:19Z</time>
      </trkpt>
      <trkpt lat="47.20521" lon="6.60826">
        <ele>679</ele>
        <time>2016-10-09T10:57:23Z</time>
      </trkpt>
      <trkpt lat="47.20533" lon="6.60831">
        <ele>681</ele>
        <time>2016-10-09T10:57:27Z</time>
      </trkpt>
      <trkpt lat="47.20544" lon="6.60836">
        <ele>674</ele>
        <time>2016-10-09T10:57:31Z</time>
      </trkpt>
      <trkpt lat="47.20556" lon="6.60838">
        <ele>676</ele>
        <time>2016-10-09T10:57:37Z</time>
      </trkpt>
      <trkpt lat="47.20568" lon="6.60841">
        <ele>677</ele>
        <time>2016-10-09T10:57:41Z</time>
      </trkpt>
      <trkpt lat="47.2058" lon="6.60844">
        <ele>679</ele>
        <time>2016-10-09T10:57:45Z</time>
      </trkpt>
      <trkpt lat="47.20592" lon="6.60848">
        <ele>682</ele>
        <time>2016-10-09T10:57:49Z</time>
      </trkpt>
      <trkpt lat="47.20604" lon="6.60852">
        <ele>682</ele>
        <time>2016-10-09T10:57:53Z</time>
      </trkpt>
      <trkpt lat="47.20617" lon="6.60856">
        <ele>683</ele>
        <time>2016-10-09T10:57:57Z</time>
      </trkpt>
      <trkpt lat="47.20631" lon="6.60856">
        <ele>684</ele>
        <time>2016-10-09T10:58:01Z</time>
      </trkpt>
      <trkpt lat="47.20645" lon="6.60858">
        <ele>684</ele>
        <time>2016-10-09T10:58:05Z</time>
      </trkpt>
      <trkpt lat="47.20657" lon="6.6086">
        <ele>685</ele>
        <time>2016-10-09T10:58:09Z</time>
      </trkpt>
      <trkpt lat="47.20671" lon="6.6086">
        <ele>688</ele>
        <time>2016-10-09T10:58:13Z</time>
      </trkpt>
      <trkpt lat="47.20683" lon="6.60859">
        <ele>688</ele>
        <time>2016-10-09T10:58:17Z</time>
      </trkpt>
      <trkpt lat="47.20695" lon="6.6086">
        <ele>688</ele>
        <time>2016-10-09T10:58:21Z</time>
      </trkpt>
      <trkpt lat="47.20706" lon="6.60861">
        <ele>688</ele>
        <time>2016-10-09T10:58:25Z</time>
      </trkpt>
      <trkpt lat="47.20717" lon="6.60861">
        <ele>688</ele>
        <time>2016-10-09T10:58:29Z</time>
      </trkpt>
      <trkpt lat="47.20728" lon="6.60857">
        <ele>688</ele>
        <time>2016-10-09T10:58:33Z</time>
      </trkpt>
      <trkpt lat="47.20741" lon="6.60853">
        <ele>689</ele>
        <time>2016-10-09T10:58:37Z</time>
      </trkpt>
      <trkpt lat="47.20755" lon="6.60849">
        <ele>691</ele>
        <time>2016-10-09T10:58:41Z</time>
      </trkpt>
      <trkpt lat="47.20769" lon="6.60851">
        <ele>691</ele>
        <time>2016-10-09T10:58:45Z</time>
      </trkpt>
      <trkpt lat="47.20781" lon="6.60857">
        <ele>692</ele>
        <time>2016-10-09T10:58:49Z</time>
      </trkpt>
      <trkpt lat="47.20791" lon="6.60871">
        <ele>692</ele>
        <time>2016-10-09T10:58:53Z</time>
      </trkpt>
      <trkpt lat="47.20799" lon="6.60887">
        <ele>692</ele>
        <time>2016-10-09T10:58:57Z</time>
      </trkpt>
      <trkpt lat="47.20806" lon="6.60904">
        <ele>692</ele>
        <time>2016-10-09T10:59:01Z</time>
      </trkpt>
      <trkpt lat="47.20812" lon="6.60921">
        <ele>691</ele>
        <time>2016-10-09T10:59:05Z</time>
      </trkpt>
      <trkpt lat="47.20818" lon="6.6094">
        <ele>691</ele>
        <time>2016-10-09T10:59:09Z</time>
      </trkpt>
      <trkpt lat="47.20825" lon="6.60959">
        <ele>690</ele>
        <time>2016-10-09T10:59:13Z</time>
      </trkpt>
      <trkpt lat="47.20832" lon="6.60978">
        <ele>690</ele>
        <time>2016-10-09T10:59:17Z</time>
      </trkpt>
      <trkpt lat="47.20838" lon="6.60995">
        <ele>692</ele>
        <time>2016-10-09T10:59:21Z</time>
      </trkpt>
      <trkpt lat="47.20845" lon="6.61009">
        <ele>692</ele>
        <time>2016-10-09T10:59:25Z</time>
      </trkpt>
      <trkpt lat="47.20855" lon="6.61026">
        <ele>692</ele>
        <time>2016-10-09T10:59:29Z</time>
      </trkpt>
      <trkpt lat="47.20862" lon="6.61043">
        <ele>692</ele>
        <time>2016-10-09T10:59:33Z</time>
      </trkpt>
      <trkpt lat="47.20873" lon="6.6106">
        <ele>692</ele>
        <time>2016-10-09T10:59:37Z</time>
      </trkpt>
      <trkpt lat="47.20889" lon="6.61062">
        <ele>693</ele>
        <time>2016-10-09T10:59:41Z</time>
      </trkpt>
      <trkpt lat="47.20903" lon="6.61063">
        <ele>693</ele>
        <time>2016-10-09T10:59:45Z</time>
      </trkpt>
      <trkpt lat="47.20917" lon="6.61066">
        <ele>697</ele>
        <time>2016-10-09T10:59:49Z</time>
      </trkpt>
      <trkpt lat="47.20931" lon="6.61068">
        <ele>698</ele>
        <time>2016-10-09T10:59:53Z</time>
      </trkpt>
      <trkpt lat="47.20944" lon="6.61074">
        <ele>699</ele>
        <time>2016-10-09T10:59:57Z</time>
      </trkpt>
      <trkpt lat="47.20958" lon="6.61078">
        <ele>700</ele>
        <time>2016-10-09T11:00:01Z</time>
      </trkpt>
      <trkpt lat="47.20971" lon="6.61079">
        <ele>701</ele>
        <time>2016-10-09T11:00:05Z</time>
      </trkpt>
      <trkpt lat="47.20981" lon="6.61066">
        <ele>702</ele>
        <time>2016-10-09T11:00:09Z</time>
      </trkpt>
      <trkpt lat="47.20987" lon="6.61049">
        <ele>702</ele>
        <time>2016-10-09T11:00:13Z</time>
      </trkpt>
      <trkpt lat="47.20991" lon="6.61031">
        <ele>703</ele>
        <time>2016-10-09T11:00:17Z</time>
      </trkpt>
      <trkpt lat="47.20995" lon="6.61014">
        <ele>705</ele>
        <time>2016-10-09T11:00:21Z</time>
      </trkpt>
      <trkpt lat="47.21001" lon="6.61002">
        <ele>708</ele>
        <time>2016-10-09T11:00:25Z</time>
      </trkpt>
      <trkpt lat="47.2101" lon="6.60986">
        <ele>711</ele>
        <time>2016-10-09T11:00:31Z</time>
      </trkpt>
      <trkpt lat="47.21017" lon="6.60978">
        <ele>712</ele>
        <time>2016-10-09T11:00:35Z</time>
      </trkpt>
      <trkpt lat="47.21029" lon="6.60973">
        <ele>713</ele>
        <time>2016-10-09T11:00:41Z</time>
      </trkpt>
      <trkpt lat="47.2104" lon="6.60978">
        <ele>713</ele>
        <time>2016-10-09T11:00:47Z</time>
      </trkpt>
      <trkpt lat="47.21052" lon="6.60986">
        <ele>714</ele>
        <time>2016-10-09T11:00:53Z</time>
      </trkpt>
      <trkpt lat="47.21061" lon="6.60992">
        <ele>714</ele>
        <time>2016-10-09T11:00:57Z</time>
      </trkpt>
      <trkpt lat="47.21069" lon="6.61">
        <ele>715</ele>
        <time>2016-10-09T11:01:01Z</time>
      </trkpt>
      <trkpt lat="47.21079" lon="6.61008">
        <ele>714</ele>
        <time>2016-10-09T11:01:05Z</time>
      </trkpt>
      <trkpt lat="47.21087" lon="6.61016">
        <ele>717</ele>
        <time>2016-10-09T11:01:09Z</time>
      </trkpt>
      <trkpt lat="47.21096" lon="6.61024">
        <ele>717</ele>
        <time>2016-10-09T11:01:13Z</time>
      </trkpt>
      <trkpt lat="47.21106" lon="6.61032">
        <ele>718</ele>
        <time>2016-10-09T11:01:17Z</time>
      </trkpt>
      <trkpt lat="47.21115" lon="6.6104">
        <ele>718</ele>
        <time>2016-10-09T11:01:21Z</time>
      </trkpt>
      <trkpt lat="47.21124" lon="6.61049">
        <ele>718</ele>
        <time>2016-10-09T11:01:25Z</time>
      </trkpt>
      <trkpt lat="47.21133" lon="6.61058">
        <ele>719</ele>
        <time>2016-10-09T11:01:29Z</time>
      </trkpt>
      <trkpt lat="47.21141" lon="6.61066">
        <ele>719</ele>
        <time>2016-10-09T11:01:33Z</time>
      </trkpt>
      <trkpt lat="47.21152" lon="6.61066">
        <ele>719</ele>
        <time>2016-10-09T11:01:37Z</time>
      </trkpt>
      <trkpt lat="47.21161" lon="6.61063">
        <ele>719</ele>
        <time>2016-10-09T11:01:41Z</time>
      </trkpt>
      <trkpt lat="47.21171" lon="6.61061">
        <ele>724</ele>
        <time>2016-10-09T11:01:45Z</time>
      </trkpt>
      <trkpt lat="47.21185" lon="6.61059">
        <ele>724</ele>
        <time>2016-10-09T11:01:51Z</time>
      </trkpt>
      <trkpt lat="47.21195" lon="6.61062">
        <ele>725</ele>
        <time>2016-10-09T11:01:55Z</time>
      </trkpt>
      <trkpt lat="47.21204" lon="6.61066">
        <ele>725</ele>
        <time>2016-10-09T11:01:59Z</time>
      </trkpt>
      <trkpt lat="47.21216" lon="6.61068">
        <ele>726</ele>
        <time>2016-10-09T11:02:05Z</time>
      </trkpt>
      <trkpt lat="47.2123" lon="6.61068">
        <ele>727</ele>
        <time>2016-10-09T11:02:11Z</time>
      </trkpt>
      <trkpt lat="47.21242" lon="6.61068">
        <ele>728</ele>
        <time>2016-10-09T11:02:17Z</time>
      </trkpt>
      <trkpt lat="47.21254" lon="6.61064">
        <ele>733</ele>
        <time>2016-10-09T11:02:23Z</time>
      </trkpt>
      <trkpt lat="47.21266" lon="6.61062">
        <ele>734</ele>
        <time>2016-10-09T11:02:29Z</time>
      </trkpt>
      <trkpt lat="47.21276" lon="6.61058">
        <ele>735</ele>
        <time>2016-10-09T11:02:35Z</time>
      </trkpt>
      <trkpt lat="47.21286" lon="6.61054">
        <ele>736</ele>
        <time>2016-10-09T11:02:41Z</time>
      </trkpt>
      <trkpt lat="47.21296" lon="6.6105">
        <ele>737</ele>
        <time>2016-10-09T11:02:47Z</time>
      </trkpt>
      <trkpt lat="47.21306" lon="6.61044">
        <ele>738</ele>
        <time>2016-10-09T11:02:53Z</time>
      </trkpt>
      <trkpt lat="47.21317" lon="6.61042">
        <ele>739</ele>
        <time>2016-10-09T11:03:01Z</time>
      </trkpt>
      <trkpt lat="47.21328" lon="6.61041">
        <ele>739</ele>
        <time>2016-10-09T11:03:09Z</time>
      </trkpt>
      <trkpt lat="47.21338" lon="6.61041">
        <ele>749</ele>
        <time>2016-10-09T11:03:15Z</time>
      </trkpt>
      <trkpt lat="47.21346" lon="6.61045">
        <ele>749</ele>
        <time>2016-10-09T11:03:21Z</time>
      </trkpt>
      <trkpt lat="47.21357" lon="6.61052">
        <ele>750</ele>
        <time>2016-10-09T11:03:29Z</time>
      </trkpt>
      <trkpt lat="47.21365" lon="6.61058">
        <ele>750</ele>
        <time>2016-10-09T11:03:35Z</time>
      </trkpt>
      <trkpt lat="47.21374" lon="6.61064">
        <ele>751</ele>
        <time>2016-10-09T11:03:41Z</time>
      </trkpt>
      <trkpt lat="47.21382" lon="6.61073">
        <ele>752</ele>
        <time>2016-10-09T11:03:47Z</time>
      </trkpt>
      <trkpt lat="47.21391" lon="6.61081">
        <ele>753</ele>
        <time>2016-10-09T11:03:53Z</time>
      </trkpt>
      <trkpt lat="47.21403" lon="6.61088">
        <ele>752</ele>
        <time>2016-10-09T11:03:59Z</time>
      </trkpt>
      <trkpt lat="47.21414" lon="6.61097">
        <ele>753</ele>
        <time>2016-10-09T11:04:05Z</time>
      </trkpt>
      <trkpt lat="47.21425" lon="6.61106">
        <ele>761</ele>
        <time>2016-10-09T11:04:12Z</time>
      </trkpt>
      <trkpt lat="47.21436" lon="6.61116">
        <ele>762</ele>
        <time>2016-10-09T11:04:18Z</time>
      </trkpt>
      <trkpt lat="47.21444" lon="6.61123">
        <ele>762</ele>
        <time>2016-10-09T11:04:22Z</time>
      </trkpt>
      <trkpt lat="47.21451" lon="6.61131">
        <ele>762</ele>
        <time>2016-10-09T11:04:26Z</time>
      </trkpt>
      <trkpt lat="47.21458" lon="6.61141">
        <ele>763</ele>
        <time>2016-10-09T11:04:30Z</time>
      </trkpt>
      <trkpt lat="47.21466" lon="6.61148">
        <ele>763</ele>
        <time>2016-10-09T11:04:34Z</time>
      </trkpt>
      <trkpt lat="47.21475" lon="6.61162">
        <ele>764</ele>
        <time>2016-10-09T11:04:40Z</time>
      </trkpt>
      <trkpt lat="47.21481" lon="6.61173">
        <ele>761</ele>
        <time>2016-10-09T11:04:44Z</time>
      </trkpt>
      <trkpt lat="47.21488" lon="6.61183">
        <ele>761</ele>
        <time>2016-10-09T11:04:48Z</time>
      </trkpt>
      <trkpt lat="47.21494" lon="6.61195">
        <ele>760</ele>
        <time>2016-10-09T11:04:52Z</time>
      </trkpt>
      <trkpt lat="47.21503" lon="6.61208">
        <ele>770</ele>
        <time>2016-10-09T11:04:56Z</time>
      </trkpt>
      <trkpt lat="47.21509" lon="6.61219">
        <ele>770</ele>
        <time>2016-10-09T11:05:00Z</time>
      </trkpt>
      <trkpt lat="47.21515" lon="6.61231">
        <ele>769</ele>
        <time>2016-10-09T11:05:04Z</time>
      </trkpt>
      <trkpt lat="47.21525" lon="6.61247">
        <ele>769</ele>
        <time>2016-10-09T11:05:10Z</time>
      </trkpt>
      <trkpt lat="47.21533" lon="6.61257">
        <ele>765</ele>
        <time>2016-10-09T11:05:14Z</time>
      </trkpt>
      <trkpt lat="47.2154" lon="6.61265">
        <ele>766</ele>
        <time>2016-10-09T11:06:43Z</time>
      </trkpt>
      <trkpt lat="47.21547" lon="6.61279">
        <ele>767</ele>
        <time>2016-10-09T11:06:46Z</time>
      </trkpt>
      <trkpt lat="47.21557" lon="6.61286">
        <ele>767</ele>
        <time>2016-10-09T11:06:51Z</time>
      </trkpt>
      <trkpt lat="47.21567" lon="6.61299">
        <ele>767</ele>
        <time>2016-10-09T11:06:55Z</time>
      </trkpt>
      <trkpt lat="47.21579" lon="6.61311">
        <ele>768</ele>
        <time>2016-10-09T11:06:59Z</time>
      </trkpt>
      <trkpt lat="47.21592" lon="6.61321">
        <ele>776</ele>
        <time>2016-10-09T11:07:03Z</time>
      </trkpt>
      <trkpt lat="47.21604" lon="6.61332">
        <ele>778</ele>
        <time>2016-10-09T11:07:07Z</time>
      </trkpt>
      <trkpt lat="47.21619" lon="6.61343">
        <ele>775</ele>
        <time>2016-10-09T11:07:11Z</time>
      </trkpt>
      <trkpt lat="47.21631" lon="6.61347">
        <ele>777</ele>
        <time>2016-10-09T11:07:15Z</time>
      </trkpt>
      <trkpt lat="47.2164" lon="6.61351">
        <ele>778</ele>
        <time>2016-10-09T11:07:19Z</time>
      </trkpt>
      <trkpt lat="47.2165" lon="6.61352">
        <ele>780</ele>
        <time>2016-10-09T11:07:23Z</time>
      </trkpt>
      <trkpt lat="47.21655" lon="6.61339">
        <ele>783</ele>
        <time>2016-10-09T11:09:39Z</time>
      </trkpt>
      <trkpt lat="47.21652" lon="6.61323">
        <ele>786</ele>
        <time>2016-10-09T11:09:45Z</time>
      </trkpt>
      <trkpt lat="47.2165" lon="6.61309">
        <ele>786</ele>
        <time>2016-10-09T11:09:51Z</time>
      </trkpt>
      <trkpt lat="47.21653" lon="6.6129">
        <ele>787</ele>
        <time>2016-10-09T11:09:57Z</time>
      </trkpt>
      <trkpt lat="47.21664" lon="6.6129">
        <ele>788</ele>
        <time>2016-10-09T11:10:05Z</time>
      </trkpt>
      <trkpt lat="47.21673" lon="6.61296">
        <ele>798</ele>
        <time>2016-10-09T11:10:11Z</time>
      </trkpt>
      <trkpt lat="47.21682" lon="6.61301">
        <ele>798</ele>
        <time>2016-10-09T11:10:17Z</time>
      </trkpt>
      <trkpt lat="47.21692" lon="6.61303">
        <ele>799</ele>
        <time>2016-10-09T11:10:23Z</time>
      </trkpt>
      <trkpt lat="47.21701" lon="6.61304">
        <ele>800</ele>
        <time>2016-10-09T11:10:29Z</time>
      </trkpt>
      <trkpt lat="47.2171" lon="6.61303">
        <ele>801</ele>
        <time>2016-10-09T11:10:35Z</time>
      </trkpt>
      <trkpt lat="47.2172" lon="6.61299">
        <ele>802</ele>
        <time>2016-10-09T11:10:41Z</time>
      </trkpt>
      <trkpt lat="47.21728" lon="6.61294">
        <ele>802</ele>
        <time>2016-10-09T11:10:47Z</time>
      </trkpt>
      <trkpt lat="47.21736" lon="6.61287">
        <ele>803</ele>
        <time>2016-10-09T11:10:53Z</time>
      </trkpt>
      <trkpt lat="47.21746" lon="6.61272">
        <ele>805</ele>
        <time>2016-10-09T11:11:03Z</time>
      </trkpt>
      <trkpt lat="47.21749" lon="6.61258">
        <ele>808</ele>
        <time>2016-10-09T11:11:09Z</time>
      </trkpt>
      <trkpt lat="47.21756" lon="6.61242">
        <ele>811</ele>
        <time>2016-10-09T11:11:15Z</time>
      </trkpt>
      <trkpt lat="47.21761" lon="6.61228">
        <ele>811</ele>
        <time>2016-10-09T11:11:21Z</time>
      </trkpt>
      <trkpt lat="47.21773" lon="6.6122">
        <ele>811</ele>
        <time>2016-10-09T11:11:23Z</time>
      </trkpt>
      <trkpt lat="47.21781" lon="6.61212">
        <ele>811</ele>
        <time>2016-10-09T11:11:31Z</time>
      </trkpt>
      <trkpt lat="47.2179" lon="6.6121">
        <ele>811</ele>
        <time>2016-10-09T11:11:35Z</time>
      </trkpt>
      <trkpt lat="47.21801" lon="6.61207">
        <ele>810</ele>
        <time>2016-10-09T11:11:41Z</time>
      </trkpt>
      <trkpt lat="47.21812" lon="6.61224">
        <ele>809</ele>
        <time>2016-10-09T11:11:45Z</time>
      </trkpt>
      <trkpt lat="47.21826" lon="6.61241">
        <ele>808</ele>
        <time>2016-10-09T11:11:49Z</time>
      </trkpt>
      <trkpt lat="47.21833" lon="6.61254">
        <ele>806</ele>
        <time>2016-10-09T11:11:51Z</time>
      </trkpt>
      <trkpt lat="47.21839" lon="6.61263">
        <ele>805</ele>
        <time>2016-10-09T11:11:53Z</time>
      </trkpt>
      <trkpt lat="47.21847" lon="6.61274">
        <ele>805</ele>
        <time>2016-10-09T11:11:55Z</time>
      </trkpt>
      <trkpt lat="47.21853" lon="6.61284">
        <ele>805</ele>
        <time>2016-10-09T11:11:57Z</time>
      </trkpt>
      <trkpt lat="47.2186" lon="6.61293">
        <ele>805</ele>
        <time>2016-10-09T11:11:59Z</time>
      </trkpt>
      <trkpt lat="47.21869" lon="6.61305">
        <ele>805</ele>
        <time>2016-10-09T11:12:01Z</time>
      </trkpt>
      <trkpt lat="47.21882" lon="6.61314">
        <ele>804</ele>
        <time>2016-10-09T11:12:05Z</time>
      </trkpt>
      <trkpt lat="47.21895" lon="6.6132">
        <ele>803</ele>
        <time>2016-10-09T11:12:07Z</time>
      </trkpt>
      <trkpt lat="47.21906" lon="6.61327">
        <ele>803</ele>
        <time>2016-10-09T11:12:09Z</time>
      </trkpt>
      <trkpt lat="47.21921" lon="6.61328">
        <ele>800</ele>
        <time>2016-10-09T11:12:11Z</time>
      </trkpt>
      <trkpt lat="47.2193" lon="6.61336">
        <ele>802</ele>
        <time>2016-10-09T11:12:13Z</time>
      </trkpt>
      <trkpt lat="47.21932" lon="6.6132">
        <ele>797</ele>
        <time>2016-10-09T11:18:46Z</time>
      </trkpt>
      <trkpt lat="47.21927" lon="6.61296">
        <ele>795</ele>
        <time>2016-10-09T11:18:50Z</time>
      </trkpt>
      <trkpt lat="47.21923" lon="6.61281">
        <ele>795</ele>
        <time>2016-10-09T11:18:52Z</time>
      </trkpt>
      <trkpt lat="47.2192" lon="6.61264">
        <ele>794</ele>
        <time>2016-10-09T11:18:54Z</time>
      </trkpt>
      <trkpt lat="47.21915" lon="6.61245">
        <ele>796</ele>
        <time>2016-10-09T11:18:56Z</time>
      </trkpt>
      <trkpt lat="47.21912" lon="6.61224">
        <ele>797</ele>
        <time>2016-10-09T11:18:58Z</time>
      </trkpt>
      <trkpt lat="47.21912" lon="6.61201">
        <ele>796</ele>
        <time>2016-10-09T11:19:00Z</time>
      </trkpt>
      <trkpt lat="47.21914" lon="6.61177">
        <ele>792</ele>
        <time>2016-10-09T11:19:02Z</time>
      </trkpt>
      <trkpt lat="47.21918" lon="6.61152">
        <ele>787</ele>
        <time>2016-10-09T11:19:04Z</time>
      </trkpt>
      <trkpt lat="47.21923" lon="6.61126">
        <ele>786</ele>
        <time>2016-10-09T11:19:06Z</time>
      </trkpt>
      <trkpt lat="47.21931" lon="6.61101">
        <ele>786</ele>
        <time>2016-10-09T11:19:08Z</time>
      </trkpt>
      <trkpt lat="47.21939" lon="6.61075">
        <ele>786</ele>
        <time>2016-10-09T11:19:10Z</time>
      </trkpt>
      <trkpt lat="47.2195" lon="6.61049">
        <ele>785</ele>
        <time>2016-10-09T11:19:12Z</time>
      </trkpt>
      <trkpt lat="47.21963" lon="6.61027">
        <ele>785</ele>
        <time>2016-10-09T11:19:14Z</time>
      </trkpt>
      <trkpt lat="47.2198" lon="6.61006">
        <ele>784</ele>
        <time>2016-10-09T11:19:16Z</time>
      </trkpt>
      <trkpt lat="47.21994" lon="6.60985">
        <ele>784</ele>
        <time>2016-10-09T11:19:18Z</time>
      </trkpt>
      <trkpt lat="47.22005" lon="6.60964">
        <ele>784</ele>
        <time>2016-10-09T11:19:20Z</time>
      </trkpt>
      <trkpt lat="47.22011" lon="6.60943">
        <ele>785</ele>
        <time>2016-10-09T11:19:22Z</time>
      </trkpt>
      <trkpt lat="47.22017" lon="6.60927">
        <ele>785</ele>
        <time>2016-10-09T11:19:24Z</time>
      </trkpt>
      <trkpt lat="47.22022" lon="6.60913">
        <ele>788</ele>
        <time>2016-10-09T11:19:26Z</time>
      </trkpt>
      <trkpt lat="47.22027" lon="6.609">
        <ele>788</ele>
        <time>2016-10-09T11:19:28Z</time>
      </trkpt>
      <trkpt lat="47.2203" lon="6.60887">
        <ele>789</ele>
        <time>2016-10-09T11:19:30Z</time>
      </trkpt>
      <trkpt lat="47.22033" lon="6.60872">
        <ele>790</ele>
        <time>2016-10-09T11:19:32Z</time>
      </trkpt>
      <trkpt lat="47.22034" lon="6.60858">
        <ele>790</ele>
        <time>2016-10-09T11:19:34Z</time>
      </trkpt>
      <trkpt lat="47.22036" lon="6.60832">
        <ele>795</ele>
        <time>2016-10-09T11:19:38Z</time>
      </trkpt>
      <trkpt lat="47.22045" lon="6.60811">
        <ele>795</ele>
        <time>2016-10-09T11:19:42Z</time>
      </trkpt>
      <trkpt lat="47.22055" lon="6.6079">
        <ele>796</ele>
        <time>2016-10-09T11:19:46Z</time>
      </trkpt>
      <trkpt lat="47.22065" lon="6.60773">
        <ele>797</ele>
        <time>2016-10-09T11:19:50Z</time>
      </trkpt>
      <trkpt lat="47.22073" lon="6.60758">
        <ele>798</ele>
        <time>2016-10-09T11:19:54Z</time>
      </trkpt>
      <trkpt lat="47.22082" lon="6.60746">
        <ele>799</ele>
        <time>2016-10-09T11:19:58Z</time>
      </trkpt>
      <trkpt lat="47.22091" lon="6.60735">
        <ele>799</ele>
        <time>2016-10-09T11:20:02Z</time>
      </trkpt>
      <trkpt lat="47.221" lon="6.60722">
        <ele>799</ele>
        <time>2016-10-09T11:20:06Z</time>
      </trkpt>
      <trkpt lat="47.22108" lon="6.60708">
        <ele>800</ele>
        <time>2016-10-09T11:20:10Z</time>
      </trkpt>
      <trkpt lat="47.22114" lon="6.60692">
        <ele>800</ele>
        <time>2016-10-09T11:20:14Z</time>
      </trkpt>
      <trkpt lat="47.2212" lon="6.60674">
        <ele>800</ele>
        <time>2016-10-09T11:20:18Z</time>
      </trkpt>
      <trkpt lat="47.22125" lon="6.60657">
        <ele>803</ele>
        <time>2016-10-09T11:20:22Z</time>
      </trkpt>
      <trkpt lat="47.22131" lon="6.60641">
        <ele>804</ele>
        <time>2016-10-09T11:20:26Z</time>
      </trkpt>
      <trkpt lat="47.22137" lon="6.60624">
        <ele>804</ele>
        <time>2016-10-09T11:20:30Z</time>
      </trkpt>
      <trkpt lat="47.22142" lon="6.60608">
        <ele>804</ele>
        <time>2016-10-09T11:20:34Z</time>
      </trkpt>
      <trkpt lat="47.22148" lon="6.60591">
        <ele>805</ele>
        <time>2016-10-09T11:20:38Z</time>
      </trkpt>
      <trkpt lat="47.22155" lon="6.60576">
        <ele>806</ele>
        <time>2016-10-09T11:20:42Z</time>
      </trkpt>
      <trkpt lat="47.22163" lon="6.6056">
        <ele>807</ele>
        <time>2016-10-09T11:20:46Z</time>
      </trkpt>
      <trkpt lat="47.22171" lon="6.60544">
        <ele>805</ele>
        <time>2016-10-09T11:20:50Z</time>
      </trkpt>
      <trkpt lat="47.22181" lon="6.60526">
        <ele>806</ele>
        <time>2016-10-09T11:20:54Z</time>
      </trkpt>
      <trkpt lat="47.22192" lon="6.60511">
        <ele>806</ele>
        <time>2016-10-09T11:20:58Z</time>
      </trkpt>
      <trkpt lat="47.22202" lon="6.60494">
        <ele>808</ele>
        <time>2016-10-09T11:21:02Z</time>
      </trkpt>
      <trkpt lat="47.22211" lon="6.60476">
        <ele>808</ele>
        <time>2016-10-09T11:21:06Z</time>
      </trkpt>
      <trkpt lat="47.22221" lon="6.60458">
        <ele>808</ele>
        <time>2016-10-09T11:21:10Z</time>
      </trkpt>
      <trkpt lat="47.22231" lon="6.60438">
        <ele>808</ele>
        <time>2016-10-09T11:21:14Z</time>
      </trkpt>
      <trkpt lat="47.22239" lon="6.60421">
        <ele>808</ele>
        <time>2016-10-09T11:21:18Z</time>
      </trkpt>
      <trkpt lat="47.22245" lon="6.60408">
        <ele>809</ele>
        <time>2016-10-09T11:21:20Z</time>
      </trkpt>
      <trkpt lat="47.22253" lon="6.60384">
        <ele>807</ele>
        <time>2016-10-09T11:21:24Z</time>
      </trkpt>
      <trkpt lat="47.22258" lon="6.60367">
        <ele>808</ele>
        <time>2016-10-09T11:21:28Z</time>
      </trkpt>
      <trkpt lat="47.22261" lon="6.60346">
        <ele>809</ele>
        <time>2016-10-09T11:21:32Z</time>
      </trkpt>
      <trkpt lat="47.22264" lon="6.60333">
        <ele>810</ele>
        <time>2016-10-09T11:21:34Z</time>
      </trkpt>
      <trkpt lat="47.22267" lon="6.60319">
        <ele>810</ele>
        <time>2016-10-09T11:21:36Z</time>
      </trkpt>
      <trkpt lat="47.22272" lon="6.60302">
        <ele>809</ele>
        <time>2016-10-09T11:21:38Z</time>
      </trkpt>
      <trkpt lat="47.22276" lon="6.60286">
        <ele>809</ele>
        <time>2016-10-09T11:21:40Z</time>
      </trkpt>
      <trkpt lat="47.22281" lon="6.60269">
        <ele>809</ele>
        <time>2016-10-09T11:21:42Z</time>
      </trkpt>
      <trkpt lat="47.22285" lon="6.60251">
        <ele>809</ele>
        <time>2016-10-09T11:21:44Z</time>
      </trkpt>
      <trkpt lat="47.2229" lon="6.6023">
        <ele>809</ele>
        <time>2016-10-09T11:21:46Z</time>
      </trkpt>
      <trkpt lat="47.22294" lon="6.60212">
        <ele>809</ele>
        <time>2016-10-09T11:21:48Z</time>
      </trkpt>
      <trkpt lat="47.22295" lon="6.60193">
        <ele>809</ele>
        <time>2016-10-09T11:21:50Z</time>
      </trkpt>
      <trkpt lat="47.22292" lon="6.60174">
        <ele>809</ele>
        <time>2016-10-09T11:21:52Z</time>
      </trkpt>
      <trkpt lat="47.22287" lon="6.60156">
        <ele>809</ele>
        <time>2016-10-09T11:21:54Z</time>
      </trkpt>
      <trkpt lat="47.22282" lon="6.60137">
        <ele>808</ele>
        <time>2016-10-09T11:21:56Z</time>
      </trkpt>
      <trkpt lat="47.22277" lon="6.60119">
        <ele>808</ele>
        <time>2016-10-09T11:21:58Z</time>
      </trkpt>
      <trkpt lat="47.22274" lon="6.60105">
        <ele>808</ele>
        <time>2016-10-09T11:22:00Z</time>
      </trkpt>
      <trkpt lat="47.22268" lon="6.60086">
        <ele>808</ele>
        <time>2016-10-09T11:22:02Z</time>
      </trkpt>
      <trkpt lat="47.22263" lon="6.60067">
        <ele>806</ele>
        <time>2016-10-09T11:22:04Z</time>
      </trkpt>
      <trkpt lat="47.22253" lon="6.6003">
        <ele>806</ele>
        <time>2016-10-09T11:22:09Z</time>
      </trkpt>
      <trkpt lat="47.2224" lon="6.60011">
        <ele>808</ele>
        <time>2016-10-09T11:22:10Z</time>
      </trkpt>
      <trkpt lat="47.22219" lon="6.5995">
        <ele>806</ele>
        <time>2016-10-09T11:22:16Z</time>
      </trkpt>
      <trkpt lat="47.22209" lon="6.59944">
        <ele>807</ele>
        <time>2016-10-09T11:22:18Z</time>
      </trkpt>
      <trkpt lat="47.222" lon="6.59936">
        <ele>808</ele>
        <time>2016-10-09T11:22:20Z</time>
      </trkpt>
      <trkpt lat="47.22193" lon="6.59922">
        <ele>808</ele>
        <time>2016-10-09T11:22:22Z</time>
      </trkpt>
      <trkpt lat="47.22181" lon="6.59916">
        <ele>808</ele>
        <time>2016-10-09T11:22:24Z</time>
      </trkpt>
      <trkpt lat="47.22168" lon="6.59896">
        <ele>806</ele>
        <time>2016-10-09T11:22:30Z</time>
      </trkpt>
      <trkpt lat="47.22163" lon="6.59884">
        <ele>813</ele>
        <time>2016-10-09T11:22:32Z</time>
      </trkpt>
      <trkpt lat="47.22158" lon="6.59871">
        <ele>813</ele>
        <time>2016-10-09T11:22:34Z</time>
      </trkpt>
      <trkpt lat="47.22151" lon="6.59847">
        <ele>811</ele>
        <time>2016-10-09T11:22:38Z</time>
      </trkpt>
      <trkpt lat="47.22146" lon="6.59826">
        <ele>809</ele>
        <time>2016-10-09T11:22:42Z</time>
      </trkpt>
      <trkpt lat="47.22142" lon="6.5981">
        <ele>810</ele>
        <time>2016-10-09T11:22:44Z</time>
      </trkpt>
      <trkpt lat="47.22129" lon="6.5979">
        <ele>811</ele>
        <time>2016-10-09T11:22:48Z</time>
      </trkpt>
      <trkpt lat="47.22122" lon="6.59779">
        <ele>812</ele>
        <time>2016-10-09T11:22:50Z</time>
      </trkpt>
      <trkpt lat="47.22113" lon="6.5977">
        <ele>813</ele>
        <time>2016-10-09T11:22:52Z</time>
      </trkpt>
      <trkpt lat="47.22107" lon="6.59761">
        <ele>815</ele>
        <time>2016-10-09T11:22:54Z</time>
      </trkpt>
      <trkpt lat="47.22099" lon="6.59753">
        <ele>817</ele>
        <time>2016-10-09T11:22:56Z</time>
      </trkpt>
      <trkpt lat="47.22086" lon="6.59739">
        <ele>816</ele>
        <time>2016-10-09T11:23:00Z</time>
      </trkpt>
      <trkpt lat="47.22072" lon="6.59727">
        <ele>823</ele>
        <time>2016-10-09T11:23:04Z</time>
      </trkpt>
      <trkpt lat="47.22059" lon="6.59714">
        <ele>823</ele>
        <time>2016-10-09T11:23:08Z</time>
      </trkpt>
      <trkpt lat="47.22045" lon="6.59701">
        <ele>823</ele>
        <time>2016-10-09T11:23:12Z</time>
      </trkpt>
      <trkpt lat="47.22033" lon="6.59691">
        <ele>823</ele>
        <time>2016-10-09T11:23:16Z</time>
      </trkpt>
      <trkpt lat="47.22021" lon="6.59683">
        <ele>823</ele>
        <time>2016-10-09T11:23:20Z</time>
      </trkpt>
      <trkpt lat="47.2201" lon="6.59675">
        <ele>822</ele>
        <time>2016-10-09T11:23:24Z</time>
      </trkpt>
      <trkpt lat="47.22001" lon="6.59666">
        <ele>820</ele>
        <time>2016-10-09T11:23:28Z</time>
      </trkpt>
      <trkpt lat="47.22006" lon="6.59652">
        <ele>815</ele>
        <time>2016-10-09T11:23:32Z</time>
      </trkpt>
      <trkpt lat="47.22023" lon="6.5963">
        <ele>810</ele>
        <time>2016-10-09T11:23:36Z</time>
      </trkpt>
      <trkpt lat="47.22037" lon="6.59615">
        <ele>808</ele>
        <time>2016-10-09T11:23:38Z</time>
      </trkpt>
      <trkpt lat="47.22051" lon="6.59597">
        <ele>806</ele>
        <time>2016-10-09T11:23:40Z</time>
      </trkpt>
      <trkpt lat="47.22064" lon="6.59582">
        <ele>798</ele>
        <time>2016-10-09T11:23:42Z</time>
      </trkpt>
      <trkpt lat="47.22074" lon="6.59557">
        <ele>798</ele>
        <time>2016-10-09T11:23:44Z</time>
      </trkpt>
      <trkpt lat="47.22089" lon="6.59532">
        <ele>790</ele>
        <time>2016-10-09T11:23:46Z</time>
      </trkpt>
      <trkpt lat="47.22098" lon="6.59504">
        <ele>790</ele>
        <time>2016-10-09T11:23:48Z</time>
      </trkpt>
      <trkpt lat="47.22104" lon="6.59475">
        <ele>789</ele>
        <time>2016-10-09T11:23:50Z</time>
      </trkpt>
      <trkpt lat="47.22109" lon="6.59461">
        <ele>789</ele>
        <time>2016-10-09T11:23:52Z</time>
      </trkpt>
      <trkpt lat="47.22125" lon="6.59454">
        <ele>789</ele>
        <time>2016-10-09T11:23:56Z</time>
      </trkpt>
      <trkpt lat="47.22143" lon="6.5945">
        <ele>788</ele>
        <time>2016-10-09T11:24:00Z</time>
      </trkpt>
      <trkpt lat="47.22154" lon="6.59448">
        <ele>788</ele>
        <time>2016-10-09T11:24:02Z</time>
      </trkpt>
      <trkpt lat="47.22165" lon="6.59445">
        <ele>788</ele>
        <time>2016-10-09T11:24:04Z</time>
      </trkpt>
      <trkpt lat="47.22176" lon="6.59444">
        <ele>785</ele>
        <time>2016-10-09T11:24:06Z</time>
      </trkpt>
      <trkpt lat="47.22188" lon="6.59444">
        <ele>785</ele>
        <time>2016-10-09T11:24:08Z</time>
      </trkpt>
      <trkpt lat="47.22199" lon="6.59444">
        <ele>785</ele>
        <time>2016-10-09T11:24:10Z</time>
      </trkpt>
      <trkpt lat="47.22211" lon="6.59437">
        <ele>784</ele>
        <time>2016-10-09T11:24:12Z</time>
      </trkpt>
      <trkpt lat="47.22216" lon="6.59425">
        <ele>784</ele>
        <time>2016-10-09T11:24:16Z</time>
      </trkpt>
      <trkpt lat="47.22219" lon="6.59408">
        <ele>787</ele>
        <time>2016-10-09T11:24:20Z</time>
      </trkpt>
      <trkpt lat="47.22222" lon="6.59395">
        <ele>788</ele>
        <time>2016-10-09T11:24:24Z</time>
      </trkpt>
      <trkpt lat="47.22226" lon="6.59381">
        <ele>789</ele>
        <time>2016-10-09T11:24:28Z</time>
      </trkpt>
      <trkpt lat="47.22229" lon="6.59366">
        <ele>790</ele>
        <time>2016-10-09T11:24:34Z</time>
      </trkpt>
      <trkpt lat="47.22234" lon="6.59346">
        <ele>791</ele>
        <time>2016-10-09T11:24:40Z</time>
      </trkpt>
      <trkpt lat="47.22238" lon="6.59331">
        <ele>795</ele>
        <time>2016-10-09T11:24:44Z</time>
      </trkpt>
      <trkpt lat="47.2224" lon="6.59315">
        <ele>797</ele>
        <time>2016-10-09T11:24:48Z</time>
      </trkpt>
      <trkpt lat="47.22242" lon="6.59299">
        <ele>798</ele>
        <time>2016-10-09T11:24:52Z</time>
      </trkpt>
      <trkpt lat="47.22244" lon="6.59283">
        <ele>800</ele>
        <time>2016-10-09T11:24:56Z</time>
      </trkpt>
      <trkpt lat="47.22247" lon="6.59268">
        <ele>801</ele>
        <time>2016-10-09T11:25:02Z</time>
      </trkpt>
      <trkpt lat="47.22249" lon="6.59252">
        <ele>802</ele>
        <time>2016-10-09T11:25:08Z</time>
      </trkpt>
      <trkpt lat="47.2225" lon="6.59236">
        <ele>806</ele>
        <time>2016-10-09T11:25:16Z</time>
      </trkpt>
      <trkpt lat="47.22247" lon="6.59221">
        <ele>808</ele>
        <time>2016-10-09T11:25:24Z</time>
      </trkpt>
      <trkpt lat="47.22246" lon="6.59208">
        <ele>810</ele>
        <time>2016-10-09T11:25:32Z</time>
      </trkpt>
      <trkpt lat="47.22247" lon="6.59188">
        <ele>810</ele>
        <time>2016-10-09T11:25:40Z</time>
      </trkpt>
      <trkpt lat="47.2225" lon="6.59172">
        <ele>809</ele>
        <time>2016-10-09T11:25:48Z</time>
      </trkpt>
      <trkpt lat="47.22252" lon="6.59155">
        <ele>807</ele>
        <time>2016-10-09T11:25:52Z</time>
      </trkpt>
      <trkpt lat="47.22253" lon="6.59141">
        <ele>807</ele>
        <time>2016-10-09T11:25:58Z</time>
      </trkpt>
      <trkpt lat="47.22259" lon="6.59123">
        <ele>808</ele>
        <time>2016-10-09T11:26:06Z</time>
      </trkpt>
      <trkpt lat="47.22262" lon="6.59106">
        <ele>811</ele>
        <time>2016-10-09T11:26:12Z</time>
      </trkpt>
      <trkpt lat="47.22265" lon="6.59092">
        <ele>812</ele>
        <time>2016-10-09T11:26:18Z</time>
      </trkpt>
      <trkpt lat="47.22267" lon="6.59075">
        <ele>818</ele>
        <time>2016-10-09T11:26:26Z</time>
      </trkpt>
      <trkpt lat="47.22271" lon="6.59059">
        <ele>818</ele>
        <time>2016-10-09T11:26:32Z</time>
      </trkpt>
      <trkpt lat="47.22273" lon="6.59044">
        <ele>819</ele>
        <time>2016-10-09T11:26:38Z</time>
      </trkpt>
      <trkpt lat="47.22276" lon="6.59028">
        <ele>820</ele>
        <time>2016-10-09T11:26:44Z</time>
      </trkpt>
      <trkpt lat="47.22278" lon="6.59014">
        <ele>821</ele>
        <time>2016-10-09T11:26:48Z</time>
      </trkpt>
      <trkpt lat="47.22281" lon="6.59">
        <ele>821</ele>
        <time>2016-10-09T11:26:52Z</time>
      </trkpt>
      <trkpt lat="47.22284" lon="6.58985">
        <ele>825</ele>
        <time>2016-10-09T11:26:58Z</time>
      </trkpt>
      <trkpt lat="47.22285" lon="6.58969">
        <ele>825</ele>
        <time>2016-10-09T11:27:04Z</time>
      </trkpt>
      <trkpt lat="47.22281" lon="6.58955">
        <ele>825</ele>
        <time>2016-10-09T11:27:10Z</time>
      </trkpt>
      <trkpt lat="47.22276" lon="6.5894">
        <ele>826</ele>
        <time>2016-10-09T11:27:16Z</time>
      </trkpt>
      <trkpt lat="47.22271" lon="6.58928">
        <ele>826</ele>
        <time>2016-10-09T11:27:24Z</time>
      </trkpt>
      <trkpt lat="47.22272" lon="6.58913">
        <ele>826</ele>
        <time>2016-10-09T11:27:28Z</time>
      </trkpt>
      <trkpt lat="47.2227" lon="6.58895">
        <ele>825</ele>
        <time>2016-10-09T11:27:34Z</time>
      </trkpt>
      <trkpt lat="47.22272" lon="6.58875">
        <ele>824</ele>
        <time>2016-10-09T11:27:38Z</time>
      </trkpt>
      <trkpt lat="47.22272" lon="6.58862">
        <ele>824</ele>
        <time>2016-10-09T11:27:40Z</time>
      </trkpt>
      <trkpt lat="47.2227" lon="6.58838">
        <ele>824</ele>
        <time>2016-10-09T11:27:44Z</time>
      </trkpt>
      <trkpt lat="47.22269" lon="6.58816">
        <ele>821</ele>
        <time>2016-10-09T11:27:48Z</time>
      </trkpt>
      <trkpt lat="47.2227" lon="6.58801">
        <ele>819</ele>
        <time>2016-10-09T11:27:50Z</time>
      </trkpt>
      <trkpt lat="47.22274" lon="6.58785">
        <ele>819</ele>
        <time>2016-10-09T11:27:52Z</time>
      </trkpt>
      <trkpt lat="47.22274" lon="6.58767">
        <ele>818</ele>
        <time>2016-10-09T11:27:56Z</time>
      </trkpt>
      <trkpt lat="47.22266" lon="6.58761">
        <ele>819</ele>
        <time>2016-10-09T11:28:02Z</time>
      </trkpt>
      <trkpt lat="47.22255" lon="6.58754">
        <ele>819</ele>
        <time>2016-10-09T11:28:24Z</time>
      </trkpt>
      <trkpt lat="47.22242" lon="6.58752">
        <ele>822</ele>
        <time>2016-10-09T11:28:30Z</time>
      </trkpt>
      <trkpt lat="47.22229" lon="6.58746">
        <ele>819</ele>
        <time>2016-10-09T11:28:34Z</time>
      </trkpt>
      <trkpt lat="47.22217" lon="6.58742">
        <ele>820</ele>
        <time>2016-10-09T11:28:38Z</time>
      </trkpt>
      <trkpt lat="47.22204" lon="6.58739">
        <ele>820</ele>
        <time>2016-10-09T11:28:42Z</time>
      </trkpt>
      <trkpt lat="47.22193" lon="6.58741">
        <ele>821</ele>
        <time>2016-10-09T11:28:46Z</time>
      </trkpt>
      <trkpt lat="47.2218" lon="6.58746">
        <ele>823</ele>
        <time>2016-10-09T11:28:50Z</time>
      </trkpt>
      <trkpt lat="47.22163" lon="6.58755">
        <ele>828</ele>
        <time>2016-10-09T11:28:54Z</time>
      </trkpt>
      <trkpt lat="47.22152" lon="6.58765">
        <ele>830</ele>
        <time>2016-10-09T11:28:58Z</time>
      </trkpt>
      <trkpt lat="47.22143" lon="6.58773">
        <ele>831</ele>
        <time>2016-10-09T11:29:02Z</time>
      </trkpt>
      <trkpt lat="47.22133" lon="6.58782">
        <ele>832</ele>
        <time>2016-10-09T11:29:06Z</time>
      </trkpt>
      <trkpt lat="47.22123" lon="6.58784">
        <ele>833</ele>
        <time>2016-10-09T11:29:10Z</time>
      </trkpt>
      <trkpt lat="47.22115" lon="6.58793">
        <ele>833</ele>
        <time>2016-10-09T11:29:14Z</time>
      </trkpt>
      <trkpt lat="47.22104" lon="6.58805">
        <ele>834</ele>
        <time>2016-10-09T11:29:18Z</time>
      </trkpt>
      <trkpt lat="47.22088" lon="6.58809">
        <ele>835</ele>
        <time>2016-10-09T11:29:22Z</time>
      </trkpt>
      <trkpt lat="47.22074" lon="6.58814">
        <ele>838</ele>
        <time>2016-10-09T11:29:26Z</time>
      </trkpt>
      <trkpt lat="47.22057" lon="6.58815">
        <ele>838</ele>
        <time>2016-10-09T11:29:30Z</time>
      </trkpt>
      <trkpt lat="47.22049" lon="6.5882">
        <ele>838</ele>
        <time>2016-10-09T11:29:34Z</time>
      </trkpt>
      <trkpt lat="47.2204" lon="6.58822">
        <ele>838</ele>
        <time>2016-10-09T11:29:38Z</time>
      </trkpt>
      <trkpt lat="47.22024" lon="6.58812">
        <ele>838</ele>
        <time>2016-10-09T11:29:42Z</time>
      </trkpt>
      <trkpt lat="47.22014" lon="6.58806">
        <ele>838</ele>
        <time>2016-10-09T11:29:44Z</time>
      </trkpt>
      <trkpt lat="47.22004" lon="6.58801">
        <ele>838</ele>
        <time>2016-10-09T11:29:46Z</time>
      </trkpt>
      <trkpt lat="47.21991" lon="6.58792">
        <ele>837</ele>
        <time>2016-10-09T11:29:50Z</time>
      </trkpt>
      <trkpt lat="47.21978" lon="6.58789">
        <ele>836</ele>
        <time>2016-10-09T11:29:52Z</time>
      </trkpt>
      <trkpt lat="47.21967" lon="6.58789">
        <ele>837</ele>
        <time>2016-10-09T11:29:54Z</time>
      </trkpt>
      <trkpt lat="47.21948" lon="6.58785">
        <ele>836</ele>
        <time>2016-10-09T11:29:58Z</time>
      </trkpt>
      <trkpt lat="47.21936" lon="6.58782">
        <ele>836</ele>
        <time>2016-10-09T11:30:00Z</time>
      </trkpt>
      <trkpt lat="47.21925" lon="6.5877">
        <ele>834</ele>
        <time>2016-10-09T11:30:02Z</time>
      </trkpt>
      <trkpt lat="47.21913" lon="6.58765">
        <ele>836</ele>
        <time>2016-10-09T11:30:04Z</time>
      </trkpt>
      <trkpt lat="47.21902" lon="6.58757">
        <ele>837</ele>
        <time>2016-10-09T11:30:06Z</time>
      </trkpt>
      <trkpt lat="47.21893" lon="6.58747">
        <ele>834</ele>
        <time>2016-10-09T11:30:08Z</time>
      </trkpt>
      <trkpt lat="47.21883" lon="6.58736">
        <ele>835</ele>
        <time>2016-10-09T11:30:10Z</time>
      </trkpt>
      <trkpt lat="47.21873" lon="6.58726">
        <ele>836</ele>
        <time>2016-10-09T11:30:12Z</time>
      </trkpt>
      <trkpt lat="47.21864" lon="6.58712">
        <ele>836</ele>
        <time>2016-10-09T11:30:14Z</time>
      </trkpt>
      <trkpt lat="47.21854" lon="6.58694">
        <ele>835</ele>
        <time>2016-10-09T11:30:16Z</time>
      </trkpt>
      <trkpt lat="47.21839" lon="6.58676">
        <ele>835</ele>
        <time>2016-10-09T11:30:20Z</time>
      </trkpt>
      <trkpt lat="47.2183" lon="6.58662">
        <ele>835</ele>
        <time>2016-10-09T11:30:22Z</time>
      </trkpt>
      <trkpt lat="47.21822" lon="6.58649">
        <ele>837</ele>
        <time>2016-10-09T11:30:24Z</time>
      </trkpt>
      <trkpt lat="47.21812" lon="6.58634">
        <ele>838</ele>
        <time>2016-10-09T11:30:26Z</time>
      </trkpt>
      <trkpt lat="47.21803" lon="6.58621">
        <ele>838</ele>
        <time>2016-10-09T11:30:28Z</time>
      </trkpt>
      <trkpt lat="47.21793" lon="6.58605">
        <ele>838</ele>
        <time>2016-10-09T11:30:30Z</time>
      </trkpt>
      <trkpt lat="47.21783" lon="6.58592">
        <ele>838</ele>
        <time>2016-10-09T11:30:32Z</time>
      </trkpt>
      <trkpt lat="47.21771" lon="6.58577">
        <ele>841</ele>
        <time>2016-10-09T11:30:36Z</time>
      </trkpt>
      <trkpt lat="47.21758" lon="6.58554">
        <ele>842</ele>
        <time>2016-10-09T11:30:41Z</time>
      </trkpt>
      <trkpt lat="47.21751" lon="6.5854">
        <ele>843</ele>
        <time>2016-10-09T11:30:42Z</time>
      </trkpt>
      <trkpt lat="47.21739" lon="6.58518">
        <ele>847</ele>
        <time>2016-10-09T11:30:46Z</time>
      </trkpt>
      <trkpt lat="47.21733" lon="6.58507">
        <ele>847</ele>
        <time>2016-10-09T11:30:48Z</time>
      </trkpt>
      <trkpt lat="47.21722" lon="6.58492">
        <ele>850</ele>
        <time>2016-10-09T11:30:52Z</time>
      </trkpt>
      <trkpt lat="47.21714" lon="6.58477">
        <ele>851</ele>
        <time>2016-10-09T11:30:56Z</time>
      </trkpt>
      <trkpt lat="47.21707" lon="6.5846">
        <ele>852</ele>
        <time>2016-10-09T11:31:00Z</time>
      </trkpt>
      <trkpt lat="47.21699" lon="6.58441">
        <ele>852</ele>
        <time>2016-10-09T11:31:04Z</time>
      </trkpt>
      <trkpt lat="47.21692" lon="6.58419">
        <ele>852</ele>
        <time>2016-10-09T11:31:08Z</time>
      </trkpt>
      <trkpt lat="47.21685" lon="6.58399">
        <ele>854</ele>
        <time>2016-10-09T11:31:12Z</time>
      </trkpt>
      <trkpt lat="47.21677" lon="6.5838">
        <ele>854</ele>
        <time>2016-10-09T11:31:16Z</time>
      </trkpt>
      <trkpt lat="47.21671" lon="6.5836">
        <ele>855</ele>
        <time>2016-10-09T11:31:20Z</time>
      </trkpt>
      <trkpt lat="47.21664" lon="6.58342">
        <ele>855</ele>
        <time>2016-10-09T11:31:24Z</time>
      </trkpt>
      <trkpt lat="47.21658" lon="6.58325">
        <ele>855</ele>
        <time>2016-10-09T11:31:28Z</time>
      </trkpt>
      <trkpt lat="47.21651" lon="6.58307">
        <ele>856</ele>
        <time>2016-10-09T11:31:32Z</time>
      </trkpt>
      <trkpt lat="47.21643" lon="6.58288">
        <ele>857</ele>
        <time>2016-10-09T11:31:36Z</time>
      </trkpt>
      <trkpt lat="47.21636" lon="6.5827">
        <ele>857</ele>
        <time>2016-10-09T11:31:40Z</time>
      </trkpt>
      <trkpt lat="47.2163" lon="6.58253">
        <ele>857</ele>
        <time>2016-10-09T11:31:44Z</time>
      </trkpt>
      <trkpt lat="47.21623" lon="6.58236">
        <ele>858</ele>
        <time>2016-10-09T11:31:48Z</time>
      </trkpt>
      <trkpt lat="47.21618" lon="6.58218">
        <ele>859</ele>
        <time>2016-10-09T11:31:52Z</time>
      </trkpt>
      <trkpt lat="47.21612" lon="6.58201">
        <ele>859</ele>
        <time>2016-10-09T11:31:56Z</time>
      </trkpt>
      <trkpt lat="47.21606" lon="6.58185">
        <ele>859</ele>
        <time>2016-10-09T11:32:00Z</time>
      </trkpt>
      <trkpt lat="47.21599" lon="6.58169">
        <ele>859</ele>
        <time>2016-10-09T11:32:04Z</time>
      </trkpt>
      <trkpt lat="47.21592" lon="6.58154">
        <ele>860</ele>
        <time>2016-10-09T11:32:08Z</time>
      </trkpt>
      <trkpt lat="47.21587" lon="6.58139">
        <ele>862</ele>
        <time>2016-10-09T11:32:12Z</time>
      </trkpt>
      <trkpt lat="47.21584" lon="6.58121">
        <ele>862</ele>
        <time>2016-10-09T11:32:18Z</time>
      </trkpt>
      <trkpt lat="47.21582" lon="6.58103">
        <ele>863</ele>
        <time>2016-10-09T11:32:24Z</time>
      </trkpt>
      <trkpt lat="47.21581" lon="6.58089">
        <ele>863</ele>
        <time>2016-10-09T11:32:28Z</time>
      </trkpt>
      <trkpt lat="47.21579" lon="6.58071">
        <ele>863</ele>
        <time>2016-10-09T11:32:34Z</time>
      </trkpt>
      <trkpt lat="47.21578" lon="6.58057">
        <ele>864</ele>
        <time>2016-10-09T11:32:38Z</time>
      </trkpt>
      <trkpt lat="47.21574" lon="6.5804">
        <ele>865</ele>
        <time>2016-10-09T11:32:44Z</time>
      </trkpt>
      <trkpt lat="47.21568" lon="6.58026">
        <ele>865</ele>
        <time>2016-10-09T11:32:50Z</time>
      </trkpt>
      <trkpt lat="47.2156" lon="6.58013">
        <ele>865</ele>
        <time>2016-10-09T11:33:06Z</time>
      </trkpt>
      <trkpt lat="47.21551" lon="6.58005">
        <ele>865</ele>
        <time>2016-10-09T11:33:20Z</time>
      </trkpt>
      <trkpt lat="47.21545" lon="6.57996">
        <ele>865</ele>
        <time>2016-10-09T11:33:32Z</time>
      </trkpt>
      <trkpt lat="47.21541" lon="6.57982">
        <ele>865</ele>
        <time>2016-10-09T11:33:42Z</time>
      </trkpt>
      <trkpt lat="47.21534" lon="6.57972">
        <ele>865</ele>
        <time>2016-10-09T11:33:52Z</time>
      </trkpt>
      <trkpt lat="47.21535" lon="6.57956">
        <ele>865</ele>
        <time>2016-10-09T11:34:08Z</time>
      </trkpt>
      <trkpt lat="47.21535" lon="6.5794">
        <ele>865</ele>
        <time>2016-10-09T11:34:16Z</time>
      </trkpt>
      <trkpt lat="47.21529" lon="6.57926">
        <ele>866</ele>
        <time>2016-10-09T11:34:28Z</time>
      </trkpt>
      <trkpt lat="47.21526" lon="6.5791">
        <ele>866</ele>
        <time>2016-10-09T11:34:34Z</time>
      </trkpt>
      <trkpt lat="47.21523" lon="6.57898">
        <ele>867</ele>
        <time>2016-10-09T11:34:40Z</time>
      </trkpt>
      <trkpt lat="47.21517" lon="6.57888">
        <ele>867</ele>
        <time>2016-10-09T11:34:50Z</time>
      </trkpt>
      <trkpt lat="47.21516" lon="6.57873">
        <ele>867</ele>
        <time>2016-10-09T11:35:34Z</time>
      </trkpt>
      <trkpt lat="47.21511" lon="6.57861">
        <ele>867</ele>
        <time>2016-10-09T11:35:40Z</time>
      </trkpt>
      <trkpt lat="47.21503" lon="6.57846">
        <ele>867</ele>
        <time>2016-10-09T11:35:48Z</time>
      </trkpt>
      <trkpt lat="47.215" lon="6.57833">
        <ele>868</ele>
        <time>2016-10-09T11:35:52Z</time>
      </trkpt>
      <trkpt lat="47.21497" lon="6.57817">
        <ele>873</ele>
        <time>2016-10-09T11:35:58Z</time>
      </trkpt>
      <trkpt lat="47.21496" lon="6.57803">
        <ele>875</ele>
        <time>2016-10-09T11:36:04Z</time>
      </trkpt>
      <trkpt lat="47.21492" lon="6.57788">
        <ele>876</ele>
        <time>2016-10-09T11:36:12Z</time>
      </trkpt>
      <trkpt lat="47.21486" lon="6.57774">
        <ele>876</ele>
        <time>2016-10-09T11:36:18Z</time>
      </trkpt>
      <trkpt lat="47.21483" lon="6.57759">
        <ele>875</ele>
        <time>2016-10-09T11:36:26Z</time>
      </trkpt>
      <trkpt lat="47.21479" lon="6.57744">
        <ele>877</ele>
        <time>2016-10-09T11:36:34Z</time>
      </trkpt>
      <trkpt lat="47.21475" lon="6.57731">
        <ele>879</ele>
        <time>2016-10-09T11:36:42Z</time>
      </trkpt>
      <trkpt lat="47.21468" lon="6.57723">
        <ele>880</ele>
        <time>2016-10-09T11:36:58Z</time>
      </trkpt>
      <trkpt lat="47.21462" lon="6.57708">
        <ele>881</ele>
        <time>2016-10-09T11:37:12Z</time>
      </trkpt>
      <trkpt lat="47.21455" lon="6.57697">
        <ele>881</ele>
        <time>2016-10-09T11:37:26Z</time>
      </trkpt>
      <trkpt lat="47.21448" lon="6.57688">
        <ele>881</ele>
        <time>2016-10-09T11:37:34Z</time>
      </trkpt>
      <trkpt lat="47.21441" lon="6.57677">
        <ele>881</ele>
        <time>2016-10-09T11:37:40Z</time>
      </trkpt>
      <trkpt lat="47.21432" lon="6.5767">
        <ele>881</ele>
        <time>2016-10-09T11:37:46Z</time>
      </trkpt>
      <trkpt lat="47.21424" lon="6.57662">
        <ele>882</ele>
        <time>2016-10-09T11:37:50Z</time>
      </trkpt>
      <trkpt lat="47.21414" lon="6.57653">
        <ele>883</ele>
        <time>2016-10-09T11:37:56Z</time>
      </trkpt>
      <trkpt lat="47.21405" lon="6.57643">
        <ele>884</ele>
        <time>2016-10-09T11:38:06Z</time>
      </trkpt>
      <trkpt lat="47.21399" lon="6.57628">
        <ele>884</ele>
        <time>2016-10-09T11:38:10Z</time>
      </trkpt>
      <trkpt lat="47.21393" lon="6.57612">
        <ele>884</ele>
        <time>2016-10-09T11:38:14Z</time>
      </trkpt>
      <trkpt lat="47.21388" lon="6.57601">
        <ele>884</ele>
        <time>2016-10-09T11:38:52Z</time>
      </trkpt>
      <trkpt lat="47.21387" lon="6.57588">
        <ele>883</ele>
        <time>2016-10-09T11:39:54Z</time>
      </trkpt>
      <trkpt lat="47.21378" lon="6.5758">
        <ele>880</ele>
        <time>2016-10-09T11:41:26Z</time>
      </trkpt>
      <trkpt lat="47.21366" lon="6.57565">
        <ele>879</ele>
        <time>2016-10-09T11:41:30Z</time>
      </trkpt>
      <trkpt lat="47.21358" lon="6.57554">
        <ele>879</ele>
        <time>2016-10-09T11:41:32Z</time>
      </trkpt>
      <trkpt lat="47.21349" lon="6.57541">
        <ele>878</ele>
        <time>2016-10-09T11:41:34Z</time>
      </trkpt>
      <trkpt lat="47.21342" lon="6.57529">
        <ele>877</ele>
        <time>2016-10-09T11:41:36Z</time>
      </trkpt>
      <trkpt lat="47.21335" lon="6.57514">
        <ele>874</ele>
        <time>2016-10-09T11:41:38Z</time>
      </trkpt>
      <trkpt lat="47.21326" lon="6.57499">
        <ele>871</ele>
        <time>2016-10-09T11:41:40Z</time>
      </trkpt>
      <trkpt lat="47.21317" lon="6.57482">
        <ele>872</ele>
        <time>2016-10-09T11:41:42Z</time>
      </trkpt>
      <trkpt lat="47.21307" lon="6.57465">
        <ele>872</ele>
        <time>2016-10-09T11:41:44Z</time>
      </trkpt>
      <trkpt lat="47.21298" lon="6.57446">
        <ele>871</ele>
        <time>2016-10-09T11:41:46Z</time>
      </trkpt>
      <trkpt lat="47.21288" lon="6.57422">
        <ele>871</ele>
        <time>2016-10-09T11:41:48Z</time>
      </trkpt>
      <trkpt lat="47.21279" lon="6.57401">
        <ele>865</ele>
        <time>2016-10-09T11:41:50Z</time>
      </trkpt>
      <trkpt lat="47.21267" lon="6.57377">
        <ele>864</ele>
        <time>2016-10-09T11:41:52Z</time>
      </trkpt>
      <trkpt lat="47.21255" lon="6.57352">
        <ele>861</ele>
        <time>2016-10-09T11:41:54Z</time>
      </trkpt>
      <trkpt lat="47.21244" lon="6.57327">
        <ele>859</ele>
        <time>2016-10-09T11:41:56Z</time>
      </trkpt>
      <trkpt lat="47.21235" lon="6.57302">
        <ele>860</ele>
        <time>2016-10-09T11:41:58Z</time>
      </trkpt>
      <trkpt lat="47.21225" lon="6.57277">
        <ele>860</ele>
        <time>2016-10-09T11:42:00Z</time>
      </trkpt>
      <trkpt lat="47.21214" lon="6.57256">
        <ele>860</ele>
        <time>2016-10-09T11:42:02Z</time>
      </trkpt>
      <trkpt lat="47.21205" lon="6.57236">
        <ele>856</ele>
        <time>2016-10-09T11:42:04Z</time>
      </trkpt>
      <trkpt lat="47.21197" lon="6.57221">
        <ele>856</ele>
        <time>2016-10-09T11:42:06Z</time>
      </trkpt>
      <trkpt lat="47.21188" lon="6.57212">
        <ele>856</ele>
        <time>2016-10-09T11:42:08Z</time>
      </trkpt>
      <trkpt lat="47.21181" lon="6.57202">
        <ele>856</ele>
        <time>2016-10-09T11:42:10Z</time>
      </trkpt>
      <trkpt lat="47.21164" lon="6.57188">
        <ele>860</ele>
        <time>2016-10-09T11:42:14Z</time>
      </trkpt>
      <trkpt lat="47.21145" lon="6.57161">
        <ele>856</ele>
        <time>2016-10-09T11:42:18Z</time>
      </trkpt>
      <trkpt lat="47.21137" lon="6.57153">
        <ele>857</ele>
        <time>2016-10-09T11:42:20Z</time>
      </trkpt>
      <trkpt lat="47.21128" lon="6.57143">
        <ele>858</ele>
        <time>2016-10-09T11:42:22Z</time>
      </trkpt>
      <trkpt lat="47.21119" lon="6.57131">
        <ele>858</ele>
        <time>2016-10-09T11:42:24Z</time>
      </trkpt>
      <trkpt lat="47.2111" lon="6.57117">
        <ele>858</ele>
        <time>2016-10-09T11:42:26Z</time>
      </trkpt>
      <trkpt lat="47.21103" lon="6.57107">
        <ele>858</ele>
        <time>2016-10-09T11:42:28Z</time>
      </trkpt>
      <trkpt lat="47.21095" lon="6.57094">
        <ele>858</ele>
        <time>2016-10-09T11:42:30Z</time>
      </trkpt>
      <trkpt lat="47.21089" lon="6.57082">
        <ele>856</ele>
        <time>2016-10-09T11:42:32Z</time>
      </trkpt>
      <trkpt lat="47.21081" lon="6.57071">
        <ele>856</ele>
        <time>2016-10-09T11:42:34Z</time>
      </trkpt>
      <trkpt lat="47.21071" lon="6.57052">
        <ele>854</ele>
        <time>2016-10-09T11:42:38Z</time>
      </trkpt>
      <trkpt lat="47.21064" lon="6.57037">
        <ele>853</ele>
        <time>2016-10-09T11:42:40Z</time>
      </trkpt>
      <trkpt lat="47.21054" lon="6.57012">
        <ele>851</ele>
        <time>2016-10-09T11:42:44Z</time>
      </trkpt>
      <trkpt lat="47.21045" lon="6.56992">
        <ele>847</ele>
        <time>2016-10-09T11:42:46Z</time>
      </trkpt>
      <trkpt lat="47.21042" lon="6.56974">
        <ele>847</ele>
        <time>2016-10-09T11:42:48Z</time>
      </trkpt>
      <trkpt lat="47.21033" lon="6.56957">
        <ele>846</ele>
        <time>2016-10-09T11:42:50Z</time>
      </trkpt>
      <trkpt lat="47.21024" lon="6.56933">
        <ele>846</ele>
        <time>2016-10-09T11:42:52Z</time>
      </trkpt>
      <trkpt lat="47.21017" lon="6.56912">
        <ele>846</ele>
        <time>2016-10-09T11:42:54Z</time>
      </trkpt>
      <trkpt lat="47.21018" lon="6.56876">
        <ele>846</ele>
        <time>2016-10-09T11:42:58Z</time>
      </trkpt>
      <trkpt lat="47.21026" lon="6.56859">
        <ele>846</ele>
        <time>2016-10-09T11:43:00Z</time>
      </trkpt>
      <trkpt lat="47.21032" lon="6.56838">
        <ele>846</ele>
        <time>2016-10-09T11:43:02Z</time>
      </trkpt>
      <trkpt lat="47.21041" lon="6.56802">
        <ele>847</ele>
        <time>2016-10-09T11:43:04Z</time>
      </trkpt>
      <trkpt lat="47.21039" lon="6.56782">
        <ele>847</ele>
        <time>2016-10-09T11:43:06Z</time>
      </trkpt>
      <trkpt lat="47.21039" lon="6.56761">
        <ele>848</ele>
        <time>2016-10-09T11:43:08Z</time>
      </trkpt>
      <trkpt lat="47.21048" lon="6.56726">
        <ele>848</ele>
        <time>2016-10-09T11:43:10Z</time>
      </trkpt>
      <trkpt lat="47.21049" lon="6.56698">
        <ele>848</ele>
        <time>2016-10-09T11:43:12Z</time>
      </trkpt>
      <trkpt lat="47.21052" lon="6.56675">
        <ele>847</ele>
        <time>2016-10-09T11:43:14Z</time>
      </trkpt>
      <trkpt lat="47.21059" lon="6.56653">
        <ele>846</ele>
        <time>2016-10-09T11:43:16Z</time>
      </trkpt>
      <trkpt lat="47.21065" lon="6.56638">
        <ele>846</ele>
        <time>2016-10-09T11:43:18Z</time>
      </trkpt>
      <trkpt lat="47.21072" lon="6.5662">
        <ele>845</ele>
        <time>2016-10-09T11:43:20Z</time>
      </trkpt>
      <trkpt lat="47.21076" lon="6.566">
        <ele>844</ele>
        <time>2016-10-09T11:43:22Z</time>
      </trkpt>
      <trkpt lat="47.21081" lon="6.5658">
        <ele>840</ele>
        <time>2016-10-09T11:43:24Z</time>
      </trkpt>
      <trkpt lat="47.21082" lon="6.56561">
        <ele>840</ele>
        <time>2016-10-09T11:43:26Z</time>
      </trkpt>
      <trkpt lat="47.21077" lon="6.56536">
        <ele>839</ele>
        <time>2016-10-09T11:43:28Z</time>
      </trkpt>
      <trkpt lat="47.21064" lon="6.56509">
        <ele>838</ele>
        <time>2016-10-09T11:43:30Z</time>
      </trkpt>
      <trkpt lat="47.21052" lon="6.56479">
        <ele>831</ele>
        <time>2016-10-09T11:43:32Z</time>
      </trkpt>
      <trkpt lat="47.21033" lon="6.56451">
        <ele>830</ele>
        <time>2016-10-09T11:43:34Z</time>
      </trkpt>
      <trkpt lat="47.21016" lon="6.56422">
        <ele>829</ele>
        <time>2016-10-09T11:43:36Z</time>
      </trkpt>
      <trkpt lat="47.21" lon="6.56392">
        <ele>821</ele>
        <time>2016-10-09T11:43:38Z</time>
      </trkpt>
      <trkpt lat="47.20983" lon="6.56363">
        <ele>820</ele>
        <time>2016-10-09T11:43:40Z</time>
      </trkpt>
      <trkpt lat="47.20967" lon="6.56344">
        <ele>819</ele>
        <time>2016-10-09T11:43:42Z</time>
      </trkpt>
      <trkpt lat="47.2095" lon="6.56326">
        <ele>811</ele>
        <time>2016-10-09T11:43:44Z</time>
      </trkpt>
      <trkpt lat="47.20921" lon="6.56322">
        <ele>812</ele>
        <time>2016-10-09T11:43:46Z</time>
      </trkpt>
      <trkpt lat="47.20895" lon="6.5631">
        <ele>809</ele>
        <time>2016-10-09T11:43:48Z</time>
      </trkpt>
      <trkpt lat="47.20874" lon="6.56305">
        <ele>808</ele>
        <time>2016-10-09T11:43:50Z</time>
      </trkpt>
      <trkpt lat="47.20859" lon="6.56308">
        <ele>808</ele>
        <time>2016-10-09T11:43:52Z</time>
      </trkpt>
      <trkpt lat="47.20837" lon="6.5631">
        <ele>808</ele>
        <time>2016-10-09T11:43:54Z</time>
      </trkpt>
      <trkpt lat="47.2082" lon="6.56308">
        <ele>806</ele>
        <time>2016-10-09T11:43:56Z</time>
      </trkpt>
      <trkpt lat="47.20805" lon="6.56307">
        <ele>805</ele>
        <time>2016-10-09T11:43:58Z</time>
      </trkpt>
      <trkpt lat="47.20794" lon="6.56313">
        <ele>805</ele>
        <time>2016-10-09T11:44:00Z</time>
      </trkpt>
      <trkpt lat="47.20785" lon="6.5632">
        <ele>806</ele>
        <time>2016-10-09T11:44:02Z</time>
      </trkpt>
      <trkpt lat="47.20774" lon="6.56326">
        <ele>806</ele>
        <time>2016-10-09T11:44:04Z</time>
      </trkpt>
      <trkpt lat="47.20764" lon="6.5633">
        <ele>806</ele>
        <time>2016-10-09T11:44:06Z</time>
      </trkpt>
      <trkpt lat="47.20747" lon="6.56344">
        <ele>806</ele>
        <time>2016-10-09T11:44:10Z</time>
      </trkpt>
      <trkpt lat="47.20744" lon="6.56361">
        <ele>805</ele>
        <time>2016-10-09T11:44:12Z</time>
      </trkpt>
      <trkpt lat="47.20738" lon="6.56376">
        <ele>805</ele>
        <time>2016-10-09T11:44:16Z</time>
      </trkpt>
      <trkpt lat="47.2073" lon="6.56391">
        <ele>805</ele>
        <time>2016-10-09T11:44:20Z</time>
      </trkpt>
      <trkpt lat="47.20724" lon="6.56379">
        <ele>805</ele>
        <time>2016-10-09T11:44:26Z</time>
      </trkpt>
      <trkpt lat="47.20716" lon="6.56372">
        <ele>804</ele>
        <time>2016-10-09T11:44:32Z</time>
      </trkpt>
      <trkpt lat="47.20707" lon="6.56379">
        <ele>803</ele>
        <time>2016-10-09T11:44:40Z</time>
      </trkpt>
      <trkpt lat="47.20695" lon="6.56368">
        <ele>803</ele>
        <time>2016-10-09T11:44:46Z</time>
      </trkpt>
      <trkpt lat="47.20682" lon="6.56363">
        <ele>802</ele>
        <time>2016-10-09T11:44:48Z</time>
      </trkpt>
      <trkpt lat="47.20673" lon="6.56351">
        <ele>801</ele>
        <time>2016-10-09T11:44:50Z</time>
      </trkpt>
      <trkpt lat="47.20662" lon="6.56338">
        <ele>796</ele>
        <time>2016-10-09T11:44:54Z</time>
      </trkpt>
      <trkpt lat="47.20652" lon="6.56328">
        <ele>795</ele>
        <time>2016-10-09T11:44:56Z</time>
      </trkpt>
      <trkpt lat="47.20637" lon="6.56313">
        <ele>792</ele>
        <time>2016-10-09T11:45:00Z</time>
      </trkpt>
      <trkpt lat="47.20621" lon="6.56305">
        <ele>791</ele>
        <time>2016-10-09T11:45:04Z</time>
      </trkpt>
      <trkpt lat="47.20608" lon="6.563">
        <ele>790</ele>
        <time>2016-10-09T11:45:12Z</time>
      </trkpt>
      <trkpt lat="47.20593" lon="6.563">
        <ele>790</ele>
        <time>2016-10-09T11:45:16Z</time>
      </trkpt>
      <trkpt lat="47.20574" lon="6.563">
        <ele>782</ele>
        <time>2016-10-09T11:45:20Z</time>
      </trkpt>
      <trkpt lat="47.20562" lon="6.56298">
        <ele>782</ele>
        <time>2016-10-09T11:45:22Z</time>
      </trkpt>
      <trkpt lat="47.20545" lon="6.56298">
        <ele>780</ele>
        <time>2016-10-09T11:45:24Z</time>
      </trkpt>
      <trkpt lat="47.20529" lon="6.56296">
        <ele>779</ele>
        <time>2016-10-09T11:45:26Z</time>
      </trkpt>
      <trkpt lat="47.2052" lon="6.56296">
        <ele>778</ele>
        <time>2016-10-09T11:45:28Z</time>
      </trkpt>
      <trkpt lat="47.20508" lon="6.56283">
        <ele>778</ele>
        <time>2016-10-09T11:45:34Z</time>
      </trkpt>
      <trkpt lat="47.205" lon="6.56275">
        <ele>778</ele>
        <time>2016-10-09T11:45:36Z</time>
      </trkpt>
      <trkpt lat="47.20484" lon="6.56268">
        <ele>770</ele>
        <time>2016-10-09T11:45:40Z</time>
      </trkpt>
      <trkpt lat="47.2047" lon="6.56261">
        <ele>768</ele>
        <time>2016-10-09T11:45:42Z</time>
      </trkpt>
      <trkpt lat="47.20462" lon="6.56254">
        <ele>768</ele>
        <time>2016-10-09T11:45:44Z</time>
      </trkpt>
      <trkpt lat="47.20449" lon="6.56247">
        <ele>772</ele>
        <time>2016-10-09T11:45:46Z</time>
      </trkpt>
      <trkpt lat="47.2043" lon="6.56244">
        <ele>770</ele>
        <time>2016-10-09T11:45:48Z</time>
      </trkpt>
      <trkpt lat="47.20417" lon="6.56231">
        <ele>770</ele>
        <time>2016-10-09T11:45:52Z</time>
      </trkpt>
      <trkpt lat="47.20405" lon="6.56221">
        <ele>762</ele>
        <time>2016-10-09T11:45:56Z</time>
      </trkpt>
      <trkpt lat="47.20392" lon="6.56209">
        <ele>761</ele>
        <time>2016-10-09T11:46:00Z</time>
      </trkpt>
      <trkpt lat="47.2038" lon="6.56203">
        <ele>761</ele>
        <time>2016-10-09T11:46:02Z</time>
      </trkpt>
      <trkpt lat="47.2037" lon="6.56196">
        <ele>760</ele>
        <time>2016-10-09T11:46:04Z</time>
      </trkpt>
      <trkpt lat="47.2036" lon="6.56188">
        <ele>759</ele>
        <time>2016-10-09T11:46:06Z</time>
      </trkpt>
      <trkpt lat="47.20352" lon="6.56178">
        <ele>758</ele>
        <time>2016-10-09T11:46:08Z</time>
      </trkpt>
      <trkpt lat="47.2034" lon="6.56168">
        <ele>757</ele>
        <time>2016-10-09T11:46:12Z</time>
      </trkpt>
      <trkpt lat="47.20343" lon="6.5615">
        <ele>759</ele>
        <time>2016-10-09T11:46:16Z</time>
      </trkpt>
      <trkpt lat="47.20339" lon="6.56137">
        <ele>759</ele>
        <time>2016-10-09T11:46:18Z</time>
      </trkpt>
      <trkpt lat="47.20335" lon="6.56121">
        <ele>759</ele>
        <time>2016-10-09T11:46:20Z</time>
      </trkpt>
      <trkpt lat="47.20332" lon="6.56106">
        <ele>748</ele>
        <time>2016-10-09T11:46:22Z</time>
      </trkpt>
      <trkpt lat="47.20329" lon="6.56083">
        <ele>752</ele>
        <time>2016-10-09T11:46:24Z</time>
      </trkpt>
      <trkpt lat="47.20328" lon="6.56064">
        <ele>747</ele>
        <time>2016-10-09T11:46:26Z</time>
      </trkpt>
      <trkpt lat="47.20327" lon="6.56048">
        <ele>745</ele>
        <time>2016-10-09T11:46:28Z</time>
      </trkpt>
      <trkpt lat="47.20325" lon="6.56027">
        <ele>744</ele>
        <time>2016-10-09T11:46:30Z</time>
      </trkpt>
      <trkpt lat="47.20323" lon="6.56001">
        <ele>747</ele>
        <time>2016-10-09T11:46:32Z</time>
      </trkpt>
      <trkpt lat="47.20327" lon="6.55982">
        <ele>742</ele>
        <time>2016-10-09T11:46:34Z</time>
      </trkpt>
      <trkpt lat="47.20331" lon="6.55968">
        <ele>739</ele>
        <time>2016-10-09T11:46:36Z</time>
      </trkpt>
      <trkpt lat="47.20341" lon="6.5595">
        <ele>747</ele>
        <time>2016-10-09T11:46:38Z</time>
      </trkpt>
      <trkpt lat="47.20348" lon="6.55935">
        <ele>746</ele>
        <time>2016-10-09T11:46:40Z</time>
      </trkpt>
      <trkpt lat="47.20351" lon="6.5592">
        <ele>745</ele>
        <time>2016-10-09T11:46:42Z</time>
      </trkpt>
      <trkpt lat="47.20373" lon="6.55879">
        <ele>738</ele>
        <time>2016-10-09T11:46:46Z</time>
      </trkpt>
      <trkpt lat="47.204" lon="6.55818">
        <ele>730</ele>
        <time>2016-10-09T11:46:50Z</time>
      </trkpt>
      <trkpt lat="47.20411" lon="6.55787">
        <ele>726</ele>
        <time>2016-10-09T11:46:52Z</time>
      </trkpt>
      <trkpt lat="47.2042" lon="6.55764">
        <ele>728</ele>
        <time>2016-10-09T11:46:54Z</time>
      </trkpt>
      <trkpt lat="47.20422" lon="6.55749">
        <ele>724</ele>
        <time>2016-10-09T11:46:56Z</time>
      </trkpt>
      <trkpt lat="47.2042" lon="6.55736">
        <ele>723</ele>
        <time>2016-10-09T11:46:58Z</time>
      </trkpt>
      <trkpt lat="47.20411" lon="6.55725">
        <ele>717</ele>
        <time>2016-10-09T11:47:00Z</time>
      </trkpt>
      <trkpt lat="47.20404" lon="6.55707">
        <ele>714</ele>
        <time>2016-10-09T11:47:02Z</time>
      </trkpt>
      <trkpt lat="47.20405" lon="6.55694">
        <ele>713</ele>
        <time>2016-10-09T11:47:04Z</time>
      </trkpt>
      <trkpt lat="47.20413" lon="6.55684">
        <ele>713</ele>
        <time>2016-10-09T11:47:06Z</time>
      </trkpt>
      <trkpt lat="47.20427" lon="6.55673">
        <ele>716</ele>
        <time>2016-10-09T11:47:10Z</time>
      </trkpt>
      <trkpt lat="47.20441" lon="6.55658">
        <ele>712</ele>
        <time>2016-10-09T11:47:14Z</time>
      </trkpt>
      <trkpt lat="47.20452" lon="6.55646">
        <ele>712</ele>
        <time>2016-10-09T11:47:18Z</time>
      </trkpt>
      <trkpt lat="47.20464" lon="6.55639">
        <ele>712</ele>
        <time>2016-10-09T11:47:22Z</time>
      </trkpt>
      <trkpt lat="47.20478" lon="6.55627">
        <ele>712</ele>
        <time>2016-10-09T11:47:26Z</time>
      </trkpt>
      <trkpt lat="47.2049" lon="6.55618">
        <ele>711</ele>
        <time>2016-10-09T11:47:30Z</time>
      </trkpt>
      <trkpt lat="47.20505" lon="6.55615">
        <ele>715</ele>
        <time>2016-10-09T11:47:34Z</time>
      </trkpt>
      <trkpt lat="47.20518" lon="6.55603">
        <ele>714</ele>
        <time>2016-10-09T11:47:38Z</time>
      </trkpt>
      <trkpt lat="47.20528" lon="6.55598">
        <ele>715</ele>
        <time>2016-10-09T11:47:40Z</time>
      </trkpt>
      <trkpt lat="47.20537" lon="6.5559">
        <ele>715</ele>
        <time>2016-10-09T11:47:42Z</time>
      </trkpt>
      <trkpt lat="47.20546" lon="6.55578">
        <ele>709</ele>
        <time>2016-10-09T11:47:44Z</time>
      </trkpt>
      <trkpt lat="47.20558" lon="6.55563">
        <ele>709</ele>
        <time>2016-10-09T11:47:46Z</time>
      </trkpt>
      <trkpt lat="47.20571" lon="6.55545">
        <ele>708</ele>
        <time>2016-10-09T11:47:48Z</time>
      </trkpt>
      <trkpt lat="47.20583" lon="6.55534">
        <ele>708</ele>
        <time>2016-10-09T11:47:50Z</time>
      </trkpt>
      <trkpt lat="47.20588" lon="6.55517">
        <ele>710</ele>
        <time>2016-10-09T11:47:54Z</time>
      </trkpt>
      <trkpt lat="47.20579" lon="6.55502">
        <ele>707</ele>
        <time>2016-10-09T11:47:56Z</time>
      </trkpt>
      <trkpt lat="47.20573" lon="6.55483">
        <ele>704</ele>
        <time>2016-10-09T11:47:58Z</time>
      </trkpt>
      <trkpt lat="47.20568" lon="6.55464">
        <ele>703</ele>
        <time>2016-10-09T11:48:00Z</time>
      </trkpt>
      <trkpt lat="47.20558" lon="6.55438">
        <ele>702</ele>
        <time>2016-10-09T11:48:02Z</time>
      </trkpt>
      <trkpt lat="47.20549" lon="6.55417">
        <ele>701</ele>
        <time>2016-10-09T11:48:04Z</time>
      </trkpt>
      <trkpt lat="47.20536" lon="6.55405">
        <ele>701</ele>
        <time>2016-10-09T11:48:06Z</time>
      </trkpt>
      <trkpt lat="47.20523" lon="6.55403">
        <ele>701</ele>
        <time>2016-10-09T11:48:08Z</time>
      </trkpt>
      <trkpt lat="47.20511" lon="6.55411">
        <ele>701</ele>
        <time>2016-10-09T11:48:10Z</time>
      </trkpt>
      <trkpt lat="47.20498" lon="6.55421">
        <ele>701</ele>
        <time>2016-10-09T11:48:12Z</time>
      </trkpt>
      <trkpt lat="47.20485" lon="6.55425">
        <ele>700</ele>
        <time>2016-10-09T11:48:14Z</time>
      </trkpt>
      <trkpt lat="47.20468" lon="6.55427">
        <ele>699</ele>
        <time>2016-10-09T11:48:16Z</time>
      </trkpt>
      <trkpt lat="47.20452" lon="6.55423">
        <ele>699</ele>
        <time>2016-10-09T11:48:18Z</time>
      </trkpt>
      <trkpt lat="47.2044" lon="6.55423">
        <ele>699</ele>
        <time>2016-10-09T11:48:20Z</time>
      </trkpt>
      <trkpt lat="47.20424" lon="6.55422">
        <ele>699</ele>
        <time>2016-10-09T11:48:22Z</time>
      </trkpt>
      <trkpt lat="47.20407" lon="6.55417">
        <ele>700</ele>
        <time>2016-10-09T11:48:24Z</time>
      </trkpt>
      <trkpt lat="47.20392" lon="6.55407">
        <ele>699</ele>
        <time>2016-10-09T11:48:26Z</time>
      </trkpt>
      <trkpt lat="47.20383" lon="6.55389">
        <ele>698</ele>
        <time>2016-10-09T11:48:28Z</time>
      </trkpt>
      <trkpt lat="47.20369" lon="6.55375">
        <ele>698</ele>
        <time>2016-10-09T11:48:30Z</time>
      </trkpt>
      <trkpt lat="47.20357" lon="6.55361">
        <ele>697</ele>
        <time>2016-10-09T11:48:32Z</time>
      </trkpt>
      <trkpt lat="47.20344" lon="6.55353">
        <ele>697</ele>
        <time>2016-10-09T11:48:34Z</time>
      </trkpt>
      <trkpt lat="47.20328" lon="6.55346">
        <ele>696</ele>
        <time>2016-10-09T11:48:36Z</time>
      </trkpt>
      <trkpt lat="47.20314" lon="6.55338">
        <ele>696</ele>
        <time>2016-10-09T11:48:38Z</time>
      </trkpt>
      <trkpt lat="47.20298" lon="6.55341">
        <ele>696</ele>
        <time>2016-10-09T11:48:40Z</time>
      </trkpt>
      <trkpt lat="47.2028" lon="6.55348">
        <ele>695</ele>
        <time>2016-10-09T11:48:42Z</time>
      </trkpt>
      <trkpt lat="47.20262" lon="6.55357">
        <ele>694</ele>
        <time>2016-10-09T11:48:44Z</time>
      </trkpt>
      <trkpt lat="47.20245" lon="6.55366">
        <ele>685</ele>
        <time>2016-10-09T11:48:46Z</time>
      </trkpt>
      <trkpt lat="47.2023" lon="6.55372">
        <ele>684</ele>
        <time>2016-10-09T11:48:48Z</time>
      </trkpt>
      <trkpt lat="47.20216" lon="6.55382">
        <ele>683</ele>
        <time>2016-10-09T11:48:50Z</time>
      </trkpt>
      <trkpt lat="47.20199" lon="6.55392">
        <ele>680</ele>
        <time>2016-10-09T11:48:52Z</time>
      </trkpt>
      <trkpt lat="47.20185" lon="6.55403">
        <ele>677</ele>
        <time>2016-10-09T11:48:54Z</time>
      </trkpt>
      <trkpt lat="47.20176" lon="6.55411">
        <ele>675</ele>
        <time>2016-10-09T11:48:56Z</time>
      </trkpt>
      <trkpt lat="47.20164" lon="6.55398">
        <ele>658</ele>
        <time>2016-10-09T11:49:00Z</time>
      </trkpt>
      <trkpt lat="47.20164" lon="6.55374">
        <ele>653</ele>
        <time>2016-10-09T11:49:02Z</time>
      </trkpt>
      <trkpt lat="47.20162" lon="6.55355">
        <ele>655</ele>
        <time>2016-10-09T11:49:04Z</time>
      </trkpt>
      <trkpt lat="47.20161" lon="6.5533">
        <ele>658</ele>
        <time>2016-10-09T11:49:06Z</time>
      </trkpt>
      <trkpt lat="47.20162" lon="6.55304">
        <ele>646</ele>
        <time>2016-10-09T11:49:08Z</time>
      </trkpt>
      <trkpt lat="47.20159" lon="6.55278">
        <ele>643</ele>
        <time>2016-10-09T11:49:10Z</time>
      </trkpt>
      <trkpt lat="47.2016" lon="6.55249">
        <ele>645</ele>
        <time>2016-10-09T11:49:12Z</time>
      </trkpt>
      <trkpt lat="47.20157" lon="6.55225">
        <ele>632</ele>
        <time>2016-10-09T11:49:14Z</time>
      </trkpt>
      <trkpt lat="47.20168" lon="6.55182">
        <ele>641</ele>
        <time>2016-10-09T11:49:18Z</time>
      </trkpt>
      <trkpt lat="47.20183" lon="6.55166">
        <ele>632</ele>
        <time>2016-10-09T11:49:20Z</time>
      </trkpt>
      <trkpt lat="47.20198" lon="6.55161">
        <ele>632</ele>
        <time>2016-10-09T11:49:22Z</time>
      </trkpt>
      <trkpt lat="47.20217" lon="6.55159">
        <ele>634</ele>
        <time>2016-10-09T11:49:24Z</time>
      </trkpt>
      <trkpt lat="47.20238" lon="6.55156">
        <ele>638</ele>
        <time>2016-10-09T11:49:26Z</time>
      </trkpt>
      <trkpt lat="47.2025" lon="6.55155">
        <ele>640</ele>
        <time>2016-10-09T11:49:28Z</time>
      </trkpt>
      <trkpt lat="47.2026" lon="6.55151">
        <ele>640</ele>
        <time>2016-10-09T11:49:30Z</time>
      </trkpt>
      <trkpt lat="47.20269" lon="6.5515">
        <ele>639</ele>
        <time>2016-10-09T11:49:38Z</time>
      </trkpt>
      <trkpt lat="47.20277" lon="6.55143">
        <ele>637</ele>
        <time>2016-10-09T11:49:54Z</time>
      </trkpt>
      <trkpt lat="47.20289" lon="6.5514">
        <ele>637</ele>
        <time>2016-10-09T11:49:58Z</time>
      </trkpt>
      <trkpt lat="47.20298" lon="6.55141">
        <ele>636</ele>
        <time>2016-10-09T11:50:00Z</time>
      </trkpt>
      <trkpt lat="47.20309" lon="6.55141">
        <ele>637</ele>
        <time>2016-10-09T11:50:02Z</time>
      </trkpt>
      <trkpt lat="47.20319" lon="6.55139">
        <ele>636</ele>
        <time>2016-10-09T11:50:04Z</time>
      </trkpt>
      <trkpt lat="47.20331" lon="6.55133">
        <ele>636</ele>
        <time>2016-10-09T11:50:06Z</time>
      </trkpt>
      <trkpt lat="47.20343" lon="6.55128">
        <ele>632</ele>
        <time>2016-10-09T11:50:08Z</time>
      </trkpt>
      <trkpt lat="47.20359" lon="6.55126">
        <ele>632</ele>
        <time>2016-10-09T11:50:10Z</time>
      </trkpt>
      <trkpt lat="47.20371" lon="6.55134">
        <ele>632</ele>
        <time>2016-10-09T11:50:12Z</time>
      </trkpt>
      <trkpt lat="47.20384" lon="6.55152">
        <ele>634</ele>
        <time>2016-10-09T11:50:14Z</time>
      </trkpt>
      <trkpt lat="47.20399" lon="6.55167">
        <ele>647</ele>
        <time>2016-10-09T11:50:16Z</time>
      </trkpt>
      <trkpt lat="47.20413" lon="6.55174">
        <ele>644</ele>
        <time>2016-10-09T11:50:18Z</time>
      </trkpt>
      <trkpt lat="47.20429" lon="6.55178">
        <ele>651</ele>
        <time>2016-10-09T11:50:20Z</time>
      </trkpt>
      <trkpt lat="47.20428" lon="6.55163">
        <ele>640</ele>
        <time>2016-10-09T11:50:22Z</time>
      </trkpt>
      <trkpt lat="47.20436" lon="6.55151">
        <ele>640</ele>
        <time>2016-10-09T11:50:26Z</time>
      </trkpt>
      <trkpt lat="47.20444" lon="6.55138">
        <ele>639</ele>
        <time>2016-10-09T11:50:30Z</time>
      </trkpt>
      <trkpt lat="47.20458" lon="6.55123">
        <ele>638</ele>
        <time>2016-10-09T11:50:36Z</time>
      </trkpt>
      <trkpt lat="47.20468" lon="6.55109">
        <ele>637</ele>
        <time>2016-10-09T11:50:38Z</time>
      </trkpt>
      <trkpt lat="47.20485" lon="6.55095">
        <ele>637</ele>
        <time>2016-10-09T11:50:42Z</time>
      </trkpt>
      <trkpt lat="47.20504" lon="6.55061">
        <ele>633</ele>
        <time>2016-10-09T11:50:46Z</time>
      </trkpt>
      <trkpt lat="47.20519" lon="6.55038">
        <ele>630</ele>
        <time>2016-10-09T11:50:48Z</time>
      </trkpt>
      <trkpt lat="47.20532" lon="6.55011">
        <ele>628</ele>
        <time>2016-10-09T11:50:50Z</time>
      </trkpt>
      <trkpt lat="47.20547" lon="6.54987">
        <ele>612</ele>
        <time>2016-10-09T11:50:52Z</time>
      </trkpt>
      <trkpt lat="47.20563" lon="6.54965">
        <ele>612</ele>
        <time>2016-10-09T11:50:54Z</time>
      </trkpt>
      <trkpt lat="47.20576" lon="6.5495">
        <ele>609</ele>
        <time>2016-10-09T11:50:56Z</time>
      </trkpt>
      <trkpt lat="47.20585" lon="6.54937">
        <ele>619</ele>
        <time>2016-10-09T11:50:58Z</time>
      </trkpt>
      <trkpt lat="47.20599" lon="6.54931">
        <ele>620</ele>
        <time>2016-10-09T11:51:02Z</time>
      </trkpt>
      <trkpt lat="47.20611" lon="6.54913">
        <ele>604</ele>
        <time>2016-10-09T11:51:06Z</time>
      </trkpt>
      <trkpt lat="47.20623" lon="6.54893">
        <ele>604</ele>
        <time>2016-10-09T11:51:10Z</time>
      </trkpt>
      <trkpt lat="47.20636" lon="6.54882">
        <ele>603</ele>
        <time>2016-10-09T11:51:12Z</time>
      </trkpt>
      <trkpt lat="47.20647" lon="6.54872">
        <ele>602</ele>
        <time>2016-10-09T11:51:14Z</time>
      </trkpt>
      <trkpt lat="47.20658" lon="6.5486">
        <ele>600</ele>
        <time>2016-10-09T11:51:16Z</time>
      </trkpt>
      <trkpt lat="47.20671" lon="6.5485">
        <ele>603</ele>
        <time>2016-10-09T11:51:18Z</time>
      </trkpt>
      <trkpt lat="47.20682" lon="6.54853">
        <ele>605</ele>
        <time>2016-10-09T11:51:20Z</time>
      </trkpt>
      <trkpt lat="47.20694" lon="6.54849">
        <ele>606</ele>
        <time>2016-10-09T11:51:22Z</time>
      </trkpt>
      <trkpt lat="47.20709" lon="6.54847">
        <ele>608</ele>
        <time>2016-10-09T11:51:24Z</time>
      </trkpt>
      <trkpt lat="47.20725" lon="6.54848">
        <ele>607</ele>
        <time>2016-10-09T11:51:28Z</time>
      </trkpt>
      <trkpt lat="47.20733" lon="6.54855">
        <ele>608</ele>
        <time>2016-10-09T11:51:30Z</time>
      </trkpt>
      <trkpt lat="47.20751" lon="6.54858">
        <ele>609</ele>
        <time>2016-10-09T11:51:34Z</time>
      </trkpt>
      <trkpt lat="47.20761" lon="6.54849">
        <ele>607</ele>
        <time>2016-10-09T11:51:36Z</time>
      </trkpt>
      <trkpt lat="47.20776" lon="6.54853">
        <ele>609</ele>
        <time>2016-10-09T11:51:38Z</time>
      </trkpt>
      <trkpt lat="47.2079" lon="6.54853">
        <ele>610</ele>
        <time>2016-10-09T11:51:40Z</time>
      </trkpt>
      <trkpt lat="47.208" lon="6.54851">
        <ele>609</ele>
        <time>2016-10-09T11:51:42Z</time>
      </trkpt>
      <trkpt lat="47.2081" lon="6.54852">
        <ele>609</ele>
        <time>2016-10-09T11:51:44Z</time>
      </trkpt>
      <trkpt lat="47.20819" lon="6.54851">
        <ele>607</ele>
        <time>2016-10-09T11:51:46Z</time>
      </trkpt>
      <trkpt lat="47.2083" lon="6.54854">
        <ele>607</ele>
        <time>2016-10-09T11:51:48Z</time>
      </trkpt>
      <trkpt lat="47.2084" lon="6.54857">
        <ele>603</ele>
        <time>2016-10-09T11:51:50Z</time>
      </trkpt>
      <trkpt lat="47.20853" lon="6.54866">
        <ele>605</ele>
        <time>2016-10-09T11:51:52Z</time>
      </trkpt>
      <trkpt lat="47.20863" lon="6.54874">
        <ele>606</ele>
        <time>2016-10-09T11:51:54Z</time>
      </trkpt>
      <trkpt lat="47.20882" lon="6.54891">
        <ele>606</ele>
        <time>2016-10-09T11:51:58Z</time>
      </trkpt>
      <trkpt lat="47.20892" lon="6.54904">
        <ele>606</ele>
        <time>2016-10-09T11:52:00Z</time>
      </trkpt>
      <trkpt lat="47.20901" lon="6.54911">
        <ele>606</ele>
        <time>2016-10-09T11:52:02Z</time>
      </trkpt>
      <trkpt lat="47.20909" lon="6.54918">
        <ele>613</ele>
        <time>2016-10-09T11:52:04Z</time>
      </trkpt>
      <trkpt lat="47.20918" lon="6.54926">
        <ele>608</ele>
        <time>2016-10-09T11:52:06Z</time>
      </trkpt>
      <trkpt lat="47.20926" lon="6.54933">
        <ele>609</ele>
        <time>2016-10-09T11:52:08Z</time>
      </trkpt>
      <trkpt lat="47.20933" lon="6.5494">
        <ele>610</ele>
        <time>2016-10-09T11:52:10Z</time>
      </trkpt>
      <trkpt lat="47.2094" lon="6.54954">
        <ele>612</ele>
        <time>2016-10-09T11:52:14Z</time>
      </trkpt>
      <trkpt lat="47.20942" lon="6.54969">
        <ele>614</ele>
        <time>2016-10-09T11:52:20Z</time>
      </trkpt>
      <trkpt lat="47.20951" lon="6.54984">
        <ele>616</ele>
        <time>2016-10-09T11:52:26Z</time>
      </trkpt>
      <trkpt lat="47.20964" lon="6.54991">
        <ele>615</ele>
        <time>2016-10-09T11:52:30Z</time>
      </trkpt>
      <trkpt lat="47.2098" lon="6.54998">
        <ele>614</ele>
        <time>2016-10-09T11:52:34Z</time>
      </trkpt>
      <trkpt lat="47.20993" lon="6.55005">
        <ele>622</ele>
        <time>2016-10-09T11:52:38Z</time>
      </trkpt>
      <trkpt lat="47.2101" lon="6.5501">
        <ele>620</ele>
        <time>2016-10-09T11:52:42Z</time>
      </trkpt>
      <trkpt lat="47.21019" lon="6.55012">
        <ele>622</ele>
        <time>2016-10-09T11:52:44Z</time>
      </trkpt>
      <trkpt lat="47.2103" lon="6.55014">
        <ele>623</ele>
        <time>2016-10-09T11:52:46Z</time>
      </trkpt>
      <trkpt lat="47.2104" lon="6.55016">
        <ele>623</ele>
        <time>2016-10-09T11:52:48Z</time>
      </trkpt>
      <trkpt lat="47.21049" lon="6.5502">
        <ele>623</ele>
        <time>2016-10-09T11:52:50Z</time>
      </trkpt>
      <trkpt lat="47.21061" lon="6.55027">
        <ele>623</ele>
        <time>2016-10-09T11:52:54Z</time>
      </trkpt>
      <trkpt lat="47.2107" lon="6.5503">
        <ele>623</ele>
        <time>2016-10-09T11:52:58Z</time>
      </trkpt>
      <trkpt lat="47.21084" lon="6.55035">
        <ele>622</ele>
        <time>2016-10-09T11:53:02Z</time>
      </trkpt>
      <trkpt lat="47.21097" lon="6.55039">
        <ele>624</ele>
        <time>2016-10-09T11:53:06Z</time>
      </trkpt>
      <trkpt lat="47.2111" lon="6.55033">
        <ele>623</ele>
        <time>2016-10-09T11:53:10Z</time>
      </trkpt>
      <trkpt lat="47.21126" lon="6.55034">
        <ele>624</ele>
        <time>2016-10-09T11:53:14Z</time>
      </trkpt>
      <trkpt lat="47.21136" lon="6.55042">
        <ele>625</ele>
        <time>2016-10-09T11:53:18Z</time>
      </trkpt>
      <trkpt lat="47.21145" lon="6.55051">
        <ele>625</ele>
        <time>2016-10-09T11:53:28Z</time>
      </trkpt>
      <trkpt lat="47.21154" lon="6.55049">
        <ele>625</ele>
        <time>2016-10-09T11:53:32Z</time>
      </trkpt>
      <trkpt lat="47.21162" lon="6.55057">
        <ele>625</ele>
        <time>2016-10-09T11:53:38Z</time>
      </trkpt>
      <trkpt lat="47.21172" lon="6.55064">
        <ele>633</ele>
        <time>2016-10-09T11:53:44Z</time>
      </trkpt>
      <trkpt lat="47.21178" lon="6.55076">
        <ele>631</ele>
        <time>2016-10-09T11:53:52Z</time>
      </trkpt>
      <trkpt lat="47.21185" lon="6.55085">
        <ele>634</ele>
        <time>2016-10-09T11:54:00Z</time>
      </trkpt>
      <trkpt lat="47.21193" lon="6.55077">
        <ele>636</ele>
        <time>2016-10-09T11:54:10Z</time>
      </trkpt>
      <trkpt lat="47.21195" lon="6.55063">
        <ele>637</ele>
        <time>2016-10-09T11:54:18Z</time>
      </trkpt>
      <trkpt lat="47.21202" lon="6.55073">
        <ele>638</ele>
        <time>2016-10-09T11:54:34Z</time>
      </trkpt>
      <trkpt lat="47.21207" lon="6.55086">
        <ele>640</ele>
        <time>2016-10-09T11:54:42Z</time>
      </trkpt>
      <trkpt lat="47.21214" lon="6.55095">
        <ele>642</ele>
        <time>2016-10-09T11:54:52Z</time>
      </trkpt>
      <trkpt lat="47.21208" lon="6.55105">
        <ele>642</ele>
        <time>2016-10-09T11:55:00Z</time>
      </trkpt>
      <trkpt lat="47.21205" lon="6.55121">
        <ele>643</ele>
        <time>2016-10-09T11:55:10Z</time>
      </trkpt>
      <trkpt lat="47.21199" lon="6.55132">
        <ele>643</ele>
        <time>2016-10-09T11:55:16Z</time>
      </trkpt>
      <trkpt lat="47.21203" lon="6.55146">
        <ele>645</ele>
        <time>2016-10-09T11:55:54Z</time>
      </trkpt>
      <trkpt lat="47.21194" lon="6.55147">
        <ele>644</ele>
        <time>2016-10-09T11:57:28Z</time>
      </trkpt>
      <trkpt lat="47.21205" lon="6.55151">
        <ele>645</ele>
        <time>2016-10-09T11:57:40Z</time>
      </trkpt>
      <trkpt lat="47.21214" lon="6.55148">
        <ele>646</ele>
        <time>2016-10-09T11:57:48Z</time>
      </trkpt>
      <trkpt lat="47.21223" lon="6.5514">
        <ele>646</ele>
        <time>2016-10-09T11:57:52Z</time>
      </trkpt>
      <trkpt lat="47.2123" lon="6.55131">
        <ele>646</ele>
        <time>2016-10-09T11:57:58Z</time>
      </trkpt>
      <trkpt lat="47.21237" lon="6.55121">
        <ele>646</ele>
        <time>2016-10-09T11:58:04Z</time>
      </trkpt>
      <trkpt lat="47.21237" lon="6.55137">
        <ele>647</ele>
        <time>2016-10-09T11:58:20Z</time>
      </trkpt>
      <trkpt lat="47.21229" lon="6.5515">
        <ele>648</ele>
        <time>2016-10-09T11:58:26Z</time>
      </trkpt>
      <trkpt lat="47.21222" lon="6.55161">
        <ele>647</ele>
        <time>2016-10-09T11:58:30Z</time>
      </trkpt>
      <trkpt lat="47.21214" lon="6.5517">
        <ele>659</ele>
        <time>2016-10-09T11:58:34Z</time>
      </trkpt>
      <trkpt lat="47.21205" lon="6.55176">
        <ele>659</ele>
        <time>2016-10-09T11:58:38Z</time>
      </trkpt>
      <trkpt lat="47.21196" lon="6.55186">
        <ele>659</ele>
        <time>2016-10-09T11:58:42Z</time>
      </trkpt>
      <trkpt lat="47.21191" lon="6.55198">
        <ele>661</ele>
        <time>2016-10-09T11:58:46Z</time>
      </trkpt>
      <trkpt lat="47.21193" lon="6.55215">
        <ele>664</ele>
        <time>2016-10-09T11:58:50Z</time>
      </trkpt>
      <trkpt lat="47.21199" lon="6.55226">
        <ele>666</ele>
        <time>2016-10-09T11:58:54Z</time>
      </trkpt>
      <trkpt lat="47.21208" lon="6.55234">
        <ele>667</ele>
        <time>2016-10-09T11:58:58Z</time>
      </trkpt>
      <trkpt lat="47.2122" lon="6.55236">
        <ele>668</ele>
        <time>2016-10-09T11:59:02Z</time>
      </trkpt>
      <trkpt lat="47.21227" lon="6.55224">
        <ele>667</ele>
        <time>2016-10-09T11:59:12Z</time>
      </trkpt>
      <trkpt lat="47.21233" lon="6.55201">
        <ele>663</ele>
        <time>2016-10-09T11:59:16Z</time>
      </trkpt>
      <trkpt lat="47.2124" lon="6.55183">
        <ele>660</ele>
        <time>2016-10-09T11:59:20Z</time>
      </trkpt>
      <trkpt lat="47.21246" lon="6.55165">
        <ele>653</ele>
        <time>2016-10-09T11:59:24Z</time>
      </trkpt>
      <trkpt lat="47.21258" lon="6.55154">
        <ele>660</ele>
        <time>2016-10-09T11:59:28Z</time>
      </trkpt>
      <trkpt lat="47.2127" lon="6.55146">
        <ele>662</ele>
        <time>2016-10-09T11:59:32Z</time>
      </trkpt>
      <trkpt lat="47.21274" lon="6.5513">
        <ele>663</ele>
        <time>2016-10-09T11:59:38Z</time>
      </trkpt>
      <trkpt lat="47.21273" lon="6.55111">
        <ele>662</ele>
        <time>2016-10-09T11:59:42Z</time>
      </trkpt>
      <trkpt lat="47.21277" lon="6.55095">
        <ele>661</ele>
        <time>2016-10-09T11:59:46Z</time>
      </trkpt>
      <trkpt lat="47.21272" lon="6.55071">
        <ele>662</ele>
        <time>2016-10-09T11:59:50Z</time>
      </trkpt>
      <trkpt lat="47.21267" lon="6.55051">
        <ele>665</ele>
        <time>2016-10-09T11:59:54Z</time>
      </trkpt>
      <trkpt lat="47.21261" lon="6.55029">
        <ele>666</ele>
        <time>2016-10-09T11:59:58Z</time>
      </trkpt>
      <trkpt lat="47.21248" lon="6.54998">
        <ele>663</ele>
        <time>2016-10-09T12:00:04Z</time>
      </trkpt>
      <trkpt lat="47.21236" lon="6.54985">
        <ele>660</ele>
        <time>2016-10-09T12:00:08Z</time>
      </trkpt>
      <trkpt lat="47.21224" lon="6.54972">
        <ele>659</ele>
        <time>2016-10-09T12:00:12Z</time>
      </trkpt>
      <trkpt lat="47.21216" lon="6.54954">
        <ele>660</ele>
        <time>2016-10-09T12:00:16Z</time>
      </trkpt>
      <trkpt lat="47.21205" lon="6.54937">
        <ele>660</ele>
        <time>2016-10-09T12:00:20Z</time>
      </trkpt>
      <trkpt lat="47.21195" lon="6.54919">
        <ele>658</ele>
        <time>2016-10-09T12:00:24Z</time>
      </trkpt>
      <trkpt lat="47.21183" lon="6.54904">
        <ele>666</ele>
        <time>2016-10-09T12:00:28Z</time>
      </trkpt>
      <trkpt lat="47.21174" lon="6.54888">
        <ele>668</ele>
        <time>2016-10-09T12:00:32Z</time>
      </trkpt>
      <trkpt lat="47.21164" lon="6.54873">
        <ele>653</ele>
        <time>2016-10-09T12:00:36Z</time>
      </trkpt>
      <trkpt lat="47.21154" lon="6.54858">
        <ele>656</ele>
        <time>2016-10-09T12:00:40Z</time>
      </trkpt>
      <trkpt lat="47.21147" lon="6.54843">
        <ele>658</ele>
        <time>2016-10-09T12:00:44Z</time>
      </trkpt>
      <trkpt lat="47.21138" lon="6.54826">
        <ele>663</ele>
        <time>2016-10-09T12:00:48Z</time>
      </trkpt>
      <trkpt lat="47.21128" lon="6.54814">
        <ele>661</ele>
        <time>2016-10-09T12:00:52Z</time>
      </trkpt>
      <trkpt lat="47.2112" lon="6.54798">
        <ele>660</ele>
        <time>2016-10-09T12:00:56Z</time>
      </trkpt>
      <trkpt lat="47.21117" lon="6.54779">
        <ele>660</ele>
        <time>2016-10-09T12:01:00Z</time>
      </trkpt>
      <trkpt lat="47.21121" lon="6.54761">
        <ele>661</ele>
        <time>2016-10-09T12:01:04Z</time>
      </trkpt>
      <trkpt lat="47.21126" lon="6.54743">
        <ele>664</ele>
        <time>2016-10-09T12:01:08Z</time>
      </trkpt>
      <trkpt lat="47.21129" lon="6.54728">
        <ele>664</ele>
        <time>2016-10-09T12:01:12Z</time>
      </trkpt>
      <trkpt lat="47.21133" lon="6.54713">
        <ele>665</ele>
        <time>2016-10-09T12:01:16Z</time>
      </trkpt>
      <trkpt lat="47.21141" lon="6.54697">
        <ele>666</ele>
        <time>2016-10-09T12:01:22Z</time>
      </trkpt>
      <trkpt lat="47.21148" lon="6.54688">
        <ele>667</ele>
        <time>2016-10-09T12:01:28Z</time>
      </trkpt>
      <trkpt lat="47.21154" lon="6.54677">
        <ele>668</ele>
        <time>2016-10-09T12:01:34Z</time>
      </trkpt>
      <trkpt lat="47.21157" lon="6.54664">
        <ele>669</ele>
        <time>2016-10-09T12:01:40Z</time>
      </trkpt>
      <trkpt lat="47.21163" lon="6.54649">
        <ele>668</ele>
        <time>2016-10-09T12:01:50Z</time>
      </trkpt>
      <trkpt lat="47.21167" lon="6.54637">
        <ele>666</ele>
        <time>2016-10-09T12:01:56Z</time>
      </trkpt>
      <trkpt lat="47.21171" lon="6.5462">
        <ele>678</ele>
        <time>2016-10-09T12:02:04Z</time>
      </trkpt>
      <trkpt lat="47.21176" lon="6.54604">
        <ele>678</ele>
        <time>2016-10-09T12:02:12Z</time>
      </trkpt>
      <trkpt lat="47.21177" lon="6.54591">
        <ele>676</ele>
        <time>2016-10-09T12:02:16Z</time>
      </trkpt>
      <trkpt lat="47.2118" lon="6.5457">
        <ele>677</ele>
        <time>2016-10-09T12:02:22Z</time>
      </trkpt>
      <trkpt lat="47.21181" lon="6.54556">
        <ele>678</ele>
        <time>2016-10-09T12:02:26Z</time>
      </trkpt>
      <trkpt lat="47.21182" lon="6.54537">
        <ele>678</ele>
        <time>2016-10-09T12:02:32Z</time>
      </trkpt>
      <trkpt lat="47.21182" lon="6.54523">
        <ele>677</ele>
        <time>2016-10-09T12:02:36Z</time>
      </trkpt>
      <trkpt lat="47.21185" lon="6.54506">
        <ele>676</ele>
        <time>2016-10-09T12:02:40Z</time>
      </trkpt>
      <trkpt lat="47.21187" lon="6.54485">
        <ele>676</ele>
        <time>2016-10-09T12:02:46Z</time>
      </trkpt>
      <trkpt lat="47.21189" lon="6.54467">
        <ele>677</ele>
        <time>2016-10-09T12:02:52Z</time>
      </trkpt>
      <trkpt lat="47.21194" lon="6.54454">
        <ele>678</ele>
        <time>2016-10-09T12:02:58Z</time>
      </trkpt>
      <trkpt lat="47.21202" lon="6.54441">
        <ele>678</ele>
        <time>2016-10-09T12:03:04Z</time>
      </trkpt>
      <trkpt lat="47.21209" lon="6.54431">
        <ele>679</ele>
        <time>2016-10-09T12:03:08Z</time>
      </trkpt>
      <trkpt lat="47.21216" lon="6.54417">
        <ele>680</ele>
        <time>2016-10-09T12:03:12Z</time>
      </trkpt>
      <trkpt lat="47.21226" lon="6.54404">
        <ele>680</ele>
        <time>2016-10-09T12:03:16Z</time>
      </trkpt>
      <trkpt lat="47.21235" lon="6.54391">
        <ele>681</ele>
        <time>2016-10-09T12:03:20Z</time>
      </trkpt>
      <trkpt lat="47.21245" lon="6.54377">
        <ele>681</ele>
        <time>2016-10-09T12:03:24Z</time>
      </trkpt>
      <trkpt lat="47.21257" lon="6.54363">
        <ele>685</ele>
        <time>2016-10-09T12:03:28Z</time>
      </trkpt>
      <trkpt lat="47.21265" lon="6.54345">
        <ele>684</ele>
        <time>2016-10-09T12:03:32Z</time>
      </trkpt>
      <trkpt lat="47.21275" lon="6.5433">
        <ele>686</ele>
        <time>2016-10-09T12:03:36Z</time>
      </trkpt>
      <trkpt lat="47.21284" lon="6.54317">
        <ele>686</ele>
        <time>2016-10-09T12:03:40Z</time>
      </trkpt>
      <trkpt lat="47.21293" lon="6.54303">
        <ele>687</ele>
        <time>2016-10-09T12:03:44Z</time>
      </trkpt>
      <trkpt lat="47.21302" lon="6.54293">
        <ele>687</ele>
        <time>2016-10-09T12:03:48Z</time>
      </trkpt>
      <trkpt lat="47.21312" lon="6.54285">
        <ele>687</ele>
        <time>2016-10-09T12:03:52Z</time>
      </trkpt>
      <trkpt lat="47.21322" lon="6.54274">
        <ele>688</ele>
        <time>2016-10-09T12:03:56Z</time>
      </trkpt>
      <trkpt lat="47.21331" lon="6.54262">
        <ele>688</ele>
        <time>2016-10-09T12:04:00Z</time>
      </trkpt>
      <trkpt lat="47.21339" lon="6.5425">
        <ele>689</ele>
        <time>2016-10-09T12:04:04Z</time>
      </trkpt>
      <trkpt lat="47.21347" lon="6.54236">
        <ele>690</ele>
        <time>2016-10-09T12:04:08Z</time>
      </trkpt>
      <trkpt lat="47.21354" lon="6.5422">
        <ele>691</ele>
        <time>2016-10-09T12:04:12Z</time>
      </trkpt>
      <trkpt lat="47.21358" lon="6.54203">
        <ele>691</ele>
        <time>2016-10-09T12:04:16Z</time>
      </trkpt>
      <trkpt lat="47.21362" lon="6.54184">
        <ele>691</ele>
        <time>2016-10-09T12:04:20Z</time>
      </trkpt>
      <trkpt lat="47.21366" lon="6.54164">
        <ele>691</ele>
        <time>2016-10-09T12:04:24Z</time>
      </trkpt>
      <trkpt lat="47.2136" lon="6.54184">
        <ele>691</ele>
        <time>2016-10-09T12:05:22Z</time>
      </trkpt>
      <trkpt lat="47.21356" lon="6.54205">
        <ele>691</ele>
        <time>2016-10-09T12:05:26Z</time>
      </trkpt>
      <trkpt lat="47.21355" lon="6.5422">
        <ele>691</ele>
        <time>2016-10-09T12:05:30Z</time>
      </trkpt>
      <trkpt lat="47.21359" lon="6.54203">
        <ele>691</ele>
        <time>2016-10-09T12:05:34Z</time>
      </trkpt>
      <trkpt lat="47.21363" lon="6.54184">
        <ele>691</ele>
        <time>2016-10-09T12:05:38Z</time>
      </trkpt>
      <trkpt lat="47.21361" lon="6.54167">
        <ele>691</ele>
        <time>2016-10-09T12:05:42Z</time>
      </trkpt>
      <trkpt lat="47.21354" lon="6.54154">
        <ele>691</ele>
        <time>2016-10-09T12:05:46Z</time>
      </trkpt>
      <trkpt lat="47.21346" lon="6.54141">
        <ele>691</ele>
        <time>2016-10-09T12:05:50Z</time>
      </trkpt>
      <trkpt lat="47.21336" lon="6.54135">
        <ele>692</ele>
        <time>2016-10-09T12:05:54Z</time>
      </trkpt>
      <trkpt lat="47.21325" lon="6.54126">
        <ele>691</ele>
        <time>2016-10-09T12:05:58Z</time>
      </trkpt>
      <trkpt lat="47.21318" lon="6.54115">
        <ele>692</ele>
        <time>2016-10-09T12:06:02Z</time>
      </trkpt>
      <trkpt lat="47.21308" lon="6.54104">
        <ele>692</ele>
        <time>2016-10-09T12:06:08Z</time>
      </trkpt>
      <trkpt lat="47.21303" lon="6.54087">
        <ele>692</ele>
        <time>2016-10-09T12:06:14Z</time>
      </trkpt>
      <trkpt lat="47.21301" lon="6.54074">
        <ele>695</ele>
        <time>2016-10-09T12:06:18Z</time>
      </trkpt>
      <trkpt lat="47.21301" lon="6.54059">
        <ele>696</ele>
        <time>2016-10-09T12:06:22Z</time>
      </trkpt>
      <trkpt lat="47.21298" lon="6.54042">
        <ele>696</ele>
        <time>2016-10-09T12:06:28Z</time>
      </trkpt>
      <trkpt lat="47.21287" lon="6.54033">
        <ele>696</ele>
        <time>2016-10-09T12:06:34Z</time>
      </trkpt>
      <trkpt lat="47.21273" lon="6.54023">
        <ele>697</ele>
        <time>2016-10-09T12:06:38Z</time>
      </trkpt>
      <trkpt lat="47.21261" lon="6.54013">
        <ele>697</ele>
        <time>2016-10-09T12:06:42Z</time>
      </trkpt>
      <trkpt lat="47.21247" lon="6.54008">
        <ele>697</ele>
        <time>2016-10-09T12:06:46Z</time>
      </trkpt>
      <trkpt lat="47.21232" lon="6.53998">
        <ele>698</ele>
        <time>2016-10-09T12:06:50Z</time>
      </trkpt>
      <trkpt lat="47.21221" lon="6.53981">
        <ele>698</ele>
        <time>2016-10-09T12:06:54Z</time>
      </trkpt>
      <trkpt lat="47.21209" lon="6.53963">
        <ele>698</ele>
        <time>2016-10-09T12:06:58Z</time>
      </trkpt>
      <trkpt lat="47.21194" lon="6.53946">
        <ele>698</ele>
        <time>2016-10-09T12:07:02Z</time>
      </trkpt>
      <trkpt lat="47.21183" lon="6.53934">
        <ele>698</ele>
        <time>2016-10-09T12:07:06Z</time>
      </trkpt>
      <trkpt lat="47.21171" lon="6.5392">
        <ele>698</ele>
        <time>2016-10-09T12:07:10Z</time>
      </trkpt>
      <trkpt lat="47.21163" lon="6.53913">
        <ele>698</ele>
        <time>2016-10-09T12:07:12Z</time>
      </trkpt>
      <trkpt lat="47.21153" lon="6.53907">
        <ele>697</ele>
        <time>2016-10-09T12:07:14Z</time>
      </trkpt>
      <trkpt lat="47.21145" lon="6.53897">
        <ele>696</ele>
        <time>2016-10-09T12:07:20Z</time>
      </trkpt>
      <trkpt lat="47.21155" lon="6.53885">
        <ele>696</ele>
        <time>2016-10-09T12:07:26Z</time>
      </trkpt>
      <trkpt lat="47.2116" lon="6.53871">
        <ele>697</ele>
        <time>2016-10-09T12:07:30Z</time>
      </trkpt>
      <trkpt lat="47.21162" lon="6.53854">
        <ele>697</ele>
        <time>2016-10-09T12:07:34Z</time>
      </trkpt>
      <trkpt lat="47.21167" lon="6.53841">
        <ele>697</ele>
        <time>2016-10-09T12:07:40Z</time>
      </trkpt>
      <trkpt lat="47.21174" lon="6.53832">
        <ele>699</ele>
        <time>2016-10-09T12:07:44Z</time>
      </trkpt>
      <trkpt lat="47.21183" lon="6.53821">
        <ele>699</ele>
        <time>2016-10-09T12:07:48Z</time>
      </trkpt>
      <trkpt lat="47.21195" lon="6.53816">
        <ele>700</ele>
        <time>2016-10-09T12:07:52Z</time>
      </trkpt>
      <trkpt lat="47.21208" lon="6.53807">
        <ele>700</ele>
        <time>2016-10-09T12:07:56Z</time>
      </trkpt>
      <trkpt lat="47.21218" lon="6.53791">
        <ele>700</ele>
        <time>2016-10-09T12:08:00Z</time>
      </trkpt>
      <trkpt lat="47.21227" lon="6.53775">
        <ele>701</ele>
        <time>2016-10-09T12:08:04Z</time>
      </trkpt>
      <trkpt lat="47.21235" lon="6.53759">
        <ele>702</ele>
        <time>2016-10-09T12:08:08Z</time>
      </trkpt>
      <trkpt lat="47.21245" lon="6.53744">
        <ele>702</ele>
        <time>2016-10-09T12:08:12Z</time>
      </trkpt>
      <trkpt lat="47.21258" lon="6.53732">
        <ele>703</ele>
        <time>2016-10-09T12:08:16Z</time>
      </trkpt>
      <trkpt lat="47.21274" lon="6.53725">
        <ele>703</ele>
        <time>2016-10-09T12:08:20Z</time>
      </trkpt>
      <trkpt lat="47.21287" lon="6.53719">
        <ele>703</ele>
        <time>2016-10-09T12:08:24Z</time>
      </trkpt>
      <trkpt lat="47.21297" lon="6.53703">
        <ele>703</ele>
        <time>2016-10-09T12:08:28Z</time>
      </trkpt>
      <trkpt lat="47.21302" lon="6.53679">
        <ele>703</ele>
        <time>2016-10-09T12:08:32Z</time>
      </trkpt>
      <trkpt lat="47.21299" lon="6.53655">
        <ele>704</ele>
        <time>2016-10-09T12:08:36Z</time>
      </trkpt>
      <trkpt lat="47.21296" lon="6.53631">
        <ele>704</ele>
        <time>2016-10-09T12:08:40Z</time>
      </trkpt>
      <trkpt lat="47.21295" lon="6.53617">
        <ele>704</ele>
        <time>2016-10-09T12:08:42Z</time>
      </trkpt>
      <trkpt lat="47.21293" lon="6.53602">
        <ele>704</ele>
        <time>2016-10-09T12:08:44Z</time>
      </trkpt>
      <trkpt lat="47.21293" lon="6.53587">
        <ele>704</ele>
        <time>2016-10-09T12:08:46Z</time>
      </trkpt>
      <trkpt lat="47.21291" lon="6.53572">
        <ele>703</ele>
        <time>2016-10-09T12:08:48Z</time>
      </trkpt>
      <trkpt lat="47.21291" lon="6.53557">
        <ele>703</ele>
        <time>2016-10-09T12:08:50Z</time>
      </trkpt>
      <trkpt lat="47.21292" lon="6.53543">
        <ele>703</ele>
        <time>2016-10-09T12:08:52Z</time>
      </trkpt>
      <trkpt lat="47.21293" lon="6.53528">
        <ele>703</ele>
        <time>2016-10-09T12:08:54Z</time>
      </trkpt>
      <trkpt lat="47.21292" lon="6.53503">
        <ele>703</ele>
        <time>2016-10-09T12:08:58Z</time>
      </trkpt>
      <trkpt lat="47.21294" lon="6.53483">
        <ele>702</ele>
        <time>2016-10-09T12:09:02Z</time>
      </trkpt>
      <trkpt lat="47.21308" lon="6.53474">
        <ele>702</ele>
        <time>2016-10-09T12:09:06Z</time>
      </trkpt>
      <trkpt lat="47.21323" lon="6.53461">
        <ele>702</ele>
        <time>2016-10-09T12:09:10Z</time>
      </trkpt>
      <trkpt lat="47.21336" lon="6.53444">
        <ele>700</ele>
        <time>2016-10-09T12:09:14Z</time>
      </trkpt>
      <trkpt lat="47.21348" lon="6.53427">
        <ele>700</ele>
        <time>2016-10-09T12:09:18Z</time>
      </trkpt>
      <trkpt lat="47.21356" lon="6.53423">
        <ele>699</ele>
        <time>2016-10-09T12:09:20Z</time>
      </trkpt>
      <trkpt lat="47.21367" lon="6.53417">
        <ele>699</ele>
        <time>2016-10-09T12:09:22Z</time>
      </trkpt>
      <trkpt lat="47.2138" lon="6.53413">
        <ele>699</ele>
        <time>2016-10-09T12:09:24Z</time>
      </trkpt>
      <trkpt lat="47.21392" lon="6.53408">
        <ele>698</ele>
        <time>2016-10-09T12:09:26Z</time>
      </trkpt>
      <trkpt lat="47.21404" lon="6.53402">
        <ele>698</ele>
        <time>2016-10-09T12:09:28Z</time>
      </trkpt>
      <trkpt lat="47.21416" lon="6.53399">
        <ele>698</ele>
        <time>2016-10-09T12:09:30Z</time>
      </trkpt>
      <trkpt lat="47.21425" lon="6.534">
        <ele>697</ele>
        <time>2016-10-09T12:09:32Z</time>
      </trkpt>
      <trkpt lat="47.21436" lon="6.5339">
        <ele>697</ele>
        <time>2016-10-09T12:10:14Z</time>
      </trkpt>
      <trkpt lat="47.21446" lon="6.53387">
        <ele>697</ele>
        <time>2016-10-09T12:10:20Z</time>
      </trkpt>
    </trkseg>
  </trk>
</gpx>